<?xml version="1.0" encoding="UTF-8" standalone="no" ?>
<gpx xmlns="http://www.topografix.com/GPX/1/1" xmlns:xsi="http://www.w3.org/2001/XMLSchema-instance" xsi:schemaLocation="http://www.topografix.com/GPX/1/1 http://www.topografix.com/GPX/1/1/gpx.xsd" version="1.1" creator="VisuGPX - https://www.visugpx.com">
  <metadata>
    <name>Randonnée Bois du Roule</name>
    <desc><![CDATA[Circuit au départ de Franqueville St Pierre vers St Jacques avec un retour par le bois du Roule]]></desc>
  </metadata>
  <trk>
    <name><![CDATA[Randonnée Bois du Roule_1]]></name>
    <trkseg>
      <trkpt lat="49.40299" lon="1.17181">
        <ele>151</ele>
        <time>2017-05-09T13:35:20Z</time>
      </trkpt>
      <trkpt lat="49.40304" lon="1.17187">
        <ele>151</ele>
        <time>2017-05-09T13:35:20Z</time>
      </trkpt>
      <trkpt lat="49.40313" lon="1.17197">
        <ele>151</ele>
        <time>2017-05-09T13:35:20Z</time>
      </trkpt>
      <trkpt lat="49.4034" lon="1.17215">
        <ele>151</ele>
        <time>2017-05-09T13:35:20Z</time>
      </trkpt>
      <trkpt lat="49.40349" lon="1.17216">
        <ele>151</ele>
        <time>2017-05-09T13:35:40Z</time>
      </trkpt>
      <trkpt lat="49.40358" lon="1.1724">
        <ele>151</ele>
        <time>2017-05-09T13:35:40Z</time>
      </trkpt>
      <trkpt lat="49.40357" lon="1.17268">
        <ele>151</ele>
        <time>2017-05-09T13:35:40Z</time>
      </trkpt>
      <trkpt lat="49.40366" lon="1.17268">
        <ele>151</ele>
        <time>2017-05-09T13:35:40Z</time>
      </trkpt>
      <trkpt lat="49.40375" lon="1.17268">
        <ele>153</ele>
        <time>2017-05-09T13:35:56Z</time>
      </trkpt>
      <trkpt lat="49.40381" lon="1.17267">
        <ele>153</ele>
        <time>2017-05-09T13:35:56Z</time>
      </trkpt>
      <trkpt lat="49.40387" lon="1.17271">
        <ele>153</ele>
        <time>2017-05-09T13:35:56Z</time>
      </trkpt>
      <trkpt lat="49.40394" lon="1.17271">
        <ele>153</ele>
        <time>2017-05-09T13:35:56Z</time>
      </trkpt>
      <trkpt lat="49.40397" lon="1.1727">
        <ele>153</ele>
        <time>2017-05-09T13:36:12Z</time>
      </trkpt>
      <trkpt lat="49.40401" lon="1.1727">
        <ele>153</ele>
        <time>2017-05-09T13:36:12Z</time>
      </trkpt>
      <trkpt lat="49.40405" lon="1.17268">
        <ele>153</ele>
        <time>2017-05-09T13:36:12Z</time>
      </trkpt>
      <trkpt lat="49.40409" lon="1.17268">
        <ele>153</ele>
        <time>2017-05-09T13:36:12Z</time>
      </trkpt>
      <trkpt lat="49.40413" lon="1.17274">
        <ele>153</ele>
        <time>2017-05-09T13:36:28Z</time>
      </trkpt>
      <trkpt lat="49.40415" lon="1.17285">
        <ele>153</ele>
        <time>2017-05-09T13:36:28Z</time>
      </trkpt>
      <trkpt lat="49.40418" lon="1.17289">
        <ele>153</ele>
        <time>2017-05-09T13:36:28Z</time>
      </trkpt>
      <trkpt lat="49.40422" lon="1.17284">
        <ele>153</ele>
        <time>2017-05-09T13:36:28Z</time>
      </trkpt>
      <trkpt lat="49.40428" lon="1.17283">
        <ele>153</ele>
        <time>2017-05-09T13:36:44Z</time>
      </trkpt>
      <trkpt lat="49.40435" lon="1.17283">
        <ele>153</ele>
        <time>2017-05-09T13:36:44Z</time>
      </trkpt>
      <trkpt lat="49.4044" lon="1.17285">
        <ele>153</ele>
        <time>2017-05-09T13:36:44Z</time>
      </trkpt>
      <trkpt lat="49.40443" lon="1.1729">
        <ele>153</ele>
        <time>2017-05-09T13:36:44Z</time>
      </trkpt>
      <trkpt lat="49.40446" lon="1.17296">
        <ele>153</ele>
        <time>2017-05-09T13:37:00Z</time>
      </trkpt>
      <trkpt lat="49.40449" lon="1.17301">
        <ele>153</ele>
        <time>2017-05-09T13:37:00Z</time>
      </trkpt>
      <trkpt lat="49.40454" lon="1.17307">
        <ele>153</ele>
        <time>2017-05-09T13:37:00Z</time>
      </trkpt>
      <trkpt lat="49.40459" lon="1.17312">
        <ele>156</ele>
        <time>2017-05-09T13:37:00Z</time>
      </trkpt>
      <trkpt lat="49.40463" lon="1.17318">
        <ele>156</ele>
        <time>2017-05-09T13:37:16Z</time>
      </trkpt>
      <trkpt lat="49.40466" lon="1.17323">
        <ele>156</ele>
        <time>2017-05-09T13:37:16Z</time>
      </trkpt>
      <trkpt lat="49.4047" lon="1.17328">
        <ele>156</ele>
        <time>2017-05-09T13:37:16Z</time>
      </trkpt>
      <trkpt lat="49.40474" lon="1.1733">
        <ele>156</ele>
        <time>2017-05-09T13:37:16Z</time>
      </trkpt>
      <trkpt lat="49.40478" lon="1.17334">
        <ele>156</ele>
        <time>2017-05-09T13:37:32Z</time>
      </trkpt>
      <trkpt lat="49.40481" lon="1.17338">
        <ele>156</ele>
        <time>2017-05-09T13:37:32Z</time>
      </trkpt>
      <trkpt lat="49.40485" lon="1.17343">
        <ele>156</ele>
        <time>2017-05-09T13:37:32Z</time>
      </trkpt>
      <trkpt lat="49.40489" lon="1.17347">
        <ele>156</ele>
        <time>2017-05-09T13:37:32Z</time>
      </trkpt>
      <trkpt lat="49.40492" lon="1.17353">
        <ele>156</ele>
        <time>2017-05-09T13:37:48Z</time>
      </trkpt>
      <trkpt lat="49.40497" lon="1.17357">
        <ele>156</ele>
        <time>2017-05-09T13:37:48Z</time>
      </trkpt>
      <trkpt lat="49.40502" lon="1.17356">
        <ele>156</ele>
        <time>2017-05-09T13:37:48Z</time>
      </trkpt>
      <trkpt lat="49.40506" lon="1.1736">
        <ele>156</ele>
        <time>2017-05-09T13:37:48Z</time>
      </trkpt>
      <trkpt lat="49.4051" lon="1.17366">
        <ele>156</ele>
        <time>2017-05-09T13:38:04Z</time>
      </trkpt>
      <trkpt lat="49.40515" lon="1.17371">
        <ele>156</ele>
        <time>2017-05-09T13:38:04Z</time>
      </trkpt>
      <trkpt lat="49.40519" lon="1.17376">
        <ele>156</ele>
        <time>2017-05-09T13:38:04Z</time>
      </trkpt>
      <trkpt lat="49.40523" lon="1.17381">
        <ele>156</ele>
        <time>2017-05-09T13:38:04Z</time>
      </trkpt>
      <trkpt lat="49.40527" lon="1.17385">
        <ele>156</ele>
        <time>2017-05-09T13:38:20Z</time>
      </trkpt>
      <trkpt lat="49.4053" lon="1.1739">
        <ele>156</ele>
        <time>2017-05-09T13:38:20Z</time>
      </trkpt>
      <trkpt lat="49.40535" lon="1.17392">
        <ele>156</ele>
        <time>2017-05-09T13:38:20Z</time>
      </trkpt>
      <trkpt lat="49.40538" lon="1.17398">
        <ele>156</ele>
        <time>2017-05-09T13:38:20Z</time>
      </trkpt>
      <trkpt lat="49.40542" lon="1.17404">
        <ele>158</ele>
        <time>2017-05-09T13:38:36Z</time>
      </trkpt>
      <trkpt lat="49.40545" lon="1.17411">
        <ele>158</ele>
        <time>2017-05-09T13:38:36Z</time>
      </trkpt>
      <trkpt lat="49.40547" lon="1.17416">
        <ele>158</ele>
        <time>2017-05-09T13:38:36Z</time>
      </trkpt>
      <trkpt lat="49.4055" lon="1.17424">
        <ele>158</ele>
        <time>2017-05-09T13:38:36Z</time>
      </trkpt>
      <trkpt lat="49.4055" lon="1.17431">
        <ele>158</ele>
        <time>2017-05-09T13:38:52Z</time>
      </trkpt>
      <trkpt lat="49.40554" lon="1.17435">
        <ele>158</ele>
        <time>2017-05-09T13:38:52Z</time>
      </trkpt>
      <trkpt lat="49.40557" lon="1.17441">
        <ele>158</ele>
        <time>2017-05-09T13:38:52Z</time>
      </trkpt>
      <trkpt lat="49.4056" lon="1.17446">
        <ele>158</ele>
        <time>2017-05-09T13:38:52Z</time>
      </trkpt>
      <trkpt lat="49.40567" lon="1.17446">
        <ele>158</ele>
        <time>2017-05-09T13:39:08Z</time>
      </trkpt>
      <trkpt lat="49.40574" lon="1.17445">
        <ele>158</ele>
        <time>2017-05-09T13:39:08Z</time>
      </trkpt>
      <trkpt lat="49.40579" lon="1.1745">
        <ele>158</ele>
        <time>2017-05-09T13:39:08Z</time>
      </trkpt>
      <trkpt lat="49.40582" lon="1.17459">
        <ele>158</ele>
        <time>2017-05-09T13:39:08Z</time>
      </trkpt>
      <trkpt lat="49.40587" lon="1.17463">
        <ele>158</ele>
        <time>2017-05-09T13:39:24Z</time>
      </trkpt>
      <trkpt lat="49.40593" lon="1.17465">
        <ele>158</ele>
        <time>2017-05-09T13:39:24Z</time>
      </trkpt>
      <trkpt lat="49.40597" lon="1.17469">
        <ele>158</ele>
        <time>2017-05-09T13:39:24Z</time>
      </trkpt>
      <trkpt lat="49.40602" lon="1.17474">
        <ele>158</ele>
        <time>2017-05-09T13:39:24Z</time>
      </trkpt>
      <trkpt lat="49.40606" lon="1.17479">
        <ele>158</ele>
        <time>2017-05-09T13:39:40Z</time>
      </trkpt>
      <trkpt lat="49.4061" lon="1.17484">
        <ele>158</ele>
        <time>2017-05-09T13:39:40Z</time>
      </trkpt>
      <trkpt lat="49.40612" lon="1.17489">
        <ele>158</ele>
        <time>2017-05-09T13:39:40Z</time>
      </trkpt>
      <trkpt lat="49.40615" lon="1.17493">
        <ele>158</ele>
        <time>2017-05-09T13:39:40Z</time>
      </trkpt>
      <trkpt lat="49.40619" lon="1.17495">
        <ele>158</ele>
        <time>2017-05-09T13:39:56Z</time>
      </trkpt>
      <trkpt lat="49.40624" lon="1.17497">
        <ele>158</ele>
        <time>2017-05-09T13:39:56Z</time>
      </trkpt>
      <trkpt lat="49.40628" lon="1.175">
        <ele>159</ele>
        <time>2017-05-09T13:39:56Z</time>
      </trkpt>
      <trkpt lat="49.40633" lon="1.17503">
        <ele>159</ele>
        <time>2017-05-09T13:39:56Z</time>
      </trkpt>
      <trkpt lat="49.40638" lon="1.17505">
        <ele>159</ele>
        <time>2017-05-09T13:40:12Z</time>
      </trkpt>
      <trkpt lat="49.40642" lon="1.17512">
        <ele>159</ele>
        <time>2017-05-09T13:40:12Z</time>
      </trkpt>
      <trkpt lat="49.40646" lon="1.17519">
        <ele>159</ele>
        <time>2017-05-09T13:40:12Z</time>
      </trkpt>
      <trkpt lat="49.40649" lon="1.17525">
        <ele>159</ele>
        <time>2017-05-09T13:40:12Z</time>
      </trkpt>
      <trkpt lat="49.40654" lon="1.17528">
        <ele>159</ele>
        <time>2017-05-09T13:40:28Z</time>
      </trkpt>
      <trkpt lat="49.40656" lon="1.17538">
        <ele>159</ele>
        <time>2017-05-09T13:40:28Z</time>
      </trkpt>
      <trkpt lat="49.40661" lon="1.17543">
        <ele>158</ele>
        <time>2017-05-09T13:40:28Z</time>
      </trkpt>
      <trkpt lat="49.40667" lon="1.17547">
        <ele>158</ele>
        <time>2017-05-09T13:40:28Z</time>
      </trkpt>
      <trkpt lat="49.40671" lon="1.17555">
        <ele>158</ele>
        <time>2017-05-09T13:41:00Z</time>
      </trkpt>
      <trkpt lat="49.40679" lon="1.17554">
        <ele>158</ele>
        <time>2017-05-09T13:41:00Z</time>
      </trkpt>
      <trkpt lat="49.40691" lon="1.17564">
        <ele>158</ele>
        <time>2017-05-09T13:41:00Z</time>
      </trkpt>
      <trkpt lat="49.40697" lon="1.17577">
        <ele>158</ele>
        <time>2017-05-09T13:41:00Z</time>
      </trkpt>
      <trkpt lat="49.40702" lon="1.17588">
        <ele>158</ele>
        <time>2017-05-09T13:41:16Z</time>
      </trkpt>
      <trkpt lat="49.40701" lon="1.17602">
        <ele>158</ele>
        <time>2017-05-09T13:41:16Z</time>
      </trkpt>
      <trkpt lat="49.40706" lon="1.17608">
        <ele>158</ele>
        <time>2017-05-09T13:41:16Z</time>
      </trkpt>
      <trkpt lat="49.4071" lon="1.17611">
        <ele>158</ele>
        <time>2017-05-09T13:41:16Z</time>
      </trkpt>
      <trkpt lat="49.40716" lon="1.17608">
        <ele>158</ele>
        <time>2017-05-09T13:41:32Z</time>
      </trkpt>
      <trkpt lat="49.40722" lon="1.17609">
        <ele>158</ele>
        <time>2017-05-09T13:41:32Z</time>
      </trkpt>
      <trkpt lat="49.40728" lon="1.17611">
        <ele>158</ele>
        <time>2017-05-09T13:41:32Z</time>
      </trkpt>
      <trkpt lat="49.40733" lon="1.17612">
        <ele>158</ele>
        <time>2017-05-09T13:41:32Z</time>
      </trkpt>
      <trkpt lat="49.40736" lon="1.17622">
        <ele>158</ele>
        <time>2017-05-09T13:41:48Z</time>
      </trkpt>
      <trkpt lat="49.4074" lon="1.1763">
        <ele>157</ele>
        <time>2017-05-09T13:41:48Z</time>
      </trkpt>
      <trkpt lat="49.40743" lon="1.17634">
        <ele>157</ele>
        <time>2017-05-09T13:41:48Z</time>
      </trkpt>
      <trkpt lat="49.40746" lon="1.17637">
        <ele>157</ele>
        <time>2017-05-09T13:41:48Z</time>
      </trkpt>
      <trkpt lat="49.40749" lon="1.17643">
        <ele>157</ele>
        <time>2017-05-09T13:43:04Z</time>
      </trkpt>
      <trkpt lat="49.40822" lon="1.17599">
        <ele>157</ele>
        <time>2017-05-09T13:43:04Z</time>
      </trkpt>
      <trkpt lat="49.40818" lon="1.17587">
        <ele>157</ele>
        <time>2017-05-09T13:43:04Z</time>
      </trkpt>
      <trkpt lat="49.40824" lon="1.17561">
        <ele>157</ele>
        <time>2017-05-09T13:43:04Z</time>
      </trkpt>
      <trkpt lat="49.40846" lon="1.17559">
        <ele>157</ele>
        <time>2017-05-09T13:43:20Z</time>
      </trkpt>
      <trkpt lat="49.40848" lon="1.17552">
        <ele>157</ele>
        <time>2017-05-09T13:43:21Z</time>
      </trkpt>
      <trkpt lat="49.40846" lon="1.1754">
        <ele>157</ele>
        <time>2017-05-09T13:43:21Z</time>
      </trkpt>
      <trkpt lat="49.40848" lon="1.17534">
        <ele>157</ele>
        <time>2017-05-09T13:43:21Z</time>
      </trkpt>
      <trkpt lat="49.40852" lon="1.17529">
        <ele>157</ele>
        <time>2017-05-09T13:43:36Z</time>
      </trkpt>
      <trkpt lat="49.40855" lon="1.17525">
        <ele>157</ele>
        <time>2017-05-09T13:43:36Z</time>
      </trkpt>
      <trkpt lat="49.40857" lon="1.17518">
        <ele>157</ele>
        <time>2017-05-09T13:43:36Z</time>
      </trkpt>
      <trkpt lat="49.40862" lon="1.17513">
        <ele>157</ele>
        <time>2017-05-09T13:43:36Z</time>
      </trkpt>
      <trkpt lat="49.40865" lon="1.17508">
        <ele>157</ele>
        <time>2017-05-09T13:43:52Z</time>
      </trkpt>
      <trkpt lat="49.40871" lon="1.17504">
        <ele>157</ele>
        <time>2017-05-09T13:43:52Z</time>
      </trkpt>
      <trkpt lat="49.4088" lon="1.17505">
        <ele>157</ele>
        <time>2017-05-09T13:43:52Z</time>
      </trkpt>
      <trkpt lat="49.40885" lon="1.17501">
        <ele>157</ele>
        <time>2017-05-09T13:43:52Z</time>
      </trkpt>
      <trkpt lat="49.40888" lon="1.17496">
        <ele>157</ele>
        <time>2017-05-09T13:44:08Z</time>
      </trkpt>
      <trkpt lat="49.4089" lon="1.17488">
        <ele>157</ele>
        <time>2017-05-09T13:44:08Z</time>
      </trkpt>
      <trkpt lat="49.40891" lon="1.17486">
        <ele>157</ele>
        <time>2017-05-09T13:44:08Z</time>
      </trkpt>
      <trkpt lat="49.4089" lon="1.17474">
        <ele>157</ele>
        <time>2017-05-09T13:44:08Z</time>
      </trkpt>
      <trkpt lat="49.40888" lon="1.17468">
        <ele>157</ele>
        <time>2017-05-09T13:44:24Z</time>
      </trkpt>
      <trkpt lat="49.40891" lon="1.17459">
        <ele>157</ele>
        <time>2017-05-09T13:44:24Z</time>
      </trkpt>
      <trkpt lat="49.4089" lon="1.17451">
        <ele>158</ele>
        <time>2017-05-09T13:44:24Z</time>
      </trkpt>
      <trkpt lat="49.40888" lon="1.17442">
        <ele>158</ele>
        <time>2017-05-09T13:44:24Z</time>
      </trkpt>
      <trkpt lat="49.40886" lon="1.17434">
        <ele>158</ele>
        <time>2017-05-09T13:44:40Z</time>
      </trkpt>
      <trkpt lat="49.40888" lon="1.17427">
        <ele>158</ele>
        <time>2017-05-09T13:44:40Z</time>
      </trkpt>
      <trkpt lat="49.40895" lon="1.17423">
        <ele>158</ele>
        <time>2017-05-09T13:44:40Z</time>
      </trkpt>
      <trkpt lat="49.409" lon="1.17418">
        <ele>158</ele>
        <time>2017-05-09T13:44:40Z</time>
      </trkpt>
      <trkpt lat="49.40903" lon="1.17415">
        <ele>158</ele>
        <time>2017-05-09T13:44:56Z</time>
      </trkpt>
      <trkpt lat="49.40904" lon="1.17411">
        <ele>158</ele>
        <time>2017-05-09T13:44:56Z</time>
      </trkpt>
      <trkpt lat="49.40929" lon="1.1743">
        <ele>158</ele>
        <time>2017-05-09T13:44:56Z</time>
      </trkpt>
      <trkpt lat="49.40933" lon="1.17434">
        <ele>158</ele>
        <time>2017-05-09T13:44:56Z</time>
      </trkpt>
      <trkpt lat="49.40936" lon="1.17441">
        <ele>158</ele>
        <time>2017-05-09T13:45:12Z</time>
      </trkpt>
      <trkpt lat="49.4094" lon="1.17446">
        <ele>158</ele>
        <time>2017-05-09T13:45:12Z</time>
      </trkpt>
      <trkpt lat="49.40946" lon="1.17448">
        <ele>158</ele>
        <time>2017-05-09T13:45:12Z</time>
      </trkpt>
      <trkpt lat="49.40951" lon="1.1745">
        <ele>158</ele>
        <time>2017-05-09T13:45:12Z</time>
      </trkpt>
      <trkpt lat="49.40957" lon="1.17455">
        <ele>158</ele>
        <time>2017-05-09T13:45:28Z</time>
      </trkpt>
      <trkpt lat="49.40959" lon="1.17463">
        <ele>154</ele>
        <time>2017-05-09T13:45:28Z</time>
      </trkpt>
      <trkpt lat="49.40962" lon="1.17468">
        <ele>154</ele>
        <time>2017-05-09T13:45:28Z</time>
      </trkpt>
      <trkpt lat="49.40964" lon="1.17477">
        <ele>154</ele>
        <time>2017-05-09T13:45:28Z</time>
      </trkpt>
      <trkpt lat="49.40969" lon="1.17479">
        <ele>154</ele>
        <time>2017-05-09T13:45:44Z</time>
      </trkpt>
      <trkpt lat="49.40974" lon="1.17483">
        <ele>154</ele>
        <time>2017-05-09T13:45:44Z</time>
      </trkpt>
      <trkpt lat="49.40978" lon="1.17488">
        <ele>154</ele>
        <time>2017-05-09T13:45:44Z</time>
      </trkpt>
      <trkpt lat="49.40982" lon="1.17495">
        <ele>154</ele>
        <time>2017-05-09T13:45:44Z</time>
      </trkpt>
      <trkpt lat="49.40985" lon="1.17505">
        <ele>154</ele>
        <time>2017-05-09T13:46:04Z</time>
      </trkpt>
      <trkpt lat="49.40989" lon="1.17509">
        <ele>154</ele>
        <time>2017-05-09T13:46:04Z</time>
      </trkpt>
      <trkpt lat="49.40988" lon="1.17516">
        <ele>154</ele>
        <time>2017-05-09T13:46:04Z</time>
      </trkpt>
      <trkpt lat="49.40986" lon="1.17528">
        <ele>154</ele>
        <time>2017-05-09T13:46:04Z</time>
      </trkpt>
      <trkpt lat="49.40991" lon="1.17535">
        <ele>154</ele>
        <time>2017-05-09T13:46:20Z</time>
      </trkpt>
      <trkpt lat="49.40996" lon="1.17541">
        <ele>154</ele>
        <time>2017-05-09T13:46:20Z</time>
      </trkpt>
      <trkpt lat="49.41003" lon="1.17548">
        <ele>153</ele>
        <time>2017-05-09T13:46:20Z</time>
      </trkpt>
      <trkpt lat="49.41011" lon="1.17551">
        <ele>153</ele>
        <time>2017-05-09T13:46:20Z</time>
      </trkpt>
      <trkpt lat="49.41016" lon="1.17558">
        <ele>153</ele>
        <time>2017-05-09T13:46:36Z</time>
      </trkpt>
      <trkpt lat="49.41022" lon="1.17562">
        <ele>153</ele>
        <time>2017-05-09T13:46:36Z</time>
      </trkpt>
      <trkpt lat="49.41027" lon="1.17565">
        <ele>153</ele>
        <time>2017-05-09T13:46:36Z</time>
      </trkpt>
      <trkpt lat="49.41033" lon="1.17564">
        <ele>153</ele>
        <time>2017-05-09T13:46:36Z</time>
      </trkpt>
      <trkpt lat="49.41036" lon="1.17571">
        <ele>153</ele>
        <time>2017-05-09T13:46:52Z</time>
      </trkpt>
      <trkpt lat="49.41038" lon="1.17583">
        <ele>153</ele>
        <time>2017-05-09T13:46:52Z</time>
      </trkpt>
      <trkpt lat="49.41041" lon="1.17592">
        <ele>153</ele>
        <time>2017-05-09T13:46:52Z</time>
      </trkpt>
      <trkpt lat="49.41047" lon="1.17597">
        <ele>149</ele>
        <time>2017-05-09T13:46:52Z</time>
      </trkpt>
      <trkpt lat="49.41051" lon="1.17604">
        <ele>149</ele>
        <time>2017-05-09T13:47:08Z</time>
      </trkpt>
      <trkpt lat="49.41055" lon="1.17609">
        <ele>149</ele>
        <time>2017-05-09T13:47:08Z</time>
      </trkpt>
      <trkpt lat="49.41059" lon="1.17614">
        <ele>149</ele>
        <time>2017-05-09T13:47:08Z</time>
      </trkpt>
      <trkpt lat="49.41065" lon="1.17618">
        <ele>149</ele>
        <time>2017-05-09T13:47:08Z</time>
      </trkpt>
      <trkpt lat="49.41068" lon="1.17622">
        <ele>149</ele>
        <time>2017-05-09T13:47:24Z</time>
      </trkpt>
      <trkpt lat="49.41072" lon="1.1763">
        <ele>148</ele>
        <time>2017-05-09T13:47:24Z</time>
      </trkpt>
      <trkpt lat="49.41078" lon="1.17632">
        <ele>148</ele>
        <time>2017-05-09T13:47:24Z</time>
      </trkpt>
      <trkpt lat="49.41084" lon="1.1763">
        <ele>148</ele>
        <time>2017-05-09T13:47:24Z</time>
      </trkpt>
      <trkpt lat="49.41089" lon="1.17635">
        <ele>148</ele>
        <time>2017-05-09T13:47:40Z</time>
      </trkpt>
      <trkpt lat="49.41092" lon="1.17647">
        <ele>148</ele>
        <time>2017-05-09T13:47:40Z</time>
      </trkpt>
      <trkpt lat="49.41092" lon="1.17658">
        <ele>148</ele>
        <time>2017-05-09T13:47:40Z</time>
      </trkpt>
      <trkpt lat="49.41096" lon="1.17665">
        <ele>148</ele>
        <time>2017-05-09T13:47:40Z</time>
      </trkpt>
      <trkpt lat="49.41098" lon="1.17675">
        <ele>148</ele>
        <time>2017-05-09T13:47:56Z</time>
      </trkpt>
      <trkpt lat="49.41095" lon="1.17685">
        <ele>148</ele>
        <time>2017-05-09T13:47:56Z</time>
      </trkpt>
      <trkpt lat="49.41093" lon="1.17693">
        <ele>148</ele>
        <time>2017-05-09T13:47:56Z</time>
      </trkpt>
      <trkpt lat="49.41096" lon="1.17698">
        <ele>148</ele>
        <time>2017-05-09T13:47:56Z</time>
      </trkpt>
      <trkpt lat="49.41103" lon="1.17699">
        <ele>148</ele>
        <time>2017-05-09T13:48:12Z</time>
      </trkpt>
      <trkpt lat="49.4111" lon="1.17702">
        <ele>148</ele>
        <time>2017-05-09T13:48:12Z</time>
      </trkpt>
      <trkpt lat="49.41113" lon="1.17712">
        <ele>148</ele>
        <time>2017-05-09T13:48:12Z</time>
      </trkpt>
      <trkpt lat="49.41113" lon="1.17722">
        <ele>148</ele>
        <time>2017-05-09T13:48:12Z</time>
      </trkpt>
      <trkpt lat="49.41114" lon="1.17729">
        <ele>148</ele>
        <time>2017-05-09T13:48:28Z</time>
      </trkpt>
      <trkpt lat="49.41116" lon="1.17737">
        <ele>148</ele>
        <time>2017-05-09T13:48:28Z</time>
      </trkpt>
      <trkpt lat="49.41119" lon="1.17745">
        <ele>148</ele>
        <time>2017-05-09T13:48:28Z</time>
      </trkpt>
      <trkpt lat="49.41125" lon="1.17749">
        <ele>148</ele>
        <time>2017-05-09T13:48:28Z</time>
      </trkpt>
      <trkpt lat="49.41129" lon="1.17752">
        <ele>145</ele>
        <time>2017-05-09T13:48:44Z</time>
      </trkpt>
      <trkpt lat="49.41128" lon="1.17761">
        <ele>145</ele>
        <time>2017-05-09T13:48:44Z</time>
      </trkpt>
      <trkpt lat="49.41127" lon="1.17771">
        <ele>145</ele>
        <time>2017-05-09T13:48:44Z</time>
      </trkpt>
      <trkpt lat="49.41131" lon="1.17781">
        <ele>145</ele>
        <time>2017-05-09T13:48:44Z</time>
      </trkpt>
      <trkpt lat="49.41136" lon="1.17788">
        <ele>145</ele>
        <time>2017-05-09T13:49:00Z</time>
      </trkpt>
      <trkpt lat="49.4114" lon="1.17793">
        <ele>144</ele>
        <time>2017-05-09T13:49:00Z</time>
      </trkpt>
      <trkpt lat="49.41143" lon="1.178">
        <ele>144</ele>
        <time>2017-05-09T13:49:00Z</time>
      </trkpt>
      <trkpt lat="49.41146" lon="1.17806">
        <ele>144</ele>
        <time>2017-05-09T13:49:00Z</time>
      </trkpt>
      <trkpt lat="49.41149" lon="1.17812">
        <ele>144</ele>
        <time>2017-05-09T13:49:16Z</time>
      </trkpt>
      <trkpt lat="49.41153" lon="1.17816">
        <ele>144</ele>
        <time>2017-05-09T13:49:16Z</time>
      </trkpt>
      <trkpt lat="49.41156" lon="1.17821">
        <ele>144</ele>
        <time>2017-05-09T13:49:16Z</time>
      </trkpt>
      <trkpt lat="49.41161" lon="1.17822">
        <ele>144</ele>
        <time>2017-05-09T13:49:16Z</time>
      </trkpt>
      <trkpt lat="49.41166" lon="1.17825">
        <ele>144</ele>
        <time>2017-05-09T13:49:32Z</time>
      </trkpt>
      <trkpt lat="49.41169" lon="1.17833">
        <ele>144</ele>
        <time>2017-05-09T13:49:32Z</time>
      </trkpt>
      <trkpt lat="49.41173" lon="1.17838">
        <ele>144</ele>
        <time>2017-05-09T13:49:32Z</time>
      </trkpt>
      <trkpt lat="49.41177" lon="1.17842">
        <ele>144</ele>
        <time>2017-05-09T13:49:32Z</time>
      </trkpt>
      <trkpt lat="49.41181" lon="1.17847">
        <ele>144</ele>
        <time>2017-05-09T13:49:48Z</time>
      </trkpt>
      <trkpt lat="49.41183" lon="1.17855">
        <ele>144</ele>
        <time>2017-05-09T13:49:48Z</time>
      </trkpt>
      <trkpt lat="49.41186" lon="1.17861">
        <ele>144</ele>
        <time>2017-05-09T13:49:48Z</time>
      </trkpt>
      <trkpt lat="49.41192" lon="1.17864">
        <ele>144</ele>
        <time>2017-05-09T13:49:48Z</time>
      </trkpt>
      <trkpt lat="49.41197" lon="1.17868">
        <ele>144</ele>
        <time>2017-05-09T13:50:04Z</time>
      </trkpt>
      <trkpt lat="49.41203" lon="1.1787">
        <ele>144</ele>
        <time>2017-05-09T13:50:04Z</time>
      </trkpt>
      <trkpt lat="49.41209" lon="1.1787">
        <ele>143</ele>
        <time>2017-05-09T13:50:04Z</time>
      </trkpt>
      <trkpt lat="49.41214" lon="1.17872">
        <ele>143</ele>
        <time>2017-05-09T13:50:04Z</time>
      </trkpt>
      <trkpt lat="49.41218" lon="1.17875">
        <ele>142</ele>
        <time>2017-05-09T13:50:20Z</time>
      </trkpt>
      <trkpt lat="49.41223" lon="1.17876">
        <ele>142</ele>
        <time>2017-05-09T13:50:20Z</time>
      </trkpt>
      <trkpt lat="49.41227" lon="1.1788">
        <ele>142</ele>
        <time>2017-05-09T13:50:20Z</time>
      </trkpt>
      <trkpt lat="49.41232" lon="1.17883">
        <ele>142</ele>
        <time>2017-05-09T13:50:20Z</time>
      </trkpt>
      <trkpt lat="49.41236" lon="1.17887">
        <ele>142</ele>
        <time>2017-05-09T13:50:36Z</time>
      </trkpt>
      <trkpt lat="49.41238" lon="1.17894">
        <ele>142</ele>
        <time>2017-05-09T13:50:36Z</time>
      </trkpt>
      <trkpt lat="49.41241" lon="1.17901">
        <ele>142</ele>
        <time>2017-05-09T13:50:36Z</time>
      </trkpt>
      <trkpt lat="49.41245" lon="1.17905">
        <ele>142</ele>
        <time>2017-05-09T13:50:36Z</time>
      </trkpt>
      <trkpt lat="49.41248" lon="1.1791">
        <ele>142</ele>
        <time>2017-05-09T13:50:52Z</time>
      </trkpt>
      <trkpt lat="49.41251" lon="1.17914">
        <ele>142</ele>
        <time>2017-05-09T13:50:52Z</time>
      </trkpt>
      <trkpt lat="49.41256" lon="1.17913">
        <ele>142</ele>
        <time>2017-05-09T13:50:52Z</time>
      </trkpt>
      <trkpt lat="49.41261" lon="1.17915">
        <ele>142</ele>
        <time>2017-05-09T13:50:52Z</time>
      </trkpt>
      <trkpt lat="49.41266" lon="1.17917">
        <ele>142</ele>
        <time>2017-05-09T13:51:08Z</time>
      </trkpt>
      <trkpt lat="49.41269" lon="1.17923">
        <ele>142</ele>
        <time>2017-05-09T13:51:08Z</time>
      </trkpt>
      <trkpt lat="49.41271" lon="1.1793">
        <ele>142</ele>
        <time>2017-05-09T13:51:08Z</time>
      </trkpt>
      <trkpt lat="49.41274" lon="1.17936">
        <ele>142</ele>
        <time>2017-05-09T13:51:08Z</time>
      </trkpt>
      <trkpt lat="49.41277" lon="1.17942">
        <ele>142</ele>
        <time>2017-05-09T13:51:24Z</time>
      </trkpt>
      <trkpt lat="49.4128" lon="1.17951">
        <ele>142</ele>
        <time>2017-05-09T13:51:24Z</time>
      </trkpt>
      <trkpt lat="49.41285" lon="1.17959">
        <ele>141</ele>
        <time>2017-05-09T13:51:24Z</time>
      </trkpt>
      <trkpt lat="49.41289" lon="1.17965">
        <ele>141</ele>
        <time>2017-05-09T13:51:24Z</time>
      </trkpt>
      <trkpt lat="49.41295" lon="1.17968">
        <ele>139</ele>
        <time>2017-05-09T13:51:40Z</time>
      </trkpt>
      <trkpt lat="49.41298" lon="1.17974">
        <ele>139</ele>
        <time>2017-05-09T13:51:40Z</time>
      </trkpt>
      <trkpt lat="49.41302" lon="1.17981">
        <ele>139</ele>
        <time>2017-05-09T13:51:40Z</time>
      </trkpt>
      <trkpt lat="49.41306" lon="1.17987">
        <ele>139</ele>
        <time>2017-05-09T13:51:40Z</time>
      </trkpt>
      <trkpt lat="49.41308" lon="1.17995">
        <ele>139</ele>
        <time>2017-05-09T13:51:56Z</time>
      </trkpt>
      <trkpt lat="49.41313" lon="1.18001">
        <ele>139</ele>
        <time>2017-05-09T13:51:56Z</time>
      </trkpt>
      <trkpt lat="49.41317" lon="1.18004">
        <ele>139</ele>
        <time>2017-05-09T13:51:56Z</time>
      </trkpt>
      <trkpt lat="49.41322" lon="1.18008">
        <ele>139</ele>
        <time>2017-05-09T13:51:56Z</time>
      </trkpt>
      <trkpt lat="49.41328" lon="1.18012">
        <ele>139</ele>
        <time>2017-05-09T13:52:12Z</time>
      </trkpt>
      <trkpt lat="49.41333" lon="1.18016">
        <ele>139</ele>
        <time>2017-05-09T13:52:12Z</time>
      </trkpt>
      <trkpt lat="49.41339" lon="1.1802">
        <ele>139</ele>
        <time>2017-05-09T13:52:12Z</time>
      </trkpt>
      <trkpt lat="49.41342" lon="1.18026">
        <ele>139</ele>
        <time>2017-05-09T13:52:12Z</time>
      </trkpt>
      <trkpt lat="49.41344" lon="1.18034">
        <ele>139</ele>
        <time>2017-05-09T13:52:28Z</time>
      </trkpt>
      <trkpt lat="49.41347" lon="1.18038">
        <ele>139</ele>
        <time>2017-05-09T13:52:28Z</time>
      </trkpt>
      <trkpt lat="49.4135" lon="1.18043">
        <ele>139</ele>
        <time>2017-05-09T13:52:28Z</time>
      </trkpt>
      <trkpt lat="49.41355" lon="1.18048">
        <ele>139</ele>
        <time>2017-05-09T13:52:28Z</time>
      </trkpt>
      <trkpt lat="49.41359" lon="1.18053">
        <ele>139</ele>
        <time>2017-05-09T13:52:44Z</time>
      </trkpt>
      <trkpt lat="49.41364" lon="1.18057">
        <ele>139</ele>
        <time>2017-05-09T13:52:44Z</time>
      </trkpt>
      <trkpt lat="49.41368" lon="1.18063">
        <ele>139</ele>
        <time>2017-05-09T13:52:44Z</time>
      </trkpt>
      <trkpt lat="49.41373" lon="1.18068">
        <ele>139</ele>
        <time>2017-05-09T13:52:44Z</time>
      </trkpt>
      <trkpt lat="49.41376" lon="1.18075">
        <ele>140</ele>
        <time>2017-05-09T13:53:00Z</time>
      </trkpt>
      <trkpt lat="49.41382" lon="1.18077">
        <ele>140</ele>
        <time>2017-05-09T13:53:00Z</time>
      </trkpt>
      <trkpt lat="49.41387" lon="1.18074">
        <ele>140</ele>
        <time>2017-05-09T13:53:00Z</time>
      </trkpt>
      <trkpt lat="49.41393" lon="1.18072">
        <ele>140</ele>
        <time>2017-05-09T13:53:00Z</time>
      </trkpt>
      <trkpt lat="49.41399" lon="1.18075">
        <ele>140</ele>
        <time>2017-05-09T13:53:16Z</time>
      </trkpt>
      <trkpt lat="49.41404" lon="1.18082">
        <ele>140</ele>
        <time>2017-05-09T13:53:16Z</time>
      </trkpt>
      <trkpt lat="49.41408" lon="1.18084">
        <ele>140</ele>
        <time>2017-05-09T13:53:16Z</time>
      </trkpt>
      <trkpt lat="49.41411" lon="1.18086">
        <ele>140</ele>
        <time>2017-05-09T13:53:16Z</time>
      </trkpt>
      <trkpt lat="49.41415" lon="1.18087">
        <ele>140</ele>
        <time>2017-05-09T13:53:32Z</time>
      </trkpt>
      <trkpt lat="49.41419" lon="1.18088">
        <ele>140</ele>
        <time>2017-05-09T13:53:32Z</time>
      </trkpt>
      <trkpt lat="49.41422" lon="1.18096">
        <ele>140</ele>
        <time>2017-05-09T13:53:32Z</time>
      </trkpt>
      <trkpt lat="49.41428" lon="1.18101">
        <ele>140</ele>
        <time>2017-05-09T13:53:32Z</time>
      </trkpt>
      <trkpt lat="49.41434" lon="1.18107">
        <ele>140</ele>
        <time>2017-05-09T13:53:48Z</time>
      </trkpt>
      <trkpt lat="49.41439" lon="1.18112">
        <ele>140</ele>
        <time>2017-05-09T13:53:48Z</time>
      </trkpt>
      <trkpt lat="49.41443" lon="1.18116">
        <ele>140</ele>
        <time>2017-05-09T13:53:48Z</time>
      </trkpt>
      <trkpt lat="49.41444" lon="1.18126">
        <ele>136</ele>
        <time>2017-05-09T13:53:48Z</time>
      </trkpt>
      <trkpt lat="49.41449" lon="1.18133">
        <ele>136</ele>
        <time>2017-05-09T13:54:04Z</time>
      </trkpt>
      <trkpt lat="49.41453" lon="1.18141">
        <ele>136</ele>
        <time>2017-05-09T13:54:04Z</time>
      </trkpt>
      <trkpt lat="49.41457" lon="1.18147">
        <ele>136</ele>
        <time>2017-05-09T13:54:04Z</time>
      </trkpt>
      <trkpt lat="49.4146" lon="1.18155">
        <ele>133</ele>
        <time>2017-05-09T13:54:04Z</time>
      </trkpt>
      <trkpt lat="49.41465" lon="1.18159">
        <ele>133</ele>
        <time>2017-05-09T13:54:20Z</time>
      </trkpt>
      <trkpt lat="49.41472" lon="1.18159">
        <ele>133</ele>
        <time>2017-05-09T13:54:20Z</time>
      </trkpt>
      <trkpt lat="49.41478" lon="1.18158">
        <ele>133</ele>
        <time>2017-05-09T13:54:20Z</time>
      </trkpt>
      <trkpt lat="49.41482" lon="1.1817">
        <ele>133</ele>
        <time>2017-05-09T13:54:20Z</time>
      </trkpt>
      <trkpt lat="49.41484" lon="1.18179">
        <ele>133</ele>
        <time>2017-05-09T13:54:36Z</time>
      </trkpt>
      <trkpt lat="49.41487" lon="1.18187">
        <ele>133</ele>
        <time>2017-05-09T13:54:36Z</time>
      </trkpt>
      <trkpt lat="49.41491" lon="1.18191">
        <ele>133</ele>
        <time>2017-05-09T13:54:36Z</time>
      </trkpt>
      <trkpt lat="49.41496" lon="1.18194">
        <ele>133</ele>
        <time>2017-05-09T13:54:36Z</time>
      </trkpt>
      <trkpt lat="49.41504" lon="1.18197">
        <ele>133</ele>
        <time>2017-05-09T13:54:52Z</time>
      </trkpt>
      <trkpt lat="49.4151" lon="1.18198">
        <ele>133</ele>
        <time>2017-05-09T13:54:52Z</time>
      </trkpt>
      <trkpt lat="49.41517" lon="1.182">
        <ele>133</ele>
        <time>2017-05-09T13:54:52Z</time>
      </trkpt>
      <trkpt lat="49.41521" lon="1.18204">
        <ele>133</ele>
        <time>2017-05-09T13:54:52Z</time>
      </trkpt>
      <trkpt lat="49.41523" lon="1.1821">
        <ele>125</ele>
        <time>2017-05-09T13:55:08Z</time>
      </trkpt>
      <trkpt lat="49.41526" lon="1.18217">
        <ele>125</ele>
        <time>2017-05-09T13:55:08Z</time>
      </trkpt>
      <trkpt lat="49.41528" lon="1.18222">
        <ele>125</ele>
        <time>2017-05-09T13:55:08Z</time>
      </trkpt>
      <trkpt lat="49.41531" lon="1.18224">
        <ele>125</ele>
        <time>2017-05-09T13:55:08Z</time>
      </trkpt>
      <trkpt lat="49.41533" lon="1.18228">
        <ele>125</ele>
        <time>2017-05-09T13:55:24Z</time>
      </trkpt>
      <trkpt lat="49.41537" lon="1.18231">
        <ele>125</ele>
        <time>2017-05-09T13:55:24Z</time>
      </trkpt>
      <trkpt lat="49.41544" lon="1.18229">
        <ele>111</ele>
        <time>2017-05-09T13:55:24Z</time>
      </trkpt>
      <trkpt lat="49.41551" lon="1.1823">
        <ele>111</ele>
        <time>2017-05-09T13:55:24Z</time>
      </trkpt>
      <trkpt lat="49.41556" lon="1.18236">
        <ele>111</ele>
        <time>2017-05-09T13:55:40Z</time>
      </trkpt>
      <trkpt lat="49.41561" lon="1.18242">
        <ele>111</ele>
        <time>2017-05-09T13:55:40Z</time>
      </trkpt>
      <trkpt lat="49.41566" lon="1.18245">
        <ele>111</ele>
        <time>2017-05-09T13:55:40Z</time>
      </trkpt>
      <trkpt lat="49.41572" lon="1.18246">
        <ele>111</ele>
        <time>2017-05-09T13:55:40Z</time>
      </trkpt>
      <trkpt lat="49.41575" lon="1.1825">
        <ele>111</ele>
        <time>2017-05-09T13:55:56Z</time>
      </trkpt>
      <trkpt lat="49.4158" lon="1.18253">
        <ele>111</ele>
        <time>2017-05-09T13:55:56Z</time>
      </trkpt>
      <trkpt lat="49.41584" lon="1.18257">
        <ele>111</ele>
        <time>2017-05-09T13:55:56Z</time>
      </trkpt>
      <trkpt lat="49.41589" lon="1.18254">
        <ele>111</ele>
        <time>2017-05-09T13:55:56Z</time>
      </trkpt>
      <trkpt lat="49.41593" lon="1.18256">
        <ele>111</ele>
        <time>2017-05-09T13:56:12Z</time>
      </trkpt>
      <trkpt lat="49.41597" lon="1.18261">
        <ele>111</ele>
        <time>2017-05-09T13:56:12Z</time>
      </trkpt>
      <trkpt lat="49.41602" lon="1.18267">
        <ele>111</ele>
        <time>2017-05-09T13:56:12Z</time>
      </trkpt>
      <trkpt lat="49.41606" lon="1.1827">
        <ele>111</ele>
        <time>2017-05-09T13:56:12Z</time>
      </trkpt>
      <trkpt lat="49.4161" lon="1.18275">
        <ele>111</ele>
        <time>2017-05-09T13:56:28Z</time>
      </trkpt>
      <trkpt lat="49.41613" lon="1.1828">
        <ele>111</ele>
        <time>2017-05-09T13:56:28Z</time>
      </trkpt>
      <trkpt lat="49.41615" lon="1.18288">
        <ele>111</ele>
        <time>2017-05-09T13:56:28Z</time>
      </trkpt>
      <trkpt lat="49.41619" lon="1.18295">
        <ele>100</ele>
        <time>2017-05-09T13:56:28Z</time>
      </trkpt>
      <trkpt lat="49.41628" lon="1.18292">
        <ele>79</ele>
        <time>2017-05-09T13:56:44Z</time>
      </trkpt>
      <trkpt lat="49.41636" lon="1.18293">
        <ele>79</ele>
        <time>2017-05-09T13:56:44Z</time>
      </trkpt>
      <trkpt lat="49.41641" lon="1.18298">
        <ele>79</ele>
        <time>2017-05-09T13:56:44Z</time>
      </trkpt>
      <trkpt lat="49.41647" lon="1.183">
        <ele>79</ele>
        <time>2017-05-09T13:56:44Z</time>
      </trkpt>
      <trkpt lat="49.41656" lon="1.18293">
        <ele>79</ele>
        <time>2017-05-09T13:57:00Z</time>
      </trkpt>
      <trkpt lat="49.41663" lon="1.18283">
        <ele>97</ele>
        <time>2017-05-09T13:57:00Z</time>
      </trkpt>
      <trkpt lat="49.41666" lon="1.18275">
        <ele>97</ele>
        <time>2017-05-09T13:57:00Z</time>
      </trkpt>
      <trkpt lat="49.4167" lon="1.18275">
        <ele>97</ele>
        <time>2017-05-09T13:57:00Z</time>
      </trkpt>
      <trkpt lat="49.41674" lon="1.18275">
        <ele>97</ele>
        <time>2017-05-09T13:57:16Z</time>
      </trkpt>
      <trkpt lat="49.41678" lon="1.18277">
        <ele>97</ele>
        <time>2017-05-09T13:57:16Z</time>
      </trkpt>
      <trkpt lat="49.4168" lon="1.18287">
        <ele>97</ele>
        <time>2017-05-09T13:57:16Z</time>
      </trkpt>
      <trkpt lat="49.41683" lon="1.18293">
        <ele>79</ele>
        <time>2017-05-09T13:57:16Z</time>
      </trkpt>
      <trkpt lat="49.41687" lon="1.18297">
        <ele>79</ele>
        <time>2017-05-09T13:57:32Z</time>
      </trkpt>
      <trkpt lat="49.41692" lon="1.18293">
        <ele>79</ele>
        <time>2017-05-09T13:57:32Z</time>
      </trkpt>
      <trkpt lat="49.41697" lon="1.18293">
        <ele>79</ele>
        <time>2017-05-09T13:57:32Z</time>
      </trkpt>
      <trkpt lat="49.41701" lon="1.18292">
        <ele>97</ele>
        <time>2017-05-09T13:57:32Z</time>
      </trkpt>
      <trkpt lat="49.41703" lon="1.18295">
        <ele>79</ele>
        <time>2017-05-09T13:57:48Z</time>
      </trkpt>
      <trkpt lat="49.41706" lon="1.18294">
        <ele>79</ele>
        <time>2017-05-09T13:57:48Z</time>
      </trkpt>
      <trkpt lat="49.41711" lon="1.18287">
        <ele>78</ele>
        <time>2017-05-09T13:57:48Z</time>
      </trkpt>
      <trkpt lat="49.41715" lon="1.18272">
        <ele>78</ele>
        <time>2017-05-09T13:57:48Z</time>
      </trkpt>
      <trkpt lat="49.41717" lon="1.18268">
        <ele>78</ele>
        <time>2017-05-09T13:58:04Z</time>
      </trkpt>
      <trkpt lat="49.41724" lon="1.18271">
        <ele>78</ele>
        <time>2017-05-09T13:58:04Z</time>
      </trkpt>
      <trkpt lat="49.41732" lon="1.18277">
        <ele>78</ele>
        <time>2017-05-09T13:58:04Z</time>
      </trkpt>
      <trkpt lat="49.41738" lon="1.1828">
        <ele>78</ele>
        <time>2017-05-09T13:58:04Z</time>
      </trkpt>
      <trkpt lat="49.41742" lon="1.18283">
        <ele>78</ele>
        <time>2017-05-09T13:58:20Z</time>
      </trkpt>
      <trkpt lat="49.41746" lon="1.1828">
        <ele>78</ele>
        <time>2017-05-09T13:58:20Z</time>
      </trkpt>
      <trkpt lat="49.41752" lon="1.18274">
        <ele>78</ele>
        <time>2017-05-09T13:58:20Z</time>
      </trkpt>
      <trkpt lat="49.41758" lon="1.18266">
        <ele>78</ele>
        <time>2017-05-09T13:58:20Z</time>
      </trkpt>
      <trkpt lat="49.41762" lon="1.18264">
        <ele>78</ele>
        <time>2017-05-09T13:58:36Z</time>
      </trkpt>
      <trkpt lat="49.41767" lon="1.18266">
        <ele>78</ele>
        <time>2017-05-09T13:58:36Z</time>
      </trkpt>
      <trkpt lat="49.41772" lon="1.18259">
        <ele>78</ele>
        <time>2017-05-09T13:58:36Z</time>
      </trkpt>
      <trkpt lat="49.41777" lon="1.18255">
        <ele>78</ele>
        <time>2017-05-09T13:58:36Z</time>
      </trkpt>
      <trkpt lat="49.4178" lon="1.18254">
        <ele>78</ele>
        <time>2017-05-09T13:58:52Z</time>
      </trkpt>
      <trkpt lat="49.41784" lon="1.18255">
        <ele>78</ele>
        <time>2017-05-09T13:58:52Z</time>
      </trkpt>
      <trkpt lat="49.41788" lon="1.18254">
        <ele>78</ele>
        <time>2017-05-09T13:58:52Z</time>
      </trkpt>
      <trkpt lat="49.41793" lon="1.18252">
        <ele>58</ele>
        <time>2017-05-09T13:58:52Z</time>
      </trkpt>
      <trkpt lat="49.41805" lon="1.18248">
        <ele>58</ele>
        <time>2017-05-09T13:59:28Z</time>
      </trkpt>
      <trkpt lat="49.41805" lon="1.18249">
        <ele>58</ele>
        <time>2017-05-09T13:59:28Z</time>
      </trkpt>
      <trkpt lat="49.41806" lon="1.18257">
        <ele>58</ele>
        <time>2017-05-09T13:59:28Z</time>
      </trkpt>
      <trkpt lat="49.41803" lon="1.18262">
        <ele>58</ele>
        <time>2017-05-09T13:59:28Z</time>
      </trkpt>
      <trkpt lat="49.41806" lon="1.18261">
        <ele>58</ele>
        <time>2017-05-09T13:59:28Z</time>
      </trkpt>
      <trkpt lat="49.41807" lon="1.18262">
        <ele>58</ele>
        <time>2017-05-09T13:59:44Z</time>
      </trkpt>
      <trkpt lat="49.41809" lon="1.18257">
        <ele>58</ele>
        <time>2017-05-09T13:59:44Z</time>
      </trkpt>
      <trkpt lat="49.41819" lon="1.18269">
        <ele>58</ele>
        <time>2017-05-09T13:59:44Z</time>
      </trkpt>
      <trkpt lat="49.41825" lon="1.18286">
        <ele>58</ele>
        <time>2017-05-09T13:59:44Z</time>
      </trkpt>
      <trkpt lat="49.41831" lon="1.18295">
        <ele>51</ele>
        <time>2017-05-09T14:00:00Z</time>
      </trkpt>
      <trkpt lat="49.41833" lon="1.18303">
        <ele>51</ele>
        <time>2017-05-09T14:00:00Z</time>
      </trkpt>
      <trkpt lat="49.41838" lon="1.18311">
        <ele>51</ele>
        <time>2017-05-09T14:00:00Z</time>
      </trkpt>
      <trkpt lat="49.41841" lon="1.18319">
        <ele>51</ele>
        <time>2017-05-09T14:00:00Z</time>
      </trkpt>
      <trkpt lat="49.41841" lon="1.18326">
        <ele>51</ele>
        <time>2017-05-09T14:00:16Z</time>
      </trkpt>
      <trkpt lat="49.4184" lon="1.1833">
        <ele>51</ele>
        <time>2017-05-09T14:00:16Z</time>
      </trkpt>
      <trkpt lat="49.41846" lon="1.18323">
        <ele>51</ele>
        <time>2017-05-09T14:00:16Z</time>
      </trkpt>
      <trkpt lat="49.41852" lon="1.18314">
        <ele>51</ele>
        <time>2017-05-09T14:00:16Z</time>
      </trkpt>
      <trkpt lat="49.41856" lon="1.18316">
        <ele>51</ele>
        <time>2017-05-09T14:00:40Z</time>
      </trkpt>
      <trkpt lat="49.41854" lon="1.18318">
        <ele>51</ele>
        <time>2017-05-09T14:00:40Z</time>
      </trkpt>
      <trkpt lat="49.41854" lon="1.18321">
        <ele>51</ele>
        <time>2017-05-09T14:00:40Z</time>
      </trkpt>
      <trkpt lat="49.41856" lon="1.18327">
        <ele>51</ele>
        <time>2017-05-09T14:00:40Z</time>
      </trkpt>
      <trkpt lat="49.41858" lon="1.18335">
        <ele>51</ele>
        <time>2017-05-09T14:00:40Z</time>
      </trkpt>
      <trkpt lat="49.41856" lon="1.1833">
        <ele>51</ele>
        <time>2017-05-09T14:01:48Z</time>
      </trkpt>
      <trkpt lat="49.41856" lon="1.1833">
        <ele>51</ele>
        <time>2017-05-09T14:01:48Z</time>
      </trkpt>
      <trkpt lat="49.41856" lon="1.18329">
        <ele>51</ele>
        <time>2017-05-09T14:01:48Z</time>
      </trkpt>
      <trkpt lat="49.41856" lon="1.18329">
        <ele>51</ele>
        <time>2017-05-09T14:01:48Z</time>
      </trkpt>
      <trkpt lat="49.41855" lon="1.18322">
        <ele>51</ele>
        <time>2017-05-09T14:01:48Z</time>
      </trkpt>
      <trkpt lat="49.41858" lon="1.18317">
        <ele>51</ele>
        <time>2017-05-09T14:03:24Z</time>
      </trkpt>
      <trkpt lat="49.41861" lon="1.18323">
        <ele>51</ele>
        <time>2017-05-09T14:03:24Z</time>
      </trkpt>
      <trkpt lat="49.41863" lon="1.1833">
        <ele>51</ele>
        <time>2017-05-09T14:03:24Z</time>
      </trkpt>
      <trkpt lat="49.41866" lon="1.18337">
        <ele>51</ele>
        <time>2017-05-09T14:03:24Z</time>
      </trkpt>
      <trkpt lat="49.41869" lon="1.18343">
        <ele>51</ele>
        <time>2017-05-09T14:03:24Z</time>
      </trkpt>
      <trkpt lat="49.41872" lon="1.18349">
        <ele>51</ele>
        <time>2017-05-09T14:03:40Z</time>
      </trkpt>
      <trkpt lat="49.41874" lon="1.18356">
        <ele>51</ele>
        <time>2017-05-09T14:03:40Z</time>
      </trkpt>
      <trkpt lat="49.41875" lon="1.18363">
        <ele>45</ele>
        <time>2017-05-09T14:03:40Z</time>
      </trkpt>
      <trkpt lat="49.41878" lon="1.18368">
        <ele>45</ele>
        <time>2017-05-09T14:03:40Z</time>
      </trkpt>
      <trkpt lat="49.41881" lon="1.18373">
        <ele>45</ele>
        <time>2017-05-09T14:03:56Z</time>
      </trkpt>
      <trkpt lat="49.41883" lon="1.1838">
        <ele>45</ele>
        <time>2017-05-09T14:03:56Z</time>
      </trkpt>
      <trkpt lat="49.41882" lon="1.18388">
        <ele>45</ele>
        <time>2017-05-09T14:03:56Z</time>
      </trkpt>
      <trkpt lat="49.41885" lon="1.18393">
        <ele>45</ele>
        <time>2017-05-09T14:03:56Z</time>
      </trkpt>
      <trkpt lat="49.41887" lon="1.18403">
        <ele>45</ele>
        <time>2017-05-09T14:04:12Z</time>
      </trkpt>
      <trkpt lat="49.41888" lon="1.1841">
        <ele>45</ele>
        <time>2017-05-09T14:04:12Z</time>
      </trkpt>
      <trkpt lat="49.41889" lon="1.18418">
        <ele>45</ele>
        <time>2017-05-09T14:04:12Z</time>
      </trkpt>
      <trkpt lat="49.41888" lon="1.18421">
        <ele>45</ele>
        <time>2017-05-09T14:04:12Z</time>
      </trkpt>
      <trkpt lat="49.41886" lon="1.18426">
        <ele>45</ele>
        <time>2017-05-09T14:04:28Z</time>
      </trkpt>
      <trkpt lat="49.41881" lon="1.1843">
        <ele>45</ele>
        <time>2017-05-09T14:04:28Z</time>
      </trkpt>
      <trkpt lat="49.41876" lon="1.18431">
        <ele>45</ele>
        <time>2017-05-09T14:04:28Z</time>
      </trkpt>
      <trkpt lat="49.41873" lon="1.18436">
        <ele>48</ele>
        <time>2017-05-09T14:04:28Z</time>
      </trkpt>
      <trkpt lat="49.41873" lon="1.18443">
        <ele>48</ele>
        <time>2017-05-09T14:04:56Z</time>
      </trkpt>
      <trkpt lat="49.4187" lon="1.18448">
        <ele>48</ele>
        <time>2017-05-09T14:04:56Z</time>
      </trkpt>
      <trkpt lat="49.41867" lon="1.18453">
        <ele>48</ele>
        <time>2017-05-09T14:04:56Z</time>
      </trkpt>
      <trkpt lat="49.41864" lon="1.18461">
        <ele>47</ele>
        <time>2017-05-09T14:04:56Z</time>
      </trkpt>
      <trkpt lat="49.41863" lon="1.18467">
        <ele>47</ele>
        <time>2017-05-09T14:04:56Z</time>
      </trkpt>
      <trkpt lat="49.4186" lon="1.18472">
        <ele>47</ele>
        <time>2017-05-09T14:05:12Z</time>
      </trkpt>
      <trkpt lat="49.41857" lon="1.18479">
        <ele>47</ele>
        <time>2017-05-09T14:05:12Z</time>
      </trkpt>
      <trkpt lat="49.41853" lon="1.18481">
        <ele>47</ele>
        <time>2017-05-09T14:05:12Z</time>
      </trkpt>
      <trkpt lat="49.41853" lon="1.18487">
        <ele>47</ele>
        <time>2017-05-09T14:05:12Z</time>
      </trkpt>
      <trkpt lat="49.41854" lon="1.18493">
        <ele>47</ele>
        <time>2017-05-09T14:05:28Z</time>
      </trkpt>
      <trkpt lat="49.41857" lon="1.18501">
        <ele>47</ele>
        <time>2017-05-09T14:05:28Z</time>
      </trkpt>
      <trkpt lat="49.41859" lon="1.18508">
        <ele>47</ele>
        <time>2017-05-09T14:05:28Z</time>
      </trkpt>
      <trkpt lat="49.4186" lon="1.18514">
        <ele>47</ele>
        <time>2017-05-09T14:05:28Z</time>
      </trkpt>
      <trkpt lat="49.41865" lon="1.18518">
        <ele>47</ele>
        <time>2017-05-09T14:05:44Z</time>
      </trkpt>
      <trkpt lat="49.41871" lon="1.1852">
        <ele>47</ele>
        <time>2017-05-09T14:05:44Z</time>
      </trkpt>
      <trkpt lat="49.41874" lon="1.18524">
        <ele>47</ele>
        <time>2017-05-09T14:05:44Z</time>
      </trkpt>
      <trkpt lat="49.41879" lon="1.18526">
        <ele>46</ele>
        <time>2017-05-09T14:05:44Z</time>
      </trkpt>
      <trkpt lat="49.41882" lon="1.18528">
        <ele>46</ele>
        <time>2017-05-09T14:06:04Z</time>
      </trkpt>
      <trkpt lat="49.41884" lon="1.18529">
        <ele>46</ele>
        <time>2017-05-09T14:06:04Z</time>
      </trkpt>
      <trkpt lat="49.41888" lon="1.18531">
        <ele>46</ele>
        <time>2017-05-09T14:06:04Z</time>
      </trkpt>
      <trkpt lat="49.4189" lon="1.18534">
        <ele>46</ele>
        <time>2017-05-09T14:06:04Z</time>
      </trkpt>
      <trkpt lat="49.41894" lon="1.18538">
        <ele>46</ele>
        <time>2017-05-09T14:06:04Z</time>
      </trkpt>
      <trkpt lat="49.41899" lon="1.18543">
        <ele>48</ele>
        <time>2017-05-09T14:06:20Z</time>
      </trkpt>
      <trkpt lat="49.41904" lon="1.18549">
        <ele>48</ele>
        <time>2017-05-09T14:06:20Z</time>
      </trkpt>
      <trkpt lat="49.41903" lon="1.18557">
        <ele>48</ele>
        <time>2017-05-09T14:06:20Z</time>
      </trkpt>
      <trkpt lat="49.41902" lon="1.18564">
        <ele>48</ele>
        <time>2017-05-09T14:06:20Z</time>
      </trkpt>
      <trkpt lat="49.41901" lon="1.1857">
        <ele>48</ele>
        <time>2017-05-09T14:06:36Z</time>
      </trkpt>
      <trkpt lat="49.41901" lon="1.18577">
        <ele>48</ele>
        <time>2017-05-09T14:06:36Z</time>
      </trkpt>
      <trkpt lat="49.419" lon="1.18586">
        <ele>48</ele>
        <time>2017-05-09T14:06:36Z</time>
      </trkpt>
      <trkpt lat="49.419" lon="1.18593">
        <ele>48</ele>
        <time>2017-05-09T14:06:36Z</time>
      </trkpt>
      <trkpt lat="49.41897" lon="1.18598">
        <ele>48</ele>
        <time>2017-05-09T14:06:52Z</time>
      </trkpt>
      <trkpt lat="49.41894" lon="1.18602">
        <ele>48</ele>
        <time>2017-05-09T14:06:52Z</time>
      </trkpt>
      <trkpt lat="49.41891" lon="1.18607">
        <ele>48</ele>
        <time>2017-05-09T14:06:52Z</time>
      </trkpt>
      <trkpt lat="49.4189" lon="1.18615">
        <ele>48</ele>
        <time>2017-05-09T14:06:52Z</time>
      </trkpt>
      <trkpt lat="49.41889" lon="1.18622">
        <ele>48</ele>
        <time>2017-05-09T14:07:08Z</time>
      </trkpt>
      <trkpt lat="49.41889" lon="1.1863">
        <ele>55</ele>
        <time>2017-05-09T14:07:08Z</time>
      </trkpt>
      <trkpt lat="49.41885" lon="1.18638">
        <ele>55</ele>
        <time>2017-05-09T14:07:08Z</time>
      </trkpt>
      <trkpt lat="49.41881" lon="1.18642">
        <ele>55</ele>
        <time>2017-05-09T14:07:08Z</time>
      </trkpt>
      <trkpt lat="49.41878" lon="1.18647">
        <ele>55</ele>
        <time>2017-05-09T14:07:24Z</time>
      </trkpt>
      <trkpt lat="49.41876" lon="1.18652">
        <ele>55</ele>
        <time>2017-05-09T14:07:24Z</time>
      </trkpt>
      <trkpt lat="49.41873" lon="1.18658">
        <ele>49</ele>
        <time>2017-05-09T14:07:24Z</time>
      </trkpt>
      <trkpt lat="49.41871" lon="1.18664">
        <ele>49</ele>
        <time>2017-05-09T14:07:24Z</time>
      </trkpt>
      <trkpt lat="49.41868" lon="1.1867">
        <ele>49</ele>
        <time>2017-05-09T14:07:40Z</time>
      </trkpt>
      <trkpt lat="49.41864" lon="1.18674">
        <ele>49</ele>
        <time>2017-05-09T14:07:40Z</time>
      </trkpt>
      <trkpt lat="49.41862" lon="1.18682">
        <ele>49</ele>
        <time>2017-05-09T14:07:40Z</time>
      </trkpt>
      <trkpt lat="49.41861" lon="1.18691">
        <ele>49</ele>
        <time>2017-05-09T14:07:40Z</time>
      </trkpt>
      <trkpt lat="49.4186" lon="1.18702">
        <ele>49</ele>
        <time>2017-05-09T14:07:56Z</time>
      </trkpt>
      <trkpt lat="49.4186" lon="1.18709">
        <ele>48</ele>
        <time>2017-05-09T14:07:56Z</time>
      </trkpt>
      <trkpt lat="49.41858" lon="1.18715">
        <ele>48</ele>
        <time>2017-05-09T14:07:56Z</time>
      </trkpt>
      <trkpt lat="49.41857" lon="1.18722">
        <ele>48</ele>
        <time>2017-05-09T14:07:56Z</time>
      </trkpt>
      <trkpt lat="49.41857" lon="1.18726">
        <ele>48</ele>
        <time>2017-05-09T14:08:16Z</time>
      </trkpt>
      <trkpt lat="49.41861" lon="1.18725">
        <ele>48</ele>
        <time>2017-05-09T14:08:16Z</time>
      </trkpt>
      <trkpt lat="49.41861" lon="1.18729">
        <ele>48</ele>
        <time>2017-05-09T14:08:16Z</time>
      </trkpt>
      <trkpt lat="49.41863" lon="1.18733">
        <ele>48</ele>
        <time>2017-05-09T14:08:16Z</time>
      </trkpt>
      <trkpt lat="49.41867" lon="1.18726">
        <ele>48</ele>
        <time>2017-05-09T14:08:16Z</time>
      </trkpt>
      <trkpt lat="49.41871" lon="1.18718">
        <ele>48</ele>
        <time>2017-05-09T14:08:32Z</time>
      </trkpt>
      <trkpt lat="49.41873" lon="1.18712">
        <ele>48</ele>
        <time>2017-05-09T14:08:32Z</time>
      </trkpt>
      <trkpt lat="49.41876" lon="1.18704">
        <ele>55</ele>
        <time>2017-05-09T14:08:32Z</time>
      </trkpt>
      <trkpt lat="49.41879" lon="1.18698">
        <ele>55</ele>
        <time>2017-05-09T14:08:32Z</time>
      </trkpt>
      <trkpt lat="49.41881" lon="1.18691">
        <ele>55</ele>
        <time>2017-05-09T14:08:48Z</time>
      </trkpt>
      <trkpt lat="49.41885" lon="1.18685">
        <ele>55</ele>
        <time>2017-05-09T14:08:48Z</time>
      </trkpt>
      <trkpt lat="49.41887" lon="1.18679">
        <ele>55</ele>
        <time>2017-05-09T14:08:48Z</time>
      </trkpt>
      <trkpt lat="49.41889" lon="1.18672">
        <ele>55</ele>
        <time>2017-05-09T14:08:48Z</time>
      </trkpt>
      <trkpt lat="49.41892" lon="1.18665">
        <ele>55</ele>
        <time>2017-05-09T14:09:08Z</time>
      </trkpt>
      <trkpt lat="49.41895" lon="1.18661">
        <ele>55</ele>
        <time>2017-05-09T14:09:08Z</time>
      </trkpt>
      <trkpt lat="49.41899" lon="1.18663">
        <ele>55</ele>
        <time>2017-05-09T14:09:08Z</time>
      </trkpt>
      <trkpt lat="49.419" lon="1.18673">
        <ele>55</ele>
        <time>2017-05-09T14:09:08Z</time>
      </trkpt>
      <trkpt lat="49.41902" lon="1.18681">
        <ele>55</ele>
        <time>2017-05-09T14:09:08Z</time>
      </trkpt>
      <trkpt lat="49.41901" lon="1.18689">
        <ele>55</ele>
        <time>2017-05-09T14:09:24Z</time>
      </trkpt>
      <trkpt lat="49.41901" lon="1.18697">
        <ele>55</ele>
        <time>2017-05-09T14:09:24Z</time>
      </trkpt>
      <trkpt lat="49.419" lon="1.18705">
        <ele>55</ele>
        <time>2017-05-09T14:09:24Z</time>
      </trkpt>
      <trkpt lat="49.41899" lon="1.18713">
        <ele>62</ele>
        <time>2017-05-09T14:09:24Z</time>
      </trkpt>
      <trkpt lat="49.41897" lon="1.18721">
        <ele>62</ele>
        <time>2017-05-09T14:09:40Z</time>
      </trkpt>
      <trkpt lat="49.41894" lon="1.18729">
        <ele>62</ele>
        <time>2017-05-09T14:09:40Z</time>
      </trkpt>
      <trkpt lat="49.41892" lon="1.18735">
        <ele>62</ele>
        <time>2017-05-09T14:09:40Z</time>
      </trkpt>
      <trkpt lat="49.41888" lon="1.18741">
        <ele>62</ele>
        <time>2017-05-09T14:09:40Z</time>
      </trkpt>
      <trkpt lat="49.41886" lon="1.18746">
        <ele>62</ele>
        <time>2017-05-09T14:09:56Z</time>
      </trkpt>
      <trkpt lat="49.41886" lon="1.18755">
        <ele>62</ele>
        <time>2017-05-09T14:09:56Z</time>
      </trkpt>
      <trkpt lat="49.41885" lon="1.18763">
        <ele>62</ele>
        <time>2017-05-09T14:09:56Z</time>
      </trkpt>
      <trkpt lat="49.41884" lon="1.18769">
        <ele>62</ele>
        <time>2017-05-09T14:09:56Z</time>
      </trkpt>
      <trkpt lat="49.41883" lon="1.18775">
        <ele>62</ele>
        <time>2017-05-09T14:10:12Z</time>
      </trkpt>
      <trkpt lat="49.41882" lon="1.18781">
        <ele>62</ele>
        <time>2017-05-09T14:10:12Z</time>
      </trkpt>
      <trkpt lat="49.41881" lon="1.18789">
        <ele>62</ele>
        <time>2017-05-09T14:10:12Z</time>
      </trkpt>
      <trkpt lat="49.41882" lon="1.18797">
        <ele>69</ele>
        <time>2017-05-09T14:10:12Z</time>
      </trkpt>
      <trkpt lat="49.41882" lon="1.18805">
        <ele>69</ele>
        <time>2017-05-09T14:10:28Z</time>
      </trkpt>
      <trkpt lat="49.41882" lon="1.18812">
        <ele>69</ele>
        <time>2017-05-09T14:10:28Z</time>
      </trkpt>
      <trkpt lat="49.41881" lon="1.18819">
        <ele>69</ele>
        <time>2017-05-09T14:10:28Z</time>
      </trkpt>
      <trkpt lat="49.41879" lon="1.18826">
        <ele>69</ele>
        <time>2017-05-09T14:10:28Z</time>
      </trkpt>
      <trkpt lat="49.41877" lon="1.18832">
        <ele>69</ele>
        <time>2017-05-09T14:10:44Z</time>
      </trkpt>
      <trkpt lat="49.41874" lon="1.1884">
        <ele>51</ele>
        <time>2017-05-09T14:10:44Z</time>
      </trkpt>
      <trkpt lat="49.41874" lon="1.18848">
        <ele>51</ele>
        <time>2017-05-09T14:10:44Z</time>
      </trkpt>
      <trkpt lat="49.41873" lon="1.18855">
        <ele>51</ele>
        <time>2017-05-09T14:10:44Z</time>
      </trkpt>
      <trkpt lat="49.41873" lon="1.18861">
        <ele>51</ele>
        <time>2017-05-09T14:11:00Z</time>
      </trkpt>
      <trkpt lat="49.41874" lon="1.18866">
        <ele>51</ele>
        <time>2017-05-09T14:11:00Z</time>
      </trkpt>
      <trkpt lat="49.41874" lon="1.18872">
        <ele>51</ele>
        <time>2017-05-09T14:11:00Z</time>
      </trkpt>
      <trkpt lat="49.41873" lon="1.18881">
        <ele>53</ele>
        <time>2017-05-09T14:11:00Z</time>
      </trkpt>
      <trkpt lat="49.41873" lon="1.18887">
        <ele>53</ele>
        <time>2017-05-09T14:11:16Z</time>
      </trkpt>
      <trkpt lat="49.41873" lon="1.18895">
        <ele>53</ele>
        <time>2017-05-09T14:11:16Z</time>
      </trkpt>
      <trkpt lat="49.41873" lon="1.18901">
        <ele>53</ele>
        <time>2017-05-09T14:11:16Z</time>
      </trkpt>
      <trkpt lat="49.41874" lon="1.18906">
        <ele>53</ele>
        <time>2017-05-09T14:11:16Z</time>
      </trkpt>
      <trkpt lat="49.41875" lon="1.18912">
        <ele>69</ele>
        <time>2017-05-09T14:11:32Z</time>
      </trkpt>
      <trkpt lat="49.41875" lon="1.18918">
        <ele>53</ele>
        <time>2017-05-09T14:11:32Z</time>
      </trkpt>
      <trkpt lat="49.41875" lon="1.18925">
        <ele>69</ele>
        <time>2017-05-09T14:11:32Z</time>
      </trkpt>
      <trkpt lat="49.41878" lon="1.18931">
        <ele>69</ele>
        <time>2017-05-09T14:11:32Z</time>
      </trkpt>
      <trkpt lat="49.4188" lon="1.18938">
        <ele>69</ele>
        <time>2017-05-09T14:11:48Z</time>
      </trkpt>
      <trkpt lat="49.41882" lon="1.18944">
        <ele>69</ele>
        <time>2017-05-09T14:11:48Z</time>
      </trkpt>
      <trkpt lat="49.41886" lon="1.18947">
        <ele>69</ele>
        <time>2017-05-09T14:11:48Z</time>
      </trkpt>
      <trkpt lat="49.41891" lon="1.18948">
        <ele>69</ele>
        <time>2017-05-09T14:11:48Z</time>
      </trkpt>
      <trkpt lat="49.41895" lon="1.18953">
        <ele>69</ele>
        <time>2017-05-09T14:12:04Z</time>
      </trkpt>
      <trkpt lat="49.419" lon="1.18952">
        <ele>69</ele>
        <time>2017-05-09T14:12:04Z</time>
      </trkpt>
      <trkpt lat="49.41905" lon="1.18951">
        <ele>69</ele>
        <time>2017-05-09T14:12:04Z</time>
      </trkpt>
      <trkpt lat="49.4191" lon="1.18949">
        <ele>69</ele>
        <time>2017-05-09T14:12:04Z</time>
      </trkpt>
      <trkpt lat="49.41915" lon="1.18949">
        <ele>69</ele>
        <time>2017-05-09T14:12:20Z</time>
      </trkpt>
      <trkpt lat="49.4192" lon="1.18953">
        <ele>69</ele>
        <time>2017-05-09T14:12:20Z</time>
      </trkpt>
      <trkpt lat="49.41924" lon="1.18955">
        <ele>69</ele>
        <time>2017-05-09T14:12:20Z</time>
      </trkpt>
      <trkpt lat="49.41928" lon="1.18958">
        <ele>69</ele>
        <time>2017-05-09T14:12:20Z</time>
      </trkpt>
      <trkpt lat="49.41932" lon="1.1896">
        <ele>66</ele>
        <time>2017-05-09T14:12:36Z</time>
      </trkpt>
      <trkpt lat="49.41936" lon="1.18963">
        <ele>66</ele>
        <time>2017-05-09T14:12:36Z</time>
      </trkpt>
      <trkpt lat="49.41939" lon="1.18967">
        <ele>66</ele>
        <time>2017-05-09T14:12:36Z</time>
      </trkpt>
      <trkpt lat="49.41943" lon="1.18968">
        <ele>66</ele>
        <time>2017-05-09T14:12:36Z</time>
      </trkpt>
      <trkpt lat="49.41946" lon="1.18971">
        <ele>66</ele>
        <time>2017-05-09T14:12:52Z</time>
      </trkpt>
      <trkpt lat="49.41948" lon="1.18974">
        <ele>66</ele>
        <time>2017-05-09T14:12:52Z</time>
      </trkpt>
      <trkpt lat="49.41949" lon="1.18982">
        <ele>66</ele>
        <time>2017-05-09T14:12:52Z</time>
      </trkpt>
      <trkpt lat="49.41953" lon="1.18987">
        <ele>66</ele>
        <time>2017-05-09T14:12:52Z</time>
      </trkpt>
      <trkpt lat="49.41957" lon="1.18991">
        <ele>66</ele>
        <time>2017-05-09T14:13:08Z</time>
      </trkpt>
      <trkpt lat="49.41957" lon="1.19001">
        <ele>66</ele>
        <time>2017-05-09T14:13:08Z</time>
      </trkpt>
      <trkpt lat="49.41957" lon="1.19008">
        <ele>66</ele>
        <time>2017-05-09T14:13:08Z</time>
      </trkpt>
      <trkpt lat="49.41958" lon="1.19015">
        <ele>66</ele>
        <time>2017-05-09T14:13:08Z</time>
      </trkpt>
      <trkpt lat="49.41963" lon="1.19016">
        <ele>89</ele>
        <time>2017-05-09T14:13:24Z</time>
      </trkpt>
      <trkpt lat="49.41967" lon="1.1902">
        <ele>89</ele>
        <time>2017-05-09T14:13:24Z</time>
      </trkpt>
      <trkpt lat="49.41972" lon="1.19022">
        <ele>89</ele>
        <time>2017-05-09T14:13:24Z</time>
      </trkpt>
      <trkpt lat="49.41976" lon="1.19025">
        <ele>89</ele>
        <time>2017-05-09T14:13:24Z</time>
      </trkpt>
      <trkpt lat="49.41981" lon="1.19025">
        <ele>89</ele>
        <time>2017-05-09T14:13:40Z</time>
      </trkpt>
      <trkpt lat="49.41985" lon="1.19027">
        <ele>89</ele>
        <time>2017-05-09T14:13:40Z</time>
      </trkpt>
      <trkpt lat="49.41986" lon="1.19032">
        <ele>89</ele>
        <time>2017-05-09T14:13:40Z</time>
      </trkpt>
      <trkpt lat="49.41986" lon="1.1904">
        <ele>89</ele>
        <time>2017-05-09T14:13:40Z</time>
      </trkpt>
      <trkpt lat="49.41992" lon="1.19045">
        <ele>89</ele>
        <time>2017-05-09T14:13:56Z</time>
      </trkpt>
      <trkpt lat="49.41995" lon="1.19049">
        <ele>89</ele>
        <time>2017-05-09T14:13:56Z</time>
      </trkpt>
      <trkpt lat="49.41999" lon="1.19052">
        <ele>89</ele>
        <time>2017-05-09T14:13:56Z</time>
      </trkpt>
      <trkpt lat="49.42" lon="1.19059">
        <ele>89</ele>
        <time>2017-05-09T14:13:56Z</time>
      </trkpt>
      <trkpt lat="49.42001" lon="1.19065">
        <ele>89</ele>
        <time>2017-05-09T14:14:12Z</time>
      </trkpt>
      <trkpt lat="49.42004" lon="1.19071">
        <ele>89</ele>
        <time>2017-05-09T14:14:12Z</time>
      </trkpt>
      <trkpt lat="49.42007" lon="1.19077">
        <ele>89</ele>
        <time>2017-05-09T14:14:12Z</time>
      </trkpt>
      <trkpt lat="49.42012" lon="1.19079">
        <ele>89</ele>
        <time>2017-05-09T14:14:12Z</time>
      </trkpt>
      <trkpt lat="49.42013" lon="1.19087">
        <ele>89</ele>
        <time>2017-05-09T14:14:28Z</time>
      </trkpt>
      <trkpt lat="49.42013" lon="1.19095">
        <ele>89</ele>
        <time>2017-05-09T14:14:28Z</time>
      </trkpt>
      <trkpt lat="49.42014" lon="1.19101">
        <ele>89</ele>
        <time>2017-05-09T14:14:28Z</time>
      </trkpt>
      <trkpt lat="49.42014" lon="1.19108">
        <ele>89</ele>
        <time>2017-05-09T14:14:28Z</time>
      </trkpt>
      <trkpt lat="49.42014" lon="1.19114">
        <ele>89</ele>
        <time>2017-05-09T14:14:44Z</time>
      </trkpt>
      <trkpt lat="49.42013" lon="1.1912">
        <ele>89</ele>
        <time>2017-05-09T14:14:44Z</time>
      </trkpt>
      <trkpt lat="49.42017" lon="1.19126">
        <ele>97</ele>
        <time>2017-05-09T14:14:44Z</time>
      </trkpt>
      <trkpt lat="49.42018" lon="1.19134">
        <ele>97</ele>
        <time>2017-05-09T14:14:44Z</time>
      </trkpt>
      <trkpt lat="49.4202" lon="1.19142">
        <ele>97</ele>
        <time>2017-05-09T14:15:00Z</time>
      </trkpt>
      <trkpt lat="49.42019" lon="1.1915">
        <ele>97</ele>
        <time>2017-05-09T14:15:00Z</time>
      </trkpt>
      <trkpt lat="49.42018" lon="1.19157">
        <ele>97</ele>
        <time>2017-05-09T14:15:00Z</time>
      </trkpt>
      <trkpt lat="49.42023" lon="1.19165">
        <ele>97</ele>
        <time>2017-05-09T14:15:00Z</time>
      </trkpt>
      <trkpt lat="49.42029" lon="1.1917">
        <ele>97</ele>
        <time>2017-05-09T14:15:16Z</time>
      </trkpt>
      <trkpt lat="49.42034" lon="1.19174">
        <ele>97</ele>
        <time>2017-05-09T14:15:16Z</time>
      </trkpt>
      <trkpt lat="49.4204" lon="1.19174">
        <ele>97</ele>
        <time>2017-05-09T14:15:16Z</time>
      </trkpt>
      <trkpt lat="49.42045" lon="1.19172">
        <ele>110</ele>
        <time>2017-05-09T14:15:16Z</time>
      </trkpt>
      <trkpt lat="49.42048" lon="1.19174">
        <ele>110</ele>
        <time>2017-05-09T14:15:32Z</time>
      </trkpt>
      <trkpt lat="49.42052" lon="1.19179">
        <ele>110</ele>
        <time>2017-05-09T14:15:32Z</time>
      </trkpt>
      <trkpt lat="49.42057" lon="1.19181">
        <ele>110</ele>
        <time>2017-05-09T14:15:32Z</time>
      </trkpt>
      <trkpt lat="49.42063" lon="1.19182">
        <ele>110</ele>
        <time>2017-05-09T14:15:32Z</time>
      </trkpt>
      <trkpt lat="49.42068" lon="1.19181">
        <ele>110</ele>
        <time>2017-05-09T14:15:48Z</time>
      </trkpt>
      <trkpt lat="49.42072" lon="1.19183">
        <ele>110</ele>
        <time>2017-05-09T14:15:48Z</time>
      </trkpt>
      <trkpt lat="49.42075" lon="1.19188">
        <ele>110</ele>
        <time>2017-05-09T14:15:48Z</time>
      </trkpt>
      <trkpt lat="49.42077" lon="1.19195">
        <ele>110</ele>
        <time>2017-05-09T14:15:48Z</time>
      </trkpt>
      <trkpt lat="49.42082" lon="1.19194">
        <ele>110</ele>
        <time>2017-05-09T14:16:04Z</time>
      </trkpt>
      <trkpt lat="49.42086" lon="1.19199">
        <ele>110</ele>
        <time>2017-05-09T14:16:04Z</time>
      </trkpt>
      <trkpt lat="49.4209" lon="1.19202">
        <ele>110</ele>
        <time>2017-05-09T14:16:04Z</time>
      </trkpt>
      <trkpt lat="49.42094" lon="1.19202">
        <ele>110</ele>
        <time>2017-05-09T14:16:04Z</time>
      </trkpt>
      <trkpt lat="49.42096" lon="1.19208">
        <ele>110</ele>
        <time>2017-05-09T14:16:20Z</time>
      </trkpt>
      <trkpt lat="49.42098" lon="1.19216">
        <ele>111</ele>
        <time>2017-05-09T14:16:20Z</time>
      </trkpt>
      <trkpt lat="49.42101" lon="1.1922">
        <ele>111</ele>
        <time>2017-05-09T14:16:20Z</time>
      </trkpt>
      <trkpt lat="49.42106" lon="1.19218">
        <ele>111</ele>
        <time>2017-05-09T14:16:20Z</time>
      </trkpt>
      <trkpt lat="49.4211" lon="1.19222">
        <ele>111</ele>
        <time>2017-05-09T14:16:36Z</time>
      </trkpt>
      <trkpt lat="49.42113" lon="1.19225">
        <ele>111</ele>
        <time>2017-05-09T14:16:36Z</time>
      </trkpt>
      <trkpt lat="49.42117" lon="1.19223">
        <ele>111</ele>
        <time>2017-05-09T14:16:36Z</time>
      </trkpt>
      <trkpt lat="49.42121" lon="1.19222">
        <ele>111</ele>
        <time>2017-05-09T14:16:36Z</time>
      </trkpt>
      <trkpt lat="49.42124" lon="1.19227">
        <ele>111</ele>
        <time>2017-05-09T14:16:52Z</time>
      </trkpt>
      <trkpt lat="49.42127" lon="1.19226">
        <ele>123</ele>
        <time>2017-05-09T14:16:52Z</time>
      </trkpt>
      <trkpt lat="49.42131" lon="1.19223">
        <ele>123</ele>
        <time>2017-05-09T14:16:52Z</time>
      </trkpt>
      <trkpt lat="49.42133" lon="1.1923">
        <ele>123</ele>
        <time>2017-05-09T14:16:52Z</time>
      </trkpt>
      <trkpt lat="49.42138" lon="1.19231">
        <ele>123</ele>
        <time>2017-05-09T14:17:08Z</time>
      </trkpt>
      <trkpt lat="49.42142" lon="1.19226">
        <ele>123</ele>
        <time>2017-05-09T14:17:08Z</time>
      </trkpt>
      <trkpt lat="49.42147" lon="1.19222">
        <ele>123</ele>
        <time>2017-05-09T14:17:08Z</time>
      </trkpt>
      <trkpt lat="49.42151" lon="1.19222">
        <ele>123</ele>
        <time>2017-05-09T14:17:08Z</time>
      </trkpt>
      <trkpt lat="49.42154" lon="1.19228">
        <ele>123</ele>
        <time>2017-05-09T14:17:24Z</time>
      </trkpt>
      <trkpt lat="49.42154" lon="1.19236">
        <ele>123</ele>
        <time>2017-05-09T14:17:24Z</time>
      </trkpt>
      <trkpt lat="49.42155" lon="1.19247">
        <ele>123</ele>
        <time>2017-05-09T14:17:24Z</time>
      </trkpt>
      <trkpt lat="49.42158" lon="1.19257">
        <ele>123</ele>
        <time>2017-05-09T14:17:24Z</time>
      </trkpt>
      <trkpt lat="49.42153" lon="1.19271">
        <ele>123</ele>
        <time>2017-05-09T14:17:40Z</time>
      </trkpt>
      <trkpt lat="49.4215" lon="1.19282">
        <ele>123</ele>
        <time>2017-05-09T14:17:40Z</time>
      </trkpt>
      <trkpt lat="49.42153" lon="1.19295">
        <ele>126</ele>
        <time>2017-05-09T14:17:40Z</time>
      </trkpt>
      <trkpt lat="49.42159" lon="1.19299">
        <ele>126</ele>
        <time>2017-05-09T14:17:40Z</time>
      </trkpt>
      <trkpt lat="49.42163" lon="1.19305">
        <ele>126</ele>
        <time>2017-05-09T14:18:00Z</time>
      </trkpt>
      <trkpt lat="49.42163" lon="1.19313">
        <ele>126</ele>
        <time>2017-05-09T14:18:00Z</time>
      </trkpt>
      <trkpt lat="49.42166" lon="1.19313">
        <ele>126</ele>
        <time>2017-05-09T14:18:00Z</time>
      </trkpt>
      <trkpt lat="49.4217" lon="1.19313">
        <ele>126</ele>
        <time>2017-05-09T14:18:00Z</time>
      </trkpt>
      <trkpt lat="49.42171" lon="1.19319">
        <ele>126</ele>
        <time>2017-05-09T14:18:00Z</time>
      </trkpt>
      <trkpt lat="49.42172" lon="1.19326">
        <ele>126</ele>
        <time>2017-05-09T14:18:16Z</time>
      </trkpt>
      <trkpt lat="49.42172" lon="1.1933">
        <ele>126</ele>
        <time>2017-05-09T14:18:16Z</time>
      </trkpt>
      <trkpt lat="49.42174" lon="1.19334">
        <ele>126</ele>
        <time>2017-05-09T14:18:16Z</time>
      </trkpt>
      <trkpt lat="49.42181" lon="1.19335">
        <ele>126</ele>
        <time>2017-05-09T14:18:16Z</time>
      </trkpt>
      <trkpt lat="49.42185" lon="1.19338">
        <ele>126</ele>
        <time>2017-05-09T14:18:32Z</time>
      </trkpt>
      <trkpt lat="49.42191" lon="1.19341">
        <ele>126</ele>
        <time>2017-05-09T14:18:32Z</time>
      </trkpt>
      <trkpt lat="49.42196" lon="1.1934">
        <ele>126</ele>
        <time>2017-05-09T14:18:32Z</time>
      </trkpt>
      <trkpt lat="49.42199" lon="1.19345">
        <ele>126</ele>
        <time>2017-05-09T14:18:32Z</time>
      </trkpt>
      <trkpt lat="49.42203" lon="1.19345">
        <ele>126</ele>
        <time>2017-05-09T14:18:48Z</time>
      </trkpt>
      <trkpt lat="49.42206" lon="1.19346">
        <ele>126</ele>
        <time>2017-05-09T14:18:48Z</time>
      </trkpt>
      <trkpt lat="49.42209" lon="1.19349">
        <ele>134</ele>
        <time>2017-05-09T14:18:48Z</time>
      </trkpt>
      <trkpt lat="49.42211" lon="1.19353">
        <ele>134</ele>
        <time>2017-05-09T14:18:48Z</time>
      </trkpt>
      <trkpt lat="49.42214" lon="1.19357">
        <ele>134</ele>
        <time>2017-05-09T14:19:08Z</time>
      </trkpt>
      <trkpt lat="49.42216" lon="1.19363">
        <ele>134</ele>
        <time>2017-05-09T14:19:08Z</time>
      </trkpt>
      <trkpt lat="49.42218" lon="1.19365">
        <ele>134</ele>
        <time>2017-05-09T14:19:08Z</time>
      </trkpt>
      <trkpt lat="49.42222" lon="1.1936">
        <ele>134</ele>
        <time>2017-05-09T14:19:08Z</time>
      </trkpt>
      <trkpt lat="49.42225" lon="1.19362">
        <ele>134</ele>
        <time>2017-05-09T14:19:08Z</time>
      </trkpt>
      <trkpt lat="49.42229" lon="1.19367">
        <ele>134</ele>
        <time>2017-05-09T14:19:24Z</time>
      </trkpt>
      <trkpt lat="49.42231" lon="1.1937">
        <ele>134</ele>
        <time>2017-05-09T14:19:24Z</time>
      </trkpt>
      <trkpt lat="49.42232" lon="1.19377">
        <ele>135</ele>
        <time>2017-05-09T14:19:24Z</time>
      </trkpt>
      <trkpt lat="49.42233" lon="1.19384">
        <ele>135</ele>
        <time>2017-05-09T14:19:24Z</time>
      </trkpt>
      <trkpt lat="49.4224" lon="1.19389">
        <ele>135</ele>
        <time>2017-05-09T14:19:48Z</time>
      </trkpt>
      <trkpt lat="49.42242" lon="1.19388">
        <ele>135</ele>
        <time>2017-05-09T14:19:48Z</time>
      </trkpt>
      <trkpt lat="49.42243" lon="1.19388">
        <ele>135</ele>
        <time>2017-05-09T14:19:48Z</time>
      </trkpt>
      <trkpt lat="49.42245" lon="1.19391">
        <ele>135</ele>
        <time>2017-05-09T14:19:48Z</time>
      </trkpt>
      <trkpt lat="49.42248" lon="1.19399">
        <ele>135</ele>
        <time>2017-05-09T14:19:48Z</time>
      </trkpt>
      <trkpt lat="49.42251" lon="1.19407">
        <ele>135</ele>
        <time>2017-05-09T14:20:04Z</time>
      </trkpt>
      <trkpt lat="49.42253" lon="1.19415">
        <ele>135</ele>
        <time>2017-05-09T14:20:04Z</time>
      </trkpt>
      <trkpt lat="49.42256" lon="1.19421">
        <ele>135</ele>
        <time>2017-05-09T14:20:04Z</time>
      </trkpt>
      <trkpt lat="49.42261" lon="1.19424">
        <ele>135</ele>
        <time>2017-05-09T14:20:04Z</time>
      </trkpt>
      <trkpt lat="49.42268" lon="1.19423">
        <ele>135</ele>
        <time>2017-05-09T14:20:20Z</time>
      </trkpt>
      <trkpt lat="49.42274" lon="1.19423">
        <ele>135</ele>
        <time>2017-05-09T14:20:20Z</time>
      </trkpt>
      <trkpt lat="49.42278" lon="1.19432">
        <ele>135</ele>
        <time>2017-05-09T14:20:20Z</time>
      </trkpt>
      <trkpt lat="49.42281" lon="1.19442">
        <ele>135</ele>
        <time>2017-05-09T14:20:20Z</time>
      </trkpt>
      <trkpt lat="49.42285" lon="1.19448">
        <ele>135</ele>
        <time>2017-05-09T14:20:36Z</time>
      </trkpt>
      <trkpt lat="49.42288" lon="1.19456">
        <ele>135</ele>
        <time>2017-05-09T14:20:36Z</time>
      </trkpt>
      <trkpt lat="49.4229" lon="1.19464">
        <ele>136</ele>
        <time>2017-05-09T14:20:36Z</time>
      </trkpt>
      <trkpt lat="49.42289" lon="1.19474">
        <ele>136</ele>
        <time>2017-05-09T14:20:36Z</time>
      </trkpt>
      <trkpt lat="49.42292" lon="1.19479">
        <ele>136</ele>
        <time>2017-05-09T14:20:52Z</time>
      </trkpt>
      <trkpt lat="49.42293" lon="1.19486">
        <ele>136</ele>
        <time>2017-05-09T14:20:52Z</time>
      </trkpt>
      <trkpt lat="49.42294" lon="1.19493">
        <ele>136</ele>
        <time>2017-05-09T14:20:52Z</time>
      </trkpt>
      <trkpt lat="49.42297" lon="1.19498">
        <ele>136</ele>
        <time>2017-05-09T14:20:52Z</time>
      </trkpt>
      <trkpt lat="49.423" lon="1.19502">
        <ele>136</ele>
        <time>2017-05-09T14:21:08Z</time>
      </trkpt>
      <trkpt lat="49.42301" lon="1.19506">
        <ele>136</ele>
        <time>2017-05-09T14:21:08Z</time>
      </trkpt>
      <trkpt lat="49.42305" lon="1.1951">
        <ele>136</ele>
        <time>2017-05-09T14:21:08Z</time>
      </trkpt>
      <trkpt lat="49.42305" lon="1.19515">
        <ele>136</ele>
        <time>2017-05-09T14:21:08Z</time>
      </trkpt>
      <trkpt lat="49.42305" lon="1.19521">
        <ele>136</ele>
        <time>2017-05-09T14:21:24Z</time>
      </trkpt>
      <trkpt lat="49.42308" lon="1.19526">
        <ele>136</ele>
        <time>2017-05-09T14:21:24Z</time>
      </trkpt>
      <trkpt lat="49.42312" lon="1.19532">
        <ele>136</ele>
        <time>2017-05-09T14:21:24Z</time>
      </trkpt>
      <trkpt lat="49.42312" lon="1.1954">
        <ele>136</ele>
        <time>2017-05-09T14:21:24Z</time>
      </trkpt>
      <trkpt lat="49.42315" lon="1.19547">
        <ele>132</ele>
        <time>2017-05-09T14:21:40Z</time>
      </trkpt>
      <trkpt lat="49.42318" lon="1.19553">
        <ele>132</ele>
        <time>2017-05-09T14:21:40Z</time>
      </trkpt>
      <trkpt lat="49.4232" lon="1.1956">
        <ele>132</ele>
        <time>2017-05-09T14:21:40Z</time>
      </trkpt>
      <trkpt lat="49.42322" lon="1.19566">
        <ele>132</ele>
        <time>2017-05-09T14:21:40Z</time>
      </trkpt>
      <trkpt lat="49.42325" lon="1.19572">
        <ele>132</ele>
        <time>2017-05-09T14:21:56Z</time>
      </trkpt>
      <trkpt lat="49.42327" lon="1.19577">
        <ele>132</ele>
        <time>2017-05-09T14:21:56Z</time>
      </trkpt>
      <trkpt lat="49.42329" lon="1.19583">
        <ele>132</ele>
        <time>2017-05-09T14:21:56Z</time>
      </trkpt>
      <trkpt lat="49.42331" lon="1.19589">
        <ele>132</ele>
        <time>2017-05-09T14:21:56Z</time>
      </trkpt>
      <trkpt lat="49.42332" lon="1.19596">
        <ele>132</ele>
        <time>2017-05-09T14:22:12Z</time>
      </trkpt>
      <trkpt lat="49.42334" lon="1.19603">
        <ele>132</ele>
        <time>2017-05-09T14:22:12Z</time>
      </trkpt>
      <trkpt lat="49.42337" lon="1.19611">
        <ele>132</ele>
        <time>2017-05-09T14:22:12Z</time>
      </trkpt>
      <trkpt lat="49.42339" lon="1.19618">
        <ele>132</ele>
        <time>2017-05-09T14:22:12Z</time>
      </trkpt>
      <trkpt lat="49.42342" lon="1.19627">
        <ele>131</ele>
        <time>2017-05-09T14:22:28Z</time>
      </trkpt>
      <trkpt lat="49.42343" lon="1.19633">
        <ele>131</ele>
        <time>2017-05-09T14:22:28Z</time>
      </trkpt>
      <trkpt lat="49.42345" lon="1.19639">
        <ele>131</ele>
        <time>2017-05-09T14:22:28Z</time>
      </trkpt>
      <trkpt lat="49.42348" lon="1.19643">
        <ele>131</ele>
        <time>2017-05-09T14:22:28Z</time>
      </trkpt>
      <trkpt lat="49.4235" lon="1.19649">
        <ele>131</ele>
        <time>2017-05-09T14:22:44Z</time>
      </trkpt>
      <trkpt lat="49.4235" lon="1.19656">
        <ele>131</ele>
        <time>2017-05-09T14:22:44Z</time>
      </trkpt>
      <trkpt lat="49.42354" lon="1.19663">
        <ele>131</ele>
        <time>2017-05-09T14:22:44Z</time>
      </trkpt>
      <trkpt lat="49.42359" lon="1.19667">
        <ele>131</ele>
        <time>2017-05-09T14:22:44Z</time>
      </trkpt>
      <trkpt lat="49.42361" lon="1.19674">
        <ele>131</ele>
        <time>2017-05-09T14:23:00Z</time>
      </trkpt>
      <trkpt lat="49.42361" lon="1.19683">
        <ele>131</ele>
        <time>2017-05-09T14:23:00Z</time>
      </trkpt>
      <trkpt lat="49.42363" lon="1.19691">
        <ele>131</ele>
        <time>2017-05-09T14:23:00Z</time>
      </trkpt>
      <trkpt lat="49.42367" lon="1.19695">
        <ele>131</ele>
        <time>2017-05-09T14:23:00Z</time>
      </trkpt>
      <trkpt lat="49.4237" lon="1.19701">
        <ele>131</ele>
        <time>2017-05-09T14:23:16Z</time>
      </trkpt>
      <trkpt lat="49.4237" lon="1.19713">
        <ele>135</ele>
        <time>2017-05-09T14:23:16Z</time>
      </trkpt>
      <trkpt lat="49.42372" lon="1.19717">
        <ele>135</ele>
        <time>2017-05-09T14:23:16Z</time>
      </trkpt>
      <trkpt lat="49.42376" lon="1.19723">
        <ele>134</ele>
        <time>2017-05-09T14:23:16Z</time>
      </trkpt>
      <trkpt lat="49.4238" lon="1.19728">
        <ele>134</ele>
        <time>2017-05-09T14:23:32Z</time>
      </trkpt>
      <trkpt lat="49.42383" lon="1.19735">
        <ele>134</ele>
        <time>2017-05-09T14:23:32Z</time>
      </trkpt>
      <trkpt lat="49.42384" lon="1.19744">
        <ele>134</ele>
        <time>2017-05-09T14:23:32Z</time>
      </trkpt>
      <trkpt lat="49.42386" lon="1.19751">
        <ele>134</ele>
        <time>2017-05-09T14:23:32Z</time>
      </trkpt>
      <trkpt lat="49.4239" lon="1.19754">
        <ele>134</ele>
        <time>2017-05-09T14:25:16Z</time>
      </trkpt>
      <trkpt lat="49.4239" lon="1.19754">
        <ele>134</ele>
        <time>2017-05-09T14:25:16Z</time>
      </trkpt>
      <trkpt lat="49.42393" lon="1.19749">
        <ele>134</ele>
        <time>2017-05-09T14:25:16Z</time>
      </trkpt>
      <trkpt lat="49.42392" lon="1.19746">
        <ele>134</ele>
        <time>2017-05-09T14:25:16Z</time>
      </trkpt>
      <trkpt lat="49.42392" lon="1.19746">
        <ele>134</ele>
        <time>2017-05-09T14:25:16Z</time>
      </trkpt>
      <trkpt lat="49.42389" lon="1.19748">
        <ele>134</ele>
        <time>2017-05-09T14:27:20Z</time>
      </trkpt>
      <trkpt lat="49.42391" lon="1.19758">
        <ele>134</ele>
        <time>2017-05-09T14:27:20Z</time>
      </trkpt>
      <trkpt lat="49.42393" lon="1.19765">
        <ele>134</ele>
        <time>2017-05-09T14:27:20Z</time>
      </trkpt>
      <trkpt lat="49.42396" lon="1.19768">
        <ele>134</ele>
        <time>2017-05-09T14:27:20Z</time>
      </trkpt>
      <trkpt lat="49.42399" lon="1.19772">
        <ele>134</ele>
        <time>2017-05-09T14:27:20Z</time>
      </trkpt>
      <trkpt lat="49.42399" lon="1.19779">
        <ele>134</ele>
        <time>2017-05-09T14:27:36Z</time>
      </trkpt>
      <trkpt lat="49.424" lon="1.19784">
        <ele>134</ele>
        <time>2017-05-09T14:27:36Z</time>
      </trkpt>
      <trkpt lat="49.42404" lon="1.19787">
        <ele>134</ele>
        <time>2017-05-09T14:27:36Z</time>
      </trkpt>
      <trkpt lat="49.42406" lon="1.19792">
        <ele>136</ele>
        <time>2017-05-09T14:27:36Z</time>
      </trkpt>
      <trkpt lat="49.42408" lon="1.19797">
        <ele>136</ele>
        <time>2017-05-09T14:27:52Z</time>
      </trkpt>
      <trkpt lat="49.4241" lon="1.19802">
        <ele>136</ele>
        <time>2017-05-09T14:27:52Z</time>
      </trkpt>
      <trkpt lat="49.42412" lon="1.19808">
        <ele>136</ele>
        <time>2017-05-09T14:27:52Z</time>
      </trkpt>
      <trkpt lat="49.42415" lon="1.19814">
        <ele>136</ele>
        <time>2017-05-09T14:27:52Z</time>
      </trkpt>
      <trkpt lat="49.4242" lon="1.19817">
        <ele>136</ele>
        <time>2017-05-09T14:28:08Z</time>
      </trkpt>
      <trkpt lat="49.42426" lon="1.19819">
        <ele>136</ele>
        <time>2017-05-09T14:28:08Z</time>
      </trkpt>
      <trkpt lat="49.42432" lon="1.19822">
        <ele>136</ele>
        <time>2017-05-09T14:28:08Z</time>
      </trkpt>
      <trkpt lat="49.42435" lon="1.19827">
        <ele>136</ele>
        <time>2017-05-09T14:28:08Z</time>
      </trkpt>
      <trkpt lat="49.42438" lon="1.19835">
        <ele>136</ele>
        <time>2017-05-09T14:28:24Z</time>
      </trkpt>
      <trkpt lat="49.4244" lon="1.19842">
        <ele>136</ele>
        <time>2017-05-09T14:28:24Z</time>
      </trkpt>
      <trkpt lat="49.42445" lon="1.19844">
        <ele>136</ele>
        <time>2017-05-09T14:28:24Z</time>
      </trkpt>
      <trkpt lat="49.4245" lon="1.19848">
        <ele>136</ele>
        <time>2017-05-09T14:28:24Z</time>
      </trkpt>
      <trkpt lat="49.42453" lon="1.19854">
        <ele>136</ele>
        <time>2017-05-09T14:28:40Z</time>
      </trkpt>
      <trkpt lat="49.42456" lon="1.19859">
        <ele>136</ele>
        <time>2017-05-09T14:28:40Z</time>
      </trkpt>
      <trkpt lat="49.42458" lon="1.19865">
        <ele>136</ele>
        <time>2017-05-09T14:28:40Z</time>
      </trkpt>
      <trkpt lat="49.42462" lon="1.1987">
        <ele>135</ele>
        <time>2017-05-09T14:28:40Z</time>
      </trkpt>
      <trkpt lat="49.42465" lon="1.19877">
        <ele>137</ele>
        <time>2017-05-09T14:28:56Z</time>
      </trkpt>
      <trkpt lat="49.42468" lon="1.19882">
        <ele>137</ele>
        <time>2017-05-09T14:28:56Z</time>
      </trkpt>
      <trkpt lat="49.4247" lon="1.1989">
        <ele>137</ele>
        <time>2017-05-09T14:28:56Z</time>
      </trkpt>
      <trkpt lat="49.42474" lon="1.19895">
        <ele>137</ele>
        <time>2017-05-09T14:28:56Z</time>
      </trkpt>
      <trkpt lat="49.42477" lon="1.199">
        <ele>137</ele>
        <time>2017-05-09T14:29:12Z</time>
      </trkpt>
      <trkpt lat="49.4248" lon="1.19905">
        <ele>137</ele>
        <time>2017-05-09T14:29:12Z</time>
      </trkpt>
      <trkpt lat="49.42482" lon="1.1991">
        <ele>137</ele>
        <time>2017-05-09T14:29:12Z</time>
      </trkpt>
      <trkpt lat="49.42482" lon="1.19918">
        <ele>137</ele>
        <time>2017-05-09T14:29:12Z</time>
      </trkpt>
      <trkpt lat="49.42484" lon="1.19926">
        <ele>137</ele>
        <time>2017-05-09T14:29:28Z</time>
      </trkpt>
      <trkpt lat="49.42485" lon="1.19934">
        <ele>137</ele>
        <time>2017-05-09T14:29:28Z</time>
      </trkpt>
      <trkpt lat="49.42484" lon="1.19944">
        <ele>137</ele>
        <time>2017-05-09T14:29:28Z</time>
      </trkpt>
      <trkpt lat="49.42487" lon="1.19951">
        <ele>137</ele>
        <time>2017-05-09T14:29:28Z</time>
      </trkpt>
      <trkpt lat="49.42491" lon="1.19958">
        <ele>137</ele>
        <time>2017-05-09T14:29:44Z</time>
      </trkpt>
      <trkpt lat="49.42492" lon="1.19966">
        <ele>137</ele>
        <time>2017-05-09T14:29:44Z</time>
      </trkpt>
      <trkpt lat="49.42492" lon="1.19973">
        <ele>137</ele>
        <time>2017-05-09T14:29:44Z</time>
      </trkpt>
      <trkpt lat="49.42494" lon="1.19979">
        <ele>137</ele>
        <time>2017-05-09T14:29:44Z</time>
      </trkpt>
      <trkpt lat="49.42497" lon="1.19985">
        <ele>137</ele>
        <time>2017-05-09T14:30:00Z</time>
      </trkpt>
      <trkpt lat="49.42497" lon="1.19992">
        <ele>137</ele>
        <time>2017-05-09T14:30:00Z</time>
      </trkpt>
      <trkpt lat="49.42498" lon="1.20001">
        <ele>137</ele>
        <time>2017-05-09T14:30:00Z</time>
      </trkpt>
      <trkpt lat="49.42499" lon="1.20008">
        <ele>137</ele>
        <time>2017-05-09T14:30:00Z</time>
      </trkpt>
      <trkpt lat="49.42499" lon="1.20014">
        <ele>137</ele>
        <time>2017-05-09T14:30:16Z</time>
      </trkpt>
      <trkpt lat="49.42501" lon="1.20023">
        <ele>137</ele>
        <time>2017-05-09T14:30:16Z</time>
      </trkpt>
      <trkpt lat="49.42501" lon="1.20027">
        <ele>137</ele>
        <time>2017-05-09T14:30:16Z</time>
      </trkpt>
      <trkpt lat="49.42501" lon="1.20033">
        <ele>137</ele>
        <time>2017-05-09T14:30:16Z</time>
      </trkpt>
      <trkpt lat="49.42505" lon="1.2004">
        <ele>137</ele>
        <time>2017-05-09T14:30:32Z</time>
      </trkpt>
      <trkpt lat="49.42506" lon="1.20046">
        <ele>139</ele>
        <time>2017-05-09T14:30:32Z</time>
      </trkpt>
      <trkpt lat="49.42508" lon="1.20053">
        <ele>139</ele>
        <time>2017-05-09T14:30:32Z</time>
      </trkpt>
      <trkpt lat="49.42509" lon="1.20061">
        <ele>139</ele>
        <time>2017-05-09T14:30:32Z</time>
      </trkpt>
      <trkpt lat="49.42509" lon="1.20068">
        <ele>139</ele>
        <time>2017-05-09T14:30:48Z</time>
      </trkpt>
      <trkpt lat="49.4251" lon="1.20076">
        <ele>139</ele>
        <time>2017-05-09T14:30:48Z</time>
      </trkpt>
      <trkpt lat="49.42507" lon="1.20086">
        <ele>139</ele>
        <time>2017-05-09T14:30:48Z</time>
      </trkpt>
      <trkpt lat="49.42509" lon="1.20095">
        <ele>139</ele>
        <time>2017-05-09T14:30:48Z</time>
      </trkpt>
      <trkpt lat="49.4251" lon="1.20103">
        <ele>139</ele>
        <time>2017-05-09T14:31:04Z</time>
      </trkpt>
      <trkpt lat="49.42513" lon="1.20111">
        <ele>139</ele>
        <time>2017-05-09T14:31:04Z</time>
      </trkpt>
      <trkpt lat="49.42513" lon="1.20118">
        <ele>139</ele>
        <time>2017-05-09T14:31:04Z</time>
      </trkpt>
      <trkpt lat="49.42514" lon="1.20125">
        <ele>140</ele>
        <time>2017-05-09T14:31:04Z</time>
      </trkpt>
      <trkpt lat="49.42513" lon="1.20132">
        <ele>140</ele>
        <time>2017-05-09T14:31:20Z</time>
      </trkpt>
      <trkpt lat="49.42514" lon="1.2014">
        <ele>140</ele>
        <time>2017-05-09T14:31:20Z</time>
      </trkpt>
      <trkpt lat="49.42516" lon="1.20146">
        <ele>140</ele>
        <time>2017-05-09T14:31:20Z</time>
      </trkpt>
      <trkpt lat="49.42519" lon="1.20152">
        <ele>140</ele>
        <time>2017-05-09T14:31:20Z</time>
      </trkpt>
      <trkpt lat="49.42519" lon="1.20158">
        <ele>140</ele>
        <time>2017-05-09T14:31:36Z</time>
      </trkpt>
      <trkpt lat="49.42519" lon="1.20164">
        <ele>140</ele>
        <time>2017-05-09T14:31:36Z</time>
      </trkpt>
      <trkpt lat="49.4252" lon="1.20172">
        <ele>140</ele>
        <time>2017-05-09T14:31:36Z</time>
      </trkpt>
      <trkpt lat="49.4252" lon="1.20181">
        <ele>140</ele>
        <time>2017-05-09T14:31:36Z</time>
      </trkpt>
      <trkpt lat="49.4252" lon="1.20191">
        <ele>140</ele>
        <time>2017-05-09T14:31:52Z</time>
      </trkpt>
      <trkpt lat="49.4252" lon="1.202">
        <ele>140</ele>
        <time>2017-05-09T14:31:52Z</time>
      </trkpt>
      <trkpt lat="49.42522" lon="1.20208">
        <ele>140</ele>
        <time>2017-05-09T14:31:52Z</time>
      </trkpt>
      <trkpt lat="49.42524" lon="1.20215">
        <ele>141</ele>
        <time>2017-05-09T14:31:52Z</time>
      </trkpt>
      <trkpt lat="49.42525" lon="1.20223">
        <ele>141</ele>
        <time>2017-05-09T14:32:08Z</time>
      </trkpt>
      <trkpt lat="49.42526" lon="1.20231">
        <ele>141</ele>
        <time>2017-05-09T14:32:08Z</time>
      </trkpt>
      <trkpt lat="49.42527" lon="1.20238">
        <ele>141</ele>
        <time>2017-05-09T14:32:08Z</time>
      </trkpt>
      <trkpt lat="49.42529" lon="1.20245">
        <ele>141</ele>
        <time>2017-05-09T14:32:08Z</time>
      </trkpt>
      <trkpt lat="49.42531" lon="1.20252">
        <ele>141</ele>
        <time>2017-05-09T14:32:24Z</time>
      </trkpt>
      <trkpt lat="49.42532" lon="1.20259">
        <ele>141</ele>
        <time>2017-05-09T14:32:24Z</time>
      </trkpt>
      <trkpt lat="49.42529" lon="1.20265">
        <ele>141</ele>
        <time>2017-05-09T14:32:24Z</time>
      </trkpt>
      <trkpt lat="49.42528" lon="1.20272">
        <ele>141</ele>
        <time>2017-05-09T14:32:24Z</time>
      </trkpt>
      <trkpt lat="49.42531" lon="1.2028">
        <ele>141</ele>
        <time>2017-05-09T14:32:40Z</time>
      </trkpt>
      <trkpt lat="49.42531" lon="1.20285">
        <ele>141</ele>
        <time>2017-05-09T14:32:40Z</time>
      </trkpt>
      <trkpt lat="49.42531" lon="1.20291">
        <ele>141</ele>
        <time>2017-05-09T14:32:40Z</time>
      </trkpt>
      <trkpt lat="49.42533" lon="1.20299">
        <ele>141</ele>
        <time>2017-05-09T14:32:40Z</time>
      </trkpt>
      <trkpt lat="49.42534" lon="1.20305">
        <ele>141</ele>
        <time>2017-05-09T14:32:56Z</time>
      </trkpt>
      <trkpt lat="49.42536" lon="1.20314">
        <ele>141</ele>
        <time>2017-05-09T14:32:56Z</time>
      </trkpt>
      <trkpt lat="49.42539" lon="1.20322">
        <ele>141</ele>
        <time>2017-05-09T14:32:56Z</time>
      </trkpt>
      <trkpt lat="49.4254" lon="1.20329">
        <ele>141</ele>
        <time>2017-05-09T14:32:56Z</time>
      </trkpt>
      <trkpt lat="49.42541" lon="1.20336">
        <ele>141</ele>
        <time>2017-05-09T14:33:12Z</time>
      </trkpt>
      <trkpt lat="49.42542" lon="1.20343">
        <ele>142</ele>
        <time>2017-05-09T14:33:12Z</time>
      </trkpt>
      <trkpt lat="49.42543" lon="1.2035">
        <ele>142</ele>
        <time>2017-05-09T14:33:12Z</time>
      </trkpt>
      <trkpt lat="49.42546" lon="1.20358">
        <ele>142</ele>
        <time>2017-05-09T14:33:12Z</time>
      </trkpt>
      <trkpt lat="49.42548" lon="1.20368">
        <ele>142</ele>
        <time>2017-05-09T14:33:28Z</time>
      </trkpt>
      <trkpt lat="49.4255" lon="1.20376">
        <ele>143</ele>
        <time>2017-05-09T14:33:28Z</time>
      </trkpt>
      <trkpt lat="49.4255" lon="1.20384">
        <ele>143</ele>
        <time>2017-05-09T14:33:28Z</time>
      </trkpt>
      <trkpt lat="49.42549" lon="1.20391">
        <ele>143</ele>
        <time>2017-05-09T14:33:28Z</time>
      </trkpt>
      <trkpt lat="49.42549" lon="1.20397">
        <ele>143</ele>
        <time>2017-05-09T14:33:44Z</time>
      </trkpt>
      <trkpt lat="49.42549" lon="1.20403">
        <ele>143</ele>
        <time>2017-05-09T14:33:44Z</time>
      </trkpt>
      <trkpt lat="49.42546" lon="1.2041">
        <ele>143</ele>
        <time>2017-05-09T14:33:44Z</time>
      </trkpt>
      <trkpt lat="49.42545" lon="1.2042">
        <ele>143</ele>
        <time>2017-05-09T14:33:44Z</time>
      </trkpt>
      <trkpt lat="49.42545" lon="1.20429">
        <ele>143</ele>
        <time>2017-05-09T14:34:00Z</time>
      </trkpt>
      <trkpt lat="49.42546" lon="1.20436">
        <ele>143</ele>
        <time>2017-05-09T14:34:00Z</time>
      </trkpt>
      <trkpt lat="49.42548" lon="1.20443">
        <ele>143</ele>
        <time>2017-05-09T14:34:00Z</time>
      </trkpt>
      <trkpt lat="49.4255" lon="1.20451">
        <ele>143</ele>
        <time>2017-05-09T14:34:00Z</time>
      </trkpt>
      <trkpt lat="49.4255" lon="1.20457">
        <ele>143</ele>
        <time>2017-05-09T14:34:16Z</time>
      </trkpt>
      <trkpt lat="49.4255" lon="1.20463">
        <ele>144</ele>
        <time>2017-05-09T14:34:16Z</time>
      </trkpt>
      <trkpt lat="49.4255" lon="1.20471">
        <ele>144</ele>
        <time>2017-05-09T14:34:16Z</time>
      </trkpt>
      <trkpt lat="49.42548" lon="1.20479">
        <ele>144</ele>
        <time>2017-05-09T14:34:16Z</time>
      </trkpt>
      <trkpt lat="49.42548" lon="1.2049">
        <ele>144</ele>
        <time>2017-05-09T14:34:32Z</time>
      </trkpt>
      <trkpt lat="49.42549" lon="1.20496">
        <ele>144</ele>
        <time>2017-05-09T14:34:32Z</time>
      </trkpt>
      <trkpt lat="49.4255" lon="1.20504">
        <ele>144</ele>
        <time>2017-05-09T14:34:32Z</time>
      </trkpt>
      <trkpt lat="49.4255" lon="1.20512">
        <ele>144</ele>
        <time>2017-05-09T14:34:32Z</time>
      </trkpt>
      <trkpt lat="49.42548" lon="1.20518">
        <ele>144</ele>
        <time>2017-05-09T14:34:48Z</time>
      </trkpt>
      <trkpt lat="49.42547" lon="1.20524">
        <ele>144</ele>
        <time>2017-05-09T14:34:48Z</time>
      </trkpt>
      <trkpt lat="49.42547" lon="1.20532">
        <ele>144</ele>
        <time>2017-05-09T14:34:48Z</time>
      </trkpt>
      <trkpt lat="49.4255" lon="1.20539">
        <ele>144</ele>
        <time>2017-05-09T14:34:48Z</time>
      </trkpt>
      <trkpt lat="49.42551" lon="1.20546">
        <ele>145</ele>
        <time>2017-05-09T14:35:04Z</time>
      </trkpt>
      <trkpt lat="49.42552" lon="1.20554">
        <ele>145</ele>
        <time>2017-05-09T14:35:04Z</time>
      </trkpt>
      <trkpt lat="49.42553" lon="1.20562">
        <ele>145</ele>
        <time>2017-05-09T14:35:04Z</time>
      </trkpt>
      <trkpt lat="49.42553" lon="1.20569">
        <ele>145</ele>
        <time>2017-05-09T14:35:04Z</time>
      </trkpt>
      <trkpt lat="49.42554" lon="1.20577">
        <ele>145</ele>
        <time>2017-05-09T14:35:20Z</time>
      </trkpt>
      <trkpt lat="49.42555" lon="1.20585">
        <ele>145</ele>
        <time>2017-05-09T14:35:20Z</time>
      </trkpt>
      <trkpt lat="49.42556" lon="1.20592">
        <ele>145</ele>
        <time>2017-05-09T14:35:20Z</time>
      </trkpt>
      <trkpt lat="49.42556" lon="1.20598">
        <ele>145</ele>
        <time>2017-05-09T14:35:20Z</time>
      </trkpt>
      <trkpt lat="49.42557" lon="1.20605">
        <ele>145</ele>
        <time>2017-05-09T14:35:36Z</time>
      </trkpt>
      <trkpt lat="49.42557" lon="1.20615">
        <ele>145</ele>
        <time>2017-05-09T14:35:36Z</time>
      </trkpt>
      <trkpt lat="49.42558" lon="1.20619">
        <ele>145</ele>
        <time>2017-05-09T14:35:36Z</time>
      </trkpt>
      <trkpt lat="49.42558" lon="1.20627">
        <ele>146</ele>
        <time>2017-05-09T14:35:36Z</time>
      </trkpt>
      <trkpt lat="49.42557" lon="1.20636">
        <ele>146</ele>
        <time>2017-05-09T14:35:52Z</time>
      </trkpt>
      <trkpt lat="49.42557" lon="1.20644">
        <ele>146</ele>
        <time>2017-05-09T14:35:52Z</time>
      </trkpt>
      <trkpt lat="49.42557" lon="1.20651">
        <ele>146</ele>
        <time>2017-05-09T14:35:52Z</time>
      </trkpt>
      <trkpt lat="49.42556" lon="1.20659">
        <ele>146</ele>
        <time>2017-05-09T14:35:52Z</time>
      </trkpt>
      <trkpt lat="49.42556" lon="1.20667">
        <ele>146</ele>
        <time>2017-05-09T14:36:08Z</time>
      </trkpt>
      <trkpt lat="49.42556" lon="1.20674">
        <ele>146</ele>
        <time>2017-05-09T14:36:08Z</time>
      </trkpt>
      <trkpt lat="49.42557" lon="1.20681">
        <ele>146</ele>
        <time>2017-05-09T14:36:08Z</time>
      </trkpt>
      <trkpt lat="49.42556" lon="1.20689">
        <ele>146</ele>
        <time>2017-05-09T14:36:08Z</time>
      </trkpt>
      <trkpt lat="49.42557" lon="1.20697">
        <ele>146</ele>
        <time>2017-05-09T14:36:24Z</time>
      </trkpt>
      <trkpt lat="49.42555" lon="1.20705">
        <ele>146</ele>
        <time>2017-05-09T14:36:24Z</time>
      </trkpt>
      <trkpt lat="49.42553" lon="1.20712">
        <ele>147</ele>
        <time>2017-05-09T14:36:24Z</time>
      </trkpt>
      <trkpt lat="49.4255" lon="1.20716">
        <ele>147</ele>
        <time>2017-05-09T14:36:24Z</time>
      </trkpt>
      <trkpt lat="49.42548" lon="1.20723">
        <ele>147</ele>
        <time>2017-05-09T14:36:40Z</time>
      </trkpt>
      <trkpt lat="49.42547" lon="1.20731">
        <ele>147</ele>
        <time>2017-05-09T14:36:40Z</time>
      </trkpt>
      <trkpt lat="49.42549" lon="1.20739">
        <ele>147</ele>
        <time>2017-05-09T14:36:40Z</time>
      </trkpt>
      <trkpt lat="49.4255" lon="1.20746">
        <ele>147</ele>
        <time>2017-05-09T14:36:40Z</time>
      </trkpt>
      <trkpt lat="49.42551" lon="1.20751">
        <ele>147</ele>
        <time>2017-05-09T14:36:56Z</time>
      </trkpt>
      <trkpt lat="49.42551" lon="1.20755">
        <ele>147</ele>
        <time>2017-05-09T14:36:56Z</time>
      </trkpt>
      <trkpt lat="49.42553" lon="1.20763">
        <ele>147</ele>
        <time>2017-05-09T14:36:56Z</time>
      </trkpt>
      <trkpt lat="49.42555" lon="1.20771">
        <ele>147</ele>
        <time>2017-05-09T14:36:56Z</time>
      </trkpt>
      <trkpt lat="49.42555" lon="1.20777">
        <ele>147</ele>
        <time>2017-05-09T14:37:12Z</time>
      </trkpt>
      <trkpt lat="49.42554" lon="1.20783">
        <ele>147</ele>
        <time>2017-05-09T14:37:12Z</time>
      </trkpt>
      <trkpt lat="49.42555" lon="1.20789">
        <ele>147</ele>
        <time>2017-05-09T14:37:12Z</time>
      </trkpt>
      <trkpt lat="49.42557" lon="1.20795">
        <ele>148</ele>
        <time>2017-05-09T14:37:12Z</time>
      </trkpt>
      <trkpt lat="49.42555" lon="1.20803">
        <ele>148</ele>
        <time>2017-05-09T14:37:28Z</time>
      </trkpt>
      <trkpt lat="49.42555" lon="1.20811">
        <ele>148</ele>
        <time>2017-05-09T14:37:28Z</time>
      </trkpt>
      <trkpt lat="49.42554" lon="1.20817">
        <ele>148</ele>
        <time>2017-05-09T14:37:28Z</time>
      </trkpt>
      <trkpt lat="49.42554" lon="1.20824">
        <ele>148</ele>
        <time>2017-05-09T14:37:28Z</time>
      </trkpt>
      <trkpt lat="49.42555" lon="1.20828">
        <ele>148</ele>
        <time>2017-05-09T14:37:44Z</time>
      </trkpt>
      <trkpt lat="49.42556" lon="1.20836">
        <ele>148</ele>
        <time>2017-05-09T14:37:44Z</time>
      </trkpt>
      <trkpt lat="49.42558" lon="1.20844">
        <ele>148</ele>
        <time>2017-05-09T14:37:44Z</time>
      </trkpt>
      <trkpt lat="49.42559" lon="1.20852">
        <ele>148</ele>
        <time>2017-05-09T14:37:44Z</time>
      </trkpt>
      <trkpt lat="49.4256" lon="1.2086">
        <ele>148</ele>
        <time>2017-05-09T14:38:00Z</time>
      </trkpt>
      <trkpt lat="49.4256" lon="1.20868">
        <ele>148</ele>
        <time>2017-05-09T14:38:00Z</time>
      </trkpt>
      <trkpt lat="49.42562" lon="1.20874">
        <ele>148</ele>
        <time>2017-05-09T14:38:00Z</time>
      </trkpt>
      <trkpt lat="49.42565" lon="1.20879">
        <ele>149</ele>
        <time>2017-05-09T14:38:00Z</time>
      </trkpt>
      <trkpt lat="49.42565" lon="1.20886">
        <ele>149</ele>
        <time>2017-05-09T14:38:16Z</time>
      </trkpt>
      <trkpt lat="49.42564" lon="1.20892">
        <ele>149</ele>
        <time>2017-05-09T14:38:16Z</time>
      </trkpt>
      <trkpt lat="49.42564" lon="1.20899">
        <ele>149</ele>
        <time>2017-05-09T14:38:16Z</time>
      </trkpt>
      <trkpt lat="49.42564" lon="1.20906">
        <ele>149</ele>
        <time>2017-05-09T14:38:16Z</time>
      </trkpt>
      <trkpt lat="49.42563" lon="1.20913">
        <ele>149</ele>
        <time>2017-05-09T14:38:32Z</time>
      </trkpt>
      <trkpt lat="49.42562" lon="1.20919">
        <ele>149</ele>
        <time>2017-05-09T14:38:32Z</time>
      </trkpt>
      <trkpt lat="49.42564" lon="1.20927">
        <ele>149</ele>
        <time>2017-05-09T14:38:32Z</time>
      </trkpt>
      <trkpt lat="49.42566" lon="1.20934">
        <ele>149</ele>
        <time>2017-05-09T14:38:32Z</time>
      </trkpt>
      <trkpt lat="49.4257" lon="1.2094">
        <ele>149</ele>
        <time>2017-05-09T14:38:48Z</time>
      </trkpt>
      <trkpt lat="49.42571" lon="1.20947">
        <ele>149</ele>
        <time>2017-05-09T14:38:48Z</time>
      </trkpt>
      <trkpt lat="49.42571" lon="1.20953">
        <ele>149</ele>
        <time>2017-05-09T14:38:48Z</time>
      </trkpt>
      <trkpt lat="49.42572" lon="1.20961">
        <ele>151</ele>
        <time>2017-05-09T14:38:48Z</time>
      </trkpt>
      <trkpt lat="49.42572" lon="1.20968">
        <ele>151</ele>
        <time>2017-05-09T14:39:04Z</time>
      </trkpt>
      <trkpt lat="49.42573" lon="1.20977">
        <ele>151</ele>
        <time>2017-05-09T14:39:04Z</time>
      </trkpt>
      <trkpt lat="49.42574" lon="1.20985">
        <ele>151</ele>
        <time>2017-05-09T14:39:04Z</time>
      </trkpt>
      <trkpt lat="49.42575" lon="1.20992">
        <ele>151</ele>
        <time>2017-05-09T14:39:04Z</time>
      </trkpt>
      <trkpt lat="49.42577" lon="1.21">
        <ele>151</ele>
        <time>2017-05-09T14:39:32Z</time>
      </trkpt>
      <trkpt lat="49.42577" lon="1.21007">
        <ele>151</ele>
        <time>2017-05-09T14:39:32Z</time>
      </trkpt>
      <trkpt lat="49.42577" lon="1.21014">
        <ele>151</ele>
        <time>2017-05-09T14:39:32Z</time>
      </trkpt>
      <trkpt lat="49.42577" lon="1.21021">
        <ele>151</ele>
        <time>2017-05-09T14:39:32Z</time>
      </trkpt>
      <trkpt lat="49.42579" lon="1.2103">
        <ele>151</ele>
        <time>2017-05-09T14:39:32Z</time>
      </trkpt>
      <trkpt lat="49.4258" lon="1.21038">
        <ele>151</ele>
        <time>2017-05-09T14:39:48Z</time>
      </trkpt>
      <trkpt lat="49.42582" lon="1.21044">
        <ele>152</ele>
        <time>2017-05-09T14:39:48Z</time>
      </trkpt>
      <trkpt lat="49.42587" lon="1.21049">
        <ele>152</ele>
        <time>2017-05-09T14:39:48Z</time>
      </trkpt>
      <trkpt lat="49.42592" lon="1.21052">
        <ele>152</ele>
        <time>2017-05-09T14:39:48Z</time>
      </trkpt>
      <trkpt lat="49.42596" lon="1.21056">
        <ele>152</ele>
        <time>2017-05-09T14:40:04Z</time>
      </trkpt>
      <trkpt lat="49.42601" lon="1.21057">
        <ele>152</ele>
        <time>2017-05-09T14:40:04Z</time>
      </trkpt>
      <trkpt lat="49.42605" lon="1.2106">
        <ele>152</ele>
        <time>2017-05-09T14:40:04Z</time>
      </trkpt>
      <trkpt lat="49.42608" lon="1.21062">
        <ele>152</ele>
        <time>2017-05-09T14:40:04Z</time>
      </trkpt>
      <trkpt lat="49.42612" lon="1.21069">
        <ele>152</ele>
        <time>2017-05-09T14:40:20Z</time>
      </trkpt>
      <trkpt lat="49.42614" lon="1.21075">
        <ele>152</ele>
        <time>2017-05-09T14:40:20Z</time>
      </trkpt>
      <trkpt lat="49.42618" lon="1.2108">
        <ele>152</ele>
        <time>2017-05-09T14:40:20Z</time>
      </trkpt>
      <trkpt lat="49.42621" lon="1.21084">
        <ele>152</ele>
        <time>2017-05-09T14:40:20Z</time>
      </trkpt>
      <trkpt lat="49.42625" lon="1.21089">
        <ele>152</ele>
        <time>2017-05-09T14:40:36Z</time>
      </trkpt>
      <trkpt lat="49.42628" lon="1.21095">
        <ele>154</ele>
        <time>2017-05-09T14:40:36Z</time>
      </trkpt>
      <trkpt lat="49.42631" lon="1.21102">
        <ele>154</ele>
        <time>2017-05-09T14:40:36Z</time>
      </trkpt>
      <trkpt lat="49.42633" lon="1.21109">
        <ele>154</ele>
        <time>2017-05-09T14:40:36Z</time>
      </trkpt>
      <trkpt lat="49.42636" lon="1.21116">
        <ele>154</ele>
        <time>2017-05-09T14:40:52Z</time>
      </trkpt>
      <trkpt lat="49.42641" lon="1.2112">
        <ele>154</ele>
        <time>2017-05-09T14:40:52Z</time>
      </trkpt>
      <trkpt lat="49.42645" lon="1.21125">
        <ele>154</ele>
        <time>2017-05-09T14:40:52Z</time>
      </trkpt>
      <trkpt lat="49.42649" lon="1.2113">
        <ele>154</ele>
        <time>2017-05-09T14:40:52Z</time>
      </trkpt>
      <trkpt lat="49.42653" lon="1.21136">
        <ele>154</ele>
        <time>2017-05-09T14:41:08Z</time>
      </trkpt>
      <trkpt lat="49.42657" lon="1.21142">
        <ele>154</ele>
        <time>2017-05-09T14:41:08Z</time>
      </trkpt>
      <trkpt lat="49.4266" lon="1.21148">
        <ele>154</ele>
        <time>2017-05-09T14:41:08Z</time>
      </trkpt>
      <trkpt lat="49.42662" lon="1.21154">
        <ele>154</ele>
        <time>2017-05-09T14:41:08Z</time>
      </trkpt>
      <trkpt lat="49.42666" lon="1.21161">
        <ele>154</ele>
        <time>2017-05-09T14:41:24Z</time>
      </trkpt>
      <trkpt lat="49.42666" lon="1.21167">
        <ele>154</ele>
        <time>2017-05-09T14:41:24Z</time>
      </trkpt>
      <trkpt lat="49.42667" lon="1.21175">
        <ele>154</ele>
        <time>2017-05-09T14:41:24Z</time>
      </trkpt>
      <trkpt lat="49.42668" lon="1.21183">
        <ele>154</ele>
        <time>2017-05-09T14:41:24Z</time>
      </trkpt>
      <trkpt lat="49.42672" lon="1.21188">
        <ele>154</ele>
        <time>2017-05-09T14:41:40Z</time>
      </trkpt>
      <trkpt lat="49.42675" lon="1.21192">
        <ele>154</ele>
        <time>2017-05-09T14:41:40Z</time>
      </trkpt>
      <trkpt lat="49.42678" lon="1.21195">
        <ele>154</ele>
        <time>2017-05-09T14:41:40Z</time>
      </trkpt>
      <trkpt lat="49.42681" lon="1.212">
        <ele>154</ele>
        <time>2017-05-09T14:41:40Z</time>
      </trkpt>
      <trkpt lat="49.42684" lon="1.21205">
        <ele>154</ele>
        <time>2017-05-09T14:41:56Z</time>
      </trkpt>
      <trkpt lat="49.4269" lon="1.21207">
        <ele>154</ele>
        <time>2017-05-09T14:41:56Z</time>
      </trkpt>
      <trkpt lat="49.42695" lon="1.2121">
        <ele>156</ele>
        <time>2017-05-09T14:41:56Z</time>
      </trkpt>
      <trkpt lat="49.42699" lon="1.21214">
        <ele>156</ele>
        <time>2017-05-09T14:41:56Z</time>
      </trkpt>
      <trkpt lat="49.42702" lon="1.21221">
        <ele>156</ele>
        <time>2017-05-09T14:42:12Z</time>
      </trkpt>
      <trkpt lat="49.42706" lon="1.21227">
        <ele>156</ele>
        <time>2017-05-09T14:42:12Z</time>
      </trkpt>
      <trkpt lat="49.42709" lon="1.21233">
        <ele>157</ele>
        <time>2017-05-09T14:42:12Z</time>
      </trkpt>
      <trkpt lat="49.42714" lon="1.21236">
        <ele>157</ele>
        <time>2017-05-09T14:42:12Z</time>
      </trkpt>
      <trkpt lat="49.42719" lon="1.21238">
        <ele>157</ele>
        <time>2017-05-09T14:42:28Z</time>
      </trkpt>
      <trkpt lat="49.42723" lon="1.21243">
        <ele>157</ele>
        <time>2017-05-09T14:42:28Z</time>
      </trkpt>
      <trkpt lat="49.42728" lon="1.21245">
        <ele>157</ele>
        <time>2017-05-09T14:42:28Z</time>
      </trkpt>
      <trkpt lat="49.42731" lon="1.21255">
        <ele>157</ele>
        <time>2017-05-09T14:42:28Z</time>
      </trkpt>
      <trkpt lat="49.42733" lon="1.21263">
        <ele>157</ele>
        <time>2017-05-09T14:42:44Z</time>
      </trkpt>
      <trkpt lat="49.42734" lon="1.21271">
        <ele>157</ele>
        <time>2017-05-09T14:42:44Z</time>
      </trkpt>
      <trkpt lat="49.42736" lon="1.21277">
        <ele>157</ele>
        <time>2017-05-09T14:42:44Z</time>
      </trkpt>
      <trkpt lat="49.42738" lon="1.21281">
        <ele>157</ele>
        <time>2017-05-09T14:42:44Z</time>
      </trkpt>
      <trkpt lat="49.42742" lon="1.21286">
        <ele>157</ele>
        <time>2017-05-09T14:43:00Z</time>
      </trkpt>
      <trkpt lat="49.42742" lon="1.21293">
        <ele>160</ele>
        <time>2017-05-09T14:43:00Z</time>
      </trkpt>
      <trkpt lat="49.42745" lon="1.21298">
        <ele>160</ele>
        <time>2017-05-09T14:43:00Z</time>
      </trkpt>
      <trkpt lat="49.42748" lon="1.21302">
        <ele>160</ele>
        <time>2017-05-09T14:43:00Z</time>
      </trkpt>
      <trkpt lat="49.4275" lon="1.21308">
        <ele>160</ele>
        <time>2017-05-09T14:43:16Z</time>
      </trkpt>
      <trkpt lat="49.42754" lon="1.21313">
        <ele>160</ele>
        <time>2017-05-09T14:43:16Z</time>
      </trkpt>
      <trkpt lat="49.42758" lon="1.21319">
        <ele>160</ele>
        <time>2017-05-09T14:43:16Z</time>
      </trkpt>
      <trkpt lat="49.42762" lon="1.21326">
        <ele>160</ele>
        <time>2017-05-09T14:43:16Z</time>
      </trkpt>
      <trkpt lat="49.42765" lon="1.21327">
        <ele>160</ele>
        <time>2017-05-09T14:43:32Z</time>
      </trkpt>
      <trkpt lat="49.42771" lon="1.21328">
        <ele>160</ele>
        <time>2017-05-09T14:43:32Z</time>
      </trkpt>
      <trkpt lat="49.42774" lon="1.2133">
        <ele>160</ele>
        <time>2017-05-09T14:43:32Z</time>
      </trkpt>
      <trkpt lat="49.42779" lon="1.21329">
        <ele>160</ele>
        <time>2017-05-09T14:43:32Z</time>
      </trkpt>
      <trkpt lat="49.42782" lon="1.21328">
        <ele>160</ele>
        <time>2017-05-09T14:43:48Z</time>
      </trkpt>
      <trkpt lat="49.42787" lon="1.21326">
        <ele>160</ele>
        <time>2017-05-09T14:43:48Z</time>
      </trkpt>
      <trkpt lat="49.4279" lon="1.21324">
        <ele>160</ele>
        <time>2017-05-09T14:43:48Z</time>
      </trkpt>
      <trkpt lat="49.42794" lon="1.21319">
        <ele>156</ele>
        <time>2017-05-09T14:43:48Z</time>
      </trkpt>
      <trkpt lat="49.42798" lon="1.21318">
        <ele>156</ele>
        <time>2017-05-09T14:44:04Z</time>
      </trkpt>
      <trkpt lat="49.42802" lon="1.21317">
        <ele>156</ele>
        <time>2017-05-09T14:44:04Z</time>
      </trkpt>
      <trkpt lat="49.42807" lon="1.21313">
        <ele>156</ele>
        <time>2017-05-09T14:44:04Z</time>
      </trkpt>
      <trkpt lat="49.42812" lon="1.2131">
        <ele>156</ele>
        <time>2017-05-09T14:44:04Z</time>
      </trkpt>
      <trkpt lat="49.42815" lon="1.21305">
        <ele>156</ele>
        <time>2017-05-09T14:44:20Z</time>
      </trkpt>
      <trkpt lat="49.42817" lon="1.21303">
        <ele>156</ele>
        <time>2017-05-09T14:44:20Z</time>
      </trkpt>
      <trkpt lat="49.42821" lon="1.21301">
        <ele>156</ele>
        <time>2017-05-09T14:44:20Z</time>
      </trkpt>
      <trkpt lat="49.42827" lon="1.21302">
        <ele>156</ele>
        <time>2017-05-09T14:44:20Z</time>
      </trkpt>
      <trkpt lat="49.42831" lon="1.21299">
        <ele>156</ele>
        <time>2017-05-09T14:44:36Z</time>
      </trkpt>
      <trkpt lat="49.42835" lon="1.21295">
        <ele>156</ele>
        <time>2017-05-09T14:44:36Z</time>
      </trkpt>
      <trkpt lat="49.42839" lon="1.2129">
        <ele>157</ele>
        <time>2017-05-09T14:44:36Z</time>
      </trkpt>
      <trkpt lat="49.42843" lon="1.21285">
        <ele>157</ele>
        <time>2017-05-09T14:44:36Z</time>
      </trkpt>
      <trkpt lat="49.42846" lon="1.2128">
        <ele>157</ele>
        <time>2017-05-09T14:44:53Z</time>
      </trkpt>
      <trkpt lat="49.42848" lon="1.21275">
        <ele>157</ele>
        <time>2017-05-09T14:44:53Z</time>
      </trkpt>
      <trkpt lat="49.42852" lon="1.2127">
        <ele>157</ele>
        <time>2017-05-09T14:44:53Z</time>
      </trkpt>
      <trkpt lat="49.42855" lon="1.21262">
        <ele>157</ele>
        <time>2017-05-09T14:44:53Z</time>
      </trkpt>
      <trkpt lat="49.42858" lon="1.2126">
        <ele>157</ele>
        <time>2017-05-09T14:45:08Z</time>
      </trkpt>
      <trkpt lat="49.42863" lon="1.21257">
        <ele>157</ele>
        <time>2017-05-09T14:45:08Z</time>
      </trkpt>
      <trkpt lat="49.42867" lon="1.21253">
        <ele>157</ele>
        <time>2017-05-09T14:45:08Z</time>
      </trkpt>
      <trkpt lat="49.42871" lon="1.21248">
        <ele>157</ele>
        <time>2017-05-09T14:45:08Z</time>
      </trkpt>
      <trkpt lat="49.42875" lon="1.21243">
        <ele>157</ele>
        <time>2017-05-09T14:45:24Z</time>
      </trkpt>
      <trkpt lat="49.42878" lon="1.21236">
        <ele>157</ele>
        <time>2017-05-09T14:45:24Z</time>
      </trkpt>
      <trkpt lat="49.42883" lon="1.21232">
        <ele>157</ele>
        <time>2017-05-09T14:45:24Z</time>
      </trkpt>
      <trkpt lat="49.42888" lon="1.21228">
        <ele>157</ele>
        <time>2017-05-09T14:45:24Z</time>
      </trkpt>
      <trkpt lat="49.42893" lon="1.21225">
        <ele>157</ele>
        <time>2017-05-09T14:45:40Z</time>
      </trkpt>
      <trkpt lat="49.42897" lon="1.21225">
        <ele>157</ele>
        <time>2017-05-09T14:45:40Z</time>
      </trkpt>
      <trkpt lat="49.42902" lon="1.21221">
        <ele>157</ele>
        <time>2017-05-09T14:45:40Z</time>
      </trkpt>
      <trkpt lat="49.42906" lon="1.21218">
        <ele>157</ele>
        <time>2017-05-09T14:45:40Z</time>
      </trkpt>
      <trkpt lat="49.42912" lon="1.21216">
        <ele>157</ele>
        <time>2017-05-09T14:45:56Z</time>
      </trkpt>
      <trkpt lat="49.42916" lon="1.21215">
        <ele>157</ele>
        <time>2017-05-09T14:45:56Z</time>
      </trkpt>
      <trkpt lat="49.4292" lon="1.21216">
        <ele>157</ele>
        <time>2017-05-09T14:45:56Z</time>
      </trkpt>
      <trkpt lat="49.42925" lon="1.21216">
        <ele>157</ele>
        <time>2017-05-09T14:45:56Z</time>
      </trkpt>
      <trkpt lat="49.4293" lon="1.21214">
        <ele>157</ele>
        <time>2017-05-09T14:46:12Z</time>
      </trkpt>
      <trkpt lat="49.42934" lon="1.21212">
        <ele>157</ele>
        <time>2017-05-09T14:46:12Z</time>
      </trkpt>
      <trkpt lat="49.42939" lon="1.2121">
        <ele>157</ele>
        <time>2017-05-09T14:46:12Z</time>
      </trkpt>
      <trkpt lat="49.42944" lon="1.21209">
        <ele>157</ele>
        <time>2017-05-09T14:46:12Z</time>
      </trkpt>
      <trkpt lat="49.4295" lon="1.21208">
        <ele>155</ele>
        <time>2017-05-09T14:46:28Z</time>
      </trkpt>
      <trkpt lat="49.42954" lon="1.21204">
        <ele>155</ele>
        <time>2017-05-09T14:46:28Z</time>
      </trkpt>
      <trkpt lat="49.4296" lon="1.21207">
        <ele>155</ele>
        <time>2017-05-09T14:46:28Z</time>
      </trkpt>
      <trkpt lat="49.42965" lon="1.2121">
        <ele>154</ele>
        <time>2017-05-09T14:46:28Z</time>
      </trkpt>
      <trkpt lat="49.4297" lon="1.21206">
        <ele>155</ele>
        <time>2017-05-09T14:46:44Z</time>
      </trkpt>
      <trkpt lat="49.42974" lon="1.21203">
        <ele>155</ele>
        <time>2017-05-09T14:46:44Z</time>
      </trkpt>
      <trkpt lat="49.42977" lon="1.21199">
        <ele>155</ele>
        <time>2017-05-09T14:46:44Z</time>
      </trkpt>
      <trkpt lat="49.42981" lon="1.21197">
        <ele>155</ele>
        <time>2017-05-09T14:46:44Z</time>
      </trkpt>
      <trkpt lat="49.42987" lon="1.21195">
        <ele>155</ele>
        <time>2017-05-09T14:47:00Z</time>
      </trkpt>
      <trkpt lat="49.42992" lon="1.21195">
        <ele>155</ele>
        <time>2017-05-09T14:47:00Z</time>
      </trkpt>
      <trkpt lat="49.42997" lon="1.21195">
        <ele>155</ele>
        <time>2017-05-09T14:47:00Z</time>
      </trkpt>
      <trkpt lat="49.43003" lon="1.21195">
        <ele>155</ele>
        <time>2017-05-09T14:47:00Z</time>
      </trkpt>
      <trkpt lat="49.43008" lon="1.21199">
        <ele>155</ele>
        <time>2017-05-09T14:47:16Z</time>
      </trkpt>
      <trkpt lat="49.43013" lon="1.212">
        <ele>155</ele>
        <time>2017-05-09T14:47:16Z</time>
      </trkpt>
      <trkpt lat="49.43018" lon="1.21194">
        <ele>155</ele>
        <time>2017-05-09T14:47:16Z</time>
      </trkpt>
      <trkpt lat="49.43023" lon="1.21189">
        <ele>155</ele>
        <time>2017-05-09T14:47:16Z</time>
      </trkpt>
      <trkpt lat="49.43027" lon="1.21182">
        <ele>155</ele>
        <time>2017-05-09T14:47:32Z</time>
      </trkpt>
      <trkpt lat="49.43031" lon="1.21176">
        <ele>155</ele>
        <time>2017-05-09T14:47:32Z</time>
      </trkpt>
      <trkpt lat="49.43036" lon="1.21173">
        <ele>155</ele>
        <time>2017-05-09T14:47:32Z</time>
      </trkpt>
      <trkpt lat="49.43039" lon="1.21173">
        <ele>155</ele>
        <time>2017-05-09T14:47:32Z</time>
      </trkpt>
      <trkpt lat="49.43044" lon="1.21175">
        <ele>153</ele>
        <time>2017-05-09T14:47:48Z</time>
      </trkpt>
      <trkpt lat="49.4305" lon="1.21176">
        <ele>153</ele>
        <time>2017-05-09T14:47:48Z</time>
      </trkpt>
      <trkpt lat="49.43055" lon="1.21178">
        <ele>153</ele>
        <time>2017-05-09T14:47:48Z</time>
      </trkpt>
      <trkpt lat="49.43061" lon="1.21177">
        <ele>153</ele>
        <time>2017-05-09T14:47:48Z</time>
      </trkpt>
      <trkpt lat="49.43065" lon="1.21175">
        <ele>153</ele>
        <time>2017-05-09T14:48:04Z</time>
      </trkpt>
      <trkpt lat="49.43069" lon="1.21173">
        <ele>153</ele>
        <time>2017-05-09T14:48:04Z</time>
      </trkpt>
      <trkpt lat="49.43074" lon="1.21173">
        <ele>153</ele>
        <time>2017-05-09T14:48:04Z</time>
      </trkpt>
      <trkpt lat="49.43078" lon="1.21172">
        <ele>153</ele>
        <time>2017-05-09T14:48:04Z</time>
      </trkpt>
      <trkpt lat="49.43082" lon="1.21172">
        <ele>153</ele>
        <time>2017-05-09T14:48:20Z</time>
      </trkpt>
      <trkpt lat="49.43086" lon="1.21178">
        <ele>153</ele>
        <time>2017-05-09T14:48:20Z</time>
      </trkpt>
      <trkpt lat="49.4309" lon="1.21185">
        <ele>153</ele>
        <time>2017-05-09T14:48:20Z</time>
      </trkpt>
      <trkpt lat="49.43095" lon="1.21189">
        <ele>153</ele>
        <time>2017-05-09T14:48:20Z</time>
      </trkpt>
      <trkpt lat="49.43101" lon="1.21187">
        <ele>153</ele>
        <time>2017-05-09T14:48:36Z</time>
      </trkpt>
      <trkpt lat="49.43107" lon="1.2119">
        <ele>153</ele>
        <time>2017-05-09T14:48:36Z</time>
      </trkpt>
      <trkpt lat="49.43109" lon="1.21194">
        <ele>153</ele>
        <time>2017-05-09T14:48:36Z</time>
      </trkpt>
      <trkpt lat="49.43113" lon="1.21198">
        <ele>153</ele>
        <time>2017-05-09T14:48:36Z</time>
      </trkpt>
      <trkpt lat="49.43119" lon="1.21201">
        <ele>153</ele>
        <time>2017-05-09T14:48:52Z</time>
      </trkpt>
      <trkpt lat="49.43126" lon="1.212">
        <ele>151</ele>
        <time>2017-05-09T14:48:52Z</time>
      </trkpt>
      <trkpt lat="49.43131" lon="1.21201">
        <ele>151</ele>
        <time>2017-05-09T14:48:52Z</time>
      </trkpt>
      <trkpt lat="49.43135" lon="1.21203">
        <ele>151</ele>
        <time>2017-05-09T14:48:52Z</time>
      </trkpt>
      <trkpt lat="49.4314" lon="1.21202">
        <ele>151</ele>
        <time>2017-05-09T14:49:08Z</time>
      </trkpt>
      <trkpt lat="49.43144" lon="1.21203">
        <ele>151</ele>
        <time>2017-05-09T14:49:08Z</time>
      </trkpt>
      <trkpt lat="49.43149" lon="1.21204">
        <ele>151</ele>
        <time>2017-05-09T14:49:08Z</time>
      </trkpt>
      <trkpt lat="49.43152" lon="1.21204">
        <ele>151</ele>
        <time>2017-05-09T14:49:08Z</time>
      </trkpt>
      <trkpt lat="49.43156" lon="1.21206">
        <ele>151</ele>
        <time>2017-05-09T14:49:24Z</time>
      </trkpt>
      <trkpt lat="49.43161" lon="1.21209">
        <ele>154</ele>
        <time>2017-05-09T14:49:24Z</time>
      </trkpt>
      <trkpt lat="49.43164" lon="1.21213">
        <ele>154</ele>
        <time>2017-05-09T14:49:24Z</time>
      </trkpt>
      <trkpt lat="49.43167" lon="1.21219">
        <ele>154</ele>
        <time>2017-05-09T14:49:24Z</time>
      </trkpt>
      <trkpt lat="49.43172" lon="1.2122">
        <ele>154</ele>
        <time>2017-05-09T14:49:40Z</time>
      </trkpt>
      <trkpt lat="49.43175" lon="1.21223">
        <ele>154</ele>
        <time>2017-05-09T14:49:40Z</time>
      </trkpt>
      <trkpt lat="49.43179" lon="1.21226">
        <ele>154</ele>
        <time>2017-05-09T14:49:40Z</time>
      </trkpt>
      <trkpt lat="49.43184" lon="1.21226">
        <ele>154</ele>
        <time>2017-05-09T14:49:40Z</time>
      </trkpt>
      <trkpt lat="49.43186" lon="1.21223">
        <ele>154</ele>
        <time>2017-05-09T14:50:04Z</time>
      </trkpt>
      <trkpt lat="49.43186" lon="1.21222">
        <ele>154</ele>
        <time>2017-05-09T14:50:04Z</time>
      </trkpt>
      <trkpt lat="49.43188" lon="1.21222">
        <ele>154</ele>
        <time>2017-05-09T14:50:04Z</time>
      </trkpt>
      <trkpt lat="49.43192" lon="1.21219">
        <ele>154</ele>
        <time>2017-05-09T14:50:04Z</time>
      </trkpt>
      <trkpt lat="49.43196" lon="1.21218">
        <ele>154</ele>
        <time>2017-05-09T14:50:04Z</time>
      </trkpt>
      <trkpt lat="49.432" lon="1.21217">
        <ele>154</ele>
        <time>2017-05-09T14:50:20Z</time>
      </trkpt>
      <trkpt lat="49.43204" lon="1.21217">
        <ele>154</ele>
        <time>2017-05-09T14:50:20Z</time>
      </trkpt>
      <trkpt lat="49.43207" lon="1.21211">
        <ele>154</ele>
        <time>2017-05-09T14:50:20Z</time>
      </trkpt>
      <trkpt lat="49.4321" lon="1.21205">
        <ele>150</ele>
        <time>2017-05-09T14:50:20Z</time>
      </trkpt>
      <trkpt lat="49.43211" lon="1.21198">
        <ele>150</ele>
        <time>2017-05-09T14:50:36Z</time>
      </trkpt>
      <trkpt lat="49.43213" lon="1.21191">
        <ele>150</ele>
        <time>2017-05-09T14:50:36Z</time>
      </trkpt>
      <trkpt lat="49.43216" lon="1.21186">
        <ele>150</ele>
        <time>2017-05-09T14:50:36Z</time>
      </trkpt>
      <trkpt lat="49.43221" lon="1.21183">
        <ele>150</ele>
        <time>2017-05-09T14:50:36Z</time>
      </trkpt>
      <trkpt lat="49.43224" lon="1.21177">
        <ele>150</ele>
        <time>2017-05-09T14:50:52Z</time>
      </trkpt>
      <trkpt lat="49.43227" lon="1.21172">
        <ele>150</ele>
        <time>2017-05-09T14:50:52Z</time>
      </trkpt>
      <trkpt lat="49.4323" lon="1.21166">
        <ele>150</ele>
        <time>2017-05-09T14:50:52Z</time>
      </trkpt>
      <trkpt lat="49.43234" lon="1.21162">
        <ele>150</ele>
        <time>2017-05-09T14:50:52Z</time>
      </trkpt>
      <trkpt lat="49.4324" lon="1.21156">
        <ele>150</ele>
        <time>2017-05-09T14:51:08Z</time>
      </trkpt>
      <trkpt lat="49.43243" lon="1.21154">
        <ele>150</ele>
        <time>2017-05-09T14:51:08Z</time>
      </trkpt>
      <trkpt lat="49.43245" lon="1.21148">
        <ele>150</ele>
        <time>2017-05-09T14:51:08Z</time>
      </trkpt>
      <trkpt lat="49.43249" lon="1.21146">
        <ele>150</ele>
        <time>2017-05-09T14:51:08Z</time>
      </trkpt>
      <trkpt lat="49.43253" lon="1.21145">
        <ele>150</ele>
        <time>2017-05-09T14:51:24Z</time>
      </trkpt>
      <trkpt lat="49.43254" lon="1.21138">
        <ele>150</ele>
        <time>2017-05-09T14:51:24Z</time>
      </trkpt>
      <trkpt lat="49.43254" lon="1.2113">
        <ele>150</ele>
        <time>2017-05-09T14:51:24Z</time>
      </trkpt>
      <trkpt lat="49.43258" lon="1.21124">
        <ele>150</ele>
        <time>2017-05-09T14:51:24Z</time>
      </trkpt>
      <trkpt lat="49.43262" lon="1.21121">
        <ele>150</ele>
        <time>2017-05-09T14:51:40Z</time>
      </trkpt>
      <trkpt lat="49.43266" lon="1.21116">
        <ele>150</ele>
        <time>2017-05-09T14:51:40Z</time>
      </trkpt>
      <trkpt lat="49.43269" lon="1.21107">
        <ele>150</ele>
        <time>2017-05-09T14:51:40Z</time>
      </trkpt>
      <trkpt lat="49.43274" lon="1.21102">
        <ele>150</ele>
        <time>2017-05-09T14:51:40Z</time>
      </trkpt>
      <trkpt lat="49.43282" lon="1.21104">
        <ele>150</ele>
        <time>2017-05-09T14:51:56Z</time>
      </trkpt>
      <trkpt lat="49.43287" lon="1.21105">
        <ele>150</ele>
        <time>2017-05-09T14:51:56Z</time>
      </trkpt>
      <trkpt lat="49.43291" lon="1.21099">
        <ele>150</ele>
        <time>2017-05-09T14:51:56Z</time>
      </trkpt>
      <trkpt lat="49.43296" lon="1.21091">
        <ele>150</ele>
        <time>2017-05-09T14:51:56Z</time>
      </trkpt>
      <trkpt lat="49.43301" lon="1.21086">
        <ele>150</ele>
        <time>2017-05-09T14:52:12Z</time>
      </trkpt>
      <trkpt lat="49.43304" lon="1.21082">
        <ele>150</ele>
        <time>2017-05-09T14:52:12Z</time>
      </trkpt>
      <trkpt lat="49.43309" lon="1.21078">
        <ele>150</ele>
        <time>2017-05-09T14:52:12Z</time>
      </trkpt>
      <trkpt lat="49.43313" lon="1.21073">
        <ele>150</ele>
        <time>2017-05-09T14:52:12Z</time>
      </trkpt>
      <trkpt lat="49.43316" lon="1.21069">
        <ele>150</ele>
        <time>2017-05-09T14:52:28Z</time>
      </trkpt>
      <trkpt lat="49.4332" lon="1.21065">
        <ele>150</ele>
        <time>2017-05-09T14:52:28Z</time>
      </trkpt>
      <trkpt lat="49.43323" lon="1.21059">
        <ele>150</ele>
        <time>2017-05-09T14:52:28Z</time>
      </trkpt>
      <trkpt lat="49.43327" lon="1.21056">
        <ele>150</ele>
        <time>2017-05-09T14:52:28Z</time>
      </trkpt>
      <trkpt lat="49.4333" lon="1.2105">
        <ele>150</ele>
        <time>2017-05-09T14:52:44Z</time>
      </trkpt>
      <trkpt lat="49.43333" lon="1.21045">
        <ele>150</ele>
        <time>2017-05-09T14:52:44Z</time>
      </trkpt>
      <trkpt lat="49.43339" lon="1.21042">
        <ele>150</ele>
        <time>2017-05-09T14:52:44Z</time>
      </trkpt>
      <trkpt lat="49.43342" lon="1.21038">
        <ele>149</ele>
        <time>2017-05-09T14:52:44Z</time>
      </trkpt>
      <trkpt lat="49.43342" lon="1.21029">
        <ele>149</ele>
        <time>2017-05-09T14:53:00Z</time>
      </trkpt>
      <trkpt lat="49.43343" lon="1.21021">
        <ele>149</ele>
        <time>2017-05-09T14:53:00Z</time>
      </trkpt>
      <trkpt lat="49.4335" lon="1.2102">
        <ele>149</ele>
        <time>2017-05-09T14:53:00Z</time>
      </trkpt>
      <trkpt lat="49.43355" lon="1.21017">
        <ele>149</ele>
        <time>2017-05-09T14:53:00Z</time>
      </trkpt>
      <trkpt lat="49.43356" lon="1.2101">
        <ele>149</ele>
        <time>2017-05-09T14:53:16Z</time>
      </trkpt>
      <trkpt lat="49.43357" lon="1.21003">
        <ele>149</ele>
        <time>2017-05-09T14:53:16Z</time>
      </trkpt>
      <trkpt lat="49.43361" lon="1.21">
        <ele>149</ele>
        <time>2017-05-09T14:53:16Z</time>
      </trkpt>
      <trkpt lat="49.43367" lon="1.20997">
        <ele>149</ele>
        <time>2017-05-09T14:53:16Z</time>
      </trkpt>
      <trkpt lat="49.43372" lon="1.20992">
        <ele>149</ele>
        <time>2017-05-09T14:53:32Z</time>
      </trkpt>
      <trkpt lat="49.43374" lon="1.20984">
        <ele>149</ele>
        <time>2017-05-09T14:53:32Z</time>
      </trkpt>
      <trkpt lat="49.43376" lon="1.20978">
        <ele>148</ele>
        <time>2017-05-09T14:53:32Z</time>
      </trkpt>
      <trkpt lat="49.43381" lon="1.20975">
        <ele>148</ele>
        <time>2017-05-09T14:53:32Z</time>
      </trkpt>
      <trkpt lat="49.43386" lon="1.20974">
        <ele>148</ele>
        <time>2017-05-09T14:53:48Z</time>
      </trkpt>
      <trkpt lat="49.43388" lon="1.20969">
        <ele>148</ele>
        <time>2017-05-09T14:53:48Z</time>
      </trkpt>
      <trkpt lat="49.43392" lon="1.20963">
        <ele>148</ele>
        <time>2017-05-09T14:53:48Z</time>
      </trkpt>
      <trkpt lat="49.43395" lon="1.20957">
        <ele>147</ele>
        <time>2017-05-09T14:53:48Z</time>
      </trkpt>
      <trkpt lat="49.43402" lon="1.20958">
        <ele>147</ele>
        <time>2017-05-09T14:54:16Z</time>
      </trkpt>
      <trkpt lat="49.43404" lon="1.20957">
        <ele>147</ele>
        <time>2017-05-09T14:54:16Z</time>
      </trkpt>
      <trkpt lat="49.43403" lon="1.20959">
        <ele>148</ele>
        <time>2017-05-09T14:54:16Z</time>
      </trkpt>
      <trkpt lat="49.43406" lon="1.20959">
        <ele>148</ele>
        <time>2017-05-09T14:54:16Z</time>
      </trkpt>
      <trkpt lat="49.43409" lon="1.20959">
        <ele>148</ele>
        <time>2017-05-09T14:54:16Z</time>
      </trkpt>
      <trkpt lat="49.43413" lon="1.20958">
        <ele>147</ele>
        <time>2017-05-09T14:54:32Z</time>
      </trkpt>
      <trkpt lat="49.43418" lon="1.20962">
        <ele>148</ele>
        <time>2017-05-09T14:54:32Z</time>
      </trkpt>
      <trkpt lat="49.43422" lon="1.20966">
        <ele>148</ele>
        <time>2017-05-09T14:54:32Z</time>
      </trkpt>
      <trkpt lat="49.43426" lon="1.2097">
        <ele>148</ele>
        <time>2017-05-09T14:54:32Z</time>
      </trkpt>
      <trkpt lat="49.4343" lon="1.20972">
        <ele>148</ele>
        <time>2017-05-09T14:54:48Z</time>
      </trkpt>
      <trkpt lat="49.43434" lon="1.20974">
        <ele>148</ele>
        <time>2017-05-09T14:54:48Z</time>
      </trkpt>
      <trkpt lat="49.43438" lon="1.20976">
        <ele>148</ele>
        <time>2017-05-09T14:54:48Z</time>
      </trkpt>
      <trkpt lat="49.43443" lon="1.20978">
        <ele>148</ele>
        <time>2017-05-09T14:54:48Z</time>
      </trkpt>
      <trkpt lat="49.43447" lon="1.2098">
        <ele>148</ele>
        <time>2017-05-09T14:55:04Z</time>
      </trkpt>
      <trkpt lat="49.43451" lon="1.20982">
        <ele>148</ele>
        <time>2017-05-09T14:55:04Z</time>
      </trkpt>
      <trkpt lat="49.43455" lon="1.20985">
        <ele>148</ele>
        <time>2017-05-09T14:55:04Z</time>
      </trkpt>
      <trkpt lat="49.43459" lon="1.20987">
        <ele>150</ele>
        <time>2017-05-09T14:55:04Z</time>
      </trkpt>
      <trkpt lat="49.43463" lon="1.20991">
        <ele>150</ele>
        <time>2017-05-09T14:55:20Z</time>
      </trkpt>
      <trkpt lat="49.43469" lon="1.20992">
        <ele>150</ele>
        <time>2017-05-09T14:55:20Z</time>
      </trkpt>
      <trkpt lat="49.43475" lon="1.20995">
        <ele>150</ele>
        <time>2017-05-09T14:55:20Z</time>
      </trkpt>
      <trkpt lat="49.4348" lon="1.20997">
        <ele>150</ele>
        <time>2017-05-09T14:55:20Z</time>
      </trkpt>
      <trkpt lat="49.43484" lon="1.20999">
        <ele>150</ele>
        <time>2017-05-09T14:55:36Z</time>
      </trkpt>
      <trkpt lat="49.43488" lon="1.21002">
        <ele>150</ele>
        <time>2017-05-09T14:55:36Z</time>
      </trkpt>
      <trkpt lat="49.43492" lon="1.21005">
        <ele>150</ele>
        <time>2017-05-09T14:55:36Z</time>
      </trkpt>
      <trkpt lat="49.43496" lon="1.21008">
        <ele>150</ele>
        <time>2017-05-09T14:55:36Z</time>
      </trkpt>
      <trkpt lat="49.435" lon="1.2101">
        <ele>150</ele>
        <time>2017-05-09T14:55:52Z</time>
      </trkpt>
      <trkpt lat="49.43505" lon="1.21012">
        <ele>150</ele>
        <time>2017-05-09T14:55:52Z</time>
      </trkpt>
      <trkpt lat="49.43511" lon="1.21015">
        <ele>150</ele>
        <time>2017-05-09T14:55:52Z</time>
      </trkpt>
      <trkpt lat="49.43515" lon="1.21018">
        <ele>150</ele>
        <time>2017-05-09T14:55:52Z</time>
      </trkpt>
      <trkpt lat="49.43519" lon="1.2102">
        <ele>150</ele>
        <time>2017-05-09T14:56:08Z</time>
      </trkpt>
      <trkpt lat="49.43525" lon="1.21023">
        <ele>150</ele>
        <time>2017-05-09T14:56:08Z</time>
      </trkpt>
      <trkpt lat="49.43529" lon="1.21026">
        <ele>150</ele>
        <time>2017-05-09T14:56:08Z</time>
      </trkpt>
      <trkpt lat="49.43533" lon="1.2103">
        <ele>150</ele>
        <time>2017-05-09T14:56:08Z</time>
      </trkpt>
      <trkpt lat="49.43538" lon="1.21032">
        <ele>150</ele>
        <time>2017-05-09T14:56:24Z</time>
      </trkpt>
      <trkpt lat="49.43543" lon="1.21033">
        <ele>152</ele>
        <time>2017-05-09T14:56:24Z</time>
      </trkpt>
      <trkpt lat="49.43549" lon="1.21033">
        <ele>152</ele>
        <time>2017-05-09T14:56:24Z</time>
      </trkpt>
      <trkpt lat="49.43554" lon="1.21033">
        <ele>152</ele>
        <time>2017-05-09T14:56:24Z</time>
      </trkpt>
      <trkpt lat="49.43558" lon="1.21037">
        <ele>152</ele>
        <time>2017-05-09T14:56:40Z</time>
      </trkpt>
      <trkpt lat="49.43562" lon="1.21041">
        <ele>152</ele>
        <time>2017-05-09T14:56:40Z</time>
      </trkpt>
      <trkpt lat="49.43566" lon="1.21043">
        <ele>154</ele>
        <time>2017-05-09T14:56:40Z</time>
      </trkpt>
      <trkpt lat="49.4357" lon="1.21046">
        <ele>154</ele>
        <time>2017-05-09T14:56:40Z</time>
      </trkpt>
      <trkpt lat="49.43573" lon="1.2105">
        <ele>154</ele>
        <time>2017-05-09T14:56:56Z</time>
      </trkpt>
      <trkpt lat="49.43576" lon="1.21053">
        <ele>154</ele>
        <time>2017-05-09T14:56:56Z</time>
      </trkpt>
      <trkpt lat="49.4358" lon="1.21055">
        <ele>154</ele>
        <time>2017-05-09T14:56:56Z</time>
      </trkpt>
      <trkpt lat="49.43585" lon="1.21056">
        <ele>154</ele>
        <time>2017-05-09T14:56:56Z</time>
      </trkpt>
      <trkpt lat="49.4359" lon="1.21056">
        <ele>154</ele>
        <time>2017-05-09T14:57:12Z</time>
      </trkpt>
      <trkpt lat="49.43596" lon="1.21057">
        <ele>154</ele>
        <time>2017-05-09T14:57:12Z</time>
      </trkpt>
      <trkpt lat="49.43601" lon="1.21058">
        <ele>154</ele>
        <time>2017-05-09T14:57:12Z</time>
      </trkpt>
      <trkpt lat="49.43604" lon="1.21061">
        <ele>154</ele>
        <time>2017-05-09T14:57:12Z</time>
      </trkpt>
      <trkpt lat="49.43609" lon="1.21061">
        <ele>154</ele>
        <time>2017-05-09T14:57:28Z</time>
      </trkpt>
      <trkpt lat="49.43613" lon="1.21063">
        <ele>154</ele>
        <time>2017-05-09T14:57:28Z</time>
      </trkpt>
      <trkpt lat="49.43619" lon="1.21065">
        <ele>154</ele>
        <time>2017-05-09T14:57:28Z</time>
      </trkpt>
      <trkpt lat="49.43624" lon="1.21066">
        <ele>154</ele>
        <time>2017-05-09T14:57:28Z</time>
      </trkpt>
      <trkpt lat="49.43629" lon="1.21069">
        <ele>153</ele>
        <time>2017-05-09T14:57:44Z</time>
      </trkpt>
      <trkpt lat="49.43634" lon="1.21071">
        <ele>153</ele>
        <time>2017-05-09T14:57:44Z</time>
      </trkpt>
      <trkpt lat="49.43639" lon="1.21071">
        <ele>153</ele>
        <time>2017-05-09T14:57:44Z</time>
      </trkpt>
      <trkpt lat="49.43645" lon="1.2107">
        <ele>153</ele>
        <time>2017-05-09T14:57:44Z</time>
      </trkpt>
      <trkpt lat="49.43649" lon="1.21071">
        <ele>153</ele>
        <time>2017-05-09T14:58:00Z</time>
      </trkpt>
      <trkpt lat="49.43654" lon="1.21073">
        <ele>153</ele>
        <time>2017-05-09T14:58:00Z</time>
      </trkpt>
      <trkpt lat="49.43659" lon="1.21074">
        <ele>153</ele>
        <time>2017-05-09T14:58:00Z</time>
      </trkpt>
      <trkpt lat="49.43662" lon="1.21077">
        <ele>153</ele>
        <time>2017-05-09T14:58:00Z</time>
      </trkpt>
      <trkpt lat="49.43665" lon="1.21081">
        <ele>153</ele>
        <time>2017-05-09T14:58:16Z</time>
      </trkpt>
      <trkpt lat="49.4367" lon="1.21083">
        <ele>153</ele>
        <time>2017-05-09T14:58:16Z</time>
      </trkpt>
      <trkpt lat="49.43675" lon="1.21082">
        <ele>153</ele>
        <time>2017-05-09T14:58:16Z</time>
      </trkpt>
      <trkpt lat="49.43679" lon="1.21077">
        <ele>153</ele>
        <time>2017-05-09T14:58:16Z</time>
      </trkpt>
      <trkpt lat="49.4368" lon="1.2107">
        <ele>153</ele>
        <time>2017-05-09T14:58:33Z</time>
      </trkpt>
      <trkpt lat="49.4368" lon="1.21061">
        <ele>153</ele>
        <time>2017-05-09T14:58:33Z</time>
      </trkpt>
      <trkpt lat="49.43681" lon="1.21055">
        <ele>153</ele>
        <time>2017-05-09T14:58:33Z</time>
      </trkpt>
      <trkpt lat="49.43681" lon="1.21047">
        <ele>153</ele>
        <time>2017-05-09T14:58:33Z</time>
      </trkpt>
      <trkpt lat="49.43681" lon="1.21044">
        <ele>153</ele>
        <time>2017-05-09T14:58:48Z</time>
      </trkpt>
      <trkpt lat="49.43679" lon="1.21038">
        <ele>155</ele>
        <time>2017-05-09T14:58:48Z</time>
      </trkpt>
      <trkpt lat="49.43677" lon="1.21029">
        <ele>155</ele>
        <time>2017-05-09T14:58:48Z</time>
      </trkpt>
      <trkpt lat="49.43679" lon="1.21024">
        <ele>155</ele>
        <time>2017-05-09T14:58:48Z</time>
      </trkpt>
      <trkpt lat="49.43682" lon="1.21016">
        <ele>155</ele>
        <time>2017-05-09T14:59:04Z</time>
      </trkpt>
      <trkpt lat="49.43689" lon="1.2101">
        <ele>155</ele>
        <time>2017-05-09T14:59:04Z</time>
      </trkpt>
      <trkpt lat="49.4369" lon="1.21001">
        <ele>155</ele>
        <time>2017-05-09T14:59:04Z</time>
      </trkpt>
      <trkpt lat="49.43692" lon="1.20996">
        <ele>155</ele>
        <time>2017-05-09T14:59:04Z</time>
      </trkpt>
      <trkpt lat="49.43689" lon="1.2099">
        <ele>155</ele>
        <time>2017-05-09T14:59:20Z</time>
      </trkpt>
      <trkpt lat="49.43688" lon="1.20985">
        <ele>155</ele>
        <time>2017-05-09T14:59:20Z</time>
      </trkpt>
      <trkpt lat="49.43687" lon="1.2098">
        <ele>155</ele>
        <time>2017-05-09T14:59:20Z</time>
      </trkpt>
      <trkpt lat="49.43685" lon="1.20971">
        <ele>155</ele>
        <time>2017-05-09T14:59:20Z</time>
      </trkpt>
      <trkpt lat="49.43686" lon="1.20964">
        <ele>155</ele>
        <time>2017-05-09T14:59:36Z</time>
      </trkpt>
      <trkpt lat="49.43688" lon="1.20956">
        <ele>155</ele>
        <time>2017-05-09T14:59:36Z</time>
      </trkpt>
      <trkpt lat="49.43695" lon="1.20951">
        <ele>155</ele>
        <time>2017-05-09T14:59:36Z</time>
      </trkpt>
      <trkpt lat="49.43702" lon="1.20946">
        <ele>155</ele>
        <time>2017-05-09T14:59:36Z</time>
      </trkpt>
      <trkpt lat="49.43704" lon="1.20938">
        <ele>155</ele>
        <time>2017-05-09T14:59:52Z</time>
      </trkpt>
      <trkpt lat="49.43705" lon="1.20929">
        <ele>155</ele>
        <time>2017-05-09T14:59:52Z</time>
      </trkpt>
      <trkpt lat="49.43707" lon="1.20926">
        <ele>155</ele>
        <time>2017-05-09T14:59:52Z</time>
      </trkpt>
      <trkpt lat="49.43703" lon="1.20915">
        <ele>155</ele>
        <time>2017-05-09T14:59:52Z</time>
      </trkpt>
      <trkpt lat="49.43701" lon="1.20906">
        <ele>155</ele>
        <time>2017-05-09T15:00:08Z</time>
      </trkpt>
      <trkpt lat="49.43696" lon="1.20899">
        <ele>155</ele>
        <time>2017-05-09T15:00:08Z</time>
      </trkpt>
      <trkpt lat="49.43693" lon="1.20894">
        <ele>155</ele>
        <time>2017-05-09T15:00:08Z</time>
      </trkpt>
      <trkpt lat="49.43692" lon="1.20889">
        <ele>155</ele>
        <time>2017-05-09T15:00:08Z</time>
      </trkpt>
      <trkpt lat="49.43696" lon="1.20881">
        <ele>155</ele>
        <time>2017-05-09T15:00:24Z</time>
      </trkpt>
      <trkpt lat="49.43701" lon="1.20872">
        <ele>155</ele>
        <time>2017-05-09T15:00:24Z</time>
      </trkpt>
      <trkpt lat="49.43702" lon="1.20867">
        <ele>155</ele>
        <time>2017-05-09T15:00:24Z</time>
      </trkpt>
      <trkpt lat="49.43703" lon="1.2086">
        <ele>155</ele>
        <time>2017-05-09T15:00:24Z</time>
      </trkpt>
      <trkpt lat="49.43704" lon="1.20854">
        <ele>155</ele>
        <time>2017-05-09T15:00:40Z</time>
      </trkpt>
      <trkpt lat="49.43705" lon="1.20848">
        <ele>155</ele>
        <time>2017-05-09T15:00:40Z</time>
      </trkpt>
      <trkpt lat="49.43706" lon="1.2084">
        <ele>155</ele>
        <time>2017-05-09T15:00:40Z</time>
      </trkpt>
      <trkpt lat="49.43703" lon="1.20831">
        <ele>155</ele>
        <time>2017-05-09T15:00:40Z</time>
      </trkpt>
      <trkpt lat="49.437" lon="1.20823">
        <ele>155</ele>
        <time>2017-05-09T15:00:56Z</time>
      </trkpt>
      <trkpt lat="49.437" lon="1.20816">
        <ele>155</ele>
        <time>2017-05-09T15:00:56Z</time>
      </trkpt>
      <trkpt lat="49.43702" lon="1.20809">
        <ele>155</ele>
        <time>2017-05-09T15:00:56Z</time>
      </trkpt>
      <trkpt lat="49.4371" lon="1.20804">
        <ele>158</ele>
        <time>2017-05-09T15:00:56Z</time>
      </trkpt>
      <trkpt lat="49.43713" lon="1.20799">
        <ele>158</ele>
        <time>2017-05-09T15:01:12Z</time>
      </trkpt>
      <trkpt lat="49.43712" lon="1.2079">
        <ele>158</ele>
        <time>2017-05-09T15:01:12Z</time>
      </trkpt>
      <trkpt lat="49.43712" lon="1.20782">
        <ele>158</ele>
        <time>2017-05-09T15:01:12Z</time>
      </trkpt>
      <trkpt lat="49.43709" lon="1.20774">
        <ele>158</ele>
        <time>2017-05-09T15:01:12Z</time>
      </trkpt>
      <trkpt lat="49.43705" lon="1.20769">
        <ele>154</ele>
        <time>2017-05-09T15:01:28Z</time>
      </trkpt>
      <trkpt lat="49.43707" lon="1.20761">
        <ele>154</ele>
        <time>2017-05-09T15:01:28Z</time>
      </trkpt>
      <trkpt lat="49.4371" lon="1.20757">
        <ele>158</ele>
        <time>2017-05-09T15:01:28Z</time>
      </trkpt>
      <trkpt lat="49.43708" lon="1.20748">
        <ele>154</ele>
        <time>2017-05-09T15:01:28Z</time>
      </trkpt>
      <trkpt lat="49.43709" lon="1.2074">
        <ele>158</ele>
        <time>2017-05-09T15:01:45Z</time>
      </trkpt>
      <trkpt lat="49.4371" lon="1.20732">
        <ele>158</ele>
        <time>2017-05-09T15:01:45Z</time>
      </trkpt>
      <trkpt lat="49.43706" lon="1.20725">
        <ele>154</ele>
        <time>2017-05-09T15:01:45Z</time>
      </trkpt>
      <trkpt lat="49.4371" lon="1.20714">
        <ele>158</ele>
        <time>2017-05-09T15:01:45Z</time>
      </trkpt>
      <trkpt lat="49.43712" lon="1.20708">
        <ele>158</ele>
        <time>2017-05-09T15:02:00Z</time>
      </trkpt>
      <trkpt lat="49.43711" lon="1.20702">
        <ele>158</ele>
        <time>2017-05-09T15:02:00Z</time>
      </trkpt>
      <trkpt lat="49.43711" lon="1.20694">
        <ele>158</ele>
        <time>2017-05-09T15:02:00Z</time>
      </trkpt>
      <trkpt lat="49.43713" lon="1.20687">
        <ele>158</ele>
        <time>2017-05-09T15:02:00Z</time>
      </trkpt>
      <trkpt lat="49.4371" lon="1.20679">
        <ele>158</ele>
        <time>2017-05-09T15:02:16Z</time>
      </trkpt>
      <trkpt lat="49.4371" lon="1.20673">
        <ele>158</ele>
        <time>2017-05-09T15:02:16Z</time>
      </trkpt>
      <trkpt lat="49.43709" lon="1.20669">
        <ele>158</ele>
        <time>2017-05-09T15:02:16Z</time>
      </trkpt>
      <trkpt lat="49.43706" lon="1.20666">
        <ele>153</ele>
        <time>2017-05-09T15:02:16Z</time>
      </trkpt>
      <trkpt lat="49.43704" lon="1.20661">
        <ele>153</ele>
        <time>2017-05-09T15:02:32Z</time>
      </trkpt>
      <trkpt lat="49.43706" lon="1.20652">
        <ele>153</ele>
        <time>2017-05-09T15:02:32Z</time>
      </trkpt>
      <trkpt lat="49.43706" lon="1.20645">
        <ele>153</ele>
        <time>2017-05-09T15:02:32Z</time>
      </trkpt>
      <trkpt lat="49.43706" lon="1.20637">
        <ele>153</ele>
        <time>2017-05-09T15:02:32Z</time>
      </trkpt>
      <trkpt lat="49.4371" lon="1.20628">
        <ele>158</ele>
        <time>2017-05-09T15:02:48Z</time>
      </trkpt>
      <trkpt lat="49.43712" lon="1.20618">
        <ele>158</ele>
        <time>2017-05-09T15:02:48Z</time>
      </trkpt>
      <trkpt lat="49.4371" lon="1.20612">
        <ele>158</ele>
        <time>2017-05-09T15:02:48Z</time>
      </trkpt>
      <trkpt lat="49.43711" lon="1.20608">
        <ele>158</ele>
        <time>2017-05-09T15:02:48Z</time>
      </trkpt>
      <trkpt lat="49.43708" lon="1.20599">
        <ele>153</ele>
        <time>2017-05-09T15:03:04Z</time>
      </trkpt>
      <trkpt lat="49.43708" lon="1.20591">
        <ele>158</ele>
        <time>2017-05-09T15:03:04Z</time>
      </trkpt>
      <trkpt lat="49.43709" lon="1.2058">
        <ele>158</ele>
        <time>2017-05-09T15:03:04Z</time>
      </trkpt>
      <trkpt lat="49.43707" lon="1.20571">
        <ele>153</ele>
        <time>2017-05-09T15:03:04Z</time>
      </trkpt>
      <trkpt lat="49.43705" lon="1.20565">
        <ele>153</ele>
        <time>2017-05-09T15:03:20Z</time>
      </trkpt>
      <trkpt lat="49.437" lon="1.20561">
        <ele>153</ele>
        <time>2017-05-09T15:03:20Z</time>
      </trkpt>
      <trkpt lat="49.43697" lon="1.20553">
        <ele>153</ele>
        <time>2017-05-09T15:03:20Z</time>
      </trkpt>
      <trkpt lat="49.43698" lon="1.20544">
        <ele>153</ele>
        <time>2017-05-09T15:03:20Z</time>
      </trkpt>
      <trkpt lat="49.43699" lon="1.20536">
        <ele>155</ele>
        <time>2017-05-09T15:03:36Z</time>
      </trkpt>
      <trkpt lat="49.43699" lon="1.20529">
        <ele>155</ele>
        <time>2017-05-09T15:03:36Z</time>
      </trkpt>
      <trkpt lat="49.43697" lon="1.20523">
        <ele>155</ele>
        <time>2017-05-09T15:03:36Z</time>
      </trkpt>
      <trkpt lat="49.43693" lon="1.20518">
        <ele>155</ele>
        <time>2017-05-09T15:03:36Z</time>
      </trkpt>
      <trkpt lat="49.43688" lon="1.20512">
        <ele>155</ele>
        <time>2017-05-09T15:03:52Z</time>
      </trkpt>
      <trkpt lat="49.43688" lon="1.205">
        <ele>155</ele>
        <time>2017-05-09T15:03:52Z</time>
      </trkpt>
      <trkpt lat="49.43687" lon="1.20494">
        <ele>155</ele>
        <time>2017-05-09T15:03:52Z</time>
      </trkpt>
      <trkpt lat="49.43687" lon="1.20485">
        <ele>155</ele>
        <time>2017-05-09T15:03:52Z</time>
      </trkpt>
      <trkpt lat="49.43684" lon="1.2048">
        <ele>155</ele>
        <time>2017-05-09T15:04:08Z</time>
      </trkpt>
      <trkpt lat="49.43682" lon="1.20474">
        <ele>155</ele>
        <time>2017-05-09T15:04:08Z</time>
      </trkpt>
      <trkpt lat="49.43677" lon="1.20469">
        <ele>155</ele>
        <time>2017-05-09T15:04:08Z</time>
      </trkpt>
      <trkpt lat="49.43674" lon="1.20464">
        <ele>155</ele>
        <time>2017-05-09T15:04:08Z</time>
      </trkpt>
      <trkpt lat="49.43672" lon="1.20456">
        <ele>155</ele>
        <time>2017-05-09T15:04:24Z</time>
      </trkpt>
      <trkpt lat="49.43671" lon="1.20445">
        <ele>155</ele>
        <time>2017-05-09T15:04:24Z</time>
      </trkpt>
      <trkpt lat="49.4367" lon="1.20436">
        <ele>155</ele>
        <time>2017-05-09T15:04:24Z</time>
      </trkpt>
      <trkpt lat="49.43667" lon="1.20429">
        <ele>155</ele>
        <time>2017-05-09T15:04:24Z</time>
      </trkpt>
      <trkpt lat="49.43664" lon="1.20423">
        <ele>155</ele>
        <time>2017-05-09T15:04:40Z</time>
      </trkpt>
      <trkpt lat="49.43666" lon="1.20415">
        <ele>155</ele>
        <time>2017-05-09T15:04:40Z</time>
      </trkpt>
      <trkpt lat="49.43667" lon="1.20407">
        <ele>155</ele>
        <time>2017-05-09T15:04:40Z</time>
      </trkpt>
      <trkpt lat="49.43666" lon="1.204">
        <ele>155</ele>
        <time>2017-05-09T15:04:40Z</time>
      </trkpt>
      <trkpt lat="49.43665" lon="1.20392">
        <ele>155</ele>
        <time>2017-05-09T15:04:56Z</time>
      </trkpt>
      <trkpt lat="49.43666" lon="1.20386">
        <ele>155</ele>
        <time>2017-05-09T15:04:56Z</time>
      </trkpt>
      <trkpt lat="49.43668" lon="1.20379">
        <ele>155</ele>
        <time>2017-05-09T15:04:56Z</time>
      </trkpt>
      <trkpt lat="49.43666" lon="1.20372">
        <ele>154</ele>
        <time>2017-05-09T15:04:56Z</time>
      </trkpt>
      <trkpt lat="49.43664" lon="1.20365">
        <ele>154</ele>
        <time>2017-05-09T15:05:12Z</time>
      </trkpt>
      <trkpt lat="49.43663" lon="1.20357">
        <ele>154</ele>
        <time>2017-05-09T15:05:12Z</time>
      </trkpt>
      <trkpt lat="49.43662" lon="1.2035">
        <ele>154</ele>
        <time>2017-05-09T15:05:12Z</time>
      </trkpt>
      <trkpt lat="49.43665" lon="1.20343">
        <ele>154</ele>
        <time>2017-05-09T15:05:12Z</time>
      </trkpt>
      <trkpt lat="49.43667" lon="1.20338">
        <ele>154</ele>
        <time>2017-05-09T15:05:28Z</time>
      </trkpt>
      <trkpt lat="49.43669" lon="1.20331">
        <ele>154</ele>
        <time>2017-05-09T15:05:28Z</time>
      </trkpt>
      <trkpt lat="49.4367" lon="1.20323">
        <ele>154</ele>
        <time>2017-05-09T15:05:28Z</time>
      </trkpt>
      <trkpt lat="49.43671" lon="1.20315">
        <ele>154</ele>
        <time>2017-05-09T15:05:28Z</time>
      </trkpt>
      <trkpt lat="49.43669" lon="1.20307">
        <ele>154</ele>
        <time>2017-05-09T15:05:44Z</time>
      </trkpt>
      <trkpt lat="49.43669" lon="1.20299">
        <ele>154</ele>
        <time>2017-05-09T15:05:44Z</time>
      </trkpt>
      <trkpt lat="49.43669" lon="1.20292">
        <ele>154</ele>
        <time>2017-05-09T15:05:44Z</time>
      </trkpt>
      <trkpt lat="49.43669" lon="1.20285">
        <ele>154</ele>
        <time>2017-05-09T15:05:44Z</time>
      </trkpt>
      <trkpt lat="49.43671" lon="1.20279">
        <ele>154</ele>
        <time>2017-05-09T15:06:00Z</time>
      </trkpt>
      <trkpt lat="49.43674" lon="1.20272">
        <ele>154</ele>
        <time>2017-05-09T15:06:00Z</time>
      </trkpt>
      <trkpt lat="49.43675" lon="1.20262">
        <ele>154</ele>
        <time>2017-05-09T15:06:00Z</time>
      </trkpt>
      <trkpt lat="49.43677" lon="1.20256">
        <ele>154</ele>
        <time>2017-05-09T15:06:00Z</time>
      </trkpt>
      <trkpt lat="49.43678" lon="1.20247">
        <ele>154</ele>
        <time>2017-05-09T15:06:16Z</time>
      </trkpt>
      <trkpt lat="49.43678" lon="1.20242">
        <ele>154</ele>
        <time>2017-05-09T15:06:16Z</time>
      </trkpt>
      <trkpt lat="49.43679" lon="1.20236">
        <ele>154</ele>
        <time>2017-05-09T15:06:16Z</time>
      </trkpt>
      <trkpt lat="49.43681" lon="1.20228">
        <ele>154</ele>
        <time>2017-05-09T15:06:16Z</time>
      </trkpt>
      <trkpt lat="49.43682" lon="1.20223">
        <ele>154</ele>
        <time>2017-05-09T15:06:32Z</time>
      </trkpt>
      <trkpt lat="49.43684" lon="1.20217">
        <ele>154</ele>
        <time>2017-05-09T15:06:32Z</time>
      </trkpt>
      <trkpt lat="49.43684" lon="1.2021">
        <ele>154</ele>
        <time>2017-05-09T15:06:32Z</time>
      </trkpt>
      <trkpt lat="49.43681" lon="1.20208">
        <ele>152</ele>
        <time>2017-05-09T15:06:32Z</time>
      </trkpt>
      <trkpt lat="49.43678" lon="1.20209">
        <ele>154</ele>
        <time>2017-05-09T15:06:48Z</time>
      </trkpt>
      <trkpt lat="49.43673" lon="1.20208">
        <ele>152</ele>
        <time>2017-05-09T15:06:48Z</time>
      </trkpt>
      <trkpt lat="49.43669" lon="1.20208">
        <ele>152</ele>
        <time>2017-05-09T15:06:48Z</time>
      </trkpt>
      <trkpt lat="49.43667" lon="1.20208">
        <ele>152</ele>
        <time>2017-05-09T15:06:48Z</time>
      </trkpt>
      <trkpt lat="49.43668" lon="1.20205">
        <ele>152</ele>
        <time>2017-05-09T15:08:00Z</time>
      </trkpt>
      <trkpt lat="49.43669" lon="1.20203">
        <ele>152</ele>
        <time>2017-05-09T15:08:00Z</time>
      </trkpt>
      <trkpt lat="49.43673" lon="1.20206">
        <ele>152</ele>
        <time>2017-05-09T15:08:00Z</time>
      </trkpt>
      <trkpt lat="49.43675" lon="1.20208">
        <ele>152</ele>
        <time>2017-05-09T15:08:00Z</time>
      </trkpt>
      <trkpt lat="49.43678" lon="1.20209">
        <ele>154</ele>
        <time>2017-05-09T15:08:00Z</time>
      </trkpt>
      <trkpt lat="49.43682" lon="1.20208">
        <ele>152</ele>
        <time>2017-05-09T15:08:16Z</time>
      </trkpt>
      <trkpt lat="49.43684" lon="1.20203">
        <ele>152</ele>
        <time>2017-05-09T15:08:16Z</time>
      </trkpt>
      <trkpt lat="49.43687" lon="1.20197">
        <ele>152</ele>
        <time>2017-05-09T15:08:16Z</time>
      </trkpt>
      <trkpt lat="49.43688" lon="1.2019">
        <ele>152</ele>
        <time>2017-05-09T15:08:16Z</time>
      </trkpt>
      <trkpt lat="49.43688" lon="1.20183">
        <ele>152</ele>
        <time>2017-05-09T15:08:32Z</time>
      </trkpt>
      <trkpt lat="49.43688" lon="1.20176">
        <ele>152</ele>
        <time>2017-05-09T15:08:32Z</time>
      </trkpt>
      <trkpt lat="49.4369" lon="1.20169">
        <ele>152</ele>
        <time>2017-05-09T15:08:32Z</time>
      </trkpt>
      <trkpt lat="49.4369" lon="1.20164">
        <ele>152</ele>
        <time>2017-05-09T15:08:32Z</time>
      </trkpt>
      <trkpt lat="49.4369" lon="1.20158">
        <ele>152</ele>
        <time>2017-05-09T15:08:48Z</time>
      </trkpt>
      <trkpt lat="49.43692" lon="1.20152">
        <ele>152</ele>
        <time>2017-05-09T15:08:48Z</time>
      </trkpt>
      <trkpt lat="49.43693" lon="1.20146">
        <ele>152</ele>
        <time>2017-05-09T15:08:48Z</time>
      </trkpt>
      <trkpt lat="49.4369" lon="1.2014">
        <ele>152</ele>
        <time>2017-05-09T15:08:48Z</time>
      </trkpt>
      <trkpt lat="49.43688" lon="1.20134">
        <ele>152</ele>
        <time>2017-05-09T15:09:04Z</time>
      </trkpt>
      <trkpt lat="49.43688" lon="1.20128">
        <ele>152</ele>
        <time>2017-05-09T15:09:04Z</time>
      </trkpt>
      <trkpt lat="49.43689" lon="1.20123">
        <ele>150</ele>
        <time>2017-05-09T15:09:04Z</time>
      </trkpt>
      <trkpt lat="49.43691" lon="1.20116">
        <ele>150</ele>
        <time>2017-05-09T15:09:04Z</time>
      </trkpt>
      <trkpt lat="49.43694" lon="1.20108">
        <ele>150</ele>
        <time>2017-05-09T15:09:20Z</time>
      </trkpt>
      <trkpt lat="49.43695" lon="1.20102">
        <ele>150</ele>
        <time>2017-05-09T15:09:20Z</time>
      </trkpt>
      <trkpt lat="49.43696" lon="1.20094">
        <ele>150</ele>
        <time>2017-05-09T15:09:20Z</time>
      </trkpt>
      <trkpt lat="49.43697" lon="1.20087">
        <ele>150</ele>
        <time>2017-05-09T15:09:20Z</time>
      </trkpt>
      <trkpt lat="49.43698" lon="1.20082">
        <ele>150</ele>
        <time>2017-05-09T15:09:36Z</time>
      </trkpt>
      <trkpt lat="49.437" lon="1.20076">
        <ele>150</ele>
        <time>2017-05-09T15:09:36Z</time>
      </trkpt>
      <trkpt lat="49.43703" lon="1.20072">
        <ele>150</ele>
        <time>2017-05-09T15:09:36Z</time>
      </trkpt>
      <trkpt lat="49.43703" lon="1.20065">
        <ele>150</ele>
        <time>2017-05-09T15:09:36Z</time>
      </trkpt>
      <trkpt lat="49.43703" lon="1.20057">
        <ele>150</ele>
        <time>2017-05-09T15:09:52Z</time>
      </trkpt>
      <trkpt lat="49.43702" lon="1.20049">
        <ele>150</ele>
        <time>2017-05-09T15:09:52Z</time>
      </trkpt>
      <trkpt lat="49.43703" lon="1.20042">
        <ele>151</ele>
        <time>2017-05-09T15:09:52Z</time>
      </trkpt>
      <trkpt lat="49.43704" lon="1.20034">
        <ele>151</ele>
        <time>2017-05-09T15:09:52Z</time>
      </trkpt>
      <trkpt lat="49.43704" lon="1.20027">
        <ele>151</ele>
        <time>2017-05-09T15:10:08Z</time>
      </trkpt>
      <trkpt lat="49.43705" lon="1.2002">
        <ele>151</ele>
        <time>2017-05-09T15:10:08Z</time>
      </trkpt>
      <trkpt lat="49.43705" lon="1.20013">
        <ele>151</ele>
        <time>2017-05-09T15:10:08Z</time>
      </trkpt>
      <trkpt lat="49.43707" lon="1.20006">
        <ele>151</ele>
        <time>2017-05-09T15:10:08Z</time>
      </trkpt>
      <trkpt lat="49.43707" lon="1.19999">
        <ele>151</ele>
        <time>2017-05-09T15:10:24Z</time>
      </trkpt>
      <trkpt lat="49.43707" lon="1.19992">
        <ele>151</ele>
        <time>2017-05-09T15:10:24Z</time>
      </trkpt>
      <trkpt lat="49.43708" lon="1.19985">
        <ele>151</ele>
        <time>2017-05-09T15:10:24Z</time>
      </trkpt>
      <trkpt lat="49.43708" lon="1.19978">
        <ele>151</ele>
        <time>2017-05-09T15:10:24Z</time>
      </trkpt>
      <trkpt lat="49.43707" lon="1.19972">
        <ele>151</ele>
        <time>2017-05-09T15:10:40Z</time>
      </trkpt>
      <trkpt lat="49.43706" lon="1.19965">
        <ele>151</ele>
        <time>2017-05-09T15:10:40Z</time>
      </trkpt>
      <trkpt lat="49.43708" lon="1.19958">
        <ele>149</ele>
        <time>2017-05-09T15:10:40Z</time>
      </trkpt>
      <trkpt lat="49.4371" lon="1.1995">
        <ele>151</ele>
        <time>2017-05-09T15:10:40Z</time>
      </trkpt>
      <trkpt lat="49.43713" lon="1.19944">
        <ele>151</ele>
        <time>2017-05-09T15:10:56Z</time>
      </trkpt>
      <trkpt lat="49.43712" lon="1.19936">
        <ele>151</ele>
        <time>2017-05-09T15:10:56Z</time>
      </trkpt>
      <trkpt lat="49.4371" lon="1.1993">
        <ele>151</ele>
        <time>2017-05-09T15:10:56Z</time>
      </trkpt>
      <trkpt lat="49.43714" lon="1.19924">
        <ele>151</ele>
        <time>2017-05-09T15:10:56Z</time>
      </trkpt>
      <trkpt lat="49.43717" lon="1.19916">
        <ele>151</ele>
        <time>2017-05-09T15:11:12Z</time>
      </trkpt>
      <trkpt lat="49.43718" lon="1.19908">
        <ele>151</ele>
        <time>2017-05-09T15:11:12Z</time>
      </trkpt>
      <trkpt lat="49.4372" lon="1.19902">
        <ele>151</ele>
        <time>2017-05-09T15:11:12Z</time>
      </trkpt>
      <trkpt lat="49.4372" lon="1.19894">
        <ele>151</ele>
        <time>2017-05-09T15:11:12Z</time>
      </trkpt>
      <trkpt lat="49.4372" lon="1.19887">
        <ele>151</ele>
        <time>2017-05-09T15:11:28Z</time>
      </trkpt>
      <trkpt lat="49.43721" lon="1.19879">
        <ele>151</ele>
        <time>2017-05-09T15:11:28Z</time>
      </trkpt>
      <trkpt lat="49.43722" lon="1.19871">
        <ele>149</ele>
        <time>2017-05-09T15:11:28Z</time>
      </trkpt>
      <trkpt lat="49.43724" lon="1.19863">
        <ele>149</ele>
        <time>2017-05-09T15:11:28Z</time>
      </trkpt>
      <trkpt lat="49.43728" lon="1.19857">
        <ele>149</ele>
        <time>2017-05-09T15:11:44Z</time>
      </trkpt>
      <trkpt lat="49.43728" lon="1.19849">
        <ele>149</ele>
        <time>2017-05-09T15:11:44Z</time>
      </trkpt>
      <trkpt lat="49.43729" lon="1.1984">
        <ele>149</ele>
        <time>2017-05-09T15:11:44Z</time>
      </trkpt>
      <trkpt lat="49.4373" lon="1.19833">
        <ele>149</ele>
        <time>2017-05-09T15:11:44Z</time>
      </trkpt>
      <trkpt lat="49.43731" lon="1.19824">
        <ele>149</ele>
        <time>2017-05-09T15:12:00Z</time>
      </trkpt>
      <trkpt lat="49.4373" lon="1.19816">
        <ele>149</ele>
        <time>2017-05-09T15:12:00Z</time>
      </trkpt>
      <trkpt lat="49.43732" lon="1.19808">
        <ele>149</ele>
        <time>2017-05-09T15:12:00Z</time>
      </trkpt>
      <trkpt lat="49.43735" lon="1.19801">
        <ele>149</ele>
        <time>2017-05-09T15:12:00Z</time>
      </trkpt>
      <trkpt lat="49.43736" lon="1.19793">
        <ele>149</ele>
        <time>2017-05-09T15:12:16Z</time>
      </trkpt>
      <trkpt lat="49.43736" lon="1.19786">
        <ele>148</ele>
        <time>2017-05-09T15:12:16Z</time>
      </trkpt>
      <trkpt lat="49.43736" lon="1.19779">
        <ele>148</ele>
        <time>2017-05-09T15:12:16Z</time>
      </trkpt>
      <trkpt lat="49.43737" lon="1.19771">
        <ele>148</ele>
        <time>2017-05-09T15:12:16Z</time>
      </trkpt>
      <trkpt lat="49.4374" lon="1.19764">
        <ele>148</ele>
        <time>2017-05-09T15:12:32Z</time>
      </trkpt>
      <trkpt lat="49.43742" lon="1.19757">
        <ele>148</ele>
        <time>2017-05-09T15:12:32Z</time>
      </trkpt>
      <trkpt lat="49.43744" lon="1.1975">
        <ele>148</ele>
        <time>2017-05-09T15:12:32Z</time>
      </trkpt>
      <trkpt lat="49.43746" lon="1.19743">
        <ele>148</ele>
        <time>2017-05-09T15:12:32Z</time>
      </trkpt>
      <trkpt lat="49.43748" lon="1.19735">
        <ele>148</ele>
        <time>2017-05-09T15:12:48Z</time>
      </trkpt>
      <trkpt lat="49.43753" lon="1.1973">
        <ele>148</ele>
        <time>2017-05-09T15:12:48Z</time>
      </trkpt>
      <trkpt lat="49.43754" lon="1.19723">
        <ele>148</ele>
        <time>2017-05-09T15:12:48Z</time>
      </trkpt>
      <trkpt lat="49.43756" lon="1.19717">
        <ele>148</ele>
        <time>2017-05-09T15:12:48Z</time>
      </trkpt>
      <trkpt lat="49.43758" lon="1.19711">
        <ele>148</ele>
        <time>2017-05-09T15:13:04Z</time>
      </trkpt>
      <trkpt lat="49.43761" lon="1.19703">
        <ele>147</ele>
        <time>2017-05-09T15:13:04Z</time>
      </trkpt>
      <trkpt lat="49.43761" lon="1.19694">
        <ele>147</ele>
        <time>2017-05-09T15:13:04Z</time>
      </trkpt>
      <trkpt lat="49.43762" lon="1.19687">
        <ele>147</ele>
        <time>2017-05-09T15:13:04Z</time>
      </trkpt>
      <trkpt lat="49.43761" lon="1.19678">
        <ele>147</ele>
        <time>2017-05-09T15:13:20Z</time>
      </trkpt>
      <trkpt lat="49.43762" lon="1.19672">
        <ele>147</ele>
        <time>2017-05-09T15:13:20Z</time>
      </trkpt>
      <trkpt lat="49.43763" lon="1.19665">
        <ele>147</ele>
        <time>2017-05-09T15:13:20Z</time>
      </trkpt>
      <trkpt lat="49.43768" lon="1.19657">
        <ele>147</ele>
        <time>2017-05-09T15:13:20Z</time>
      </trkpt>
      <trkpt lat="49.4377" lon="1.19649">
        <ele>147</ele>
        <time>2017-05-09T15:13:36Z</time>
      </trkpt>
      <trkpt lat="49.43771" lon="1.19643">
        <ele>147</ele>
        <time>2017-05-09T15:13:36Z</time>
      </trkpt>
      <trkpt lat="49.43774" lon="1.19637">
        <ele>147</ele>
        <time>2017-05-09T15:13:36Z</time>
      </trkpt>
      <trkpt lat="49.43774" lon="1.19629">
        <ele>147</ele>
        <time>2017-05-09T15:13:36Z</time>
      </trkpt>
      <trkpt lat="49.43775" lon="1.19621">
        <ele>147</ele>
        <time>2017-05-09T15:13:53Z</time>
      </trkpt>
      <trkpt lat="49.43777" lon="1.19614">
        <ele>147</ele>
        <time>2017-05-09T15:13:53Z</time>
      </trkpt>
      <trkpt lat="49.43781" lon="1.19608">
        <ele>147</ele>
        <time>2017-05-09T15:13:53Z</time>
      </trkpt>
      <trkpt lat="49.43785" lon="1.19599">
        <ele>147</ele>
        <time>2017-05-09T15:13:53Z</time>
      </trkpt>
      <trkpt lat="49.43786" lon="1.19594">
        <ele>147</ele>
        <time>2017-05-09T15:14:08Z</time>
      </trkpt>
      <trkpt lat="49.43787" lon="1.19586">
        <ele>147</ele>
        <time>2017-05-09T15:14:08Z</time>
      </trkpt>
      <trkpt lat="49.43789" lon="1.19579">
        <ele>147</ele>
        <time>2017-05-09T15:14:08Z</time>
      </trkpt>
      <trkpt lat="49.4379" lon="1.19572">
        <ele>147</ele>
        <time>2017-05-09T15:14:08Z</time>
      </trkpt>
      <trkpt lat="49.43789" lon="1.19564">
        <ele>147</ele>
        <time>2017-05-09T15:14:24Z</time>
      </trkpt>
      <trkpt lat="49.43789" lon="1.19556">
        <ele>147</ele>
        <time>2017-05-09T15:14:24Z</time>
      </trkpt>
      <trkpt lat="49.43791" lon="1.19549">
        <ele>147</ele>
        <time>2017-05-09T15:14:24Z</time>
      </trkpt>
      <trkpt lat="49.43791" lon="1.19541">
        <ele>146</ele>
        <time>2017-05-09T15:14:24Z</time>
      </trkpt>
      <trkpt lat="49.43793" lon="1.19533">
        <ele>150</ele>
        <time>2017-05-09T15:14:40Z</time>
      </trkpt>
      <trkpt lat="49.43797" lon="1.19526">
        <ele>150</ele>
        <time>2017-05-09T15:14:40Z</time>
      </trkpt>
      <trkpt lat="49.43799" lon="1.19519">
        <ele>150</ele>
        <time>2017-05-09T15:14:40Z</time>
      </trkpt>
      <trkpt lat="49.43798" lon="1.19511">
        <ele>150</ele>
        <time>2017-05-09T15:14:40Z</time>
      </trkpt>
      <trkpt lat="49.43799" lon="1.19503">
        <ele>150</ele>
        <time>2017-05-09T15:14:56Z</time>
      </trkpt>
      <trkpt lat="49.43801" lon="1.19496">
        <ele>150</ele>
        <time>2017-05-09T15:14:56Z</time>
      </trkpt>
      <trkpt lat="49.43804" lon="1.19488">
        <ele>150</ele>
        <time>2017-05-09T15:14:56Z</time>
      </trkpt>
      <trkpt lat="49.43806" lon="1.19479">
        <ele>150</ele>
        <time>2017-05-09T15:14:56Z</time>
      </trkpt>
      <trkpt lat="49.43808" lon="1.19472">
        <ele>150</ele>
        <time>2017-05-09T15:15:12Z</time>
      </trkpt>
      <trkpt lat="49.4381" lon="1.19465">
        <ele>150</ele>
        <time>2017-05-09T15:15:12Z</time>
      </trkpt>
      <trkpt lat="49.4381" lon="1.19458">
        <ele>149</ele>
        <time>2017-05-09T15:15:12Z</time>
      </trkpt>
      <trkpt lat="49.4381" lon="1.19451">
        <ele>149</ele>
        <time>2017-05-09T15:15:12Z</time>
      </trkpt>
      <trkpt lat="49.43812" lon="1.19444">
        <ele>149</ele>
        <time>2017-05-09T15:15:28Z</time>
      </trkpt>
      <trkpt lat="49.43813" lon="1.19436">
        <ele>149</ele>
        <time>2017-05-09T15:15:28Z</time>
      </trkpt>
      <trkpt lat="49.43814" lon="1.19426">
        <ele>149</ele>
        <time>2017-05-09T15:15:28Z</time>
      </trkpt>
      <trkpt lat="49.43814" lon="1.1942">
        <ele>149</ele>
        <time>2017-05-09T15:15:28Z</time>
      </trkpt>
      <trkpt lat="49.43816" lon="1.19412">
        <ele>149</ele>
        <time>2017-05-09T15:15:44Z</time>
      </trkpt>
      <trkpt lat="49.43817" lon="1.19404">
        <ele>149</ele>
        <time>2017-05-09T15:15:44Z</time>
      </trkpt>
      <trkpt lat="49.43819" lon="1.19397">
        <ele>149</ele>
        <time>2017-05-09T15:15:44Z</time>
      </trkpt>
      <trkpt lat="49.4382" lon="1.1939">
        <ele>149</ele>
        <time>2017-05-09T15:15:44Z</time>
      </trkpt>
      <trkpt lat="49.43821" lon="1.19384">
        <ele>149</ele>
        <time>2017-05-09T15:16:00Z</time>
      </trkpt>
      <trkpt lat="49.43821" lon="1.19378">
        <ele>149</ele>
        <time>2017-05-09T15:16:00Z</time>
      </trkpt>
      <trkpt lat="49.43822" lon="1.1937">
        <ele>150</ele>
        <time>2017-05-09T15:16:00Z</time>
      </trkpt>
      <trkpt lat="49.43821" lon="1.1936">
        <ele>150</ele>
        <time>2017-05-09T15:16:00Z</time>
      </trkpt>
      <trkpt lat="49.43823" lon="1.19352">
        <ele>150</ele>
        <time>2017-05-09T15:16:16Z</time>
      </trkpt>
      <trkpt lat="49.43822" lon="1.19344">
        <ele>150</ele>
        <time>2017-05-09T15:16:16Z</time>
      </trkpt>
      <trkpt lat="49.43821" lon="1.19337">
        <ele>150</ele>
        <time>2017-05-09T15:16:16Z</time>
      </trkpt>
      <trkpt lat="49.43821" lon="1.19329">
        <ele>150</ele>
        <time>2017-05-09T15:16:16Z</time>
      </trkpt>
      <trkpt lat="49.43821" lon="1.19322">
        <ele>150</ele>
        <time>2017-05-09T15:16:32Z</time>
      </trkpt>
      <trkpt lat="49.43822" lon="1.19315">
        <ele>150</ele>
        <time>2017-05-09T15:16:32Z</time>
      </trkpt>
      <trkpt lat="49.43822" lon="1.19308">
        <ele>150</ele>
        <time>2017-05-09T15:16:32Z</time>
      </trkpt>
      <trkpt lat="49.43822" lon="1.19302">
        <ele>150</ele>
        <time>2017-05-09T15:16:32Z</time>
      </trkpt>
      <trkpt lat="49.43823" lon="1.19295">
        <ele>150</ele>
        <time>2017-05-09T15:16:48Z</time>
      </trkpt>
      <trkpt lat="49.43821" lon="1.19288">
        <ele>150</ele>
        <time>2017-05-09T15:16:48Z</time>
      </trkpt>
      <trkpt lat="49.43819" lon="1.19282">
        <ele>150</ele>
        <time>2017-05-09T15:16:48Z</time>
      </trkpt>
      <trkpt lat="49.4382" lon="1.19275">
        <ele>150</ele>
        <time>2017-05-09T15:16:48Z</time>
      </trkpt>
      <trkpt lat="49.43818" lon="1.19265">
        <ele>150</ele>
        <time>2017-05-09T15:17:04Z</time>
      </trkpt>
      <trkpt lat="49.43818" lon="1.19258">
        <ele>150</ele>
        <time>2017-05-09T15:17:04Z</time>
      </trkpt>
      <trkpt lat="49.43818" lon="1.19249">
        <ele>150</ele>
        <time>2017-05-09T15:17:04Z</time>
      </trkpt>
      <trkpt lat="49.43818" lon="1.1924">
        <ele>150</ele>
        <time>2017-05-09T15:17:04Z</time>
      </trkpt>
      <trkpt lat="49.43818" lon="1.19231">
        <ele>150</ele>
        <time>2017-05-09T15:17:20Z</time>
      </trkpt>
      <trkpt lat="49.43818" lon="1.19224">
        <ele>150</ele>
        <time>2017-05-09T15:17:20Z</time>
      </trkpt>
      <trkpt lat="49.43816" lon="1.19216">
        <ele>150</ele>
        <time>2017-05-09T15:17:20Z</time>
      </trkpt>
      <trkpt lat="49.43814" lon="1.19208">
        <ele>149</ele>
        <time>2017-05-09T15:17:20Z</time>
      </trkpt>
      <trkpt lat="49.43814" lon="1.19202">
        <ele>149</ele>
        <time>2017-05-09T15:17:36Z</time>
      </trkpt>
      <trkpt lat="49.43812" lon="1.19196">
        <ele>149</ele>
        <time>2017-05-09T15:17:36Z</time>
      </trkpt>
      <trkpt lat="49.43811" lon="1.19188">
        <ele>149</ele>
        <time>2017-05-09T15:17:36Z</time>
      </trkpt>
      <trkpt lat="49.43808" lon="1.19181">
        <ele>149</ele>
        <time>2017-05-09T15:17:36Z</time>
      </trkpt>
      <trkpt lat="49.43807" lon="1.19174">
        <ele>149</ele>
        <time>2017-05-09T15:17:52Z</time>
      </trkpt>
      <trkpt lat="49.43805" lon="1.19167">
        <ele>149</ele>
        <time>2017-05-09T15:17:52Z</time>
      </trkpt>
      <trkpt lat="49.43804" lon="1.19159">
        <ele>149</ele>
        <time>2017-05-09T15:17:52Z</time>
      </trkpt>
      <trkpt lat="49.43805" lon="1.19149">
        <ele>149</ele>
        <time>2017-05-09T15:17:52Z</time>
      </trkpt>
      <trkpt lat="49.43801" lon="1.19142">
        <ele>149</ele>
        <time>2017-05-09T15:18:08Z</time>
      </trkpt>
      <trkpt lat="49.43801" lon="1.19133">
        <ele>149</ele>
        <time>2017-05-09T15:18:08Z</time>
      </trkpt>
      <trkpt lat="49.43798" lon="1.19126">
        <ele>149</ele>
        <time>2017-05-09T15:18:08Z</time>
      </trkpt>
      <trkpt lat="49.43796" lon="1.19119">
        <ele>148</ele>
        <time>2017-05-09T15:18:08Z</time>
      </trkpt>
      <trkpt lat="49.43795" lon="1.19111">
        <ele>148</ele>
        <time>2017-05-09T15:18:24Z</time>
      </trkpt>
      <trkpt lat="49.43795" lon="1.19104">
        <ele>148</ele>
        <time>2017-05-09T15:18:24Z</time>
      </trkpt>
      <trkpt lat="49.43793" lon="1.19098">
        <ele>148</ele>
        <time>2017-05-09T15:18:24Z</time>
      </trkpt>
      <trkpt lat="49.4379" lon="1.19092">
        <ele>146</ele>
        <time>2017-05-09T15:18:24Z</time>
      </trkpt>
      <trkpt lat="49.43789" lon="1.19085">
        <ele>146</ele>
        <time>2017-05-09T15:18:40Z</time>
      </trkpt>
      <trkpt lat="49.4379" lon="1.19078">
        <ele>146</ele>
        <time>2017-05-09T15:18:40Z</time>
      </trkpt>
      <trkpt lat="49.43788" lon="1.19071">
        <ele>146</ele>
        <time>2017-05-09T15:18:40Z</time>
      </trkpt>
      <trkpt lat="49.43786" lon="1.19064">
        <ele>146</ele>
        <time>2017-05-09T15:18:40Z</time>
      </trkpt>
      <trkpt lat="49.43785" lon="1.19056">
        <ele>146</ele>
        <time>2017-05-09T15:18:56Z</time>
      </trkpt>
      <trkpt lat="49.43783" lon="1.19049">
        <ele>146</ele>
        <time>2017-05-09T15:18:56Z</time>
      </trkpt>
      <trkpt lat="49.43782" lon="1.19041">
        <ele>148</ele>
        <time>2017-05-09T15:18:56Z</time>
      </trkpt>
      <trkpt lat="49.4378" lon="1.19035">
        <ele>148</ele>
        <time>2017-05-09T15:18:56Z</time>
      </trkpt>
      <trkpt lat="49.43777" lon="1.19028">
        <ele>148</ele>
        <time>2017-05-09T15:19:12Z</time>
      </trkpt>
      <trkpt lat="49.43776" lon="1.19022">
        <ele>148</ele>
        <time>2017-05-09T15:19:12Z</time>
      </trkpt>
      <trkpt lat="49.43775" lon="1.19013">
        <ele>148</ele>
        <time>2017-05-09T15:19:12Z</time>
      </trkpt>
      <trkpt lat="49.43773" lon="1.19009">
        <ele>148</ele>
        <time>2017-05-09T15:19:12Z</time>
      </trkpt>
      <trkpt lat="49.43772" lon="1.19004">
        <ele>148</ele>
        <time>2017-05-09T15:19:28Z</time>
      </trkpt>
      <trkpt lat="49.43771" lon="1.18996">
        <ele>148</ele>
        <time>2017-05-09T15:19:28Z</time>
      </trkpt>
      <trkpt lat="49.43771" lon="1.18988">
        <ele>148</ele>
        <time>2017-05-09T15:19:28Z</time>
      </trkpt>
      <trkpt lat="49.4377" lon="1.1898">
        <ele>148</ele>
        <time>2017-05-09T15:19:28Z</time>
      </trkpt>
      <trkpt lat="49.43767" lon="1.18973">
        <ele>148</ele>
        <time>2017-05-09T15:19:44Z</time>
      </trkpt>
      <trkpt lat="49.43764" lon="1.18964">
        <ele>148</ele>
        <time>2017-05-09T15:19:44Z</time>
      </trkpt>
      <trkpt lat="49.43763" lon="1.18959">
        <ele>148</ele>
        <time>2017-05-09T15:19:44Z</time>
      </trkpt>
      <trkpt lat="49.43762" lon="1.18952">
        <ele>147</ele>
        <time>2017-05-09T15:19:44Z</time>
      </trkpt>
      <trkpt lat="49.43761" lon="1.18945">
        <ele>147</ele>
        <time>2017-05-09T15:20:00Z</time>
      </trkpt>
      <trkpt lat="49.4376" lon="1.18938">
        <ele>147</ele>
        <time>2017-05-09T15:20:00Z</time>
      </trkpt>
      <trkpt lat="49.43762" lon="1.1893">
        <ele>147</ele>
        <time>2017-05-09T15:20:00Z</time>
      </trkpt>
      <trkpt lat="49.43761" lon="1.18922">
        <ele>147</ele>
        <time>2017-05-09T15:20:00Z</time>
      </trkpt>
      <trkpt lat="49.4376" lon="1.18913">
        <ele>147</ele>
        <time>2017-05-09T15:20:16Z</time>
      </trkpt>
      <trkpt lat="49.43762" lon="1.18906">
        <ele>147</ele>
        <time>2017-05-09T15:20:16Z</time>
      </trkpt>
      <trkpt lat="49.43763" lon="1.18899">
        <ele>147</ele>
        <time>2017-05-09T15:20:16Z</time>
      </trkpt>
      <trkpt lat="49.43763" lon="1.18892">
        <ele>147</ele>
        <time>2017-05-09T15:20:16Z</time>
      </trkpt>
      <trkpt lat="49.43765" lon="1.18885">
        <ele>147</ele>
        <time>2017-05-09T15:20:32Z</time>
      </trkpt>
      <trkpt lat="49.43766" lon="1.18877">
        <ele>147</ele>
        <time>2017-05-09T15:20:32Z</time>
      </trkpt>
      <trkpt lat="49.43768" lon="1.18869">
        <ele>147</ele>
        <time>2017-05-09T15:20:32Z</time>
      </trkpt>
      <trkpt lat="49.4377" lon="1.18863">
        <ele>147</ele>
        <time>2017-05-09T15:20:32Z</time>
      </trkpt>
      <trkpt lat="49.43768" lon="1.18854">
        <ele>147</ele>
        <time>2017-05-09T15:20:48Z</time>
      </trkpt>
      <trkpt lat="49.43768" lon="1.18846">
        <ele>147</ele>
        <time>2017-05-09T15:20:48Z</time>
      </trkpt>
      <trkpt lat="49.43765" lon="1.18839">
        <ele>147</ele>
        <time>2017-05-09T15:20:48Z</time>
      </trkpt>
      <trkpt lat="49.43765" lon="1.18831">
        <ele>147</ele>
        <time>2017-05-09T15:20:48Z</time>
      </trkpt>
      <trkpt lat="49.43767" lon="1.18825">
        <ele>147</ele>
        <time>2017-05-09T15:21:04Z</time>
      </trkpt>
      <trkpt lat="49.43769" lon="1.18818">
        <ele>147</ele>
        <time>2017-05-09T15:21:04Z</time>
      </trkpt>
      <trkpt lat="49.43773" lon="1.18811">
        <ele>147</ele>
        <time>2017-05-09T15:21:04Z</time>
      </trkpt>
      <trkpt lat="49.43776" lon="1.18804">
        <ele>147</ele>
        <time>2017-05-09T15:21:04Z</time>
      </trkpt>
      <trkpt lat="49.43776" lon="1.18796">
        <ele>147</ele>
        <time>2017-05-09T15:21:20Z</time>
      </trkpt>
      <trkpt lat="49.4378" lon="1.18787">
        <ele>146</ele>
        <time>2017-05-09T15:21:20Z</time>
      </trkpt>
      <trkpt lat="49.43782" lon="1.18781">
        <ele>146</ele>
        <time>2017-05-09T15:21:20Z</time>
      </trkpt>
      <trkpt lat="49.43785" lon="1.18773">
        <ele>146</ele>
        <time>2017-05-09T15:21:20Z</time>
      </trkpt>
      <trkpt lat="49.43788" lon="1.18765">
        <ele>146</ele>
        <time>2017-05-09T15:21:36Z</time>
      </trkpt>
      <trkpt lat="49.43789" lon="1.18759">
        <ele>146</ele>
        <time>2017-05-09T15:21:36Z</time>
      </trkpt>
      <trkpt lat="49.43791" lon="1.18751">
        <ele>146</ele>
        <time>2017-05-09T15:21:36Z</time>
      </trkpt>
      <trkpt lat="49.43793" lon="1.18745">
        <ele>149</ele>
        <time>2017-05-09T15:21:36Z</time>
      </trkpt>
      <trkpt lat="49.43796" lon="1.18738">
        <ele>149</ele>
        <time>2017-05-09T15:21:52Z</time>
      </trkpt>
      <trkpt lat="49.43798" lon="1.1873">
        <ele>149</ele>
        <time>2017-05-09T15:21:52Z</time>
      </trkpt>
      <trkpt lat="49.438" lon="1.18722">
        <ele>149</ele>
        <time>2017-05-09T15:21:52Z</time>
      </trkpt>
      <trkpt lat="49.43801" lon="1.18715">
        <ele>149</ele>
        <time>2017-05-09T15:21:52Z</time>
      </trkpt>
      <trkpt lat="49.43801" lon="1.18707">
        <ele>149</ele>
        <time>2017-05-09T15:22:08Z</time>
      </trkpt>
      <trkpt lat="49.43802" lon="1.187">
        <ele>149</ele>
        <time>2017-05-09T15:22:08Z</time>
      </trkpt>
      <trkpt lat="49.43803" lon="1.18694">
        <ele>149</ele>
        <time>2017-05-09T15:22:08Z</time>
      </trkpt>
      <trkpt lat="49.43803" lon="1.18688">
        <ele>149</ele>
        <time>2017-05-09T15:22:08Z</time>
      </trkpt>
      <trkpt lat="49.43803" lon="1.18681">
        <ele>149</ele>
        <time>2017-05-09T15:22:24Z</time>
      </trkpt>
      <trkpt lat="49.43805" lon="1.18674">
        <ele>149</ele>
        <time>2017-05-09T15:22:24Z</time>
      </trkpt>
      <trkpt lat="49.43807" lon="1.18667">
        <ele>149</ele>
        <time>2017-05-09T15:22:24Z</time>
      </trkpt>
      <trkpt lat="49.43806" lon="1.18659">
        <ele>149</ele>
        <time>2017-05-09T15:22:24Z</time>
      </trkpt>
      <trkpt lat="49.43806" lon="1.18651">
        <ele>149</ele>
        <time>2017-05-09T15:22:40Z</time>
      </trkpt>
      <trkpt lat="49.43806" lon="1.18642">
        <ele>149</ele>
        <time>2017-05-09T15:22:40Z</time>
      </trkpt>
      <trkpt lat="49.43807" lon="1.18634">
        <ele>149</ele>
        <time>2017-05-09T15:22:40Z</time>
      </trkpt>
      <trkpt lat="49.43809" lon="1.18626">
        <ele>149</ele>
        <time>2017-05-09T15:22:40Z</time>
      </trkpt>
      <trkpt lat="49.43811" lon="1.18619">
        <ele>147</ele>
        <time>2017-05-09T15:22:56Z</time>
      </trkpt>
      <trkpt lat="49.43815" lon="1.18614">
        <ele>147</ele>
        <time>2017-05-09T15:22:56Z</time>
      </trkpt>
      <trkpt lat="49.43817" lon="1.18608">
        <ele>147</ele>
        <time>2017-05-09T15:22:56Z</time>
      </trkpt>
      <trkpt lat="49.43818" lon="1.18601">
        <ele>147</ele>
        <time>2017-05-09T15:22:56Z</time>
      </trkpt>
      <trkpt lat="49.43818" lon="1.18594">
        <ele>147</ele>
        <time>2017-05-09T15:23:12Z</time>
      </trkpt>
      <trkpt lat="49.43817" lon="1.18587">
        <ele>147</ele>
        <time>2017-05-09T15:23:12Z</time>
      </trkpt>
      <trkpt lat="49.4382" lon="1.18579">
        <ele>147</ele>
        <time>2017-05-09T15:23:12Z</time>
      </trkpt>
      <trkpt lat="49.43823" lon="1.18571">
        <ele>147</ele>
        <time>2017-05-09T15:23:12Z</time>
      </trkpt>
      <trkpt lat="49.43825" lon="1.18564">
        <ele>147</ele>
        <time>2017-05-09T15:23:28Z</time>
      </trkpt>
      <trkpt lat="49.43825" lon="1.18556">
        <ele>147</ele>
        <time>2017-05-09T15:23:28Z</time>
      </trkpt>
      <trkpt lat="49.43826" lon="1.18548">
        <ele>147</ele>
        <time>2017-05-09T15:23:28Z</time>
      </trkpt>
      <trkpt lat="49.43829" lon="1.18542">
        <ele>146</ele>
        <time>2017-05-09T15:23:28Z</time>
      </trkpt>
      <trkpt lat="49.4383" lon="1.18533">
        <ele>146</ele>
        <time>2017-05-09T15:23:44Z</time>
      </trkpt>
      <trkpt lat="49.4383" lon="1.18524">
        <ele>146</ele>
        <time>2017-05-09T15:23:44Z</time>
      </trkpt>
      <trkpt lat="49.43829" lon="1.18516">
        <ele>146</ele>
        <time>2017-05-09T15:23:44Z</time>
      </trkpt>
      <trkpt lat="49.4383" lon="1.18508">
        <ele>146</ele>
        <time>2017-05-09T15:23:44Z</time>
      </trkpt>
      <trkpt lat="49.4383" lon="1.185">
        <ele>146</ele>
        <time>2017-05-09T15:24:00Z</time>
      </trkpt>
      <trkpt lat="49.43833" lon="1.18493">
        <ele>146</ele>
        <time>2017-05-09T15:24:00Z</time>
      </trkpt>
      <trkpt lat="49.43833" lon="1.18487">
        <ele>146</ele>
        <time>2017-05-09T15:24:00Z</time>
      </trkpt>
      <trkpt lat="49.43828" lon="1.18485">
        <ele>146</ele>
        <time>2017-05-09T15:24:00Z</time>
      </trkpt>
      <trkpt lat="49.43823" lon="1.18485">
        <ele>146</ele>
        <time>2017-05-09T15:24:16Z</time>
      </trkpt>
      <trkpt lat="49.43821" lon="1.18479">
        <ele>146</ele>
        <time>2017-05-09T15:24:16Z</time>
      </trkpt>
      <trkpt lat="49.43822" lon="1.18471">
        <ele>146</ele>
        <time>2017-05-09T15:24:16Z</time>
      </trkpt>
      <trkpt lat="49.43819" lon="1.18464">
        <ele>146</ele>
        <time>2017-05-09T15:24:16Z</time>
      </trkpt>
      <trkpt lat="49.4382" lon="1.18458">
        <ele>145</ele>
        <time>2017-05-09T15:24:32Z</time>
      </trkpt>
      <trkpt lat="49.43824" lon="1.18449">
        <ele>145</ele>
        <time>2017-05-09T15:24:32Z</time>
      </trkpt>
      <trkpt lat="49.43824" lon="1.18442">
        <ele>145</ele>
        <time>2017-05-09T15:24:32Z</time>
      </trkpt>
      <trkpt lat="49.43826" lon="1.18436">
        <ele>145</ele>
        <time>2017-05-09T15:24:32Z</time>
      </trkpt>
      <trkpt lat="49.43826" lon="1.18428">
        <ele>145</ele>
        <time>2017-05-09T15:24:48Z</time>
      </trkpt>
      <trkpt lat="49.43829" lon="1.18421">
        <ele>145</ele>
        <time>2017-05-09T15:24:48Z</time>
      </trkpt>
      <trkpt lat="49.43832" lon="1.18412">
        <ele>145</ele>
        <time>2017-05-09T15:24:48Z</time>
      </trkpt>
      <trkpt lat="49.43835" lon="1.18404">
        <ele>145</ele>
        <time>2017-05-09T15:24:48Z</time>
      </trkpt>
      <trkpt lat="49.43836" lon="1.18398">
        <ele>145</ele>
        <time>2017-05-09T15:25:04Z</time>
      </trkpt>
      <trkpt lat="49.43837" lon="1.18391">
        <ele>145</ele>
        <time>2017-05-09T15:25:04Z</time>
      </trkpt>
      <trkpt lat="49.43835" lon="1.18384">
        <ele>145</ele>
        <time>2017-05-09T15:25:04Z</time>
      </trkpt>
      <trkpt lat="49.43837" lon="1.18377">
        <ele>145</ele>
        <time>2017-05-09T15:25:04Z</time>
      </trkpt>
      <trkpt lat="49.43838" lon="1.1837">
        <ele>144</ele>
        <time>2017-05-09T15:25:20Z</time>
      </trkpt>
      <trkpt lat="49.43839" lon="1.18361">
        <ele>144</ele>
        <time>2017-05-09T15:25:20Z</time>
      </trkpt>
      <trkpt lat="49.43842" lon="1.18355">
        <ele>144</ele>
        <time>2017-05-09T15:25:20Z</time>
      </trkpt>
      <trkpt lat="49.43843" lon="1.18347">
        <ele>144</ele>
        <time>2017-05-09T15:25:20Z</time>
      </trkpt>
      <trkpt lat="49.43844" lon="1.18339">
        <ele>144</ele>
        <time>2017-05-09T15:25:36Z</time>
      </trkpt>
      <trkpt lat="49.43845" lon="1.18332">
        <ele>144</ele>
        <time>2017-05-09T15:25:36Z</time>
      </trkpt>
      <trkpt lat="49.43846" lon="1.18326">
        <ele>144</ele>
        <time>2017-05-09T15:25:36Z</time>
      </trkpt>
      <trkpt lat="49.43847" lon="1.18319">
        <ele>144</ele>
        <time>2017-05-09T15:25:36Z</time>
      </trkpt>
      <trkpt lat="49.43849" lon="1.18318">
        <ele>144</ele>
        <time>2017-05-09T15:25:52Z</time>
      </trkpt>
      <trkpt lat="49.43853" lon="1.18324">
        <ele>144</ele>
        <time>2017-05-09T15:25:52Z</time>
      </trkpt>
      <trkpt lat="49.43858" lon="1.18327">
        <ele>144</ele>
        <time>2017-05-09T15:25:52Z</time>
      </trkpt>
      <trkpt lat="49.43863" lon="1.18327">
        <ele>144</ele>
        <time>2017-05-09T15:25:52Z</time>
      </trkpt>
      <trkpt lat="49.43868" lon="1.18329">
        <ele>144</ele>
        <time>2017-05-09T15:26:08Z</time>
      </trkpt>
      <trkpt lat="49.43872" lon="1.1833">
        <ele>144</ele>
        <time>2017-05-09T15:26:08Z</time>
      </trkpt>
      <trkpt lat="49.43876" lon="1.18336">
        <ele>146</ele>
        <time>2017-05-09T15:26:08Z</time>
      </trkpt>
      <trkpt lat="49.4388" lon="1.18339">
        <ele>146</ele>
        <time>2017-05-09T15:26:08Z</time>
      </trkpt>
      <trkpt lat="49.43886" lon="1.18338">
        <ele>146</ele>
        <time>2017-05-09T15:26:24Z</time>
      </trkpt>
      <trkpt lat="49.43889" lon="1.18332">
        <ele>146</ele>
        <time>2017-05-09T15:26:24Z</time>
      </trkpt>
      <trkpt lat="49.43891" lon="1.18325">
        <ele>146</ele>
        <time>2017-05-09T15:26:24Z</time>
      </trkpt>
      <trkpt lat="49.43893" lon="1.18316">
        <ele>146</ele>
        <time>2017-05-09T15:26:24Z</time>
      </trkpt>
      <trkpt lat="49.43894" lon="1.18308">
        <ele>146</ele>
        <time>2017-05-09T15:26:40Z</time>
      </trkpt>
      <trkpt lat="49.43896" lon="1.18301">
        <ele>146</ele>
        <time>2017-05-09T15:26:40Z</time>
      </trkpt>
      <trkpt lat="49.43895" lon="1.18294">
        <ele>146</ele>
        <time>2017-05-09T15:26:40Z</time>
      </trkpt>
      <trkpt lat="49.43896" lon="1.18287">
        <ele>146</ele>
        <time>2017-05-09T15:26:40Z</time>
      </trkpt>
      <trkpt lat="49.43896" lon="1.18274">
        <ele>146</ele>
        <time>2017-05-09T15:28:52Z</time>
      </trkpt>
      <trkpt lat="49.43896" lon="1.18273">
        <ele>146</ele>
        <time>2017-05-09T15:28:52Z</time>
      </trkpt>
      <trkpt lat="49.43902" lon="1.18264">
        <ele>146</ele>
        <time>2017-05-09T15:28:52Z</time>
      </trkpt>
      <trkpt lat="49.43901" lon="1.18259">
        <ele>146</ele>
        <time>2017-05-09T15:28:52Z</time>
      </trkpt>
      <trkpt lat="49.43901" lon="1.18253">
        <ele>146</ele>
        <time>2017-05-09T15:28:52Z</time>
      </trkpt>
      <trkpt lat="49.43901" lon="1.1825">
        <ele>146</ele>
        <time>2017-05-09T15:29:08Z</time>
      </trkpt>
      <trkpt lat="49.43902" lon="1.18246">
        <ele>146</ele>
        <time>2017-05-09T15:29:08Z</time>
      </trkpt>
      <trkpt lat="49.43905" lon="1.18243">
        <ele>146</ele>
        <time>2017-05-09T15:29:08Z</time>
      </trkpt>
      <trkpt lat="49.43907" lon="1.18239">
        <ele>146</ele>
        <time>2017-05-09T15:29:08Z</time>
      </trkpt>
      <trkpt lat="49.43907" lon="1.18233">
        <ele>146</ele>
        <time>2017-05-09T15:29:24Z</time>
      </trkpt>
      <trkpt lat="49.43907" lon="1.18226">
        <ele>146</ele>
        <time>2017-05-09T15:29:24Z</time>
      </trkpt>
      <trkpt lat="49.43905" lon="1.18218">
        <ele>146</ele>
        <time>2017-05-09T15:29:24Z</time>
      </trkpt>
      <trkpt lat="49.43903" lon="1.18211">
        <ele>146</ele>
        <time>2017-05-09T15:29:24Z</time>
      </trkpt>
      <trkpt lat="49.43904" lon="1.18204">
        <ele>145</ele>
        <time>2017-05-09T15:29:40Z</time>
      </trkpt>
      <trkpt lat="49.43906" lon="1.18197">
        <ele>145</ele>
        <time>2017-05-09T15:29:40Z</time>
      </trkpt>
      <trkpt lat="49.43906" lon="1.1819">
        <ele>145</ele>
        <time>2017-05-09T15:29:40Z</time>
      </trkpt>
      <trkpt lat="49.43906" lon="1.18183">
        <ele>145</ele>
        <time>2017-05-09T15:29:40Z</time>
      </trkpt>
      <trkpt lat="49.43904" lon="1.18177">
        <ele>145</ele>
        <time>2017-05-09T15:29:56Z</time>
      </trkpt>
      <trkpt lat="49.43906" lon="1.18168">
        <ele>145</ele>
        <time>2017-05-09T15:29:56Z</time>
      </trkpt>
      <trkpt lat="49.4391" lon="1.18161">
        <ele>145</ele>
        <time>2017-05-09T15:29:56Z</time>
      </trkpt>
      <trkpt lat="49.43911" lon="1.18154">
        <ele>145</ele>
        <time>2017-05-09T15:29:56Z</time>
      </trkpt>
      <trkpt lat="49.43915" lon="1.18147">
        <ele>145</ele>
        <time>2017-05-09T15:30:12Z</time>
      </trkpt>
      <trkpt lat="49.43918" lon="1.18138">
        <ele>145</ele>
        <time>2017-05-09T15:30:12Z</time>
      </trkpt>
      <trkpt lat="49.43922" lon="1.18131">
        <ele>145</ele>
        <time>2017-05-09T15:30:12Z</time>
      </trkpt>
      <trkpt lat="49.43924" lon="1.18122">
        <ele>144</ele>
        <time>2017-05-09T15:30:12Z</time>
      </trkpt>
      <trkpt lat="49.43926" lon="1.18116">
        <ele>144</ele>
        <time>2017-05-09T15:30:28Z</time>
      </trkpt>
      <trkpt lat="49.43927" lon="1.18109">
        <ele>144</ele>
        <time>2017-05-09T15:30:28Z</time>
      </trkpt>
      <trkpt lat="49.43929" lon="1.18101">
        <ele>144</ele>
        <time>2017-05-09T15:30:28Z</time>
      </trkpt>
      <trkpt lat="49.4393" lon="1.18093">
        <ele>144</ele>
        <time>2017-05-09T15:30:28Z</time>
      </trkpt>
      <trkpt lat="49.4393" lon="1.18085">
        <ele>144</ele>
        <time>2017-05-09T15:30:44Z</time>
      </trkpt>
      <trkpt lat="49.43931" lon="1.18078">
        <ele>144</ele>
        <time>2017-05-09T15:30:44Z</time>
      </trkpt>
      <trkpt lat="49.43933" lon="1.1807">
        <ele>144</ele>
        <time>2017-05-09T15:30:44Z</time>
      </trkpt>
      <trkpt lat="49.43934" lon="1.18062">
        <ele>144</ele>
        <time>2017-05-09T15:30:44Z</time>
      </trkpt>
      <trkpt lat="49.43935" lon="1.18055">
        <ele>144</ele>
        <time>2017-05-09T15:31:00Z</time>
      </trkpt>
      <trkpt lat="49.43938" lon="1.18048">
        <ele>144</ele>
        <time>2017-05-09T15:31:00Z</time>
      </trkpt>
      <trkpt lat="49.4394" lon="1.1804">
        <ele>144</ele>
        <time>2017-05-09T15:31:00Z</time>
      </trkpt>
      <trkpt lat="49.43941" lon="1.18032">
        <ele>144</ele>
        <time>2017-05-09T15:31:00Z</time>
      </trkpt>
      <trkpt lat="49.4394" lon="1.18023">
        <ele>144</ele>
        <time>2017-05-09T15:31:16Z</time>
      </trkpt>
      <trkpt lat="49.4394" lon="1.18014">
        <ele>144</ele>
        <time>2017-05-09T15:31:16Z</time>
      </trkpt>
      <trkpt lat="49.43943" lon="1.18006">
        <ele>144</ele>
        <time>2017-05-09T15:31:16Z</time>
      </trkpt>
      <trkpt lat="49.43943" lon="1.17997">
        <ele>144</ele>
        <time>2017-05-09T15:31:16Z</time>
      </trkpt>
      <trkpt lat="49.43944" lon="1.1799">
        <ele>144</ele>
        <time>2017-05-09T15:31:32Z</time>
      </trkpt>
      <trkpt lat="49.43948" lon="1.17985">
        <ele>144</ele>
        <time>2017-05-09T15:31:32Z</time>
      </trkpt>
      <trkpt lat="49.4395" lon="1.17978">
        <ele>144</ele>
        <time>2017-05-09T15:31:32Z</time>
      </trkpt>
      <trkpt lat="49.43952" lon="1.1797">
        <ele>144</ele>
        <time>2017-05-09T15:31:32Z</time>
      </trkpt>
      <trkpt lat="49.43956" lon="1.17964">
        <ele>144</ele>
        <time>2017-05-09T15:31:52Z</time>
      </trkpt>
      <trkpt lat="49.43956" lon="1.17952">
        <ele>144</ele>
        <time>2017-05-09T15:31:52Z</time>
      </trkpt>
      <trkpt lat="49.43954" lon="1.17939">
        <ele>144</ele>
        <time>2017-05-09T15:31:52Z</time>
      </trkpt>
      <trkpt lat="49.43956" lon="1.17929">
        <ele>144</ele>
        <time>2017-05-09T15:31:52Z</time>
      </trkpt>
      <trkpt lat="49.43958" lon="1.17918">
        <ele>144</ele>
        <time>2017-05-09T15:32:08Z</time>
      </trkpt>
      <trkpt lat="49.43958" lon="1.1791">
        <ele>144</ele>
        <time>2017-05-09T15:32:08Z</time>
      </trkpt>
      <trkpt lat="49.43963" lon="1.17905">
        <ele>144</ele>
        <time>2017-05-09T15:32:08Z</time>
      </trkpt>
      <trkpt lat="49.43966" lon="1.17901">
        <ele>144</ele>
        <time>2017-05-09T15:32:08Z</time>
      </trkpt>
      <trkpt lat="49.43968" lon="1.17895">
        <ele>144</ele>
        <time>2017-05-09T15:32:24Z</time>
      </trkpt>
      <trkpt lat="49.43969" lon="1.17887">
        <ele>144</ele>
        <time>2017-05-09T15:32:24Z</time>
      </trkpt>
      <trkpt lat="49.43971" lon="1.1788">
        <ele>144</ele>
        <time>2017-05-09T15:32:24Z</time>
      </trkpt>
      <trkpt lat="49.43973" lon="1.17874">
        <ele>143</ele>
        <time>2017-05-09T15:32:24Z</time>
      </trkpt>
      <trkpt lat="49.43974" lon="1.17868">
        <ele>143</ele>
        <time>2017-05-09T15:32:40Z</time>
      </trkpt>
      <trkpt lat="49.43976" lon="1.17859">
        <ele>143</ele>
        <time>2017-05-09T15:32:40Z</time>
      </trkpt>
      <trkpt lat="49.43977" lon="1.17852">
        <ele>143</ele>
        <time>2017-05-09T15:32:40Z</time>
      </trkpt>
      <trkpt lat="49.43977" lon="1.17845">
        <ele>143</ele>
        <time>2017-05-09T15:32:40Z</time>
      </trkpt>
      <trkpt lat="49.43978" lon="1.17838">
        <ele>143</ele>
        <time>2017-05-09T15:32:56Z</time>
      </trkpt>
      <trkpt lat="49.4398" lon="1.17831">
        <ele>143</ele>
        <time>2017-05-09T15:32:56Z</time>
      </trkpt>
      <trkpt lat="49.43984" lon="1.17825">
        <ele>143</ele>
        <time>2017-05-09T15:32:56Z</time>
      </trkpt>
      <trkpt lat="49.43988" lon="1.1782">
        <ele>143</ele>
        <time>2017-05-09T15:32:56Z</time>
      </trkpt>
      <trkpt lat="49.43993" lon="1.17816">
        <ele>143</ele>
        <time>2017-05-09T15:33:12Z</time>
      </trkpt>
      <trkpt lat="49.43997" lon="1.17813">
        <ele>143</ele>
        <time>2017-05-09T15:33:12Z</time>
      </trkpt>
      <trkpt lat="49.44003" lon="1.17816">
        <ele>143</ele>
        <time>2017-05-09T15:33:12Z</time>
      </trkpt>
      <trkpt lat="49.44009" lon="1.17819">
        <ele>143</ele>
        <time>2017-05-09T15:33:12Z</time>
      </trkpt>
      <trkpt lat="49.44013" lon="1.1782">
        <ele>143</ele>
        <time>2017-05-09T15:33:28Z</time>
      </trkpt>
      <trkpt lat="49.44019" lon="1.1782">
        <ele>143</ele>
        <time>2017-05-09T15:33:28Z</time>
      </trkpt>
      <trkpt lat="49.44024" lon="1.17822">
        <ele>143</ele>
        <time>2017-05-09T15:33:28Z</time>
      </trkpt>
      <trkpt lat="49.44028" lon="1.17823">
        <ele>143</ele>
        <time>2017-05-09T15:33:28Z</time>
      </trkpt>
      <trkpt lat="49.44032" lon="1.17824">
        <ele>143</ele>
        <time>2017-05-09T15:33:44Z</time>
      </trkpt>
      <trkpt lat="49.44035" lon="1.17829">
        <ele>143</ele>
        <time>2017-05-09T15:33:44Z</time>
      </trkpt>
      <trkpt lat="49.44039" lon="1.1783">
        <ele>143</ele>
        <time>2017-05-09T15:33:44Z</time>
      </trkpt>
      <trkpt lat="49.44043" lon="1.17832">
        <ele>142</ele>
        <time>2017-05-09T15:33:44Z</time>
      </trkpt>
      <trkpt lat="49.44048" lon="1.17831">
        <ele>142</ele>
        <time>2017-05-09T15:34:00Z</time>
      </trkpt>
      <trkpt lat="49.44052" lon="1.17832">
        <ele>142</ele>
        <time>2017-05-09T15:34:00Z</time>
      </trkpt>
      <trkpt lat="49.44058" lon="1.17828">
        <ele>142</ele>
        <time>2017-05-09T15:34:00Z</time>
      </trkpt>
      <trkpt lat="49.44062" lon="1.1783">
        <ele>142</ele>
        <time>2017-05-09T15:34:00Z</time>
      </trkpt>
      <trkpt lat="49.44066" lon="1.17828">
        <ele>142</ele>
        <time>2017-05-09T15:34:16Z</time>
      </trkpt>
      <trkpt lat="49.44072" lon="1.17823">
        <ele>142</ele>
        <time>2017-05-09T15:34:16Z</time>
      </trkpt>
      <trkpt lat="49.44077" lon="1.17822">
        <ele>142</ele>
        <time>2017-05-09T15:34:16Z</time>
      </trkpt>
      <trkpt lat="49.44081" lon="1.17816">
        <ele>142</ele>
        <time>2017-05-09T15:34:16Z</time>
      </trkpt>
      <trkpt lat="49.44085" lon="1.17808">
        <ele>142</ele>
        <time>2017-05-09T15:34:32Z</time>
      </trkpt>
      <trkpt lat="49.44092" lon="1.17809">
        <ele>142</ele>
        <time>2017-05-09T15:34:32Z</time>
      </trkpt>
      <trkpt lat="49.44097" lon="1.1781">
        <ele>142</ele>
        <time>2017-05-09T15:34:32Z</time>
      </trkpt>
      <trkpt lat="49.441" lon="1.17807">
        <ele>142</ele>
        <time>2017-05-09T15:34:32Z</time>
      </trkpt>
      <trkpt lat="49.441" lon="1.17798">
        <ele>142</ele>
        <time>2017-05-09T15:34:52Z</time>
      </trkpt>
      <trkpt lat="49.44097" lon="1.17791">
        <ele>143</ele>
        <time>2017-05-09T15:34:52Z</time>
      </trkpt>
      <trkpt lat="49.441" lon="1.1778">
        <ele>143</ele>
        <time>2017-05-09T15:34:52Z</time>
      </trkpt>
      <trkpt lat="49.44107" lon="1.17771">
        <ele>143</ele>
        <time>2017-05-09T15:34:52Z</time>
      </trkpt>
      <trkpt lat="49.4411" lon="1.17765">
        <ele>143</ele>
        <time>2017-05-09T15:35:24Z</time>
      </trkpt>
      <trkpt lat="49.44113" lon="1.1776">
        <ele>143</ele>
        <time>2017-05-09T15:35:24Z</time>
      </trkpt>
      <trkpt lat="49.44118" lon="1.17759">
        <ele>143</ele>
        <time>2017-05-09T15:35:24Z</time>
      </trkpt>
      <trkpt lat="49.44125" lon="1.17733">
        <ele>143</ele>
        <time>2017-05-09T15:35:24Z</time>
      </trkpt>
      <trkpt lat="49.44203" lon="1.17628">
        <ele>142</ele>
        <time>2017-05-09T15:37:04Z</time>
      </trkpt>
      <trkpt lat="49.44204" lon="1.17618">
        <ele>142</ele>
        <time>2017-05-09T15:37:04Z</time>
      </trkpt>
      <trkpt lat="49.44206" lon="1.1761">
        <ele>142</ele>
        <time>2017-05-09T15:37:04Z</time>
      </trkpt>
      <trkpt lat="49.4421" lon="1.17613">
        <ele>141</ele>
        <time>2017-05-09T15:37:04Z</time>
      </trkpt>
      <trkpt lat="49.4421" lon="1.17614">
        <ele>141</ele>
        <time>2017-05-09T15:37:24Z</time>
      </trkpt>
      <trkpt lat="49.44208" lon="1.1761">
        <ele>142</ele>
        <time>2017-05-09T15:37:24Z</time>
      </trkpt>
      <trkpt lat="49.44208" lon="1.17605">
        <ele>142</ele>
        <time>2017-05-09T15:37:24Z</time>
      </trkpt>
      <trkpt lat="49.44208" lon="1.17601">
        <ele>142</ele>
        <time>2017-05-09T15:37:24Z</time>
      </trkpt>
      <trkpt lat="49.44208" lon="1.17592">
        <ele>142</ele>
        <time>2017-05-09T15:37:24Z</time>
      </trkpt>
      <trkpt lat="49.44217" lon="1.17594">
        <ele>141</ele>
        <time>2017-05-09T15:38:52Z</time>
      </trkpt>
      <trkpt lat="49.44218" lon="1.17584">
        <ele>141</ele>
        <time>2017-05-09T15:38:52Z</time>
      </trkpt>
      <trkpt lat="49.4422" lon="1.17572">
        <ele>141</ele>
        <time>2017-05-09T15:38:52Z</time>
      </trkpt>
      <trkpt lat="49.44218" lon="1.17559">
        <ele>141</ele>
        <time>2017-05-09T15:38:52Z</time>
      </trkpt>
      <trkpt lat="49.44214" lon="1.17549">
        <ele>141</ele>
        <time>2017-05-09T15:38:52Z</time>
      </trkpt>
      <trkpt lat="49.44211" lon="1.17536">
        <ele>140</ele>
        <time>2017-05-09T15:39:08Z</time>
      </trkpt>
      <trkpt lat="49.44208" lon="1.17523">
        <ele>141</ele>
        <time>2017-05-09T15:39:08Z</time>
      </trkpt>
      <trkpt lat="49.44208" lon="1.17512">
        <ele>141</ele>
        <time>2017-05-09T15:39:08Z</time>
      </trkpt>
      <trkpt lat="49.44203" lon="1.17503">
        <ele>141</ele>
        <time>2017-05-09T15:39:09Z</time>
      </trkpt>
      <trkpt lat="49.44203" lon="1.17495">
        <ele>141</ele>
        <time>2017-05-09T15:39:24Z</time>
      </trkpt>
      <trkpt lat="49.44205" lon="1.17488">
        <ele>141</ele>
        <time>2017-05-09T15:39:24Z</time>
      </trkpt>
      <trkpt lat="49.44206" lon="1.17481">
        <ele>141</ele>
        <time>2017-05-09T15:39:24Z</time>
      </trkpt>
      <trkpt lat="49.44204" lon="1.17476">
        <ele>141</ele>
        <time>2017-05-09T15:39:24Z</time>
      </trkpt>
      <trkpt lat="49.44203" lon="1.1747">
        <ele>141</ele>
        <time>2017-05-09T15:39:40Z</time>
      </trkpt>
      <trkpt lat="49.44202" lon="1.17465">
        <ele>141</ele>
        <time>2017-05-09T15:39:40Z</time>
      </trkpt>
      <trkpt lat="49.44204" lon="1.17459">
        <ele>141</ele>
        <time>2017-05-09T15:39:40Z</time>
      </trkpt>
      <trkpt lat="49.44206" lon="1.17451">
        <ele>141</ele>
        <time>2017-05-09T15:39:40Z</time>
      </trkpt>
      <trkpt lat="49.44205" lon="1.17443">
        <ele>141</ele>
        <time>2017-05-09T15:39:56Z</time>
      </trkpt>
      <trkpt lat="49.44202" lon="1.17435">
        <ele>141</ele>
        <time>2017-05-09T15:39:56Z</time>
      </trkpt>
      <trkpt lat="49.44203" lon="1.17428">
        <ele>141</ele>
        <time>2017-05-09T15:39:56Z</time>
      </trkpt>
      <trkpt lat="49.442" lon="1.17422">
        <ele>141</ele>
        <time>2017-05-09T15:39:56Z</time>
      </trkpt>
      <trkpt lat="49.44198" lon="1.17417">
        <ele>141</ele>
        <time>2017-05-09T15:40:12Z</time>
      </trkpt>
      <trkpt lat="49.44198" lon="1.1741">
        <ele>141</ele>
        <time>2017-05-09T15:40:12Z</time>
      </trkpt>
      <trkpt lat="49.442" lon="1.17402">
        <ele>141</ele>
        <time>2017-05-09T15:40:12Z</time>
      </trkpt>
      <trkpt lat="49.44204" lon="1.17395">
        <ele>141</ele>
        <time>2017-05-09T15:40:12Z</time>
      </trkpt>
      <trkpt lat="49.44209" lon="1.17391">
        <ele>139</ele>
        <time>2017-05-09T15:40:28Z</time>
      </trkpt>
      <trkpt lat="49.44208" lon="1.17383">
        <ele>141</ele>
        <time>2017-05-09T15:40:28Z</time>
      </trkpt>
      <trkpt lat="49.44208" lon="1.17374">
        <ele>141</ele>
        <time>2017-05-09T15:40:28Z</time>
      </trkpt>
      <trkpt lat="49.44208" lon="1.17365">
        <ele>141</ele>
        <time>2017-05-09T15:40:28Z</time>
      </trkpt>
      <trkpt lat="49.44206" lon="1.17354">
        <ele>141</ele>
        <time>2017-05-09T15:40:44Z</time>
      </trkpt>
      <trkpt lat="49.44203" lon="1.17344">
        <ele>141</ele>
        <time>2017-05-09T15:40:44Z</time>
      </trkpt>
      <trkpt lat="49.44201" lon="1.17336">
        <ele>141</ele>
        <time>2017-05-09T15:40:44Z</time>
      </trkpt>
      <trkpt lat="49.44202" lon="1.17329">
        <ele>141</ele>
        <time>2017-05-09T15:40:44Z</time>
      </trkpt>
      <trkpt lat="49.44205" lon="1.17323">
        <ele>141</ele>
        <time>2017-05-09T15:41:00Z</time>
      </trkpt>
      <trkpt lat="49.44207" lon="1.17316">
        <ele>141</ele>
        <time>2017-05-09T15:41:00Z</time>
      </trkpt>
      <trkpt lat="49.4421" lon="1.17309">
        <ele>139</ele>
        <time>2017-05-09T15:41:00Z</time>
      </trkpt>
      <trkpt lat="49.44212" lon="1.17302">
        <ele>139</ele>
        <time>2017-05-09T15:41:00Z</time>
      </trkpt>
      <trkpt lat="49.44212" lon="1.17295">
        <ele>139</ele>
        <time>2017-05-09T15:41:16Z</time>
      </trkpt>
      <trkpt lat="49.44212" lon="1.17287">
        <ele>141</ele>
        <time>2017-05-09T15:41:16Z</time>
      </trkpt>
      <trkpt lat="49.44213" lon="1.1728">
        <ele>141</ele>
        <time>2017-05-09T15:41:16Z</time>
      </trkpt>
      <trkpt lat="49.44216" lon="1.17273">
        <ele>141</ele>
        <time>2017-05-09T15:41:16Z</time>
      </trkpt>
      <trkpt lat="49.44217" lon="1.17268">
        <ele>141</ele>
        <time>2017-05-09T15:41:32Z</time>
      </trkpt>
      <trkpt lat="49.44216" lon="1.17263">
        <ele>141</ele>
        <time>2017-05-09T15:41:32Z</time>
      </trkpt>
      <trkpt lat="49.44215" lon="1.17257">
        <ele>141</ele>
        <time>2017-05-09T15:41:32Z</time>
      </trkpt>
      <trkpt lat="49.44214" lon="1.17251">
        <ele>141</ele>
        <time>2017-05-09T15:41:32Z</time>
      </trkpt>
      <trkpt lat="49.44213" lon="1.17245">
        <ele>141</ele>
        <time>2017-05-09T15:41:48Z</time>
      </trkpt>
      <trkpt lat="49.44212" lon="1.17238">
        <ele>141</ele>
        <time>2017-05-09T15:41:48Z</time>
      </trkpt>
      <trkpt lat="49.44212" lon="1.17231">
        <ele>141</ele>
        <time>2017-05-09T15:41:48Z</time>
      </trkpt>
      <trkpt lat="49.44216" lon="1.17224">
        <ele>141</ele>
        <time>2017-05-09T15:41:48Z</time>
      </trkpt>
      <trkpt lat="49.44218" lon="1.17218">
        <ele>141</ele>
        <time>2017-05-09T15:42:04Z</time>
      </trkpt>
      <trkpt lat="49.44218" lon="1.17209">
        <ele>141</ele>
        <time>2017-05-09T15:42:04Z</time>
      </trkpt>
      <trkpt lat="49.44218" lon="1.172">
        <ele>140</ele>
        <time>2017-05-09T15:42:04Z</time>
      </trkpt>
      <trkpt lat="49.44219" lon="1.17193">
        <ele>140</ele>
        <time>2017-05-09T15:42:04Z</time>
      </trkpt>
      <trkpt lat="49.44215" lon="1.17186">
        <ele>140</ele>
        <time>2017-05-09T15:42:20Z</time>
      </trkpt>
      <trkpt lat="49.44213" lon="1.17179">
        <ele>140</ele>
        <time>2017-05-09T15:42:20Z</time>
      </trkpt>
      <trkpt lat="49.44212" lon="1.17171">
        <ele>140</ele>
        <time>2017-05-09T15:42:20Z</time>
      </trkpt>
      <trkpt lat="49.44218" lon="1.17165">
        <ele>140</ele>
        <time>2017-05-09T15:42:20Z</time>
      </trkpt>
      <trkpt lat="49.44227" lon="1.17163">
        <ele>140</ele>
        <time>2017-05-09T15:42:36Z</time>
      </trkpt>
      <trkpt lat="49.44231" lon="1.17155">
        <ele>140</ele>
        <time>2017-05-09T15:42:36Z</time>
      </trkpt>
      <trkpt lat="49.44232" lon="1.17148">
        <ele>140</ele>
        <time>2017-05-09T15:42:36Z</time>
      </trkpt>
      <trkpt lat="49.44232" lon="1.17141">
        <ele>140</ele>
        <time>2017-05-09T15:42:36Z</time>
      </trkpt>
      <trkpt lat="49.4423" lon="1.17135">
        <ele>140</ele>
        <time>2017-05-09T15:42:52Z</time>
      </trkpt>
      <trkpt lat="49.44229" lon="1.17128">
        <ele>140</ele>
        <time>2017-05-09T15:42:52Z</time>
      </trkpt>
      <trkpt lat="49.44228" lon="1.17122">
        <ele>139</ele>
        <time>2017-05-09T15:42:52Z</time>
      </trkpt>
      <trkpt lat="49.44229" lon="1.17116">
        <ele>139</ele>
        <time>2017-05-09T15:42:52Z</time>
      </trkpt>
      <trkpt lat="49.44229" lon="1.17108">
        <ele>139</ele>
        <time>2017-05-09T15:43:08Z</time>
      </trkpt>
      <trkpt lat="49.44227" lon="1.171">
        <ele>139</ele>
        <time>2017-05-09T15:43:08Z</time>
      </trkpt>
      <trkpt lat="49.44228" lon="1.17092">
        <ele>139</ele>
        <time>2017-05-09T15:43:08Z</time>
      </trkpt>
      <trkpt lat="49.44229" lon="1.17085">
        <ele>139</ele>
        <time>2017-05-09T15:43:08Z</time>
      </trkpt>
      <trkpt lat="49.4423" lon="1.17079">
        <ele>139</ele>
        <time>2017-05-09T15:43:24Z</time>
      </trkpt>
      <trkpt lat="49.44231" lon="1.17072">
        <ele>139</ele>
        <time>2017-05-09T15:43:24Z</time>
      </trkpt>
      <trkpt lat="49.44233" lon="1.17065">
        <ele>139</ele>
        <time>2017-05-09T15:43:24Z</time>
      </trkpt>
      <trkpt lat="49.44233" lon="1.17056">
        <ele>139</ele>
        <time>2017-05-09T15:43:24Z</time>
      </trkpt>
      <trkpt lat="49.44231" lon="1.17046">
        <ele>139</ele>
        <time>2017-05-09T15:43:40Z</time>
      </trkpt>
      <trkpt lat="49.44229" lon="1.17036">
        <ele>139</ele>
        <time>2017-05-09T15:43:40Z</time>
      </trkpt>
      <trkpt lat="49.44231" lon="1.17029">
        <ele>139</ele>
        <time>2017-05-09T15:43:40Z</time>
      </trkpt>
      <trkpt lat="49.44231" lon="1.1702">
        <ele>139</ele>
        <time>2017-05-09T15:43:40Z</time>
      </trkpt>
      <trkpt lat="49.4423" lon="1.17014">
        <ele>139</ele>
        <time>2017-05-09T15:43:56Z</time>
      </trkpt>
      <trkpt lat="49.44234" lon="1.17006">
        <ele>139</ele>
        <time>2017-05-09T15:43:56Z</time>
      </trkpt>
      <trkpt lat="49.44234" lon="1.16998">
        <ele>139</ele>
        <time>2017-05-09T15:43:56Z</time>
      </trkpt>
      <trkpt lat="49.44235" lon="1.1699">
        <ele>139</ele>
        <time>2017-05-09T15:43:56Z</time>
      </trkpt>
      <trkpt lat="49.44232" lon="1.16982">
        <ele>139</ele>
        <time>2017-05-09T15:44:12Z</time>
      </trkpt>
      <trkpt lat="49.44229" lon="1.16974">
        <ele>139</ele>
        <time>2017-05-09T15:44:12Z</time>
      </trkpt>
      <trkpt lat="49.44229" lon="1.16966">
        <ele>139</ele>
        <time>2017-05-09T15:44:12Z</time>
      </trkpt>
      <trkpt lat="49.44229" lon="1.16961">
        <ele>139</ele>
        <time>2017-05-09T15:44:12Z</time>
      </trkpt>
      <trkpt lat="49.4423" lon="1.16954">
        <ele>137</ele>
        <time>2017-05-09T15:44:28Z</time>
      </trkpt>
      <trkpt lat="49.4423" lon="1.16947">
        <ele>137</ele>
        <time>2017-05-09T15:44:28Z</time>
      </trkpt>
      <trkpt lat="49.4423" lon="1.16941">
        <ele>137</ele>
        <time>2017-05-09T15:44:28Z</time>
      </trkpt>
      <trkpt lat="49.44228" lon="1.16933">
        <ele>137</ele>
        <time>2017-05-09T15:44:28Z</time>
      </trkpt>
      <trkpt lat="49.44227" lon="1.16925">
        <ele>137</ele>
        <time>2017-05-09T15:44:44Z</time>
      </trkpt>
      <trkpt lat="49.44229" lon="1.16917">
        <ele>137</ele>
        <time>2017-05-09T15:44:44Z</time>
      </trkpt>
      <trkpt lat="49.44233" lon="1.16908">
        <ele>137</ele>
        <time>2017-05-09T15:44:44Z</time>
      </trkpt>
      <trkpt lat="49.44235" lon="1.16901">
        <ele>137</ele>
        <time>2017-05-09T15:44:44Z</time>
      </trkpt>
      <trkpt lat="49.44232" lon="1.16894">
        <ele>137</ele>
        <time>2017-05-09T15:45:00Z</time>
      </trkpt>
      <trkpt lat="49.44232" lon="1.16888">
        <ele>137</ele>
        <time>2017-05-09T15:45:00Z</time>
      </trkpt>
      <trkpt lat="49.4423" lon="1.16881">
        <ele>137</ele>
        <time>2017-05-09T15:45:00Z</time>
      </trkpt>
      <trkpt lat="49.44229" lon="1.16873">
        <ele>136</ele>
        <time>2017-05-09T15:45:00Z</time>
      </trkpt>
      <trkpt lat="49.44228" lon="1.16866">
        <ele>136</ele>
        <time>2017-05-09T15:45:16Z</time>
      </trkpt>
      <trkpt lat="49.4423" lon="1.16859">
        <ele>136</ele>
        <time>2017-05-09T15:45:16Z</time>
      </trkpt>
      <trkpt lat="49.44232" lon="1.16852">
        <ele>136</ele>
        <time>2017-05-09T15:45:16Z</time>
      </trkpt>
      <trkpt lat="49.44229" lon="1.16844">
        <ele>136</ele>
        <time>2017-05-09T15:45:16Z</time>
      </trkpt>
      <trkpt lat="49.44228" lon="1.16835">
        <ele>136</ele>
        <time>2017-05-09T15:45:32Z</time>
      </trkpt>
      <trkpt lat="49.44232" lon="1.16826">
        <ele>136</ele>
        <time>2017-05-09T15:45:32Z</time>
      </trkpt>
      <trkpt lat="49.44232" lon="1.16816">
        <ele>136</ele>
        <time>2017-05-09T15:45:32Z</time>
      </trkpt>
      <trkpt lat="49.44233" lon="1.16808">
        <ele>136</ele>
        <time>2017-05-09T15:45:32Z</time>
      </trkpt>
      <trkpt lat="49.4423" lon="1.16801">
        <ele>136</ele>
        <time>2017-05-09T15:45:48Z</time>
      </trkpt>
      <trkpt lat="49.4423" lon="1.16794">
        <ele>136</ele>
        <time>2017-05-09T15:45:48Z</time>
      </trkpt>
      <trkpt lat="49.44229" lon="1.16787">
        <ele>132</ele>
        <time>2017-05-09T15:45:48Z</time>
      </trkpt>
      <trkpt lat="49.44227" lon="1.16782">
        <ele>132</ele>
        <time>2017-05-09T15:45:48Z</time>
      </trkpt>
      <trkpt lat="49.44223" lon="1.16778">
        <ele>132</ele>
        <time>2017-05-09T15:46:04Z</time>
      </trkpt>
      <trkpt lat="49.44217" lon="1.16777">
        <ele>132</ele>
        <time>2017-05-09T15:46:04Z</time>
      </trkpt>
      <trkpt lat="49.44212" lon="1.16778">
        <ele>132</ele>
        <time>2017-05-09T15:46:04Z</time>
      </trkpt>
      <trkpt lat="49.44207" lon="1.1678">
        <ele>132</ele>
        <time>2017-05-09T15:46:04Z</time>
      </trkpt>
      <trkpt lat="49.44203" lon="1.16777">
        <ele>132</ele>
        <time>2017-05-09T15:46:20Z</time>
      </trkpt>
      <trkpt lat="49.442" lon="1.16773">
        <ele>132</ele>
        <time>2017-05-09T15:46:20Z</time>
      </trkpt>
      <trkpt lat="49.44196" lon="1.1677">
        <ele>132</ele>
        <time>2017-05-09T15:46:20Z</time>
      </trkpt>
      <trkpt lat="49.44194" lon="1.16762">
        <ele>132</ele>
        <time>2017-05-09T15:46:20Z</time>
      </trkpt>
      <trkpt lat="49.44193" lon="1.16755">
        <ele>132</ele>
        <time>2017-05-09T15:46:36Z</time>
      </trkpt>
      <trkpt lat="49.44192" lon="1.16748">
        <ele>132</ele>
        <time>2017-05-09T15:46:36Z</time>
      </trkpt>
      <trkpt lat="49.4419" lon="1.16742">
        <ele>132</ele>
        <time>2017-05-09T15:46:36Z</time>
      </trkpt>
      <trkpt lat="49.44186" lon="1.16738">
        <ele>132</ele>
        <time>2017-05-09T15:46:36Z</time>
      </trkpt>
      <trkpt lat="49.44181" lon="1.16737">
        <ele>132</ele>
        <time>2017-05-09T15:46:52Z</time>
      </trkpt>
      <trkpt lat="49.44177" lon="1.16736">
        <ele>132</ele>
        <time>2017-05-09T15:46:52Z</time>
      </trkpt>
      <trkpt lat="49.44172" lon="1.16735">
        <ele>132</ele>
        <time>2017-05-09T15:46:52Z</time>
      </trkpt>
      <trkpt lat="49.44167" lon="1.16735">
        <ele>132</ele>
        <time>2017-05-09T15:46:52Z</time>
      </trkpt>
      <trkpt lat="49.44161" lon="1.16732">
        <ele>132</ele>
        <time>2017-05-09T15:47:08Z</time>
      </trkpt>
      <trkpt lat="49.44157" lon="1.16728">
        <ele>132</ele>
        <time>2017-05-09T15:47:08Z</time>
      </trkpt>
      <trkpt lat="49.44152" lon="1.16728">
        <ele>132</ele>
        <time>2017-05-09T15:47:08Z</time>
      </trkpt>
      <trkpt lat="49.44146" lon="1.16727">
        <ele>132</ele>
        <time>2017-05-09T15:47:08Z</time>
      </trkpt>
      <trkpt lat="49.44141" lon="1.16727">
        <ele>132</ele>
        <time>2017-05-09T15:47:24Z</time>
      </trkpt>
      <trkpt lat="49.44136" lon="1.16727">
        <ele>132</ele>
        <time>2017-05-09T15:47:24Z</time>
      </trkpt>
      <trkpt lat="49.44131" lon="1.16722">
        <ele>132</ele>
        <time>2017-05-09T15:47:24Z</time>
      </trkpt>
      <trkpt lat="49.44125" lon="1.16724">
        <ele>136</ele>
        <time>2017-05-09T15:47:24Z</time>
      </trkpt>
      <trkpt lat="49.44119" lon="1.16725">
        <ele>136</ele>
        <time>2017-05-09T15:47:40Z</time>
      </trkpt>
      <trkpt lat="49.44114" lon="1.16724">
        <ele>136</ele>
        <time>2017-05-09T15:47:40Z</time>
      </trkpt>
      <trkpt lat="49.44111" lon="1.16717">
        <ele>136</ele>
        <time>2017-05-09T15:47:40Z</time>
      </trkpt>
      <trkpt lat="49.44107" lon="1.16712">
        <ele>136</ele>
        <time>2017-05-09T15:47:40Z</time>
      </trkpt>
      <trkpt lat="49.44102" lon="1.16714">
        <ele>136</ele>
        <time>2017-05-09T15:47:56Z</time>
      </trkpt>
      <trkpt lat="49.44097" lon="1.16714">
        <ele>136</ele>
        <time>2017-05-09T15:47:56Z</time>
      </trkpt>
      <trkpt lat="49.44093" lon="1.16713">
        <ele>136</ele>
        <time>2017-05-09T15:47:56Z</time>
      </trkpt>
      <trkpt lat="49.4409" lon="1.16709">
        <ele>136</ele>
        <time>2017-05-09T15:47:56Z</time>
      </trkpt>
      <trkpt lat="49.44086" lon="1.16708">
        <ele>137</ele>
        <time>2017-05-09T15:48:12Z</time>
      </trkpt>
      <trkpt lat="49.4408" lon="1.1671">
        <ele>136</ele>
        <time>2017-05-09T15:48:12Z</time>
      </trkpt>
      <trkpt lat="49.44074" lon="1.16713">
        <ele>136</ele>
        <time>2017-05-09T15:48:12Z</time>
      </trkpt>
      <trkpt lat="49.4407" lon="1.16714">
        <ele>136</ele>
        <time>2017-05-09T15:48:12Z</time>
      </trkpt>
      <trkpt lat="49.44066" lon="1.1671">
        <ele>136</ele>
        <time>2017-05-09T15:48:28Z</time>
      </trkpt>
      <trkpt lat="49.44062" lon="1.1671">
        <ele>136</ele>
        <time>2017-05-09T15:48:28Z</time>
      </trkpt>
      <trkpt lat="49.44058" lon="1.16708">
        <ele>137</ele>
        <time>2017-05-09T15:48:28Z</time>
      </trkpt>
      <trkpt lat="49.44054" lon="1.16709">
        <ele>136</ele>
        <time>2017-05-09T15:48:28Z</time>
      </trkpt>
      <trkpt lat="49.44049" lon="1.16711">
        <ele>136</ele>
        <time>2017-05-09T15:48:44Z</time>
      </trkpt>
      <trkpt lat="49.44043" lon="1.1671">
        <ele>136</ele>
        <time>2017-05-09T15:48:44Z</time>
      </trkpt>
      <trkpt lat="49.44037" lon="1.1671">
        <ele>137</ele>
        <time>2017-05-09T15:48:44Z</time>
      </trkpt>
      <trkpt lat="49.44031" lon="1.16706">
        <ele>138</ele>
        <time>2017-05-09T15:48:44Z</time>
      </trkpt>
      <trkpt lat="49.44025" lon="1.16708">
        <ele>138</ele>
        <time>2017-05-09T15:49:00Z</time>
      </trkpt>
      <trkpt lat="49.4402" lon="1.16707">
        <ele>138</ele>
        <time>2017-05-09T15:49:00Z</time>
      </trkpt>
      <trkpt lat="49.44015" lon="1.16705">
        <ele>138</ele>
        <time>2017-05-09T15:49:00Z</time>
      </trkpt>
      <trkpt lat="49.4401" lon="1.16708">
        <ele>138</ele>
        <time>2017-05-09T15:49:00Z</time>
      </trkpt>
      <trkpt lat="49.44003" lon="1.1671">
        <ele>137</ele>
        <time>2017-05-09T15:49:16Z</time>
      </trkpt>
      <trkpt lat="49.43999" lon="1.16705">
        <ele>138</ele>
        <time>2017-05-09T15:49:16Z</time>
      </trkpt>
      <trkpt lat="49.43994" lon="1.16702">
        <ele>138</ele>
        <time>2017-05-09T15:49:16Z</time>
      </trkpt>
      <trkpt lat="49.43989" lon="1.16701">
        <ele>138</ele>
        <time>2017-05-09T15:49:16Z</time>
      </trkpt>
      <trkpt lat="49.43984" lon="1.167">
        <ele>138</ele>
        <time>2017-05-09T15:49:32Z</time>
      </trkpt>
      <trkpt lat="49.4398" lon="1.16699">
        <ele>138</ele>
        <time>2017-05-09T15:49:32Z</time>
      </trkpt>
      <trkpt lat="49.43976" lon="1.16695">
        <ele>138</ele>
        <time>2017-05-09T15:49:32Z</time>
      </trkpt>
      <trkpt lat="49.43971" lon="1.16694">
        <ele>138</ele>
        <time>2017-05-09T15:49:32Z</time>
      </trkpt>
      <trkpt lat="49.43966" lon="1.16693">
        <ele>138</ele>
        <time>2017-05-09T15:49:48Z</time>
      </trkpt>
      <trkpt lat="49.43961" lon="1.16695">
        <ele>138</ele>
        <time>2017-05-09T15:49:48Z</time>
      </trkpt>
      <trkpt lat="49.43957" lon="1.16692">
        <ele>137</ele>
        <time>2017-05-09T15:49:48Z</time>
      </trkpt>
      <trkpt lat="49.43953" lon="1.1669">
        <ele>137</ele>
        <time>2017-05-09T15:49:48Z</time>
      </trkpt>
      <trkpt lat="49.43949" lon="1.16686">
        <ele>137</ele>
        <time>2017-05-09T15:50:04Z</time>
      </trkpt>
      <trkpt lat="49.43943" lon="1.16686">
        <ele>137</ele>
        <time>2017-05-09T15:50:04Z</time>
      </trkpt>
      <trkpt lat="49.43938" lon="1.16686">
        <ele>137</ele>
        <time>2017-05-09T15:50:04Z</time>
      </trkpt>
      <trkpt lat="49.43933" lon="1.16684">
        <ele>137</ele>
        <time>2017-05-09T15:50:04Z</time>
      </trkpt>
      <trkpt lat="49.43928" lon="1.1668">
        <ele>137</ele>
        <time>2017-05-09T15:50:20Z</time>
      </trkpt>
      <trkpt lat="49.43922" lon="1.16679">
        <ele>137</ele>
        <time>2017-05-09T15:50:20Z</time>
      </trkpt>
      <trkpt lat="49.43917" lon="1.16676">
        <ele>137</ele>
        <time>2017-05-09T15:50:20Z</time>
      </trkpt>
      <trkpt lat="49.43913" lon="1.16674">
        <ele>137</ele>
        <time>2017-05-09T15:50:20Z</time>
      </trkpt>
      <trkpt lat="49.43908" lon="1.16673">
        <ele>137</ele>
        <time>2017-05-09T15:50:36Z</time>
      </trkpt>
      <trkpt lat="49.43903" lon="1.16675">
        <ele>137</ele>
        <time>2017-05-09T15:50:36Z</time>
      </trkpt>
      <trkpt lat="49.43896" lon="1.16675">
        <ele>137</ele>
        <time>2017-05-09T15:50:36Z</time>
      </trkpt>
      <trkpt lat="49.43891" lon="1.16673">
        <ele>137</ele>
        <time>2017-05-09T15:50:36Z</time>
      </trkpt>
      <trkpt lat="49.43887" lon="1.16671">
        <ele>137</ele>
        <time>2017-05-09T15:50:52Z</time>
      </trkpt>
      <trkpt lat="49.43882" lon="1.1667">
        <ele>137</ele>
        <time>2017-05-09T15:50:52Z</time>
      </trkpt>
      <trkpt lat="49.43877" lon="1.16674">
        <ele>137</ele>
        <time>2017-05-09T15:50:52Z</time>
      </trkpt>
      <trkpt lat="49.43872" lon="1.16678">
        <ele>137</ele>
        <time>2017-05-09T15:50:52Z</time>
      </trkpt>
      <trkpt lat="49.43867" lon="1.16675">
        <ele>137</ele>
        <time>2017-05-09T15:51:08Z</time>
      </trkpt>
      <trkpt lat="49.43862" lon="1.16674">
        <ele>137</ele>
        <time>2017-05-09T15:51:08Z</time>
      </trkpt>
      <trkpt lat="49.43857" lon="1.16669">
        <ele>137</ele>
        <time>2017-05-09T15:51:08Z</time>
      </trkpt>
      <trkpt lat="49.43851" lon="1.16667">
        <ele>137</ele>
        <time>2017-05-09T15:51:08Z</time>
      </trkpt>
      <trkpt lat="49.43844" lon="1.16667">
        <ele>137</ele>
        <time>2017-05-09T15:51:24Z</time>
      </trkpt>
      <trkpt lat="49.4384" lon="1.1666">
        <ele>137</ele>
        <time>2017-05-09T15:51:25Z</time>
      </trkpt>
      <trkpt lat="49.43836" lon="1.16657">
        <ele>137</ele>
        <time>2017-05-09T15:51:25Z</time>
      </trkpt>
      <trkpt lat="49.43829" lon="1.16659">
        <ele>137</ele>
        <time>2017-05-09T15:51:25Z</time>
      </trkpt>
      <trkpt lat="49.43826" lon="1.16659">
        <ele>137</ele>
        <time>2017-05-09T15:51:40Z</time>
      </trkpt>
      <trkpt lat="49.43822" lon="1.16656">
        <ele>137</ele>
        <time>2017-05-09T15:51:40Z</time>
      </trkpt>
      <trkpt lat="49.43817" lon="1.16651">
        <ele>137</ele>
        <time>2017-05-09T15:51:40Z</time>
      </trkpt>
      <trkpt lat="49.43811" lon="1.16646">
        <ele>137</ele>
        <time>2017-05-09T15:51:40Z</time>
      </trkpt>
      <trkpt lat="49.43808" lon="1.16638">
        <ele>137</ele>
        <time>2017-05-09T15:51:56Z</time>
      </trkpt>
      <trkpt lat="49.43805" lon="1.16629">
        <ele>137</ele>
        <time>2017-05-09T15:51:56Z</time>
      </trkpt>
      <trkpt lat="49.43802" lon="1.16624">
        <ele>141</ele>
        <time>2017-05-09T15:51:56Z</time>
      </trkpt>
      <trkpt lat="49.43801" lon="1.16618">
        <ele>141</ele>
        <time>2017-05-09T15:51:56Z</time>
      </trkpt>
      <trkpt lat="49.43803" lon="1.16618">
        <ele>141</ele>
        <time>2017-05-09T15:52:24Z</time>
      </trkpt>
      <trkpt lat="49.43804" lon="1.1662">
        <ele>141</ele>
        <time>2017-05-09T15:52:24Z</time>
      </trkpt>
      <trkpt lat="49.43802" lon="1.16624">
        <ele>141</ele>
        <time>2017-05-09T15:52:24Z</time>
      </trkpt>
      <trkpt lat="49.43801" lon="1.16626">
        <ele>137</ele>
        <time>2017-05-09T15:52:24Z</time>
      </trkpt>
      <trkpt lat="49.438" lon="1.16627">
        <ele>137</ele>
        <time>2017-05-09T15:52:24Z</time>
      </trkpt>
      <trkpt lat="49.438" lon="1.16628">
        <ele>137</ele>
        <time>2017-05-09T15:52:48Z</time>
      </trkpt>
      <trkpt lat="49.43799" lon="1.16629">
        <ele>137</ele>
        <time>2017-05-09T15:52:48Z</time>
      </trkpt>
      <trkpt lat="49.43796" lon="1.16628">
        <ele>137</ele>
        <time>2017-05-09T15:52:48Z</time>
      </trkpt>
      <trkpt lat="49.43796" lon="1.16628">
        <ele>137</ele>
        <time>2017-05-09T15:52:48Z</time>
      </trkpt>
      <trkpt lat="49.43788" lon="1.16628">
        <ele>137</ele>
        <time>2017-05-09T15:52:48Z</time>
      </trkpt>
      <trkpt lat="49.43705" lon="1.16598">
        <ele>141</ele>
        <time>2017-05-09T15:54:36Z</time>
      </trkpt>
      <trkpt lat="49.43706" lon="1.16615">
        <ele>141</ele>
        <time>2017-05-09T15:54:36Z</time>
      </trkpt>
      <trkpt lat="49.43702" lon="1.16622">
        <ele>141</ele>
        <time>2017-05-09T15:54:36Z</time>
      </trkpt>
      <trkpt lat="49.43689" lon="1.16623">
        <ele>141</ele>
        <time>2017-05-09T15:54:36Z</time>
      </trkpt>
      <trkpt lat="49.43676" lon="1.16617">
        <ele>141</ele>
        <time>2017-05-09T15:54:36Z</time>
      </trkpt>
      <trkpt lat="49.43666" lon="1.1661">
        <ele>141</ele>
        <time>2017-05-09T15:54:52Z</time>
      </trkpt>
      <trkpt lat="49.43659" lon="1.16608">
        <ele>141</ele>
        <time>2017-05-09T15:54:52Z</time>
      </trkpt>
      <trkpt lat="49.43652" lon="1.16607">
        <ele>141</ele>
        <time>2017-05-09T15:54:52Z</time>
      </trkpt>
      <trkpt lat="49.43646" lon="1.16605">
        <ele>141</ele>
        <time>2017-05-09T15:54:52Z</time>
      </trkpt>
      <trkpt lat="49.43641" lon="1.16611">
        <ele>141</ele>
        <time>2017-05-09T15:55:16Z</time>
      </trkpt>
      <trkpt lat="49.43637" lon="1.16618">
        <ele>141</ele>
        <time>2017-05-09T15:55:16Z</time>
      </trkpt>
      <trkpt lat="49.43633" lon="1.16623">
        <ele>141</ele>
        <time>2017-05-09T15:55:16Z</time>
      </trkpt>
      <trkpt lat="49.43613" lon="1.16616">
        <ele>139</ele>
        <time>2017-05-09T15:55:16Z</time>
      </trkpt>
      <trkpt lat="49.4361" lon="1.16604">
        <ele>139</ele>
        <time>2017-05-09T15:55:32Z</time>
      </trkpt>
      <trkpt lat="49.43606" lon="1.16597">
        <ele>139</ele>
        <time>2017-05-09T15:55:32Z</time>
      </trkpt>
      <trkpt lat="49.43599" lon="1.16606">
        <ele>139</ele>
        <time>2017-05-09T15:55:32Z</time>
      </trkpt>
      <trkpt lat="49.43592" lon="1.16604">
        <ele>139</ele>
        <time>2017-05-09T15:55:32Z</time>
      </trkpt>
      <trkpt lat="49.43587" lon="1.166">
        <ele>139</ele>
        <time>2017-05-09T15:55:48Z</time>
      </trkpt>
      <trkpt lat="49.43581" lon="1.166">
        <ele>139</ele>
        <time>2017-05-09T15:55:48Z</time>
      </trkpt>
      <trkpt lat="49.43577" lon="1.16597">
        <ele>139</ele>
        <time>2017-05-09T15:55:48Z</time>
      </trkpt>
      <trkpt lat="49.43574" lon="1.16589">
        <ele>139</ele>
        <time>2017-05-09T15:55:48Z</time>
      </trkpt>
      <trkpt lat="49.43571" lon="1.16583">
        <ele>139</ele>
        <time>2017-05-09T15:56:04Z</time>
      </trkpt>
      <trkpt lat="49.43565" lon="1.16582">
        <ele>139</ele>
        <time>2017-05-09T15:56:04Z</time>
      </trkpt>
      <trkpt lat="49.4356" lon="1.16581">
        <ele>139</ele>
        <time>2017-05-09T15:56:04Z</time>
      </trkpt>
      <trkpt lat="49.43555" lon="1.16584">
        <ele>139</ele>
        <time>2017-05-09T15:56:04Z</time>
      </trkpt>
      <trkpt lat="49.43528" lon="1.16595">
        <ele>135</ele>
        <time>2017-05-09T15:57:12Z</time>
      </trkpt>
      <trkpt lat="49.43523" lon="1.16585">
        <ele>135</ele>
        <time>2017-05-09T15:57:12Z</time>
      </trkpt>
      <trkpt lat="49.43474" lon="1.16585">
        <ele>135</ele>
        <time>2017-05-09T15:57:12Z</time>
      </trkpt>
      <trkpt lat="49.4347" lon="1.16584">
        <ele>135</ele>
        <time>2017-05-09T15:57:12Z</time>
      </trkpt>
      <trkpt lat="49.43465" lon="1.16578">
        <ele>135</ele>
        <time>2017-05-09T15:57:28Z</time>
      </trkpt>
      <trkpt lat="49.43461" lon="1.16579">
        <ele>135</ele>
        <time>2017-05-09T15:57:28Z</time>
      </trkpt>
      <trkpt lat="49.43457" lon="1.1658">
        <ele>111</ele>
        <time>2017-05-09T15:57:28Z</time>
      </trkpt>
      <trkpt lat="49.43451" lon="1.16579">
        <ele>111</ele>
        <time>2017-05-09T15:57:28Z</time>
      </trkpt>
      <trkpt lat="49.43463" lon="1.16597">
        <ele>135</ele>
        <time>2017-05-09T16:09:08Z</time>
      </trkpt>
      <trkpt lat="49.43463" lon="1.16597">
        <ele>135</ele>
        <time>2017-05-09T16:09:08Z</time>
      </trkpt>
      <trkpt lat="49.43463" lon="1.16598">
        <ele>135</ele>
        <time>2017-05-09T16:09:08Z</time>
      </trkpt>
      <trkpt lat="49.43463" lon="1.16598">
        <ele>135</ele>
        <time>2017-05-09T16:09:08Z</time>
      </trkpt>
      <trkpt lat="49.43463" lon="1.16598">
        <ele>135</ele>
        <time>2017-05-09T16:09:08Z</time>
      </trkpt>
      <trkpt lat="49.43462" lon="1.16625">
        <ele>127</ele>
        <time>2017-05-09T16:13:52Z</time>
      </trkpt>
      <trkpt lat="49.43467" lon="1.16633">
        <ele>127</ele>
        <time>2017-05-09T16:13:52Z</time>
      </trkpt>
      <trkpt lat="49.43467" lon="1.16645">
        <ele>127</ele>
        <time>2017-05-09T16:13:52Z</time>
      </trkpt>
      <trkpt lat="49.43463" lon="1.16649">
        <ele>127</ele>
        <time>2017-05-09T16:13:52Z</time>
      </trkpt>
      <trkpt lat="49.43463" lon="1.16652">
        <ele>127</ele>
        <time>2017-05-09T16:13:52Z</time>
      </trkpt>
      <trkpt lat="49.43462" lon="1.16665">
        <ele>127</ele>
        <time>2017-05-09T16:14:36Z</time>
      </trkpt>
      <trkpt lat="49.43424" lon="1.16712">
        <ele>95</ele>
        <time>2017-05-09T16:14:36Z</time>
      </trkpt>
      <trkpt lat="49.4342" lon="1.1671">
        <ele>95</ele>
        <time>2017-05-09T16:14:36Z</time>
      </trkpt>
      <trkpt lat="49.43414" lon="1.16701">
        <ele>103</ele>
        <time>2017-05-09T16:14:36Z</time>
      </trkpt>
      <trkpt lat="49.43406" lon="1.16738">
        <ele>95</ele>
        <time>2017-05-09T16:15:40Z</time>
      </trkpt>
      <trkpt lat="49.43402" lon="1.16753">
        <ele>95</ele>
        <time>2017-05-09T16:15:40Z</time>
      </trkpt>
      <trkpt lat="49.43401" lon="1.16763">
        <ele>95</ele>
        <time>2017-05-09T16:15:40Z</time>
      </trkpt>
      <trkpt lat="49.43402" lon="1.16772">
        <ele>95</ele>
        <time>2017-05-09T16:15:40Z</time>
      </trkpt>
      <trkpt lat="49.43397" lon="1.16777">
        <ele>95</ele>
        <time>2017-05-09T16:15:40Z</time>
      </trkpt>
      <trkpt lat="49.43387" lon="1.16783">
        <ele>95</ele>
        <time>2017-05-09T16:16:16Z</time>
      </trkpt>
      <trkpt lat="49.43396" lon="1.16785">
        <ele>95</ele>
        <time>2017-05-09T16:16:16Z</time>
      </trkpt>
      <trkpt lat="49.43401" lon="1.1679">
        <ele>95</ele>
        <time>2017-05-09T16:16:16Z</time>
      </trkpt>
      <trkpt lat="49.43404" lon="1.16797">
        <ele>80</ele>
        <time>2017-05-09T16:16:16Z</time>
      </trkpt>
      <trkpt lat="49.43403" lon="1.16811">
        <ele>80</ele>
        <time>2017-05-09T16:16:16Z</time>
      </trkpt>
      <trkpt lat="49.4341" lon="1.16808">
        <ele>80</ele>
        <time>2017-05-09T16:16:36Z</time>
      </trkpt>
      <trkpt lat="49.43415" lon="1.16809">
        <ele>80</ele>
        <time>2017-05-09T16:16:36Z</time>
      </trkpt>
      <trkpt lat="49.43415" lon="1.16814">
        <ele>80</ele>
        <time>2017-05-09T16:16:36Z</time>
      </trkpt>
      <trkpt lat="49.43414" lon="1.16819">
        <ele>80</ele>
        <time>2017-05-09T16:16:36Z</time>
      </trkpt>
      <trkpt lat="49.4342" lon="1.16822">
        <ele>80</ele>
        <time>2017-05-09T16:16:36Z</time>
      </trkpt>
      <trkpt lat="49.43424" lon="1.16826">
        <ele>80</ele>
        <time>2017-05-09T16:16:52Z</time>
      </trkpt>
      <trkpt lat="49.43428" lon="1.16832">
        <ele>80</ele>
        <time>2017-05-09T16:16:52Z</time>
      </trkpt>
      <trkpt lat="49.43426" lon="1.16842">
        <ele>80</ele>
        <time>2017-05-09T16:16:52Z</time>
      </trkpt>
      <trkpt lat="49.43427" lon="1.16845">
        <ele>80</ele>
        <time>2017-05-09T16:16:52Z</time>
      </trkpt>
      <trkpt lat="49.43435" lon="1.16838">
        <ele>80</ele>
        <time>2017-05-09T16:19:04Z</time>
      </trkpt>
      <trkpt lat="49.43421" lon="1.16818">
        <ele>80</ele>
        <time>2017-05-09T16:19:04Z</time>
      </trkpt>
      <trkpt lat="49.43391" lon="1.16883">
        <ele>78</ele>
        <time>2017-05-09T16:19:04Z</time>
      </trkpt>
      <trkpt lat="49.43392" lon="1.169">
        <ele>78</ele>
        <time>2017-05-09T16:19:04Z</time>
      </trkpt>
      <trkpt lat="49.43383" lon="1.16902">
        <ele>78</ele>
        <time>2017-05-09T16:19:04Z</time>
      </trkpt>
      <trkpt lat="49.43374" lon="1.16904">
        <ele>52</ele>
        <time>2017-05-09T16:19:52Z</time>
      </trkpt>
      <trkpt lat="49.43374" lon="1.16911">
        <ele>52</ele>
        <time>2017-05-09T16:19:52Z</time>
      </trkpt>
      <trkpt lat="49.43379" lon="1.16917">
        <ele>78</ele>
        <time>2017-05-09T16:19:52Z</time>
      </trkpt>
      <trkpt lat="49.43346" lon="1.16933">
        <ele>52</ele>
        <time>2017-05-09T16:19:52Z</time>
      </trkpt>
      <trkpt lat="49.43343" lon="1.16945">
        <ele>52</ele>
        <time>2017-05-09T16:19:52Z</time>
      </trkpt>
      <trkpt lat="49.43339" lon="1.1695">
        <ele>52</ele>
        <time>2017-05-09T16:20:08Z</time>
      </trkpt>
      <trkpt lat="49.43335" lon="1.16955">
        <ele>52</ele>
        <time>2017-05-09T16:20:08Z</time>
      </trkpt>
      <trkpt lat="49.43332" lon="1.1696">
        <ele>51</ele>
        <time>2017-05-09T16:20:08Z</time>
      </trkpt>
      <trkpt lat="49.43331" lon="1.16971">
        <ele>51</ele>
        <time>2017-05-09T16:20:08Z</time>
      </trkpt>
      <trkpt lat="49.43326" lon="1.16984">
        <ele>51</ele>
        <time>2017-05-09T16:20:24Z</time>
      </trkpt>
      <trkpt lat="49.4332" lon="1.16987">
        <ele>51</ele>
        <time>2017-05-09T16:20:24Z</time>
      </trkpt>
      <trkpt lat="49.43316" lon="1.16982">
        <ele>51</ele>
        <time>2017-05-09T16:20:24Z</time>
      </trkpt>
      <trkpt lat="49.43311" lon="1.16973">
        <ele>51</ele>
        <time>2017-05-09T16:20:24Z</time>
      </trkpt>
      <trkpt lat="49.43311" lon="1.16961">
        <ele>51</ele>
        <time>2017-05-09T16:20:40Z</time>
      </trkpt>
      <trkpt lat="49.43319" lon="1.16946">
        <ele>52</ele>
        <time>2017-05-09T16:20:40Z</time>
      </trkpt>
      <trkpt lat="49.4333" lon="1.16938">
        <ele>52</ele>
        <time>2017-05-09T16:20:40Z</time>
      </trkpt>
      <trkpt lat="49.43337" lon="1.16931">
        <ele>52</ele>
        <time>2017-05-09T16:20:40Z</time>
      </trkpt>
      <trkpt lat="49.4334" lon="1.16923">
        <ele>52</ele>
        <time>2017-05-09T16:20:56Z</time>
      </trkpt>
      <trkpt lat="49.43338" lon="1.16917">
        <ele>52</ele>
        <time>2017-05-09T16:20:56Z</time>
      </trkpt>
      <trkpt lat="49.43333" lon="1.1691">
        <ele>52</ele>
        <time>2017-05-09T16:20:56Z</time>
      </trkpt>
      <trkpt lat="49.43329" lon="1.16903">
        <ele>52</ele>
        <time>2017-05-09T16:20:56Z</time>
      </trkpt>
      <trkpt lat="49.43333" lon="1.16897">
        <ele>52</ele>
        <time>2017-05-09T16:21:12Z</time>
      </trkpt>
      <trkpt lat="49.43339" lon="1.16891">
        <ele>52</ele>
        <time>2017-05-09T16:21:12Z</time>
      </trkpt>
      <trkpt lat="49.43344" lon="1.16885">
        <ele>52</ele>
        <time>2017-05-09T16:21:12Z</time>
      </trkpt>
      <trkpt lat="49.43348" lon="1.16878">
        <ele>52</ele>
        <time>2017-05-09T16:21:12Z</time>
      </trkpt>
      <trkpt lat="49.4335" lon="1.16868">
        <ele>48</ele>
        <time>2017-05-09T16:21:28Z</time>
      </trkpt>
      <trkpt lat="49.43344" lon="1.16858">
        <ele>48</ele>
        <time>2017-05-09T16:21:28Z</time>
      </trkpt>
      <trkpt lat="49.43335" lon="1.1685">
        <ele>48</ele>
        <time>2017-05-09T16:21:28Z</time>
      </trkpt>
      <trkpt lat="49.43332" lon="1.1685">
        <ele>48</ele>
        <time>2017-05-09T16:21:28Z</time>
      </trkpt>
      <trkpt lat="49.43325" lon="1.16848">
        <ele>48</ele>
        <time>2017-05-09T16:22:52Z</time>
      </trkpt>
      <trkpt lat="49.43325" lon="1.16848">
        <ele>48</ele>
        <time>2017-05-09T16:22:52Z</time>
      </trkpt>
      <trkpt lat="49.43324" lon="1.16851">
        <ele>48</ele>
        <time>2017-05-09T16:22:52Z</time>
      </trkpt>
      <trkpt lat="49.43322" lon="1.16849">
        <ele>48</ele>
        <time>2017-05-09T16:22:52Z</time>
      </trkpt>
      <trkpt lat="49.43319" lon="1.16848">
        <ele>48</ele>
        <time>2017-05-09T16:22:52Z</time>
      </trkpt>
      <trkpt lat="49.43316" lon="1.16853">
        <ele>48</ele>
        <time>2017-05-09T16:23:28Z</time>
      </trkpt>
      <trkpt lat="49.43317" lon="1.16854">
        <ele>48</ele>
        <time>2017-05-09T16:23:28Z</time>
      </trkpt>
      <trkpt lat="49.43313" lon="1.16853">
        <ele>48</ele>
        <time>2017-05-09T16:23:28Z</time>
      </trkpt>
      <trkpt lat="49.43308" lon="1.16857">
        <ele>48</ele>
        <time>2017-05-09T16:23:28Z</time>
      </trkpt>
      <trkpt lat="49.43302" lon="1.16857">
        <ele>48</ele>
        <time>2017-05-09T16:23:28Z</time>
      </trkpt>
      <trkpt lat="49.43297" lon="1.16854">
        <ele>48</ele>
        <time>2017-05-09T16:23:48Z</time>
      </trkpt>
      <trkpt lat="49.43294" lon="1.16855">
        <ele>48</ele>
        <time>2017-05-09T16:23:49Z</time>
      </trkpt>
      <trkpt lat="49.43293" lon="1.1686">
        <ele>48</ele>
        <time>2017-05-09T16:23:49Z</time>
      </trkpt>
      <trkpt lat="49.4329" lon="1.16863">
        <ele>34</ele>
        <time>2017-05-09T16:23:49Z</time>
      </trkpt>
      <trkpt lat="49.43286" lon="1.16861">
        <ele>34</ele>
        <time>2017-05-09T16:23:49Z</time>
      </trkpt>
      <trkpt lat="49.43282" lon="1.16863">
        <ele>34</ele>
        <time>2017-05-09T16:24:04Z</time>
      </trkpt>
      <trkpt lat="49.43277" lon="1.16867">
        <ele>34</ele>
        <time>2017-05-09T16:24:04Z</time>
      </trkpt>
      <trkpt lat="49.43273" lon="1.16871">
        <ele>34</ele>
        <time>2017-05-09T16:24:04Z</time>
      </trkpt>
      <trkpt lat="49.43268" lon="1.16872">
        <ele>34</ele>
        <time>2017-05-09T16:24:04Z</time>
      </trkpt>
      <trkpt lat="49.43263" lon="1.16872">
        <ele>34</ele>
        <time>2017-05-09T16:24:20Z</time>
      </trkpt>
      <trkpt lat="49.4326" lon="1.16876">
        <ele>35</ele>
        <time>2017-05-09T16:24:20Z</time>
      </trkpt>
      <trkpt lat="49.43256" lon="1.16878">
        <ele>35</ele>
        <time>2017-05-09T16:24:20Z</time>
      </trkpt>
      <trkpt lat="49.43252" lon="1.16876">
        <ele>35</ele>
        <time>2017-05-09T16:24:20Z</time>
      </trkpt>
      <trkpt lat="49.43247" lon="1.1688">
        <ele>35</ele>
        <time>2017-05-09T16:24:36Z</time>
      </trkpt>
      <trkpt lat="49.43241" lon="1.1688">
        <ele>35</ele>
        <time>2017-05-09T16:24:36Z</time>
      </trkpt>
      <trkpt lat="49.43236" lon="1.16884">
        <ele>35</ele>
        <time>2017-05-09T16:24:36Z</time>
      </trkpt>
      <trkpt lat="49.43232" lon="1.16887">
        <ele>35</ele>
        <time>2017-05-09T16:24:36Z</time>
      </trkpt>
      <trkpt lat="49.43228" lon="1.16887">
        <ele>35</ele>
        <time>2017-05-09T16:24:52Z</time>
      </trkpt>
      <trkpt lat="49.43223" lon="1.16882">
        <ele>35</ele>
        <time>2017-05-09T16:24:52Z</time>
      </trkpt>
      <trkpt lat="49.43219" lon="1.16879">
        <ele>35</ele>
        <time>2017-05-09T16:24:52Z</time>
      </trkpt>
      <trkpt lat="49.43214" lon="1.16877">
        <ele>35</ele>
        <time>2017-05-09T16:24:52Z</time>
      </trkpt>
      <trkpt lat="49.43208" lon="1.16876">
        <ele>32</ele>
        <time>2017-05-09T16:25:08Z</time>
      </trkpt>
      <trkpt lat="49.43203" lon="1.16876">
        <ele>32</ele>
        <time>2017-05-09T16:25:08Z</time>
      </trkpt>
      <trkpt lat="49.43198" lon="1.16876">
        <ele>32</ele>
        <time>2017-05-09T16:25:08Z</time>
      </trkpt>
      <trkpt lat="49.43193" lon="1.16875">
        <ele>33</ele>
        <time>2017-05-09T16:25:08Z</time>
      </trkpt>
      <trkpt lat="49.43188" lon="1.16875">
        <ele>33</ele>
        <time>2017-05-09T16:25:24Z</time>
      </trkpt>
      <trkpt lat="49.43185" lon="1.16876">
        <ele>32</ele>
        <time>2017-05-09T16:25:24Z</time>
      </trkpt>
      <trkpt lat="49.4318" lon="1.16873">
        <ele>33</ele>
        <time>2017-05-09T16:25:24Z</time>
      </trkpt>
      <trkpt lat="49.43175" lon="1.16874">
        <ele>33</ele>
        <time>2017-05-09T16:25:24Z</time>
      </trkpt>
      <trkpt lat="49.4317" lon="1.16875">
        <ele>33</ele>
        <time>2017-05-09T16:25:40Z</time>
      </trkpt>
      <trkpt lat="49.43164" lon="1.16874">
        <ele>33</ele>
        <time>2017-05-09T16:25:40Z</time>
      </trkpt>
      <trkpt lat="49.4316" lon="1.1687">
        <ele>33</ele>
        <time>2017-05-09T16:25:40Z</time>
      </trkpt>
      <trkpt lat="49.43156" lon="1.16871">
        <ele>33</ele>
        <time>2017-05-09T16:25:40Z</time>
      </trkpt>
      <trkpt lat="49.43152" lon="1.16877">
        <ele>32</ele>
        <time>2017-05-09T16:25:56Z</time>
      </trkpt>
      <trkpt lat="49.43147" lon="1.16879">
        <ele>32</ele>
        <time>2017-05-09T16:25:56Z</time>
      </trkpt>
      <trkpt lat="49.43143" lon="1.16882">
        <ele>32</ele>
        <time>2017-05-09T16:25:56Z</time>
      </trkpt>
      <trkpt lat="49.43138" lon="1.16883">
        <ele>32</ele>
        <time>2017-05-09T16:25:56Z</time>
      </trkpt>
      <trkpt lat="49.43134" lon="1.1688">
        <ele>32</ele>
        <time>2017-05-09T16:26:12Z</time>
      </trkpt>
      <trkpt lat="49.43129" lon="1.16882">
        <ele>32</ele>
        <time>2017-05-09T16:26:12Z</time>
      </trkpt>
      <trkpt lat="49.43124" lon="1.1688">
        <ele>37</ele>
        <time>2017-05-09T16:26:12Z</time>
      </trkpt>
      <trkpt lat="49.43118" lon="1.1688">
        <ele>37</ele>
        <time>2017-05-09T16:26:12Z</time>
      </trkpt>
      <trkpt lat="49.43114" lon="1.1688">
        <ele>37</ele>
        <time>2017-05-09T16:26:28Z</time>
      </trkpt>
      <trkpt lat="49.43109" lon="1.16881">
        <ele>37</ele>
        <time>2017-05-09T16:26:28Z</time>
      </trkpt>
      <trkpt lat="49.43104" lon="1.16882">
        <ele>37</ele>
        <time>2017-05-09T16:26:28Z</time>
      </trkpt>
      <trkpt lat="49.43099" lon="1.16881">
        <ele>37</ele>
        <time>2017-05-09T16:26:28Z</time>
      </trkpt>
      <trkpt lat="49.43095" lon="1.16884">
        <ele>37</ele>
        <time>2017-05-09T16:26:44Z</time>
      </trkpt>
      <trkpt lat="49.43092" lon="1.16885">
        <ele>37</ele>
        <time>2017-05-09T16:26:44Z</time>
      </trkpt>
      <trkpt lat="49.43088" lon="1.16884">
        <ele>37</ele>
        <time>2017-05-09T16:26:44Z</time>
      </trkpt>
      <trkpt lat="49.43082" lon="1.16885">
        <ele>37</ele>
        <time>2017-05-09T16:26:44Z</time>
      </trkpt>
      <trkpt lat="49.43076" lon="1.16886">
        <ele>37</ele>
        <time>2017-05-09T16:27:00Z</time>
      </trkpt>
      <trkpt lat="49.43071" lon="1.16889">
        <ele>37</ele>
        <time>2017-05-09T16:27:00Z</time>
      </trkpt>
      <trkpt lat="49.43066" lon="1.16888">
        <ele>37</ele>
        <time>2017-05-09T16:27:00Z</time>
      </trkpt>
      <trkpt lat="49.43061" lon="1.16886">
        <ele>37</ele>
        <time>2017-05-09T16:27:00Z</time>
      </trkpt>
      <trkpt lat="49.43057" lon="1.16886">
        <ele>37</ele>
        <time>2017-05-09T16:27:16Z</time>
      </trkpt>
      <trkpt lat="49.43052" lon="1.16884">
        <ele>37</ele>
        <time>2017-05-09T16:27:16Z</time>
      </trkpt>
      <trkpt lat="49.43048" lon="1.16881">
        <ele>37</ele>
        <time>2017-05-09T16:27:16Z</time>
      </trkpt>
      <trkpt lat="49.43046" lon="1.16875">
        <ele>35</ele>
        <time>2017-05-09T16:27:16Z</time>
      </trkpt>
      <trkpt lat="49.43046" lon="1.16869">
        <ele>35</ele>
        <time>2017-05-09T16:27:32Z</time>
      </trkpt>
      <trkpt lat="49.43044" lon="1.16867">
        <ele>35</ele>
        <time>2017-05-09T16:27:32Z</time>
      </trkpt>
      <trkpt lat="49.43042" lon="1.16861">
        <ele>35</ele>
        <time>2017-05-09T16:27:32Z</time>
      </trkpt>
      <trkpt lat="49.43043" lon="1.16854">
        <ele>35</ele>
        <time>2017-05-09T16:27:32Z</time>
      </trkpt>
      <trkpt lat="49.43041" lon="1.16848">
        <ele>41</ele>
        <time>2017-05-09T16:27:48Z</time>
      </trkpt>
      <trkpt lat="49.4304" lon="1.16841">
        <ele>41</ele>
        <time>2017-05-09T16:27:48Z</time>
      </trkpt>
      <trkpt lat="49.43041" lon="1.16831">
        <ele>41</ele>
        <time>2017-05-09T16:27:48Z</time>
      </trkpt>
      <trkpt lat="49.43042" lon="1.16822">
        <ele>41</ele>
        <time>2017-05-09T16:27:48Z</time>
      </trkpt>
      <trkpt lat="49.43039" lon="1.16815">
        <ele>41</ele>
        <time>2017-05-09T16:28:04Z</time>
      </trkpt>
      <trkpt lat="49.43043" lon="1.16807">
        <ele>35</ele>
        <time>2017-05-09T16:28:04Z</time>
      </trkpt>
      <trkpt lat="49.43043" lon="1.16799">
        <ele>35</ele>
        <time>2017-05-09T16:28:04Z</time>
      </trkpt>
      <trkpt lat="49.43041" lon="1.16794">
        <ele>41</ele>
        <time>2017-05-09T16:28:04Z</time>
      </trkpt>
      <trkpt lat="49.43042" lon="1.16786">
        <ele>32</ele>
        <time>2017-05-09T16:28:20Z</time>
      </trkpt>
      <trkpt lat="49.4304" lon="1.1678">
        <ele>40</ele>
        <time>2017-05-09T16:28:20Z</time>
      </trkpt>
      <trkpt lat="49.4304" lon="1.16772">
        <ele>40</ele>
        <time>2017-05-09T16:28:20Z</time>
      </trkpt>
      <trkpt lat="49.43041" lon="1.16763">
        <ele>40</ele>
        <time>2017-05-09T16:28:20Z</time>
      </trkpt>
      <trkpt lat="49.43041" lon="1.16754">
        <ele>40</ele>
        <time>2017-05-09T16:28:36Z</time>
      </trkpt>
      <trkpt lat="49.43041" lon="1.16747">
        <ele>40</ele>
        <time>2017-05-09T16:28:36Z</time>
      </trkpt>
      <trkpt lat="49.43039" lon="1.16741">
        <ele>40</ele>
        <time>2017-05-09T16:28:36Z</time>
      </trkpt>
      <trkpt lat="49.43034" lon="1.16738">
        <ele>40</ele>
        <time>2017-05-09T16:28:36Z</time>
      </trkpt>
      <trkpt lat="49.43024" lon="1.16741">
        <ele>40</ele>
        <time>2017-05-09T16:28:52Z</time>
      </trkpt>
      <trkpt lat="49.43021" lon="1.16737">
        <ele>40</ele>
        <time>2017-05-09T16:28:52Z</time>
      </trkpt>
      <trkpt lat="49.43018" lon="1.16732">
        <ele>40</ele>
        <time>2017-05-09T16:28:52Z</time>
      </trkpt>
      <trkpt lat="49.43017" lon="1.16727">
        <ele>40</ele>
        <time>2017-05-09T16:28:52Z</time>
      </trkpt>
      <trkpt lat="49.43018" lon="1.16727">
        <ele>40</ele>
        <time>2017-05-09T16:29:16Z</time>
      </trkpt>
      <trkpt lat="49.43017" lon="1.16727">
        <ele>40</ele>
        <time>2017-05-09T16:29:16Z</time>
      </trkpt>
      <trkpt lat="49.43014" lon="1.16726">
        <ele>40</ele>
        <time>2017-05-09T16:29:16Z</time>
      </trkpt>
      <trkpt lat="49.4301" lon="1.16727">
        <ele>40</ele>
        <time>2017-05-09T16:29:16Z</time>
      </trkpt>
      <trkpt lat="49.43007" lon="1.16728">
        <ele>40</ele>
        <time>2017-05-09T16:29:16Z</time>
      </trkpt>
      <trkpt lat="49.43007" lon="1.16732">
        <ele>40</ele>
        <time>2017-05-09T16:29:36Z</time>
      </trkpt>
      <trkpt lat="49.43009" lon="1.16735">
        <ele>40</ele>
        <time>2017-05-09T16:29:36Z</time>
      </trkpt>
      <trkpt lat="49.4301" lon="1.16736">
        <ele>40</ele>
        <time>2017-05-09T16:29:36Z</time>
      </trkpt>
      <trkpt lat="49.43013" lon="1.16739">
        <ele>40</ele>
        <time>2017-05-09T16:29:36Z</time>
      </trkpt>
      <trkpt lat="49.43021" lon="1.16745">
        <ele>40</ele>
        <time>2017-05-09T16:29:36Z</time>
      </trkpt>
      <trkpt lat="49.43027" lon="1.16749">
        <ele>40</ele>
        <time>2017-05-09T16:29:52Z</time>
      </trkpt>
      <trkpt lat="49.43028" lon="1.16752">
        <ele>40</ele>
        <time>2017-05-09T16:29:52Z</time>
      </trkpt>
      <trkpt lat="49.43028" lon="1.16759">
        <ele>40</ele>
        <time>2017-05-09T16:29:52Z</time>
      </trkpt>
      <trkpt lat="49.43026" lon="1.16768">
        <ele>40</ele>
        <time>2017-05-09T16:29:52Z</time>
      </trkpt>
      <trkpt lat="49.43029" lon="1.16776">
        <ele>40</ele>
        <time>2017-05-09T16:30:08Z</time>
      </trkpt>
      <trkpt lat="49.43035" lon="1.1678">
        <ele>40</ele>
        <time>2017-05-09T16:30:08Z</time>
      </trkpt>
      <trkpt lat="49.43038" lon="1.16789">
        <ele>40</ele>
        <time>2017-05-09T16:30:08Z</time>
      </trkpt>
      <trkpt lat="49.4304" lon="1.16795">
        <ele>41</ele>
        <time>2017-05-09T16:30:08Z</time>
      </trkpt>
      <trkpt lat="49.43041" lon="1.16802">
        <ele>41</ele>
        <time>2017-05-09T16:30:24Z</time>
      </trkpt>
      <trkpt lat="49.43041" lon="1.16808">
        <ele>41</ele>
        <time>2017-05-09T16:30:24Z</time>
      </trkpt>
      <trkpt lat="49.43043" lon="1.16809">
        <ele>35</ele>
        <time>2017-05-09T16:30:24Z</time>
      </trkpt>
      <trkpt lat="49.43039" lon="1.1682">
        <ele>41</ele>
        <time>2017-05-09T16:30:24Z</time>
      </trkpt>
      <trkpt lat="49.43029" lon="1.16829">
        <ele>41</ele>
        <time>2017-05-09T16:30:40Z</time>
      </trkpt>
      <trkpt lat="49.43022" lon="1.16837">
        <ele>41</ele>
        <time>2017-05-09T16:30:40Z</time>
      </trkpt>
      <trkpt lat="49.43016" lon="1.16844">
        <ele>41</ele>
        <time>2017-05-09T16:30:40Z</time>
      </trkpt>
      <trkpt lat="49.43012" lon="1.16851">
        <ele>41</ele>
        <time>2017-05-09T16:30:40Z</time>
      </trkpt>
      <trkpt lat="49.43006" lon="1.16856">
        <ele>41</ele>
        <time>2017-05-09T16:30:56Z</time>
      </trkpt>
      <trkpt lat="49.42996" lon="1.1686">
        <ele>41</ele>
        <time>2017-05-09T16:30:56Z</time>
      </trkpt>
      <trkpt lat="49.42992" lon="1.16866">
        <ele>41</ele>
        <time>2017-05-09T16:30:56Z</time>
      </trkpt>
      <trkpt lat="49.42989" lon="1.16873">
        <ele>41</ele>
        <time>2017-05-09T16:30:56Z</time>
      </trkpt>
      <trkpt lat="49.42986" lon="1.16878">
        <ele>41</ele>
        <time>2017-05-09T16:31:12Z</time>
      </trkpt>
      <trkpt lat="49.42981" lon="1.16882">
        <ele>41</ele>
        <time>2017-05-09T16:31:12Z</time>
      </trkpt>
      <trkpt lat="49.42984" lon="1.16892">
        <ele>41</ele>
        <time>2017-05-09T16:31:12Z</time>
      </trkpt>
      <trkpt lat="49.42989" lon="1.169">
        <ele>41</ele>
        <time>2017-05-09T16:31:12Z</time>
      </trkpt>
      <trkpt lat="49.42991" lon="1.16907">
        <ele>41</ele>
        <time>2017-05-09T16:31:28Z</time>
      </trkpt>
      <trkpt lat="49.42988" lon="1.16915">
        <ele>41</ele>
        <time>2017-05-09T16:31:28Z</time>
      </trkpt>
      <trkpt lat="49.42981" lon="1.16921">
        <ele>41</ele>
        <time>2017-05-09T16:31:28Z</time>
      </trkpt>
      <trkpt lat="49.42973" lon="1.16925">
        <ele>41</ele>
        <time>2017-05-09T16:31:28Z</time>
      </trkpt>
      <trkpt lat="49.42966" lon="1.16929">
        <ele>41</ele>
        <time>2017-05-09T16:31:44Z</time>
      </trkpt>
      <trkpt lat="49.42959" lon="1.16934">
        <ele>41</ele>
        <time>2017-05-09T16:31:44Z</time>
      </trkpt>
      <trkpt lat="49.42953" lon="1.1694">
        <ele>43</ele>
        <time>2017-05-09T16:31:44Z</time>
      </trkpt>
      <trkpt lat="49.42947" lon="1.16941">
        <ele>43</ele>
        <time>2017-05-09T16:31:44Z</time>
      </trkpt>
      <trkpt lat="49.42937" lon="1.16935">
        <ele>43</ele>
        <time>2017-05-09T16:32:00Z</time>
      </trkpt>
      <trkpt lat="49.42928" lon="1.16933">
        <ele>43</ele>
        <time>2017-05-09T16:32:00Z</time>
      </trkpt>
      <trkpt lat="49.42921" lon="1.16931">
        <ele>43</ele>
        <time>2017-05-09T16:32:00Z</time>
      </trkpt>
      <trkpt lat="49.42918" lon="1.16925">
        <ele>43</ele>
        <time>2017-05-09T16:32:00Z</time>
      </trkpt>
      <trkpt lat="49.42915" lon="1.16915">
        <ele>43</ele>
        <time>2017-05-09T16:32:16Z</time>
      </trkpt>
      <trkpt lat="49.42912" lon="1.1691">
        <ele>43</ele>
        <time>2017-05-09T16:32:16Z</time>
      </trkpt>
      <trkpt lat="49.42908" lon="1.16909">
        <ele>43</ele>
        <time>2017-05-09T16:32:16Z</time>
      </trkpt>
      <trkpt lat="49.42905" lon="1.16907">
        <ele>43</ele>
        <time>2017-05-09T16:32:16Z</time>
      </trkpt>
      <trkpt lat="49.42904" lon="1.16903">
        <ele>43</ele>
        <time>2017-05-09T16:32:32Z</time>
      </trkpt>
      <trkpt lat="49.42901" lon="1.16898">
        <ele>43</ele>
        <time>2017-05-09T16:32:32Z</time>
      </trkpt>
      <trkpt lat="49.42896" lon="1.16893">
        <ele>43</ele>
        <time>2017-05-09T16:32:32Z</time>
      </trkpt>
      <trkpt lat="49.42892" lon="1.16885">
        <ele>43</ele>
        <time>2017-05-09T16:32:32Z</time>
      </trkpt>
      <trkpt lat="49.42888" lon="1.16877">
        <ele>43</ele>
        <time>2017-05-09T16:32:48Z</time>
      </trkpt>
      <trkpt lat="49.42883" lon="1.16872">
        <ele>46</ele>
        <time>2017-05-09T16:32:48Z</time>
      </trkpt>
      <trkpt lat="49.42883" lon="1.16862">
        <ele>46</ele>
        <time>2017-05-09T16:32:48Z</time>
      </trkpt>
      <trkpt lat="49.42886" lon="1.16853">
        <ele>46</ele>
        <time>2017-05-09T16:32:48Z</time>
      </trkpt>
      <trkpt lat="49.42881" lon="1.16846">
        <ele>46</ele>
        <time>2017-05-09T16:33:04Z</time>
      </trkpt>
      <trkpt lat="49.42874" lon="1.16841">
        <ele>47</ele>
        <time>2017-05-09T16:33:04Z</time>
      </trkpt>
      <trkpt lat="49.4287" lon="1.16835">
        <ele>47</ele>
        <time>2017-05-09T16:33:04Z</time>
      </trkpt>
      <trkpt lat="49.42865" lon="1.16833">
        <ele>47</ele>
        <time>2017-05-09T16:33:04Z</time>
      </trkpt>
      <trkpt lat="49.42861" lon="1.16828">
        <ele>47</ele>
        <time>2017-05-09T16:33:20Z</time>
      </trkpt>
      <trkpt lat="49.42859" lon="1.16823">
        <ele>47</ele>
        <time>2017-05-09T16:33:20Z</time>
      </trkpt>
      <trkpt lat="49.42852" lon="1.16822">
        <ele>47</ele>
        <time>2017-05-09T16:33:20Z</time>
      </trkpt>
      <trkpt lat="49.42846" lon="1.16824">
        <ele>47</ele>
        <time>2017-05-09T16:33:20Z</time>
      </trkpt>
      <trkpt lat="49.42845" lon="1.16827">
        <ele>47</ele>
        <time>2017-05-09T16:33:40Z</time>
      </trkpt>
      <trkpt lat="49.42845" lon="1.16827">
        <ele>47</ele>
        <time>2017-05-09T16:33:40Z</time>
      </trkpt>
      <trkpt lat="49.42844" lon="1.1683">
        <ele>47</ele>
        <time>2017-05-09T16:33:40Z</time>
      </trkpt>
      <trkpt lat="49.42844" lon="1.16835">
        <ele>47</ele>
        <time>2017-05-09T16:33:40Z</time>
      </trkpt>
      <trkpt lat="49.42851" lon="1.16843">
        <ele>47</ele>
        <time>2017-05-09T16:33:40Z</time>
      </trkpt>
      <trkpt lat="49.42858" lon="1.16848">
        <ele>47</ele>
        <time>2017-05-09T16:33:56Z</time>
      </trkpt>
      <trkpt lat="49.4286" lon="1.16857">
        <ele>47</ele>
        <time>2017-05-09T16:33:56Z</time>
      </trkpt>
      <trkpt lat="49.42858" lon="1.16868">
        <ele>47</ele>
        <time>2017-05-09T16:33:56Z</time>
      </trkpt>
      <trkpt lat="49.42856" lon="1.16875">
        <ele>47</ele>
        <time>2017-05-09T16:33:56Z</time>
      </trkpt>
      <trkpt lat="49.42854" lon="1.16882">
        <ele>46</ele>
        <time>2017-05-09T16:34:12Z</time>
      </trkpt>
      <trkpt lat="49.42857" lon="1.16886">
        <ele>46</ele>
        <time>2017-05-09T16:34:12Z</time>
      </trkpt>
      <trkpt lat="49.42862" lon="1.16889">
        <ele>46</ele>
        <time>2017-05-09T16:34:12Z</time>
      </trkpt>
      <trkpt lat="49.42863" lon="1.16892">
        <ele>46</ele>
        <time>2017-05-09T16:34:12Z</time>
      </trkpt>
      <trkpt lat="49.42862" lon="1.16897">
        <ele>46</ele>
        <time>2017-05-09T16:34:28Z</time>
      </trkpt>
      <trkpt lat="49.42865" lon="1.16902">
        <ele>46</ele>
        <time>2017-05-09T16:34:28Z</time>
      </trkpt>
      <trkpt lat="49.4287" lon="1.16906">
        <ele>46</ele>
        <time>2017-05-09T16:34:28Z</time>
      </trkpt>
      <trkpt lat="49.42873" lon="1.16912">
        <ele>46</ele>
        <time>2017-05-09T16:34:28Z</time>
      </trkpt>
      <trkpt lat="49.42875" lon="1.16917">
        <ele>46</ele>
        <time>2017-05-09T16:34:44Z</time>
      </trkpt>
      <trkpt lat="49.42871" lon="1.16924">
        <ele>46</ele>
        <time>2017-05-09T16:34:44Z</time>
      </trkpt>
      <trkpt lat="49.42865" lon="1.16931">
        <ele>46</ele>
        <time>2017-05-09T16:34:44Z</time>
      </trkpt>
      <trkpt lat="49.42861" lon="1.16938">
        <ele>46</ele>
        <time>2017-05-09T16:34:44Z</time>
      </trkpt>
      <trkpt lat="49.42862" lon="1.16945">
        <ele>46</ele>
        <time>2017-05-09T16:35:00Z</time>
      </trkpt>
      <trkpt lat="49.42854" lon="1.16947">
        <ele>46</ele>
        <time>2017-05-09T16:35:00Z</time>
      </trkpt>
      <trkpt lat="49.42849" lon="1.16949">
        <ele>46</ele>
        <time>2017-05-09T16:35:00Z</time>
      </trkpt>
      <trkpt lat="49.42842" lon="1.16949">
        <ele>46</ele>
        <time>2017-05-09T16:35:00Z</time>
      </trkpt>
      <trkpt lat="49.42835" lon="1.16948">
        <ele>46</ele>
        <time>2017-05-09T16:35:16Z</time>
      </trkpt>
      <trkpt lat="49.42826" lon="1.16952">
        <ele>46</ele>
        <time>2017-05-09T16:35:16Z</time>
      </trkpt>
      <trkpt lat="49.42816" lon="1.16957">
        <ele>46</ele>
        <time>2017-05-09T16:35:16Z</time>
      </trkpt>
      <trkpt lat="49.42811" lon="1.16962">
        <ele>41</ele>
        <time>2017-05-09T16:35:16Z</time>
      </trkpt>
      <trkpt lat="49.42806" lon="1.16963">
        <ele>41</ele>
        <time>2017-05-09T16:35:32Z</time>
      </trkpt>
      <trkpt lat="49.42798" lon="1.16964">
        <ele>41</ele>
        <time>2017-05-09T16:35:32Z</time>
      </trkpt>
      <trkpt lat="49.42793" lon="1.16972">
        <ele>41</ele>
        <time>2017-05-09T16:35:32Z</time>
      </trkpt>
      <trkpt lat="49.42793" lon="1.16985">
        <ele>41</ele>
        <time>2017-05-09T16:35:32Z</time>
      </trkpt>
      <trkpt lat="49.42791" lon="1.16991">
        <ele>52</ele>
        <time>2017-05-09T16:35:48Z</time>
      </trkpt>
      <trkpt lat="49.42785" lon="1.16995">
        <ele>52</ele>
        <time>2017-05-09T16:35:48Z</time>
      </trkpt>
      <trkpt lat="49.4278" lon="1.17002">
        <ele>52</ele>
        <time>2017-05-09T16:35:48Z</time>
      </trkpt>
      <trkpt lat="49.42781" lon="1.17014">
        <ele>52</ele>
        <time>2017-05-09T16:35:48Z</time>
      </trkpt>
      <trkpt lat="49.42776" lon="1.17015">
        <ele>52</ele>
        <time>2017-05-09T16:36:04Z</time>
      </trkpt>
      <trkpt lat="49.42769" lon="1.17014">
        <ele>52</ele>
        <time>2017-05-09T16:36:04Z</time>
      </trkpt>
      <trkpt lat="49.42765" lon="1.17016">
        <ele>52</ele>
        <time>2017-05-09T16:36:04Z</time>
      </trkpt>
      <trkpt lat="49.42763" lon="1.17024">
        <ele>52</ele>
        <time>2017-05-09T16:36:04Z</time>
      </trkpt>
      <trkpt lat="49.42762" lon="1.17031">
        <ele>52</ele>
        <time>2017-05-09T16:36:20Z</time>
      </trkpt>
      <trkpt lat="49.42757" lon="1.17031">
        <ele>52</ele>
        <time>2017-05-09T16:36:20Z</time>
      </trkpt>
      <trkpt lat="49.42751" lon="1.17032">
        <ele>52</ele>
        <time>2017-05-09T16:36:20Z</time>
      </trkpt>
      <trkpt lat="49.42744" lon="1.17037">
        <ele>52</ele>
        <time>2017-05-09T16:36:20Z</time>
      </trkpt>
      <trkpt lat="49.42737" lon="1.17039">
        <ele>52</ele>
        <time>2017-05-09T16:36:36Z</time>
      </trkpt>
      <trkpt lat="49.42732" lon="1.17042">
        <ele>44</ele>
        <time>2017-05-09T16:36:36Z</time>
      </trkpt>
      <trkpt lat="49.42729" lon="1.17048">
        <ele>44</ele>
        <time>2017-05-09T16:36:36Z</time>
      </trkpt>
      <trkpt lat="49.42724" lon="1.17048">
        <ele>44</ele>
        <time>2017-05-09T16:36:36Z</time>
      </trkpt>
      <trkpt lat="49.42721" lon="1.17055">
        <ele>44</ele>
        <time>2017-05-09T16:36:52Z</time>
      </trkpt>
      <trkpt lat="49.42723" lon="1.17064">
        <ele>44</ele>
        <time>2017-05-09T16:36:52Z</time>
      </trkpt>
      <trkpt lat="49.42725" lon="1.17074">
        <ele>44</ele>
        <time>2017-05-09T16:36:52Z</time>
      </trkpt>
      <trkpt lat="49.42717" lon="1.17076">
        <ele>44</ele>
        <time>2017-05-09T16:36:52Z</time>
      </trkpt>
      <trkpt lat="49.42706" lon="1.17078">
        <ele>52</ele>
        <time>2017-05-09T16:37:08Z</time>
      </trkpt>
      <trkpt lat="49.42698" lon="1.17083">
        <ele>52</ele>
        <time>2017-05-09T16:37:08Z</time>
      </trkpt>
      <trkpt lat="49.42692" lon="1.17087">
        <ele>52</ele>
        <time>2017-05-09T16:37:08Z</time>
      </trkpt>
      <trkpt lat="49.42688" lon="1.17095">
        <ele>52</ele>
        <time>2017-05-09T16:37:08Z</time>
      </trkpt>
      <trkpt lat="49.42683" lon="1.17098">
        <ele>52</ele>
        <time>2017-05-09T16:37:24Z</time>
      </trkpt>
      <trkpt lat="49.4267" lon="1.17097">
        <ele>52</ele>
        <time>2017-05-09T16:37:24Z</time>
      </trkpt>
      <trkpt lat="49.42664" lon="1.17098">
        <ele>52</ele>
        <time>2017-05-09T16:37:24Z</time>
      </trkpt>
      <trkpt lat="49.42661" lon="1.17103">
        <ele>52</ele>
        <time>2017-05-09T16:37:24Z</time>
      </trkpt>
      <trkpt lat="49.42659" lon="1.17109">
        <ele>52</ele>
        <time>2017-05-09T16:37:40Z</time>
      </trkpt>
      <trkpt lat="49.42652" lon="1.17111">
        <ele>52</ele>
        <time>2017-05-09T16:37:40Z</time>
      </trkpt>
      <trkpt lat="49.42644" lon="1.17113">
        <ele>52</ele>
        <time>2017-05-09T16:37:40Z</time>
      </trkpt>
      <trkpt lat="49.42639" lon="1.17116">
        <ele>52</ele>
        <time>2017-05-09T16:37:40Z</time>
      </trkpt>
      <trkpt lat="49.42637" lon="1.17123">
        <ele>52</ele>
        <time>2017-05-09T16:37:56Z</time>
      </trkpt>
      <trkpt lat="49.42632" lon="1.17126">
        <ele>44</ele>
        <time>2017-05-09T16:37:56Z</time>
      </trkpt>
      <trkpt lat="49.42627" lon="1.17127">
        <ele>44</ele>
        <time>2017-05-09T16:37:56Z</time>
      </trkpt>
      <trkpt lat="49.42623" lon="1.17127">
        <ele>57</ele>
        <time>2017-05-09T16:37:56Z</time>
      </trkpt>
      <trkpt lat="49.4262" lon="1.1713">
        <ele>57</ele>
        <time>2017-05-09T16:38:12Z</time>
      </trkpt>
      <trkpt lat="49.42615" lon="1.17134">
        <ele>57</ele>
        <time>2017-05-09T16:38:12Z</time>
      </trkpt>
      <trkpt lat="49.42611" lon="1.17136">
        <ele>57</ele>
        <time>2017-05-09T16:38:12Z</time>
      </trkpt>
      <trkpt lat="49.42607" lon="1.1714">
        <ele>57</ele>
        <time>2017-05-09T16:38:12Z</time>
      </trkpt>
      <trkpt lat="49.42605" lon="1.17148">
        <ele>57</ele>
        <time>2017-05-09T16:38:28Z</time>
      </trkpt>
      <trkpt lat="49.42602" lon="1.17151">
        <ele>57</ele>
        <time>2017-05-09T16:38:28Z</time>
      </trkpt>
      <trkpt lat="49.42598" lon="1.17153">
        <ele>57</ele>
        <time>2017-05-09T16:38:28Z</time>
      </trkpt>
      <trkpt lat="49.42593" lon="1.17152">
        <ele>57</ele>
        <time>2017-05-09T16:38:28Z</time>
      </trkpt>
      <trkpt lat="49.4259" lon="1.1715">
        <ele>57</ele>
        <time>2017-05-09T16:38:44Z</time>
      </trkpt>
      <trkpt lat="49.42585" lon="1.17147">
        <ele>57</ele>
        <time>2017-05-09T16:38:44Z</time>
      </trkpt>
      <trkpt lat="49.4258" lon="1.17147">
        <ele>57</ele>
        <time>2017-05-09T16:38:44Z</time>
      </trkpt>
      <trkpt lat="49.42576" lon="1.1715">
        <ele>57</ele>
        <time>2017-05-09T16:38:44Z</time>
      </trkpt>
      <trkpt lat="49.42575" lon="1.17157">
        <ele>57</ele>
        <time>2017-05-09T16:39:00Z</time>
      </trkpt>
      <trkpt lat="49.42575" lon="1.17164">
        <ele>57</ele>
        <time>2017-05-09T16:39:00Z</time>
      </trkpt>
      <trkpt lat="49.42574" lon="1.1717">
        <ele>57</ele>
        <time>2017-05-09T16:39:00Z</time>
      </trkpt>
      <trkpt lat="49.42571" lon="1.17178">
        <ele>57</ele>
        <time>2017-05-09T16:39:00Z</time>
      </trkpt>
      <trkpt lat="49.42571" lon="1.17186">
        <ele>57</ele>
        <time>2017-05-09T16:39:16Z</time>
      </trkpt>
      <trkpt lat="49.42569" lon="1.17191">
        <ele>57</ele>
        <time>2017-05-09T16:39:16Z</time>
      </trkpt>
      <trkpt lat="49.42564" lon="1.17192">
        <ele>57</ele>
        <time>2017-05-09T16:39:16Z</time>
      </trkpt>
      <trkpt lat="49.42559" lon="1.17196">
        <ele>57</ele>
        <time>2017-05-09T16:39:16Z</time>
      </trkpt>
      <trkpt lat="49.42555" lon="1.17202">
        <ele>57</ele>
        <time>2017-05-09T16:39:32Z</time>
      </trkpt>
      <trkpt lat="49.42552" lon="1.17209">
        <ele>49</ele>
        <time>2017-05-09T16:39:32Z</time>
      </trkpt>
      <trkpt lat="49.42546" lon="1.17212">
        <ele>49</ele>
        <time>2017-05-09T16:39:32Z</time>
      </trkpt>
      <trkpt lat="49.42535" lon="1.17214">
        <ele>67</ele>
        <time>2017-05-09T16:39:32Z</time>
      </trkpt>
      <trkpt lat="49.42532" lon="1.17224">
        <ele>67</ele>
        <time>2017-05-09T16:39:48Z</time>
      </trkpt>
      <trkpt lat="49.4253" lon="1.17232">
        <ele>67</ele>
        <time>2017-05-09T16:39:48Z</time>
      </trkpt>
      <trkpt lat="49.42525" lon="1.17236">
        <ele>67</ele>
        <time>2017-05-09T16:39:48Z</time>
      </trkpt>
      <trkpt lat="49.4252" lon="1.17243">
        <ele>67</ele>
        <time>2017-05-09T16:39:48Z</time>
      </trkpt>
      <trkpt lat="49.42517" lon="1.17251">
        <ele>67</ele>
        <time>2017-05-09T16:40:04Z</time>
      </trkpt>
      <trkpt lat="49.42512" lon="1.17253">
        <ele>67</ele>
        <time>2017-05-09T16:40:04Z</time>
      </trkpt>
      <trkpt lat="49.42507" lon="1.17257">
        <ele>67</ele>
        <time>2017-05-09T16:40:04Z</time>
      </trkpt>
      <trkpt lat="49.42504" lon="1.17264">
        <ele>67</ele>
        <time>2017-05-09T16:40:04Z</time>
      </trkpt>
      <trkpt lat="49.42501" lon="1.17268">
        <ele>67</ele>
        <time>2017-05-09T16:40:20Z</time>
      </trkpt>
      <trkpt lat="49.425" lon="1.17273">
        <ele>67</ele>
        <time>2017-05-09T16:40:20Z</time>
      </trkpt>
      <trkpt lat="49.42501" lon="1.17282">
        <ele>67</ele>
        <time>2017-05-09T16:40:20Z</time>
      </trkpt>
      <trkpt lat="49.42499" lon="1.17289">
        <ele>67</ele>
        <time>2017-05-09T16:40:20Z</time>
      </trkpt>
      <trkpt lat="49.42495" lon="1.17293">
        <ele>52</ele>
        <time>2017-05-09T16:40:36Z</time>
      </trkpt>
      <trkpt lat="49.42493" lon="1.17299">
        <ele>52</ele>
        <time>2017-05-09T16:40:36Z</time>
      </trkpt>
      <trkpt lat="49.42493" lon="1.17306">
        <ele>52</ele>
        <time>2017-05-09T16:40:36Z</time>
      </trkpt>
      <trkpt lat="49.42493" lon="1.17313">
        <ele>52</ele>
        <time>2017-05-09T16:40:36Z</time>
      </trkpt>
      <trkpt lat="49.42486" lon="1.17317">
        <ele>52</ele>
        <time>2017-05-09T16:40:52Z</time>
      </trkpt>
      <trkpt lat="49.42482" lon="1.17319">
        <ele>52</ele>
        <time>2017-05-09T16:40:52Z</time>
      </trkpt>
      <trkpt lat="49.4248" lon="1.17323">
        <ele>52</ele>
        <time>2017-05-09T16:40:52Z</time>
      </trkpt>
      <trkpt lat="49.42476" lon="1.17327">
        <ele>52</ele>
        <time>2017-05-09T16:40:52Z</time>
      </trkpt>
      <trkpt lat="49.42473" lon="1.17331">
        <ele>52</ele>
        <time>2017-05-09T16:41:08Z</time>
      </trkpt>
      <trkpt lat="49.42472" lon="1.17341">
        <ele>52</ele>
        <time>2017-05-09T16:41:08Z</time>
      </trkpt>
      <trkpt lat="49.42472" lon="1.17347">
        <ele>52</ele>
        <time>2017-05-09T16:41:08Z</time>
      </trkpt>
      <trkpt lat="49.42471" lon="1.17353">
        <ele>52</ele>
        <time>2017-05-09T16:41:08Z</time>
      </trkpt>
      <trkpt lat="49.42471" lon="1.1736">
        <ele>52</ele>
        <time>2017-05-09T16:41:24Z</time>
      </trkpt>
      <trkpt lat="49.42471" lon="1.17367">
        <ele>52</ele>
        <time>2017-05-09T16:41:24Z</time>
      </trkpt>
      <trkpt lat="49.42469" lon="1.17372">
        <ele>52</ele>
        <time>2017-05-09T16:41:24Z</time>
      </trkpt>
      <trkpt lat="49.42466" lon="1.17377">
        <ele>43</ele>
        <time>2017-05-09T16:41:24Z</time>
      </trkpt>
      <trkpt lat="49.42465" lon="1.17385">
        <ele>43</ele>
        <time>2017-05-09T16:41:40Z</time>
      </trkpt>
      <trkpt lat="49.4246" lon="1.1739">
        <ele>43</ele>
        <time>2017-05-09T16:41:40Z</time>
      </trkpt>
      <trkpt lat="49.42455" lon="1.17394">
        <ele>59</ele>
        <time>2017-05-09T16:41:40Z</time>
      </trkpt>
      <trkpt lat="49.42455" lon="1.17402">
        <ele>59</ele>
        <time>2017-05-09T16:41:40Z</time>
      </trkpt>
      <trkpt lat="49.42456" lon="1.1741">
        <ele>59</ele>
        <time>2017-05-09T16:41:56Z</time>
      </trkpt>
      <trkpt lat="49.42451" lon="1.17413">
        <ele>59</ele>
        <time>2017-05-09T16:41:56Z</time>
      </trkpt>
      <trkpt lat="49.42447" lon="1.1742">
        <ele>59</ele>
        <time>2017-05-09T16:41:56Z</time>
      </trkpt>
      <trkpt lat="49.42442" lon="1.17428">
        <ele>59</ele>
        <time>2017-05-09T16:41:56Z</time>
      </trkpt>
      <trkpt lat="49.4244" lon="1.17435">
        <ele>59</ele>
        <time>2017-05-09T16:42:12Z</time>
      </trkpt>
      <trkpt lat="49.42435" lon="1.17438">
        <ele>59</ele>
        <time>2017-05-09T16:42:12Z</time>
      </trkpt>
      <trkpt lat="49.42432" lon="1.1744">
        <ele>59</ele>
        <time>2017-05-09T16:42:12Z</time>
      </trkpt>
      <trkpt lat="49.42427" lon="1.17443">
        <ele>59</ele>
        <time>2017-05-09T16:42:12Z</time>
      </trkpt>
      <trkpt lat="49.42424" lon="1.1745">
        <ele>59</ele>
        <time>2017-05-09T16:42:28Z</time>
      </trkpt>
      <trkpt lat="49.42421" lon="1.17453">
        <ele>59</ele>
        <time>2017-05-09T16:42:28Z</time>
      </trkpt>
      <trkpt lat="49.42419" lon="1.17458">
        <ele>47</ele>
        <time>2017-05-09T16:42:28Z</time>
      </trkpt>
      <trkpt lat="49.42417" lon="1.17465">
        <ele>47</ele>
        <time>2017-05-09T16:42:28Z</time>
      </trkpt>
      <trkpt lat="49.42417" lon="1.17473">
        <ele>47</ele>
        <time>2017-05-09T16:42:44Z</time>
      </trkpt>
      <trkpt lat="49.42414" lon="1.17479">
        <ele>47</ele>
        <time>2017-05-09T16:42:44Z</time>
      </trkpt>
      <trkpt lat="49.42411" lon="1.17484">
        <ele>47</ele>
        <time>2017-05-09T16:42:44Z</time>
      </trkpt>
      <trkpt lat="49.42407" lon="1.17489">
        <ele>47</ele>
        <time>2017-05-09T16:42:44Z</time>
      </trkpt>
      <trkpt lat="49.42403" lon="1.17494">
        <ele>47</ele>
        <time>2017-05-09T16:43:00Z</time>
      </trkpt>
      <trkpt lat="49.42399" lon="1.17499">
        <ele>47</ele>
        <time>2017-05-09T16:43:00Z</time>
      </trkpt>
      <trkpt lat="49.42396" lon="1.17503">
        <ele>47</ele>
        <time>2017-05-09T16:43:00Z</time>
      </trkpt>
      <trkpt lat="49.42392" lon="1.17505">
        <ele>47</ele>
        <time>2017-05-09T16:43:00Z</time>
      </trkpt>
      <trkpt lat="49.42391" lon="1.1751">
        <ele>47</ele>
        <time>2017-05-09T16:43:16Z</time>
      </trkpt>
      <trkpt lat="49.42391" lon="1.17517">
        <ele>47</ele>
        <time>2017-05-09T16:43:16Z</time>
      </trkpt>
      <trkpt lat="49.42391" lon="1.17523">
        <ele>47</ele>
        <time>2017-05-09T16:43:16Z</time>
      </trkpt>
      <trkpt lat="49.42386" lon="1.17527">
        <ele>47</ele>
        <time>2017-05-09T16:43:16Z</time>
      </trkpt>
      <trkpt lat="49.4238" lon="1.17529">
        <ele>47</ele>
        <time>2017-05-09T16:43:32Z</time>
      </trkpt>
      <trkpt lat="49.42375" lon="1.17531">
        <ele>61</ele>
        <time>2017-05-09T16:43:32Z</time>
      </trkpt>
      <trkpt lat="49.42372" lon="1.17537">
        <ele>61</ele>
        <time>2017-05-09T16:43:32Z</time>
      </trkpt>
      <trkpt lat="49.42367" lon="1.1754">
        <ele>61</ele>
        <time>2017-05-09T16:43:32Z</time>
      </trkpt>
      <trkpt lat="49.42364" lon="1.17542">
        <ele>47</ele>
        <time>2017-05-09T16:43:48Z</time>
      </trkpt>
      <trkpt lat="49.4236" lon="1.17548">
        <ele>47</ele>
        <time>2017-05-09T16:43:48Z</time>
      </trkpt>
      <trkpt lat="49.42357" lon="1.17552">
        <ele>47</ele>
        <time>2017-05-09T16:43:48Z</time>
      </trkpt>
      <trkpt lat="49.42352" lon="1.17555">
        <ele>47</ele>
        <time>2017-05-09T16:43:48Z</time>
      </trkpt>
      <trkpt lat="49.42349" lon="1.17558">
        <ele>47</ele>
        <time>2017-05-09T16:44:04Z</time>
      </trkpt>
      <trkpt lat="49.42347" lon="1.17562">
        <ele>47</ele>
        <time>2017-05-09T16:44:04Z</time>
      </trkpt>
      <trkpt lat="49.42343" lon="1.17565">
        <ele>47</ele>
        <time>2017-05-09T16:44:04Z</time>
      </trkpt>
      <trkpt lat="49.42339" lon="1.17568">
        <ele>47</ele>
        <time>2017-05-09T16:44:04Z</time>
      </trkpt>
      <trkpt lat="49.42336" lon="1.17572">
        <ele>47</ele>
        <time>2017-05-09T16:44:20Z</time>
      </trkpt>
      <trkpt lat="49.4233" lon="1.17574">
        <ele>47</ele>
        <time>2017-05-09T16:44:20Z</time>
      </trkpt>
      <trkpt lat="49.42326" lon="1.17578">
        <ele>47</ele>
        <time>2017-05-09T16:44:20Z</time>
      </trkpt>
      <trkpt lat="49.42323" lon="1.17585">
        <ele>47</ele>
        <time>2017-05-09T16:44:20Z</time>
      </trkpt>
      <trkpt lat="49.4232" lon="1.17591">
        <ele>47</ele>
        <time>2017-05-09T16:44:36Z</time>
      </trkpt>
      <trkpt lat="49.42318" lon="1.17598">
        <ele>47</ele>
        <time>2017-05-09T16:44:36Z</time>
      </trkpt>
      <trkpt lat="49.42315" lon="1.17603">
        <ele>47</ele>
        <time>2017-05-09T16:44:36Z</time>
      </trkpt>
      <trkpt lat="49.42315" lon="1.17609">
        <ele>47</ele>
        <time>2017-05-09T16:44:36Z</time>
      </trkpt>
      <trkpt lat="49.42311" lon="1.17613">
        <ele>47</ele>
        <time>2017-05-09T16:44:52Z</time>
      </trkpt>
      <trkpt lat="49.42308" lon="1.17614">
        <ele>47</ele>
        <time>2017-05-09T16:44:52Z</time>
      </trkpt>
      <trkpt lat="49.42305" lon="1.17617">
        <ele>47</ele>
        <time>2017-05-09T16:44:52Z</time>
      </trkpt>
      <trkpt lat="49.42302" lon="1.17623">
        <ele>47</ele>
        <time>2017-05-09T16:44:52Z</time>
      </trkpt>
      <trkpt lat="49.42299" lon="1.17628">
        <ele>43</ele>
        <time>2017-05-09T16:45:08Z</time>
      </trkpt>
      <trkpt lat="49.4229" lon="1.17628">
        <ele>46</ele>
        <time>2017-05-09T16:45:08Z</time>
      </trkpt>
      <trkpt lat="49.42285" lon="1.17629">
        <ele>46</ele>
        <time>2017-05-09T16:45:08Z</time>
      </trkpt>
      <trkpt lat="49.42283" lon="1.17634">
        <ele>46</ele>
        <time>2017-05-09T16:45:08Z</time>
      </trkpt>
      <trkpt lat="49.4228" lon="1.17638">
        <ele>46</ele>
        <time>2017-05-09T16:45:24Z</time>
      </trkpt>
      <trkpt lat="49.42276" lon="1.1764">
        <ele>46</ele>
        <time>2017-05-09T16:45:24Z</time>
      </trkpt>
      <trkpt lat="49.42272" lon="1.17642">
        <ele>46</ele>
        <time>2017-05-09T16:45:24Z</time>
      </trkpt>
      <trkpt lat="49.42267" lon="1.17645">
        <ele>46</ele>
        <time>2017-05-09T16:45:24Z</time>
      </trkpt>
      <trkpt lat="49.42264" lon="1.17646">
        <ele>46</ele>
        <time>2017-05-09T16:45:40Z</time>
      </trkpt>
      <trkpt lat="49.42261" lon="1.17647">
        <ele>46</ele>
        <time>2017-05-09T16:45:40Z</time>
      </trkpt>
      <trkpt lat="49.42257" lon="1.17644">
        <ele>46</ele>
        <time>2017-05-09T16:45:40Z</time>
      </trkpt>
      <trkpt lat="49.42253" lon="1.17642">
        <ele>46</ele>
        <time>2017-05-09T16:45:40Z</time>
      </trkpt>
      <trkpt lat="49.42248" lon="1.17646">
        <ele>46</ele>
        <time>2017-05-09T16:45:56Z</time>
      </trkpt>
      <trkpt lat="49.42245" lon="1.1765">
        <ele>46</ele>
        <time>2017-05-09T16:45:56Z</time>
      </trkpt>
      <trkpt lat="49.4224" lon="1.17652">
        <ele>46</ele>
        <time>2017-05-09T16:45:56Z</time>
      </trkpt>
      <trkpt lat="49.42236" lon="1.17654">
        <ele>46</ele>
        <time>2017-05-09T16:45:56Z</time>
      </trkpt>
      <trkpt lat="49.42231" lon="1.17656">
        <ele>46</ele>
        <time>2017-05-09T16:46:12Z</time>
      </trkpt>
      <trkpt lat="49.42227" lon="1.17656">
        <ele>46</ele>
        <time>2017-05-09T16:46:12Z</time>
      </trkpt>
      <trkpt lat="49.42223" lon="1.17658">
        <ele>46</ele>
        <time>2017-05-09T16:46:12Z</time>
      </trkpt>
      <trkpt lat="49.42219" lon="1.17662">
        <ele>46</ele>
        <time>2017-05-09T16:46:12Z</time>
      </trkpt>
      <trkpt lat="49.42214" lon="1.17667">
        <ele>46</ele>
        <time>2017-05-09T16:46:28Z</time>
      </trkpt>
      <trkpt lat="49.42211" lon="1.17672">
        <ele>46</ele>
        <time>2017-05-09T16:46:28Z</time>
      </trkpt>
      <trkpt lat="49.42209" lon="1.17679">
        <ele>46</ele>
        <time>2017-05-09T16:46:28Z</time>
      </trkpt>
      <trkpt lat="49.42205" lon="1.17683">
        <ele>46</ele>
        <time>2017-05-09T16:46:28Z</time>
      </trkpt>
      <trkpt lat="49.422" lon="1.17684">
        <ele>46</ele>
        <time>2017-05-09T16:46:44Z</time>
      </trkpt>
      <trkpt lat="49.42195" lon="1.17685">
        <ele>46</ele>
        <time>2017-05-09T16:46:44Z</time>
      </trkpt>
      <trkpt lat="49.4219" lon="1.17687">
        <ele>46</ele>
        <time>2017-05-09T16:46:44Z</time>
      </trkpt>
      <trkpt lat="49.42187" lon="1.17691">
        <ele>46</ele>
        <time>2017-05-09T16:46:44Z</time>
      </trkpt>
      <trkpt lat="49.42184" lon="1.17697">
        <ele>46</ele>
        <time>2017-05-09T16:47:00Z</time>
      </trkpt>
      <trkpt lat="49.42178" lon="1.177">
        <ele>46</ele>
        <time>2017-05-09T16:47:00Z</time>
      </trkpt>
      <trkpt lat="49.42172" lon="1.17703">
        <ele>46</ele>
        <time>2017-05-09T16:47:00Z</time>
      </trkpt>
      <trkpt lat="49.42167" lon="1.17706">
        <ele>46</ele>
        <time>2017-05-09T16:47:00Z</time>
      </trkpt>
      <trkpt lat="49.42158" lon="1.17695">
        <ele>46</ele>
        <time>2017-05-09T16:48:08Z</time>
      </trkpt>
      <trkpt lat="49.42158" lon="1.17695">
        <ele>46</ele>
        <time>2017-05-09T16:48:08Z</time>
      </trkpt>
      <trkpt lat="49.42157" lon="1.17694">
        <ele>46</ele>
        <time>2017-05-09T16:48:08Z</time>
      </trkpt>
      <trkpt lat="49.42154" lon="1.17694">
        <ele>46</ele>
        <time>2017-05-09T16:48:08Z</time>
      </trkpt>
      <trkpt lat="49.4215" lon="1.17697">
        <ele>46</ele>
        <time>2017-05-09T16:48:08Z</time>
      </trkpt>
      <trkpt lat="49.42143" lon="1.17697">
        <ele>46</ele>
        <time>2017-05-09T16:48:24Z</time>
      </trkpt>
      <trkpt lat="49.42138" lon="1.17699">
        <ele>46</ele>
        <time>2017-05-09T16:48:24Z</time>
      </trkpt>
      <trkpt lat="49.42135" lon="1.17696">
        <ele>46</ele>
        <time>2017-05-09T16:48:24Z</time>
      </trkpt>
      <trkpt lat="49.42131" lon="1.17693">
        <ele>46</ele>
        <time>2017-05-09T16:48:24Z</time>
      </trkpt>
      <trkpt lat="49.42127" lon="1.17687">
        <ele>46</ele>
        <time>2017-05-09T16:48:40Z</time>
      </trkpt>
      <trkpt lat="49.42123" lon="1.17679">
        <ele>47</ele>
        <time>2017-05-09T16:48:40Z</time>
      </trkpt>
      <trkpt lat="49.42119" lon="1.17677">
        <ele>47</ele>
        <time>2017-05-09T16:48:40Z</time>
      </trkpt>
      <trkpt lat="49.42119" lon="1.17672">
        <ele>47</ele>
        <time>2017-05-09T16:48:40Z</time>
      </trkpt>
      <trkpt lat="49.42121" lon="1.17666">
        <ele>47</ele>
        <time>2017-05-09T16:48:56Z</time>
      </trkpt>
      <trkpt lat="49.42122" lon="1.17663">
        <ele>47</ele>
        <time>2017-05-09T16:48:56Z</time>
      </trkpt>
      <trkpt lat="49.42122" lon="1.17655">
        <ele>47</ele>
        <time>2017-05-09T16:48:56Z</time>
      </trkpt>
      <trkpt lat="49.42124" lon="1.17645">
        <ele>47</ele>
        <time>2017-05-09T16:48:56Z</time>
      </trkpt>
      <trkpt lat="49.42127" lon="1.17636">
        <ele>46</ele>
        <time>2017-05-09T16:49:12Z</time>
      </trkpt>
      <trkpt lat="49.42119" lon="1.17636">
        <ele>47</ele>
        <time>2017-05-09T16:49:12Z</time>
      </trkpt>
      <trkpt lat="49.42115" lon="1.17634">
        <ele>47</ele>
        <time>2017-05-09T16:49:12Z</time>
      </trkpt>
      <trkpt lat="49.42109" lon="1.17634">
        <ele>47</ele>
        <time>2017-05-09T16:49:12Z</time>
      </trkpt>
      <trkpt lat="49.42105" lon="1.1763">
        <ele>47</ele>
        <time>2017-05-09T16:49:28Z</time>
      </trkpt>
      <trkpt lat="49.42102" lon="1.17627">
        <ele>47</ele>
        <time>2017-05-09T16:49:28Z</time>
      </trkpt>
      <trkpt lat="49.42098" lon="1.17626">
        <ele>47</ele>
        <time>2017-05-09T16:49:28Z</time>
      </trkpt>
      <trkpt lat="49.42095" lon="1.17627">
        <ele>47</ele>
        <time>2017-05-09T16:49:28Z</time>
      </trkpt>
      <trkpt lat="49.42091" lon="1.17627">
        <ele>47</ele>
        <time>2017-05-09T16:49:44Z</time>
      </trkpt>
      <trkpt lat="49.42088" lon="1.1762">
        <ele>55</ele>
        <time>2017-05-09T16:49:44Z</time>
      </trkpt>
      <trkpt lat="49.42083" lon="1.17614">
        <ele>55</ele>
        <time>2017-05-09T16:49:44Z</time>
      </trkpt>
      <trkpt lat="49.42078" lon="1.1761">
        <ele>55</ele>
        <time>2017-05-09T16:49:44Z</time>
      </trkpt>
      <trkpt lat="49.42076" lon="1.17601">
        <ele>55</ele>
        <time>2017-05-09T16:50:04Z</time>
      </trkpt>
      <trkpt lat="49.42072" lon="1.17599">
        <ele>55</ele>
        <time>2017-05-09T16:50:04Z</time>
      </trkpt>
      <trkpt lat="49.4207" lon="1.17597">
        <ele>55</ele>
        <time>2017-05-09T16:50:04Z</time>
      </trkpt>
      <trkpt lat="49.42068" lon="1.17601">
        <ele>55</ele>
        <time>2017-05-09T16:50:04Z</time>
      </trkpt>
      <trkpt lat="49.42065" lon="1.17598">
        <ele>55</ele>
        <time>2017-05-09T16:50:04Z</time>
      </trkpt>
      <trkpt lat="49.42063" lon="1.17589">
        <ele>55</ele>
        <time>2017-05-09T16:50:24Z</time>
      </trkpt>
      <trkpt lat="49.42059" lon="1.17587">
        <ele>55</ele>
        <time>2017-05-09T16:50:24Z</time>
      </trkpt>
      <trkpt lat="49.42056" lon="1.17587">
        <ele>55</ele>
        <time>2017-05-09T16:50:24Z</time>
      </trkpt>
      <trkpt lat="49.42055" lon="1.17584">
        <ele>55</ele>
        <time>2017-05-09T16:50:24Z</time>
      </trkpt>
      <trkpt lat="49.42053" lon="1.17584">
        <ele>55</ele>
        <time>2017-05-09T16:50:24Z</time>
      </trkpt>
      <trkpt lat="49.4205" lon="1.17585">
        <ele>55</ele>
        <time>2017-05-09T16:50:40Z</time>
      </trkpt>
      <trkpt lat="49.42046" lon="1.17579">
        <ele>55</ele>
        <time>2017-05-09T16:50:40Z</time>
      </trkpt>
      <trkpt lat="49.42042" lon="1.17572">
        <ele>68</ele>
        <time>2017-05-09T16:50:40Z</time>
      </trkpt>
      <trkpt lat="49.42038" lon="1.17568">
        <ele>68</ele>
        <time>2017-05-09T16:50:40Z</time>
      </trkpt>
      <trkpt lat="49.42034" lon="1.17564">
        <ele>68</ele>
        <time>2017-05-09T16:51:04Z</time>
      </trkpt>
      <trkpt lat="49.42031" lon="1.17562">
        <ele>68</ele>
        <time>2017-05-09T16:51:04Z</time>
      </trkpt>
      <trkpt lat="49.4203" lon="1.17567">
        <ele>68</ele>
        <time>2017-05-09T16:51:04Z</time>
      </trkpt>
      <trkpt lat="49.42029" lon="1.17573">
        <ele>68</ele>
        <time>2017-05-09T16:51:04Z</time>
      </trkpt>
      <trkpt lat="49.42027" lon="1.17579">
        <ele>68</ele>
        <time>2017-05-09T16:51:04Z</time>
      </trkpt>
      <trkpt lat="49.42024" lon="1.17582">
        <ele>68</ele>
        <time>2017-05-09T16:51:20Z</time>
      </trkpt>
      <trkpt lat="49.4202" lon="1.17585">
        <ele>68</ele>
        <time>2017-05-09T16:51:20Z</time>
      </trkpt>
      <trkpt lat="49.4202" lon="1.17593">
        <ele>68</ele>
        <time>2017-05-09T16:51:20Z</time>
      </trkpt>
      <trkpt lat="49.42021" lon="1.17599">
        <ele>68</ele>
        <time>2017-05-09T16:51:20Z</time>
      </trkpt>
      <trkpt lat="49.42016" lon="1.17604">
        <ele>68</ele>
        <time>2017-05-09T16:51:36Z</time>
      </trkpt>
      <trkpt lat="49.42012" lon="1.17609">
        <ele>68</ele>
        <time>2017-05-09T16:51:36Z</time>
      </trkpt>
      <trkpt lat="49.42009" lon="1.17614">
        <ele>68</ele>
        <time>2017-05-09T16:51:36Z</time>
      </trkpt>
      <trkpt lat="49.42007" lon="1.1762">
        <ele>68</ele>
        <time>2017-05-09T16:51:36Z</time>
      </trkpt>
      <trkpt lat="49.42005" lon="1.17625">
        <ele>68</ele>
        <time>2017-05-09T16:51:56Z</time>
      </trkpt>
      <trkpt lat="49.42005" lon="1.17629">
        <ele>64</ele>
        <time>2017-05-09T16:51:56Z</time>
      </trkpt>
      <trkpt lat="49.42002" lon="1.17631">
        <ele>64</ele>
        <time>2017-05-09T16:51:56Z</time>
      </trkpt>
      <trkpt lat="49.42" lon="1.17635">
        <ele>64</ele>
        <time>2017-05-09T16:51:56Z</time>
      </trkpt>
      <trkpt lat="49.41998" lon="1.1764">
        <ele>64</ele>
        <time>2017-05-09T16:51:56Z</time>
      </trkpt>
      <trkpt lat="49.41996" lon="1.17646">
        <ele>64</ele>
        <time>2017-05-09T16:52:12Z</time>
      </trkpt>
      <trkpt lat="49.41996" lon="1.17656">
        <ele>64</ele>
        <time>2017-05-09T16:52:12Z</time>
      </trkpt>
      <trkpt lat="49.41998" lon="1.17665">
        <ele>64</ele>
        <time>2017-05-09T16:52:12Z</time>
      </trkpt>
      <trkpt lat="49.41993" lon="1.17669">
        <ele>64</ele>
        <time>2017-05-09T16:52:12Z</time>
      </trkpt>
      <trkpt lat="49.41989" lon="1.17674">
        <ele>64</ele>
        <time>2017-05-09T16:52:28Z</time>
      </trkpt>
      <trkpt lat="49.41987" lon="1.1768">
        <ele>64</ele>
        <time>2017-05-09T16:52:28Z</time>
      </trkpt>
      <trkpt lat="49.41981" lon="1.17686">
        <ele>64</ele>
        <time>2017-05-09T16:52:28Z</time>
      </trkpt>
      <trkpt lat="49.41979" lon="1.17696">
        <ele>64</ele>
        <time>2017-05-09T16:52:28Z</time>
      </trkpt>
      <trkpt lat="49.41977" lon="1.17701">
        <ele>64</ele>
        <time>2017-05-09T16:52:44Z</time>
      </trkpt>
      <trkpt lat="49.4198" lon="1.1771">
        <ele>62</ele>
        <time>2017-05-09T16:52:44Z</time>
      </trkpt>
      <trkpt lat="49.41979" lon="1.17715">
        <ele>62</ele>
        <time>2017-05-09T16:52:44Z</time>
      </trkpt>
      <trkpt lat="49.41976" lon="1.17722">
        <ele>62</ele>
        <time>2017-05-09T16:52:44Z</time>
      </trkpt>
      <trkpt lat="49.41974" lon="1.17728">
        <ele>62</ele>
        <time>2017-05-09T16:53:00Z</time>
      </trkpt>
      <trkpt lat="49.41971" lon="1.17732">
        <ele>62</ele>
        <time>2017-05-09T16:53:00Z</time>
      </trkpt>
      <trkpt lat="49.41968" lon="1.17735">
        <ele>62</ele>
        <time>2017-05-09T16:53:00Z</time>
      </trkpt>
      <trkpt lat="49.41965" lon="1.17739">
        <ele>62</ele>
        <time>2017-05-09T16:53:00Z</time>
      </trkpt>
      <trkpt lat="49.4196" lon="1.17738">
        <ele>62</ele>
        <time>2017-05-09T16:53:16Z</time>
      </trkpt>
      <trkpt lat="49.41958" lon="1.17744">
        <ele>80</ele>
        <time>2017-05-09T16:53:16Z</time>
      </trkpt>
      <trkpt lat="49.41958" lon="1.17751">
        <ele>80</ele>
        <time>2017-05-09T16:53:16Z</time>
      </trkpt>
      <trkpt lat="49.41961" lon="1.1776">
        <ele>62</ele>
        <time>2017-05-09T16:53:16Z</time>
      </trkpt>
      <trkpt lat="49.41964" lon="1.17768">
        <ele>62</ele>
        <time>2017-05-09T16:53:32Z</time>
      </trkpt>
      <trkpt lat="49.41968" lon="1.17774">
        <ele>62</ele>
        <time>2017-05-09T16:53:32Z</time>
      </trkpt>
      <trkpt lat="49.41963" lon="1.17781">
        <ele>62</ele>
        <time>2017-05-09T16:53:32Z</time>
      </trkpt>
      <trkpt lat="49.4196" lon="1.1779">
        <ele>62</ele>
        <time>2017-05-09T16:53:32Z</time>
      </trkpt>
      <trkpt lat="49.41959" lon="1.17795">
        <ele>54</ele>
        <time>2017-05-09T16:53:48Z</time>
      </trkpt>
      <trkpt lat="49.41952" lon="1.17799">
        <ele>71</ele>
        <time>2017-05-09T16:53:48Z</time>
      </trkpt>
      <trkpt lat="49.41948" lon="1.17803">
        <ele>71</ele>
        <time>2017-05-09T16:53:48Z</time>
      </trkpt>
      <trkpt lat="49.41946" lon="1.17808">
        <ele>71</ele>
        <time>2017-05-09T16:53:48Z</time>
      </trkpt>
      <trkpt lat="49.41942" lon="1.17811">
        <ele>71</ele>
        <time>2017-05-09T16:54:04Z</time>
      </trkpt>
      <trkpt lat="49.4194" lon="1.17817">
        <ele>71</ele>
        <time>2017-05-09T16:54:04Z</time>
      </trkpt>
      <trkpt lat="49.41938" lon="1.17823">
        <ele>71</ele>
        <time>2017-05-09T16:54:04Z</time>
      </trkpt>
      <trkpt lat="49.41937" lon="1.1783">
        <ele>71</ele>
        <time>2017-05-09T16:54:04Z</time>
      </trkpt>
      <trkpt lat="49.41934" lon="1.17835">
        <ele>71</ele>
        <time>2017-05-09T16:54:20Z</time>
      </trkpt>
      <trkpt lat="49.41934" lon="1.17841">
        <ele>71</ele>
        <time>2017-05-09T16:54:20Z</time>
      </trkpt>
      <trkpt lat="49.41936" lon="1.17846">
        <ele>71</ele>
        <time>2017-05-09T16:54:20Z</time>
      </trkpt>
      <trkpt lat="49.41933" lon="1.17855">
        <ele>71</ele>
        <time>2017-05-09T16:54:20Z</time>
      </trkpt>
      <trkpt lat="49.4193" lon="1.17862">
        <ele>71</ele>
        <time>2017-05-09T16:54:44Z</time>
      </trkpt>
      <trkpt lat="49.41889" lon="1.17897">
        <ele>64</ele>
        <time>2017-05-09T16:54:44Z</time>
      </trkpt>
      <trkpt lat="49.4189" lon="1.17906">
        <ele>64</ele>
        <time>2017-05-09T16:54:44Z</time>
      </trkpt>
      <trkpt lat="49.41889" lon="1.17914">
        <ele>64</ele>
        <time>2017-05-09T16:54:44Z</time>
      </trkpt>
      <trkpt lat="49.41888" lon="1.1792">
        <ele>64</ele>
        <time>2017-05-09T16:55:00Z</time>
      </trkpt>
      <trkpt lat="49.41891" lon="1.17929">
        <ele>64</ele>
        <time>2017-05-09T16:55:00Z</time>
      </trkpt>
      <trkpt lat="49.4189" lon="1.17935">
        <ele>64</ele>
        <time>2017-05-09T16:55:00Z</time>
      </trkpt>
      <trkpt lat="49.41888" lon="1.1794">
        <ele>64</ele>
        <time>2017-05-09T16:55:00Z</time>
      </trkpt>
      <trkpt lat="49.41885" lon="1.17943">
        <ele>64</ele>
        <time>2017-05-09T16:55:16Z</time>
      </trkpt>
      <trkpt lat="49.41881" lon="1.17942">
        <ele>64</ele>
        <time>2017-05-09T16:55:16Z</time>
      </trkpt>
      <trkpt lat="49.41877" lon="1.17943">
        <ele>64</ele>
        <time>2017-05-09T16:55:16Z</time>
      </trkpt>
      <trkpt lat="49.41874" lon="1.17947">
        <ele>90</ele>
        <time>2017-05-09T16:55:16Z</time>
      </trkpt>
      <trkpt lat="49.41872" lon="1.17953">
        <ele>90</ele>
        <time>2017-05-09T16:55:32Z</time>
      </trkpt>
      <trkpt lat="49.41869" lon="1.1796">
        <ele>79</ele>
        <time>2017-05-09T16:55:32Z</time>
      </trkpt>
      <trkpt lat="49.4187" lon="1.1797">
        <ele>79</ele>
        <time>2017-05-09T16:55:32Z</time>
      </trkpt>
      <trkpt lat="49.41871" lon="1.17978">
        <ele>79</ele>
        <time>2017-05-09T16:55:32Z</time>
      </trkpt>
      <trkpt lat="49.41871" lon="1.17987">
        <ele>79</ele>
        <time>2017-05-09T16:55:52Z</time>
      </trkpt>
      <trkpt lat="49.4186" lon="1.17997">
        <ele>79</ele>
        <time>2017-05-09T16:55:52Z</time>
      </trkpt>
      <trkpt lat="49.41862" lon="1.18006">
        <ele>79</ele>
        <time>2017-05-09T16:55:52Z</time>
      </trkpt>
      <trkpt lat="49.41863" lon="1.18012">
        <ele>79</ele>
        <time>2017-05-09T16:55:52Z</time>
      </trkpt>
      <trkpt lat="49.41861" lon="1.18016">
        <ele>79</ele>
        <time>2017-05-09T16:56:12Z</time>
      </trkpt>
      <trkpt lat="49.41886" lon="1.18034">
        <ele>61</ele>
        <time>2017-05-09T16:56:12Z</time>
      </trkpt>
      <trkpt lat="49.41888" lon="1.18039">
        <ele>61</ele>
        <time>2017-05-09T16:56:12Z</time>
      </trkpt>
      <trkpt lat="49.41888" lon="1.18045">
        <ele>59</ele>
        <time>2017-05-09T16:56:12Z</time>
      </trkpt>
      <trkpt lat="49.41886" lon="1.18054">
        <ele>59</ele>
        <time>2017-05-09T16:56:28Z</time>
      </trkpt>
      <trkpt lat="49.41887" lon="1.18063">
        <ele>59</ele>
        <time>2017-05-09T16:56:28Z</time>
      </trkpt>
      <trkpt lat="49.4188" lon="1.18064">
        <ele>59</ele>
        <time>2017-05-09T16:56:28Z</time>
      </trkpt>
      <trkpt lat="49.41878" lon="1.18062">
        <ele>59</ele>
        <time>2017-05-09T16:56:28Z</time>
      </trkpt>
      <trkpt lat="49.41857" lon="1.18134">
        <ele>66</ele>
        <time>2017-05-09T16:57:00Z</time>
      </trkpt>
      <trkpt lat="49.41852" lon="1.18132">
        <ele>66</ele>
        <time>2017-05-09T16:57:00Z</time>
      </trkpt>
      <trkpt lat="49.41845" lon="1.18132">
        <ele>66</ele>
        <time>2017-05-09T16:57:00Z</time>
      </trkpt>
      <trkpt lat="49.41841" lon="1.18131">
        <ele>66</ele>
        <time>2017-05-09T16:57:00Z</time>
      </trkpt>
      <trkpt lat="49.41835" lon="1.18128">
        <ele>66</ele>
        <time>2017-05-09T16:57:00Z</time>
      </trkpt>
      <trkpt lat="49.41831" lon="1.18138">
        <ele>66</ele>
        <time>2017-05-09T16:57:16Z</time>
      </trkpt>
      <trkpt lat="49.41823" lon="1.18144">
        <ele>66</ele>
        <time>2017-05-09T16:57:16Z</time>
      </trkpt>
      <trkpt lat="49.41818" lon="1.18146">
        <ele>66</ele>
        <time>2017-05-09T16:57:16Z</time>
      </trkpt>
      <trkpt lat="49.41816" lon="1.18146">
        <ele>66</ele>
        <time>2017-05-09T16:57:16Z</time>
      </trkpt>
      <trkpt lat="49.41815" lon="1.1815">
        <ele>66</ele>
        <time>2017-05-09T16:57:32Z</time>
      </trkpt>
      <trkpt lat="49.41814" lon="1.18155">
        <ele>66</ele>
        <time>2017-05-09T16:57:32Z</time>
      </trkpt>
      <trkpt lat="49.41811" lon="1.18159">
        <ele>66</ele>
        <time>2017-05-09T16:57:32Z</time>
      </trkpt>
      <trkpt lat="49.41806" lon="1.18165">
        <ele>66</ele>
        <time>2017-05-09T16:57:32Z</time>
      </trkpt>
      <trkpt lat="49.41803" lon="1.1817">
        <ele>66</ele>
        <time>2017-05-09T16:57:48Z</time>
      </trkpt>
      <trkpt lat="49.41802" lon="1.18176">
        <ele>66</ele>
        <time>2017-05-09T16:57:48Z</time>
      </trkpt>
      <trkpt lat="49.41802" lon="1.18182">
        <ele>66</ele>
        <time>2017-05-09T16:57:48Z</time>
      </trkpt>
      <trkpt lat="49.41799" lon="1.18187">
        <ele>66</ele>
        <time>2017-05-09T16:57:48Z</time>
      </trkpt>
      <trkpt lat="49.41796" lon="1.18191">
        <ele>66</ele>
        <time>2017-05-09T16:58:04Z</time>
      </trkpt>
      <trkpt lat="49.41797" lon="1.18199">
        <ele>66</ele>
        <time>2017-05-09T16:58:04Z</time>
      </trkpt>
      <trkpt lat="49.41798" lon="1.18206">
        <ele>66</ele>
        <time>2017-05-09T16:58:04Z</time>
      </trkpt>
      <trkpt lat="49.41798" lon="1.18213">
        <ele>58</ele>
        <time>2017-05-09T16:58:04Z</time>
      </trkpt>
      <trkpt lat="49.41797" lon="1.18219">
        <ele>58</ele>
        <time>2017-05-09T16:58:20Z</time>
      </trkpt>
      <trkpt lat="49.41796" lon="1.18225">
        <ele>58</ele>
        <time>2017-05-09T16:58:20Z</time>
      </trkpt>
      <trkpt lat="49.41794" lon="1.18232">
        <ele>58</ele>
        <time>2017-05-09T16:58:20Z</time>
      </trkpt>
      <trkpt lat="49.41788" lon="1.18239">
        <ele>78</ele>
        <time>2017-05-09T16:58:20Z</time>
      </trkpt>
      <trkpt lat="49.41786" lon="1.18243">
        <ele>78</ele>
        <time>2017-05-09T16:58:36Z</time>
      </trkpt>
      <trkpt lat="49.41783" lon="1.18248">
        <ele>78</ele>
        <time>2017-05-09T16:58:36Z</time>
      </trkpt>
      <trkpt lat="49.41778" lon="1.18251">
        <ele>78</ele>
        <time>2017-05-09T16:58:36Z</time>
      </trkpt>
      <trkpt lat="49.41772" lon="1.18252">
        <ele>78</ele>
        <time>2017-05-09T16:58:36Z</time>
      </trkpt>
      <trkpt lat="49.41767" lon="1.18252">
        <ele>78</ele>
        <time>2017-05-09T16:58:52Z</time>
      </trkpt>
      <trkpt lat="49.41762" lon="1.18252">
        <ele>78</ele>
        <time>2017-05-09T16:58:52Z</time>
      </trkpt>
      <trkpt lat="49.41758" lon="1.18256">
        <ele>78</ele>
        <time>2017-05-09T16:58:52Z</time>
      </trkpt>
      <trkpt lat="49.41754" lon="1.18261">
        <ele>78</ele>
        <time>2017-05-09T16:58:52Z</time>
      </trkpt>
      <trkpt lat="49.4175" lon="1.18263">
        <ele>78</ele>
        <time>2017-05-09T16:59:24Z</time>
      </trkpt>
      <trkpt lat="49.41749" lon="1.18257">
        <ele>78</ele>
        <time>2017-05-09T16:59:24Z</time>
      </trkpt>
      <trkpt lat="49.41747" lon="1.18258">
        <ele>78</ele>
        <time>2017-05-09T16:59:24Z</time>
      </trkpt>
      <trkpt lat="49.41742" lon="1.18258">
        <ele>78</ele>
        <time>2017-05-09T16:59:24Z</time>
      </trkpt>
      <trkpt lat="49.41738" lon="1.18259">
        <ele>78</ele>
        <time>2017-05-09T16:59:40Z</time>
      </trkpt>
      <trkpt lat="49.41734" lon="1.18261">
        <ele>78</ele>
        <time>2017-05-09T16:59:40Z</time>
      </trkpt>
      <trkpt lat="49.4173" lon="1.18263">
        <ele>78</ele>
        <time>2017-05-09T16:59:40Z</time>
      </trkpt>
      <trkpt lat="49.41725" lon="1.18259">
        <ele>78</ele>
        <time>2017-05-09T16:59:40Z</time>
      </trkpt>
      <trkpt lat="49.41719" lon="1.18254">
        <ele>78</ele>
        <time>2017-05-09T16:59:56Z</time>
      </trkpt>
      <trkpt lat="49.41715" lon="1.18251">
        <ele>78</ele>
        <time>2017-05-09T16:59:56Z</time>
      </trkpt>
      <trkpt lat="49.4171" lon="1.18256">
        <ele>78</ele>
        <time>2017-05-09T16:59:56Z</time>
      </trkpt>
      <trkpt lat="49.41706" lon="1.18257">
        <ele>97</ele>
        <time>2017-05-09T16:59:56Z</time>
      </trkpt>
      <trkpt lat="49.4171" lon="1.18255">
        <ele>78</ele>
        <time>2017-05-09T17:00:36Z</time>
      </trkpt>
      <trkpt lat="49.4171" lon="1.18259">
        <ele>78</ele>
        <time>2017-05-09T17:00:36Z</time>
      </trkpt>
      <trkpt lat="49.4171" lon="1.18264">
        <ele>78</ele>
        <time>2017-05-09T17:00:36Z</time>
      </trkpt>
      <trkpt lat="49.41712" lon="1.18266">
        <ele>78</ele>
        <time>2017-05-09T17:00:36Z</time>
      </trkpt>
      <trkpt lat="49.41716" lon="1.18267">
        <ele>78</ele>
        <time>2017-05-09T17:00:36Z</time>
      </trkpt>
      <trkpt lat="49.41727" lon="1.1826">
        <ele>78</ele>
        <time>2017-05-09T17:01:08Z</time>
      </trkpt>
      <trkpt lat="49.41719" lon="1.18253">
        <ele>78</ele>
        <time>2017-05-09T17:01:08Z</time>
      </trkpt>
      <trkpt lat="49.41716" lon="1.18245">
        <ele>78</ele>
        <time>2017-05-09T17:01:08Z</time>
      </trkpt>
      <trkpt lat="49.41712" lon="1.18239">
        <ele>78</ele>
        <time>2017-05-09T17:01:08Z</time>
      </trkpt>
      <trkpt lat="49.41706" lon="1.18237">
        <ele>97</ele>
        <time>2017-05-09T17:01:08Z</time>
      </trkpt>
      <trkpt lat="49.41699" lon="1.1824">
        <ele>97</ele>
        <time>2017-05-09T17:01:24Z</time>
      </trkpt>
      <trkpt lat="49.41693" lon="1.18244">
        <ele>97</ele>
        <time>2017-05-09T17:01:24Z</time>
      </trkpt>
      <trkpt lat="49.41688" lon="1.18246">
        <ele>97</ele>
        <time>2017-05-09T17:01:24Z</time>
      </trkpt>
      <trkpt lat="49.41684" lon="1.18244">
        <ele>97</ele>
        <time>2017-05-09T17:01:24Z</time>
      </trkpt>
      <trkpt lat="49.41681" lon="1.18238">
        <ele>97</ele>
        <time>2017-05-09T17:01:40Z</time>
      </trkpt>
      <trkpt lat="49.41678" lon="1.18235">
        <ele>97</ele>
        <time>2017-05-09T17:01:40Z</time>
      </trkpt>
      <trkpt lat="49.41674" lon="1.18234">
        <ele>97</ele>
        <time>2017-05-09T17:01:40Z</time>
      </trkpt>
      <trkpt lat="49.41669" lon="1.18234">
        <ele>97</ele>
        <time>2017-05-09T17:01:40Z</time>
      </trkpt>
      <trkpt lat="49.41663" lon="1.1823">
        <ele>97</ele>
        <time>2017-05-09T17:01:56Z</time>
      </trkpt>
      <trkpt lat="49.41659" lon="1.18227">
        <ele>97</ele>
        <time>2017-05-09T17:01:56Z</time>
      </trkpt>
      <trkpt lat="49.41654" lon="1.18229">
        <ele>97</ele>
        <time>2017-05-09T17:01:56Z</time>
      </trkpt>
      <trkpt lat="49.41647" lon="1.18237">
        <ele>97</ele>
        <time>2017-05-09T17:01:56Z</time>
      </trkpt>
      <trkpt lat="49.41641" lon="1.1824">
        <ele>97</ele>
        <time>2017-05-09T17:02:12Z</time>
      </trkpt>
      <trkpt lat="49.41636" lon="1.1824">
        <ele>97</ele>
        <time>2017-05-09T17:02:12Z</time>
      </trkpt>
      <trkpt lat="49.41631" lon="1.18235">
        <ele>97</ele>
        <time>2017-05-09T17:02:12Z</time>
      </trkpt>
      <trkpt lat="49.41628" lon="1.18236">
        <ele>97</ele>
        <time>2017-05-09T17:02:12Z</time>
      </trkpt>
      <trkpt lat="49.41627" lon="1.18239">
        <ele>97</ele>
        <time>2017-05-09T17:03:00Z</time>
      </trkpt>
      <trkpt lat="49.41628" lon="1.18231">
        <ele>97</ele>
        <time>2017-05-09T17:03:00Z</time>
      </trkpt>
      <trkpt lat="49.41626" lon="1.18223">
        <ele>97</ele>
        <time>2017-05-09T17:03:00Z</time>
      </trkpt>
      <trkpt lat="49.41627" lon="1.18215">
        <ele>97</ele>
        <time>2017-05-09T17:03:00Z</time>
      </trkpt>
      <trkpt lat="49.41627" lon="1.18214">
        <ele>97</ele>
        <time>2017-05-09T17:03:00Z</time>
      </trkpt>
      <trkpt lat="49.41527" lon="1.18228">
        <ele>125</ele>
        <time>2017-05-09T17:04:08Z</time>
      </trkpt>
      <trkpt lat="49.41524" lon="1.18224">
        <ele>125</ele>
        <time>2017-05-09T17:04:08Z</time>
      </trkpt>
      <trkpt lat="49.41524" lon="1.18216">
        <ele>125</ele>
        <time>2017-05-09T17:04:08Z</time>
      </trkpt>
      <trkpt lat="49.41526" lon="1.18212">
        <ele>125</ele>
        <time>2017-05-09T17:04:08Z</time>
      </trkpt>
      <trkpt lat="49.41527" lon="1.18206">
        <ele>133</ele>
        <time>2017-05-09T17:04:08Z</time>
      </trkpt>
      <trkpt lat="49.41531" lon="1.18199">
        <ele>133</ele>
        <time>2017-05-09T17:04:24Z</time>
      </trkpt>
      <trkpt lat="49.41529" lon="1.18196">
        <ele>133</ele>
        <time>2017-05-09T17:04:24Z</time>
      </trkpt>
      <trkpt lat="49.41525" lon="1.18192">
        <ele>133</ele>
        <time>2017-05-09T17:04:24Z</time>
      </trkpt>
      <trkpt lat="49.41521" lon="1.18187">
        <ele>133</ele>
        <time>2017-05-09T17:04:24Z</time>
      </trkpt>
      <trkpt lat="49.41514" lon="1.18189">
        <ele>133</ele>
        <time>2017-05-09T17:04:40Z</time>
      </trkpt>
      <trkpt lat="49.4151" lon="1.18184">
        <ele>133</ele>
        <time>2017-05-09T17:04:40Z</time>
      </trkpt>
      <trkpt lat="49.41507" lon="1.18181">
        <ele>133</ele>
        <time>2017-05-09T17:04:40Z</time>
      </trkpt>
      <trkpt lat="49.41502" lon="1.18184">
        <ele>133</ele>
        <time>2017-05-09T17:04:40Z</time>
      </trkpt>
      <trkpt lat="49.41497" lon="1.18189">
        <ele>133</ele>
        <time>2017-05-09T17:04:56Z</time>
      </trkpt>
      <trkpt lat="49.41493" lon="1.18189">
        <ele>133</ele>
        <time>2017-05-09T17:04:56Z</time>
      </trkpt>
      <trkpt lat="49.41489" lon="1.18189">
        <ele>133</ele>
        <time>2017-05-09T17:04:56Z</time>
      </trkpt>
      <trkpt lat="49.41486" lon="1.18189">
        <ele>133</ele>
        <time>2017-05-09T17:04:56Z</time>
      </trkpt>
      <trkpt lat="49.41483" lon="1.18192">
        <ele>133</ele>
        <time>2017-05-09T17:05:12Z</time>
      </trkpt>
      <trkpt lat="49.4148" lon="1.18198">
        <ele>133</ele>
        <time>2017-05-09T17:05:12Z</time>
      </trkpt>
      <trkpt lat="49.41477" lon="1.18199">
        <ele>133</ele>
        <time>2017-05-09T17:05:12Z</time>
      </trkpt>
      <trkpt lat="49.41474" lon="1.18196">
        <ele>133</ele>
        <time>2017-05-09T17:05:12Z</time>
      </trkpt>
      <trkpt lat="49.41471" lon="1.18187">
        <ele>133</ele>
        <time>2017-05-09T17:05:28Z</time>
      </trkpt>
      <trkpt lat="49.41466" lon="1.18183">
        <ele>133</ele>
        <time>2017-05-09T17:05:28Z</time>
      </trkpt>
      <trkpt lat="49.41463" lon="1.18187">
        <ele>133</ele>
        <time>2017-05-09T17:05:28Z</time>
      </trkpt>
      <trkpt lat="49.41461" lon="1.18189">
        <ele>133</ele>
        <time>2017-05-09T17:05:28Z</time>
      </trkpt>
      <trkpt lat="49.41474" lon="1.18141">
        <ele>133</ele>
        <time>2017-05-09T17:06:12Z</time>
      </trkpt>
      <trkpt lat="49.41475" lon="1.18137">
        <ele>133</ele>
        <time>2017-05-09T17:06:12Z</time>
      </trkpt>
      <trkpt lat="49.41473" lon="1.18131">
        <ele>133</ele>
        <time>2017-05-09T17:06:12Z</time>
      </trkpt>
      <trkpt lat="49.41475" lon="1.18116">
        <ele>140</ele>
        <time>2017-05-09T17:06:12Z</time>
      </trkpt>
      <trkpt lat="49.41471" lon="1.18114">
        <ele>140</ele>
        <time>2017-05-09T17:06:12Z</time>
      </trkpt>
      <trkpt lat="49.41467" lon="1.18113">
        <ele>140</ele>
        <time>2017-05-09T17:06:29Z</time>
      </trkpt>
      <trkpt lat="49.41464" lon="1.18104">
        <ele>140</ele>
        <time>2017-05-09T17:06:29Z</time>
      </trkpt>
      <trkpt lat="49.41463" lon="1.18094">
        <ele>140</ele>
        <time>2017-05-09T17:06:29Z</time>
      </trkpt>
      <trkpt lat="49.41465" lon="1.18088">
        <ele>140</ele>
        <time>2017-05-09T17:06:29Z</time>
      </trkpt>
      <trkpt lat="49.41467" lon="1.18078">
        <ele>140</ele>
        <time>2017-05-09T17:06:52Z</time>
      </trkpt>
      <trkpt lat="49.41465" lon="1.18078">
        <ele>140</ele>
        <time>2017-05-09T17:06:52Z</time>
      </trkpt>
      <trkpt lat="49.41462" lon="1.18078">
        <ele>140</ele>
        <time>2017-05-09T17:06:52Z</time>
      </trkpt>
      <trkpt lat="49.41459" lon="1.18077">
        <ele>140</ele>
        <time>2017-05-09T17:06:52Z</time>
      </trkpt>
      <trkpt lat="49.41456" lon="1.18082">
        <ele>140</ele>
        <time>2017-05-09T17:06:52Z</time>
      </trkpt>
      <trkpt lat="49.41452" lon="1.18084">
        <ele>140</ele>
        <time>2017-05-09T17:07:12Z</time>
      </trkpt>
      <trkpt lat="49.41448" lon="1.18085">
        <ele>140</ele>
        <time>2017-05-09T17:07:12Z</time>
      </trkpt>
      <trkpt lat="49.41438" lon="1.18078">
        <ele>140</ele>
        <time>2017-05-09T17:07:12Z</time>
      </trkpt>
      <trkpt lat="49.4143" lon="1.18085">
        <ele>140</ele>
        <time>2017-05-09T17:07:12Z</time>
      </trkpt>
      <trkpt lat="49.41436" lon="1.18097">
        <ele>140</ele>
        <time>2017-05-09T17:07:28Z</time>
      </trkpt>
      <trkpt lat="49.41445" lon="1.18099">
        <ele>140</ele>
        <time>2017-05-09T17:07:28Z</time>
      </trkpt>
      <trkpt lat="49.41451" lon="1.18091">
        <ele>140</ele>
        <time>2017-05-09T17:07:28Z</time>
      </trkpt>
      <trkpt lat="49.41448" lon="1.1808">
        <ele>140</ele>
        <time>2017-05-09T17:07:28Z</time>
      </trkpt>
      <trkpt lat="49.41442" lon="1.18072">
        <ele>140</ele>
        <time>2017-05-09T17:07:44Z</time>
      </trkpt>
      <trkpt lat="49.41432" lon="1.18072">
        <ele>140</ele>
        <time>2017-05-09T17:07:44Z</time>
      </trkpt>
      <trkpt lat="49.41425" lon="1.18072">
        <ele>140</ele>
        <time>2017-05-09T17:07:44Z</time>
      </trkpt>
      <trkpt lat="49.4142" lon="1.18075">
        <ele>140</ele>
        <time>2017-05-09T17:07:44Z</time>
      </trkpt>
      <trkpt lat="49.41417" lon="1.18074">
        <ele>140</ele>
        <time>2017-05-09T17:08:00Z</time>
      </trkpt>
      <trkpt lat="49.41413" lon="1.18072">
        <ele>140</ele>
        <time>2017-05-09T17:08:00Z</time>
      </trkpt>
      <trkpt lat="49.41408" lon="1.18078">
        <ele>140</ele>
        <time>2017-05-09T17:08:00Z</time>
      </trkpt>
      <trkpt lat="49.41403" lon="1.18081">
        <ele>140</ele>
        <time>2017-05-09T17:08:00Z</time>
      </trkpt>
      <trkpt lat="49.414" lon="1.18087">
        <ele>140</ele>
        <time>2017-05-09T17:08:16Z</time>
      </trkpt>
      <trkpt lat="49.41399" lon="1.18093">
        <ele>140</ele>
        <time>2017-05-09T17:08:16Z</time>
      </trkpt>
      <trkpt lat="49.41394" lon="1.18086">
        <ele>140</ele>
        <time>2017-05-09T17:08:16Z</time>
      </trkpt>
      <trkpt lat="49.4139" lon="1.18077">
        <ele>140</ele>
        <time>2017-05-09T17:08:16Z</time>
      </trkpt>
      <trkpt lat="49.41385" lon="1.18065">
        <ele>140</ele>
        <time>2017-05-09T17:10:36Z</time>
      </trkpt>
      <trkpt lat="49.4138" lon="1.18062">
        <ele>140</ele>
        <time>2017-05-09T17:10:36Z</time>
      </trkpt>
      <trkpt lat="49.41378" lon="1.18071">
        <ele>140</ele>
        <time>2017-05-09T17:10:36Z</time>
      </trkpt>
      <trkpt lat="49.41376" lon="1.18079">
        <ele>140</ele>
        <time>2017-05-09T17:10:36Z</time>
      </trkpt>
      <trkpt lat="49.41371" lon="1.18071">
        <ele>139</ele>
        <time>2017-05-09T17:10:36Z</time>
      </trkpt>
      <trkpt lat="49.41365" lon="1.18062">
        <ele>139</ele>
        <time>2017-05-09T17:10:52Z</time>
      </trkpt>
      <trkpt lat="49.41364" lon="1.18051">
        <ele>139</ele>
        <time>2017-05-09T17:10:52Z</time>
      </trkpt>
      <trkpt lat="49.41363" lon="1.18044">
        <ele>139</ele>
        <time>2017-05-09T17:10:52Z</time>
      </trkpt>
      <trkpt lat="49.41361" lon="1.18037">
        <ele>139</ele>
        <time>2017-05-09T17:10:52Z</time>
      </trkpt>
      <trkpt lat="49.41356" lon="1.18033">
        <ele>139</ele>
        <time>2017-05-09T17:11:08Z</time>
      </trkpt>
      <trkpt lat="49.41349" lon="1.18033">
        <ele>139</ele>
        <time>2017-05-09T17:11:08Z</time>
      </trkpt>
      <trkpt lat="49.41344" lon="1.18029">
        <ele>139</ele>
        <time>2017-05-09T17:11:08Z</time>
      </trkpt>
      <trkpt lat="49.41338" lon="1.18027">
        <ele>139</ele>
        <time>2017-05-09T17:11:08Z</time>
      </trkpt>
      <trkpt lat="49.41332" lon="1.18026">
        <ele>139</ele>
        <time>2017-05-09T17:11:24Z</time>
      </trkpt>
      <trkpt lat="49.41326" lon="1.1803">
        <ele>139</ele>
        <time>2017-05-09T17:11:24Z</time>
      </trkpt>
      <trkpt lat="49.41322" lon="1.18024">
        <ele>139</ele>
        <time>2017-05-09T17:11:24Z</time>
      </trkpt>
      <trkpt lat="49.41321" lon="1.18017">
        <ele>139</ele>
        <time>2017-05-09T17:11:24Z</time>
      </trkpt>
      <trkpt lat="49.41318" lon="1.18013">
        <ele>139</ele>
        <time>2017-05-09T17:11:40Z</time>
      </trkpt>
      <trkpt lat="49.41314" lon="1.18009">
        <ele>139</ele>
        <time>2017-05-09T17:11:40Z</time>
      </trkpt>
      <trkpt lat="49.4131" lon="1.18006">
        <ele>139</ele>
        <time>2017-05-09T17:11:40Z</time>
      </trkpt>
      <trkpt lat="49.41306" lon="1.18005">
        <ele>139</ele>
        <time>2017-05-09T17:11:40Z</time>
      </trkpt>
      <trkpt lat="49.41302" lon="1.18">
        <ele>139</ele>
        <time>2017-05-09T17:11:56Z</time>
      </trkpt>
      <trkpt lat="49.41303" lon="1.17986">
        <ele>139</ele>
        <time>2017-05-09T17:11:56Z</time>
      </trkpt>
      <trkpt lat="49.41308" lon="1.17975">
        <ele>139</ele>
        <time>2017-05-09T17:11:56Z</time>
      </trkpt>
      <trkpt lat="49.41307" lon="1.17965">
        <ele>139</ele>
        <time>2017-05-09T17:11:56Z</time>
      </trkpt>
      <trkpt lat="49.41301" lon="1.17958">
        <ele>141</ele>
        <time>2017-05-09T17:12:12Z</time>
      </trkpt>
      <trkpt lat="49.41294" lon="1.17955">
        <ele>141</ele>
        <time>2017-05-09T17:12:12Z</time>
      </trkpt>
      <trkpt lat="49.41288" lon="1.17956">
        <ele>142</ele>
        <time>2017-05-09T17:12:12Z</time>
      </trkpt>
      <trkpt lat="49.41281" lon="1.17955">
        <ele>142</ele>
        <time>2017-05-09T17:12:12Z</time>
      </trkpt>
      <trkpt lat="49.41278" lon="1.17946">
        <ele>142</ele>
        <time>2017-05-09T17:12:28Z</time>
      </trkpt>
      <trkpt lat="49.41279" lon="1.17938">
        <ele>142</ele>
        <time>2017-05-09T17:12:28Z</time>
      </trkpt>
      <trkpt lat="49.4128" lon="1.17934">
        <ele>142</ele>
        <time>2017-05-09T17:12:28Z</time>
      </trkpt>
      <trkpt lat="49.41274" lon="1.17928">
        <ele>142</ele>
        <time>2017-05-09T17:12:28Z</time>
      </trkpt>
      <trkpt lat="49.41262" lon="1.17928">
        <ele>142</ele>
        <time>2017-05-09T17:12:44Z</time>
      </trkpt>
      <trkpt lat="49.41254" lon="1.17928">
        <ele>142</ele>
        <time>2017-05-09T17:12:44Z</time>
      </trkpt>
      <trkpt lat="49.4125" lon="1.17921">
        <ele>142</ele>
        <time>2017-05-09T17:12:44Z</time>
      </trkpt>
      <trkpt lat="49.41247" lon="1.17915">
        <ele>142</ele>
        <time>2017-05-09T17:12:44Z</time>
      </trkpt>
      <trkpt lat="49.41243" lon="1.17911">
        <ele>142</ele>
        <time>2017-05-09T17:13:00Z</time>
      </trkpt>
      <trkpt lat="49.41238" lon="1.17906">
        <ele>142</ele>
        <time>2017-05-09T17:13:00Z</time>
      </trkpt>
      <trkpt lat="49.41233" lon="1.17902">
        <ele>142</ele>
        <time>2017-05-09T17:13:00Z</time>
      </trkpt>
      <trkpt lat="49.41229" lon="1.17896">
        <ele>142</ele>
        <time>2017-05-09T17:13:00Z</time>
      </trkpt>
      <trkpt lat="49.41227" lon="1.17892">
        <ele>142</ele>
        <time>2017-05-09T17:13:16Z</time>
      </trkpt>
      <trkpt lat="49.41221" lon="1.17892">
        <ele>142</ele>
        <time>2017-05-09T17:13:16Z</time>
      </trkpt>
      <trkpt lat="49.41216" lon="1.17895">
        <ele>142</ele>
        <time>2017-05-09T17:13:16Z</time>
      </trkpt>
      <trkpt lat="49.41212" lon="1.17891">
        <ele>142</ele>
        <time>2017-05-09T17:13:16Z</time>
      </trkpt>
      <trkpt lat="49.41211" lon="1.17879">
        <ele>142</ele>
        <time>2017-05-09T17:13:32Z</time>
      </trkpt>
      <trkpt lat="49.4121" lon="1.1787">
        <ele>143</ele>
        <time>2017-05-09T17:13:32Z</time>
      </trkpt>
      <trkpt lat="49.41205" lon="1.17869">
        <ele>144</ele>
        <time>2017-05-09T17:13:32Z</time>
      </trkpt>
      <trkpt lat="49.412" lon="1.17867">
        <ele>144</ele>
        <time>2017-05-09T17:13:32Z</time>
      </trkpt>
      <trkpt lat="49.41195" lon="1.1787">
        <ele>144</ele>
        <time>2017-05-09T17:13:48Z</time>
      </trkpt>
      <trkpt lat="49.41194" lon="1.17857">
        <ele>144</ele>
        <time>2017-05-09T17:13:48Z</time>
      </trkpt>
      <trkpt lat="49.41195" lon="1.17845">
        <ele>144</ele>
        <time>2017-05-09T17:13:48Z</time>
      </trkpt>
      <trkpt lat="49.41192" lon="1.17839">
        <ele>144</ele>
        <time>2017-05-09T17:13:48Z</time>
      </trkpt>
      <trkpt lat="49.41186" lon="1.17837">
        <ele>144</ele>
        <time>2017-05-09T17:14:04Z</time>
      </trkpt>
      <trkpt lat="49.41182" lon="1.1783">
        <ele>144</ele>
        <time>2017-05-09T17:14:04Z</time>
      </trkpt>
      <trkpt lat="49.41177" lon="1.17823">
        <ele>144</ele>
        <time>2017-05-09T17:14:04Z</time>
      </trkpt>
      <trkpt lat="49.41172" lon="1.17824">
        <ele>144</ele>
        <time>2017-05-09T17:14:04Z</time>
      </trkpt>
      <trkpt lat="49.41167" lon="1.17824">
        <ele>144</ele>
        <time>2017-05-09T17:14:20Z</time>
      </trkpt>
      <trkpt lat="49.41164" lon="1.17815">
        <ele>144</ele>
        <time>2017-05-09T17:14:20Z</time>
      </trkpt>
      <trkpt lat="49.41161" lon="1.17808">
        <ele>144</ele>
        <time>2017-05-09T17:14:20Z</time>
      </trkpt>
      <trkpt lat="49.41159" lon="1.17801">
        <ele>144</ele>
        <time>2017-05-09T17:14:20Z</time>
      </trkpt>
      <trkpt lat="49.41155" lon="1.17796">
        <ele>144</ele>
        <time>2017-05-09T17:14:36Z</time>
      </trkpt>
      <trkpt lat="49.41152" lon="1.1779">
        <ele>145</ele>
        <time>2017-05-09T17:14:36Z</time>
      </trkpt>
      <trkpt lat="49.41148" lon="1.17784">
        <ele>145</ele>
        <time>2017-05-09T17:14:36Z</time>
      </trkpt>
      <trkpt lat="49.41144" lon="1.1778">
        <ele>145</ele>
        <time>2017-05-09T17:14:36Z</time>
      </trkpt>
      <trkpt lat="49.41142" lon="1.17775">
        <ele>145</ele>
        <time>2017-05-09T17:14:52Z</time>
      </trkpt>
      <trkpt lat="49.41137" lon="1.17774">
        <ele>145</ele>
        <time>2017-05-09T17:14:52Z</time>
      </trkpt>
      <trkpt lat="49.41132" lon="1.1777">
        <ele>145</ele>
        <time>2017-05-09T17:14:52Z</time>
      </trkpt>
      <trkpt lat="49.4113" lon="1.17761">
        <ele>145</ele>
        <time>2017-05-09T17:14:52Z</time>
      </trkpt>
      <trkpt lat="49.41128" lon="1.17754">
        <ele>145</ele>
        <time>2017-05-09T17:15:08Z</time>
      </trkpt>
      <trkpt lat="49.41122" lon="1.1775">
        <ele>148</ele>
        <time>2017-05-09T17:15:08Z</time>
      </trkpt>
      <trkpt lat="49.4112" lon="1.17742">
        <ele>148</ele>
        <time>2017-05-09T17:15:08Z</time>
      </trkpt>
      <trkpt lat="49.41117" lon="1.17737">
        <ele>148</ele>
        <time>2017-05-09T17:15:08Z</time>
      </trkpt>
      <trkpt lat="49.41112" lon="1.17731">
        <ele>148</ele>
        <time>2017-05-09T17:15:24Z</time>
      </trkpt>
      <trkpt lat="49.41109" lon="1.17725">
        <ele>148</ele>
        <time>2017-05-09T17:15:24Z</time>
      </trkpt>
      <trkpt lat="49.41105" lon="1.17719">
        <ele>148</ele>
        <time>2017-05-09T17:15:24Z</time>
      </trkpt>
      <trkpt lat="49.41102" lon="1.17711">
        <ele>148</ele>
        <time>2017-05-09T17:15:24Z</time>
      </trkpt>
      <trkpt lat="49.41099" lon="1.17704">
        <ele>148</ele>
        <time>2017-05-09T17:15:40Z</time>
      </trkpt>
      <trkpt lat="49.41097" lon="1.17698">
        <ele>148</ele>
        <time>2017-05-09T17:15:40Z</time>
      </trkpt>
      <trkpt lat="49.41094" lon="1.17692">
        <ele>148</ele>
        <time>2017-05-09T17:15:40Z</time>
      </trkpt>
      <trkpt lat="49.4109" lon="1.17688">
        <ele>148</ele>
        <time>2017-05-09T17:15:40Z</time>
      </trkpt>
      <trkpt lat="49.41087" lon="1.17684">
        <ele>148</ele>
        <time>2017-05-09T17:15:56Z</time>
      </trkpt>
      <trkpt lat="49.41085" lon="1.17677">
        <ele>148</ele>
        <time>2017-05-09T17:15:56Z</time>
      </trkpt>
      <trkpt lat="49.41085" lon="1.17667">
        <ele>148</ele>
        <time>2017-05-09T17:15:56Z</time>
      </trkpt>
      <trkpt lat="49.41084" lon="1.17659">
        <ele>148</ele>
        <time>2017-05-09T17:15:56Z</time>
      </trkpt>
      <trkpt lat="49.4108" lon="1.17655">
        <ele>148</ele>
        <time>2017-05-09T17:16:12Z</time>
      </trkpt>
      <trkpt lat="49.41076" lon="1.1765">
        <ele>148</ele>
        <time>2017-05-09T17:16:12Z</time>
      </trkpt>
      <trkpt lat="49.41073" lon="1.17642">
        <ele>148</ele>
        <time>2017-05-09T17:16:12Z</time>
      </trkpt>
      <trkpt lat="49.41072" lon="1.17632">
        <ele>148</ele>
        <time>2017-05-09T17:16:12Z</time>
      </trkpt>
      <trkpt lat="49.4107" lon="1.17625">
        <ele>148</ele>
        <time>2017-05-09T17:16:28Z</time>
      </trkpt>
      <trkpt lat="49.41068" lon="1.17618">
        <ele>149</ele>
        <time>2017-05-09T17:16:28Z</time>
      </trkpt>
      <trkpt lat="49.41065" lon="1.17614">
        <ele>149</ele>
        <time>2017-05-09T17:16:28Z</time>
      </trkpt>
      <trkpt lat="49.41061" lon="1.17612">
        <ele>149</ele>
        <time>2017-05-09T17:16:28Z</time>
      </trkpt>
      <trkpt lat="49.41058" lon="1.17607">
        <ele>149</ele>
        <time>2017-05-09T17:16:44Z</time>
      </trkpt>
      <trkpt lat="49.41055" lon="1.17601">
        <ele>149</ele>
        <time>2017-05-09T17:16:44Z</time>
      </trkpt>
      <trkpt lat="49.41051" lon="1.17597">
        <ele>149</ele>
        <time>2017-05-09T17:16:44Z</time>
      </trkpt>
      <trkpt lat="49.41046" lon="1.17592">
        <ele>149</ele>
        <time>2017-05-09T17:16:44Z</time>
      </trkpt>
      <trkpt lat="49.41041" lon="1.17583">
        <ele>153</ele>
        <time>2017-05-09T17:17:00Z</time>
      </trkpt>
      <trkpt lat="49.41038" lon="1.17577">
        <ele>153</ele>
        <time>2017-05-09T17:17:00Z</time>
      </trkpt>
      <trkpt lat="49.41035" lon="1.17569">
        <ele>153</ele>
        <time>2017-05-09T17:17:00Z</time>
      </trkpt>
      <trkpt lat="49.41035" lon="1.17559">
        <ele>153</ele>
        <time>2017-05-09T17:17:00Z</time>
      </trkpt>
      <trkpt lat="49.41032" lon="1.17551">
        <ele>153</ele>
        <time>2017-05-09T17:17:16Z</time>
      </trkpt>
      <trkpt lat="49.41026" lon="1.17547">
        <ele>153</ele>
        <time>2017-05-09T17:17:16Z</time>
      </trkpt>
      <trkpt lat="49.41019" lon="1.17549">
        <ele>153</ele>
        <time>2017-05-09T17:17:16Z</time>
      </trkpt>
      <trkpt lat="49.41015" lon="1.17543">
        <ele>153</ele>
        <time>2017-05-09T17:17:16Z</time>
      </trkpt>
      <trkpt lat="49.41013" lon="1.17536">
        <ele>154</ele>
        <time>2017-05-09T17:17:32Z</time>
      </trkpt>
      <trkpt lat="49.41011" lon="1.17531">
        <ele>154</ele>
        <time>2017-05-09T17:17:32Z</time>
      </trkpt>
      <trkpt lat="49.41005" lon="1.17533">
        <ele>154</ele>
        <time>2017-05-09T17:17:32Z</time>
      </trkpt>
      <trkpt lat="49.41001" lon="1.17531">
        <ele>154</ele>
        <time>2017-05-09T17:17:32Z</time>
      </trkpt>
      <trkpt lat="49.40999" lon="1.17528">
        <ele>154</ele>
        <time>2017-05-09T17:17:48Z</time>
      </trkpt>
      <trkpt lat="49.40996" lon="1.17522">
        <ele>154</ele>
        <time>2017-05-09T17:17:48Z</time>
      </trkpt>
      <trkpt lat="49.40991" lon="1.1752">
        <ele>154</ele>
        <time>2017-05-09T17:17:48Z</time>
      </trkpt>
      <trkpt lat="49.40988" lon="1.17513">
        <ele>154</ele>
        <time>2017-05-09T17:17:48Z</time>
      </trkpt>
      <trkpt lat="49.40983" lon="1.17507">
        <ele>154</ele>
        <time>2017-05-09T17:18:04Z</time>
      </trkpt>
      <trkpt lat="49.40977" lon="1.17504">
        <ele>154</ele>
        <time>2017-05-09T17:18:04Z</time>
      </trkpt>
      <trkpt lat="49.40972" lon="1.175">
        <ele>154</ele>
        <time>2017-05-09T17:18:04Z</time>
      </trkpt>
      <trkpt lat="49.40968" lon="1.175">
        <ele>154</ele>
        <time>2017-05-09T17:18:04Z</time>
      </trkpt>
      <trkpt lat="49.40964" lon="1.17496">
        <ele>154</ele>
        <time>2017-05-09T17:18:20Z</time>
      </trkpt>
      <trkpt lat="49.40963" lon="1.17487">
        <ele>154</ele>
        <time>2017-05-09T17:18:20Z</time>
      </trkpt>
      <trkpt lat="49.40959" lon="1.17481">
        <ele>154</ele>
        <time>2017-05-09T17:18:20Z</time>
      </trkpt>
      <trkpt lat="49.40954" lon="1.17476">
        <ele>157</ele>
        <time>2017-05-09T17:18:20Z</time>
      </trkpt>
      <trkpt lat="49.40949" lon="1.17472">
        <ele>157</ele>
        <time>2017-05-09T17:18:36Z</time>
      </trkpt>
      <trkpt lat="49.40947" lon="1.17466">
        <ele>157</ele>
        <time>2017-05-09T17:18:36Z</time>
      </trkpt>
      <trkpt lat="49.40945" lon="1.1746">
        <ele>157</ele>
        <time>2017-05-09T17:18:36Z</time>
      </trkpt>
      <trkpt lat="49.40941" lon="1.17455">
        <ele>158</ele>
        <time>2017-05-09T17:18:36Z</time>
      </trkpt>
      <trkpt lat="49.40938" lon="1.17449">
        <ele>158</ele>
        <time>2017-05-09T17:18:52Z</time>
      </trkpt>
      <trkpt lat="49.40933" lon="1.17447">
        <ele>158</ele>
        <time>2017-05-09T17:18:52Z</time>
      </trkpt>
      <trkpt lat="49.40929" lon="1.17443">
        <ele>158</ele>
        <time>2017-05-09T17:18:52Z</time>
      </trkpt>
      <trkpt lat="49.40926" lon="1.1744">
        <ele>158</ele>
        <time>2017-05-09T17:18:52Z</time>
      </trkpt>
      <trkpt lat="49.40922" lon="1.17436">
        <ele>158</ele>
        <time>2017-05-09T17:19:08Z</time>
      </trkpt>
      <trkpt lat="49.40917" lon="1.17432">
        <ele>158</ele>
        <time>2017-05-09T17:19:08Z</time>
      </trkpt>
      <trkpt lat="49.40916" lon="1.17425">
        <ele>158</ele>
        <time>2017-05-09T17:19:08Z</time>
      </trkpt>
      <trkpt lat="49.40914" lon="1.1742">
        <ele>158</ele>
        <time>2017-05-09T17:19:08Z</time>
      </trkpt>
      <trkpt lat="49.4091" lon="1.17416">
        <ele>158</ele>
        <time>2017-05-09T17:19:24Z</time>
      </trkpt>
      <trkpt lat="49.4091" lon="1.17408">
        <ele>158</ele>
        <time>2017-05-09T17:19:24Z</time>
      </trkpt>
      <trkpt lat="49.40911" lon="1.17401">
        <ele>158</ele>
        <time>2017-05-09T17:19:24Z</time>
      </trkpt>
      <trkpt lat="49.40905" lon="1.17397">
        <ele>158</ele>
        <time>2017-05-09T17:19:24Z</time>
      </trkpt>
      <trkpt lat="49.40899" lon="1.17395">
        <ele>158</ele>
        <time>2017-05-09T17:19:40Z</time>
      </trkpt>
      <trkpt lat="49.40897" lon="1.17387">
        <ele>158</ele>
        <time>2017-05-09T17:19:40Z</time>
      </trkpt>
      <trkpt lat="49.40896" lon="1.17379">
        <ele>158</ele>
        <time>2017-05-09T17:19:40Z</time>
      </trkpt>
      <trkpt lat="49.40896" lon="1.17373">
        <ele>158</ele>
        <time>2017-05-09T17:19:40Z</time>
      </trkpt>
      <trkpt lat="49.40896" lon="1.17366">
        <ele>158</ele>
        <time>2017-05-09T17:19:56Z</time>
      </trkpt>
      <trkpt lat="49.40891" lon="1.1736">
        <ele>158</ele>
        <time>2017-05-09T17:19:56Z</time>
      </trkpt>
      <trkpt lat="49.40887" lon="1.17354">
        <ele>158</ele>
        <time>2017-05-09T17:19:56Z</time>
      </trkpt>
      <trkpt lat="49.40886" lon="1.17347">
        <ele>158</ele>
        <time>2017-05-09T17:19:56Z</time>
      </trkpt>
      <trkpt lat="49.40884" lon="1.17341">
        <ele>158</ele>
        <time>2017-05-09T17:20:12Z</time>
      </trkpt>
      <trkpt lat="49.40873" lon="1.17342">
        <ele>159</ele>
        <time>2017-05-09T17:20:12Z</time>
      </trkpt>
      <trkpt lat="49.40871" lon="1.17333">
        <ele>159</ele>
        <time>2017-05-09T17:20:12Z</time>
      </trkpt>
      <trkpt lat="49.40871" lon="1.17321">
        <ele>159</ele>
        <time>2017-05-09T17:20:12Z</time>
      </trkpt>
      <trkpt lat="49.40874" lon="1.17309">
        <ele>159</ele>
        <time>2017-05-09T17:20:28Z</time>
      </trkpt>
      <trkpt lat="49.40874" lon="1.173">
        <ele>159</ele>
        <time>2017-05-09T17:20:28Z</time>
      </trkpt>
      <trkpt lat="49.4087" lon="1.17295">
        <ele>159</ele>
        <time>2017-05-09T17:20:28Z</time>
      </trkpt>
      <trkpt lat="49.40865" lon="1.17293">
        <ele>159</ele>
        <time>2017-05-09T17:20:28Z</time>
      </trkpt>
      <trkpt lat="49.4086" lon="1.17292">
        <ele>159</ele>
        <time>2017-05-09T17:20:44Z</time>
      </trkpt>
      <trkpt lat="49.40858" lon="1.17285">
        <ele>159</ele>
        <time>2017-05-09T17:20:44Z</time>
      </trkpt>
      <trkpt lat="49.40857" lon="1.17274">
        <ele>159</ele>
        <time>2017-05-09T17:20:44Z</time>
      </trkpt>
      <trkpt lat="49.4085" lon="1.17274">
        <ele>159</ele>
        <time>2017-05-09T17:20:44Z</time>
      </trkpt>
      <trkpt lat="49.40845" lon="1.17273">
        <ele>159</ele>
        <time>2017-05-09T17:21:00Z</time>
      </trkpt>
      <trkpt lat="49.4084" lon="1.17273">
        <ele>159</ele>
        <time>2017-05-09T17:21:00Z</time>
      </trkpt>
      <trkpt lat="49.40834" lon="1.17273">
        <ele>159</ele>
        <time>2017-05-09T17:21:00Z</time>
      </trkpt>
      <trkpt lat="49.4083" lon="1.17268">
        <ele>159</ele>
        <time>2017-05-09T17:21:00Z</time>
      </trkpt>
      <trkpt lat="49.4082" lon="1.17264">
        <ele>159</ele>
        <time>2017-05-09T17:21:48Z</time>
      </trkpt>
      <trkpt lat="49.4082" lon="1.17264">
        <ele>159</ele>
        <time>2017-05-09T17:21:48Z</time>
      </trkpt>
      <trkpt lat="49.4082" lon="1.17265">
        <ele>159</ele>
        <time>2017-05-09T17:21:48Z</time>
      </trkpt>
      <trkpt lat="49.40816" lon="1.17265">
        <ele>159</ele>
        <time>2017-05-09T17:21:48Z</time>
      </trkpt>
      <trkpt lat="49.40813" lon="1.17263">
        <ele>159</ele>
        <time>2017-05-09T17:21:48Z</time>
      </trkpt>
      <trkpt lat="49.40813" lon="1.17261">
        <ele>159</ele>
        <time>2017-05-09T17:22:20Z</time>
      </trkpt>
      <trkpt lat="49.40813" lon="1.17259">
        <ele>159</ele>
        <time>2017-05-09T17:22:20Z</time>
      </trkpt>
      <trkpt lat="49.40809" lon="1.1726">
        <ele>159</ele>
        <time>2017-05-09T17:22:20Z</time>
      </trkpt>
      <trkpt lat="49.40808" lon="1.17255">
        <ele>159</ele>
        <time>2017-05-09T17:22:20Z</time>
      </trkpt>
      <trkpt lat="49.40804" lon="1.17238">
        <ele>159</ele>
        <time>2017-05-09T17:22:20Z</time>
      </trkpt>
      <trkpt lat="49.40803" lon="1.1723">
        <ele>159</ele>
        <time>2017-05-09T17:22:36Z</time>
      </trkpt>
      <trkpt lat="49.408" lon="1.17229">
        <ele>159</ele>
        <time>2017-05-09T17:22:36Z</time>
      </trkpt>
      <trkpt lat="49.40793" lon="1.17234">
        <ele>159</ele>
        <time>2017-05-09T17:22:36Z</time>
      </trkpt>
      <trkpt lat="49.40787" lon="1.17241">
        <ele>158</ele>
        <time>2017-05-09T17:22:36Z</time>
      </trkpt>
      <trkpt lat="49.40782" lon="1.1724">
        <ele>158</ele>
        <time>2017-05-09T17:22:52Z</time>
      </trkpt>
      <trkpt lat="49.40778" lon="1.17234">
        <ele>158</ele>
        <time>2017-05-09T17:22:52Z</time>
      </trkpt>
      <trkpt lat="49.40774" lon="1.17229">
        <ele>158</ele>
        <time>2017-05-09T17:22:52Z</time>
      </trkpt>
      <trkpt lat="49.40771" lon="1.17219">
        <ele>158</ele>
        <time>2017-05-09T17:22:52Z</time>
      </trkpt>
      <trkpt lat="49.40766" lon="1.17216">
        <ele>158</ele>
        <time>2017-05-09T17:23:08Z</time>
      </trkpt>
      <trkpt lat="49.40762" lon="1.17219">
        <ele>158</ele>
        <time>2017-05-09T17:23:08Z</time>
      </trkpt>
      <trkpt lat="49.4076" lon="1.17223">
        <ele>158</ele>
        <time>2017-05-09T17:23:08Z</time>
      </trkpt>
      <trkpt lat="49.40757" lon="1.17228">
        <ele>158</ele>
        <time>2017-05-09T17:23:08Z</time>
      </trkpt>
      <trkpt lat="49.40753" lon="1.1723">
        <ele>158</ele>
        <time>2017-05-09T17:23:24Z</time>
      </trkpt>
      <trkpt lat="49.40749" lon="1.17235">
        <ele>158</ele>
        <time>2017-05-09T17:23:24Z</time>
      </trkpt>
      <trkpt lat="49.40747" lon="1.17241">
        <ele>158</ele>
        <time>2017-05-09T17:23:24Z</time>
      </trkpt>
      <trkpt lat="49.40744" lon="1.17245">
        <ele>158</ele>
        <time>2017-05-09T17:23:24Z</time>
      </trkpt>
      <trkpt lat="49.40742" lon="1.17251">
        <ele>158</ele>
        <time>2017-05-09T17:23:40Z</time>
      </trkpt>
      <trkpt lat="49.40742" lon="1.17257">
        <ele>158</ele>
        <time>2017-05-09T17:23:40Z</time>
      </trkpt>
      <trkpt lat="49.40743" lon="1.17264">
        <ele>158</ele>
        <time>2017-05-09T17:23:40Z</time>
      </trkpt>
      <trkpt lat="49.40744" lon="1.17271">
        <ele>158</ele>
        <time>2017-05-09T17:23:40Z</time>
      </trkpt>
      <trkpt lat="49.40742" lon="1.17277">
        <ele>158</ele>
        <time>2017-05-09T17:23:56Z</time>
      </trkpt>
      <trkpt lat="49.40739" lon="1.17282">
        <ele>158</ele>
        <time>2017-05-09T17:23:56Z</time>
      </trkpt>
      <trkpt lat="49.40731" lon="1.1728">
        <ele>158</ele>
        <time>2017-05-09T17:23:56Z</time>
      </trkpt>
      <trkpt lat="49.40725" lon="1.17279">
        <ele>158</ele>
        <time>2017-05-09T17:23:56Z</time>
      </trkpt>
      <trkpt lat="49.40721" lon="1.17285">
        <ele>158</ele>
        <time>2017-05-09T17:24:12Z</time>
      </trkpt>
      <trkpt lat="49.40716" lon="1.17282">
        <ele>158</ele>
        <time>2017-05-09T17:24:12Z</time>
      </trkpt>
      <trkpt lat="49.40712" lon="1.17277">
        <ele>158</ele>
        <time>2017-05-09T17:24:12Z</time>
      </trkpt>
      <trkpt lat="49.40708" lon="1.17274">
        <ele>158</ele>
        <time>2017-05-09T17:24:12Z</time>
      </trkpt>
      <trkpt lat="49.40705" lon="1.17278">
        <ele>158</ele>
        <time>2017-05-09T17:24:28Z</time>
      </trkpt>
      <trkpt lat="49.40701" lon="1.17277">
        <ele>158</ele>
        <time>2017-05-09T17:24:28Z</time>
      </trkpt>
      <trkpt lat="49.40699" lon="1.17271">
        <ele>158</ele>
        <time>2017-05-09T17:24:28Z</time>
      </trkpt>
      <trkpt lat="49.40696" lon="1.17265">
        <ele>158</ele>
        <time>2017-05-09T17:24:28Z</time>
      </trkpt>
      <trkpt lat="49.40692" lon="1.17264">
        <ele>158</ele>
        <time>2017-05-09T17:24:44Z</time>
      </trkpt>
      <trkpt lat="49.40687" lon="1.17266">
        <ele>158</ele>
        <time>2017-05-09T17:24:44Z</time>
      </trkpt>
      <trkpt lat="49.40684" lon="1.17263">
        <ele>158</ele>
        <time>2017-05-09T17:24:44Z</time>
      </trkpt>
      <trkpt lat="49.40679" lon="1.17264">
        <ele>158</ele>
        <time>2017-05-09T17:24:44Z</time>
      </trkpt>
      <trkpt lat="49.40674" lon="1.17265">
        <ele>158</ele>
        <time>2017-05-09T17:25:00Z</time>
      </trkpt>
      <trkpt lat="49.4067" lon="1.1726">
        <ele>158</ele>
        <time>2017-05-09T17:25:00Z</time>
      </trkpt>
      <trkpt lat="49.40665" lon="1.1726">
        <ele>158</ele>
        <time>2017-05-09T17:25:00Z</time>
      </trkpt>
      <trkpt lat="49.4066" lon="1.17258">
        <ele>158</ele>
        <time>2017-05-09T17:25:00Z</time>
      </trkpt>
      <trkpt lat="49.40655" lon="1.17256">
        <ele>158</ele>
        <time>2017-05-09T17:25:16Z</time>
      </trkpt>
      <trkpt lat="49.40651" lon="1.17255">
        <ele>158</ele>
        <time>2017-05-09T17:25:16Z</time>
      </trkpt>
      <trkpt lat="49.40647" lon="1.17258">
        <ele>158</ele>
        <time>2017-05-09T17:25:16Z</time>
      </trkpt>
      <trkpt lat="49.40643" lon="1.17256">
        <ele>158</ele>
        <time>2017-05-09T17:25:16Z</time>
      </trkpt>
      <trkpt lat="49.40639" lon="1.17255">
        <ele>158</ele>
        <time>2017-05-09T17:25:32Z</time>
      </trkpt>
      <trkpt lat="49.40635" lon="1.17259">
        <ele>158</ele>
        <time>2017-05-09T17:25:32Z</time>
      </trkpt>
      <trkpt lat="49.40631" lon="1.17261">
        <ele>158</ele>
        <time>2017-05-09T17:25:32Z</time>
      </trkpt>
      <trkpt lat="49.40627" lon="1.17265">
        <ele>158</ele>
        <time>2017-05-09T17:25:32Z</time>
      </trkpt>
      <trkpt lat="49.40623" lon="1.17269">
        <ele>157</ele>
        <time>2017-05-09T17:25:48Z</time>
      </trkpt>
      <trkpt lat="49.40617" lon="1.17265">
        <ele>157</ele>
        <time>2017-05-09T17:25:48Z</time>
      </trkpt>
      <trkpt lat="49.40614" lon="1.17269">
        <ele>157</ele>
        <time>2017-05-09T17:25:48Z</time>
      </trkpt>
      <trkpt lat="49.40608" lon="1.17268">
        <ele>157</ele>
        <time>2017-05-09T17:25:48Z</time>
      </trkpt>
      <trkpt lat="49.40601" lon="1.17266">
        <ele>157</ele>
        <time>2017-05-09T17:26:04Z</time>
      </trkpt>
      <trkpt lat="49.40596" lon="1.17267">
        <ele>157</ele>
        <time>2017-05-09T17:26:04Z</time>
      </trkpt>
      <trkpt lat="49.40593" lon="1.17273">
        <ele>157</ele>
        <time>2017-05-09T17:26:04Z</time>
      </trkpt>
      <trkpt lat="49.4059" lon="1.17266">
        <ele>157</ele>
        <time>2017-05-09T17:26:04Z</time>
      </trkpt>
      <trkpt lat="49.40588" lon="1.17259">
        <ele>157</ele>
        <time>2017-05-09T17:26:20Z</time>
      </trkpt>
      <trkpt lat="49.40582" lon="1.17253">
        <ele>157</ele>
        <time>2017-05-09T17:26:20Z</time>
      </trkpt>
      <trkpt lat="49.40576" lon="1.17252">
        <ele>157</ele>
        <time>2017-05-09T17:26:20Z</time>
      </trkpt>
      <trkpt lat="49.40571" lon="1.17253">
        <ele>157</ele>
        <time>2017-05-09T17:26:20Z</time>
      </trkpt>
      <trkpt lat="49.40568" lon="1.17254">
        <ele>157</ele>
        <time>2017-05-09T17:26:36Z</time>
      </trkpt>
      <trkpt lat="49.40565" lon="1.17258">
        <ele>157</ele>
        <time>2017-05-09T17:26:36Z</time>
      </trkpt>
      <trkpt lat="49.4056" lon="1.17259">
        <ele>157</ele>
        <time>2017-05-09T17:26:36Z</time>
      </trkpt>
      <trkpt lat="49.40557" lon="1.17261">
        <ele>157</ele>
        <time>2017-05-09T17:26:36Z</time>
      </trkpt>
      <trkpt lat="49.40554" lon="1.17263">
        <ele>157</ele>
        <time>2017-05-09T17:26:52Z</time>
      </trkpt>
      <trkpt lat="49.40551" lon="1.17266">
        <ele>157</ele>
        <time>2017-05-09T17:26:52Z</time>
      </trkpt>
      <trkpt lat="49.40546" lon="1.17266">
        <ele>157</ele>
        <time>2017-05-09T17:26:52Z</time>
      </trkpt>
      <trkpt lat="49.40542" lon="1.17264">
        <ele>156</ele>
        <time>2017-05-09T17:26:52Z</time>
      </trkpt>
      <trkpt lat="49.40536" lon="1.17264">
        <ele>156</ele>
        <time>2017-05-09T17:27:08Z</time>
      </trkpt>
      <trkpt lat="49.40531" lon="1.17268">
        <ele>156</ele>
        <time>2017-05-09T17:27:08Z</time>
      </trkpt>
      <trkpt lat="49.40527" lon="1.17267">
        <ele>156</ele>
        <time>2017-05-09T17:27:08Z</time>
      </trkpt>
      <trkpt lat="49.40523" lon="1.1727">
        <ele>156</ele>
        <time>2017-05-09T17:27:08Z</time>
      </trkpt>
      <trkpt lat="49.40519" lon="1.17274">
        <ele>156</ele>
        <time>2017-05-09T17:27:24Z</time>
      </trkpt>
      <trkpt lat="49.40515" lon="1.17276">
        <ele>156</ele>
        <time>2017-05-09T17:27:24Z</time>
      </trkpt>
      <trkpt lat="49.40512" lon="1.17282">
        <ele>156</ele>
        <time>2017-05-09T17:27:24Z</time>
      </trkpt>
      <trkpt lat="49.40508" lon="1.17289">
        <ele>156</ele>
        <time>2017-05-09T17:27:24Z</time>
      </trkpt>
      <trkpt lat="49.40506" lon="1.17296">
        <ele>156</ele>
        <time>2017-05-09T17:27:40Z</time>
      </trkpt>
      <trkpt lat="49.40502" lon="1.17301">
        <ele>156</ele>
        <time>2017-05-09T17:27:40Z</time>
      </trkpt>
      <trkpt lat="49.40499" lon="1.17306">
        <ele>156</ele>
        <time>2017-05-09T17:27:40Z</time>
      </trkpt>
      <trkpt lat="49.40496" lon="1.17312">
        <ele>156</ele>
        <time>2017-05-09T17:27:40Z</time>
      </trkpt>
      <trkpt lat="49.40492" lon="1.17316">
        <ele>156</ele>
        <time>2017-05-09T17:27:56Z</time>
      </trkpt>
      <trkpt lat="49.40487" lon="1.17322">
        <ele>156</ele>
        <time>2017-05-09T17:27:56Z</time>
      </trkpt>
      <trkpt lat="49.40485" lon="1.17325">
        <ele>156</ele>
        <time>2017-05-09T17:27:56Z</time>
      </trkpt>
      <trkpt lat="49.40481" lon="1.17328">
        <ele>156</ele>
        <time>2017-05-09T17:27:56Z</time>
      </trkpt>
      <trkpt lat="49.40476" lon="1.1733">
        <ele>156</ele>
        <time>2017-05-09T17:28:12Z</time>
      </trkpt>
      <trkpt lat="49.4047" lon="1.17328">
        <ele>156</ele>
        <time>2017-05-09T17:28:12Z</time>
      </trkpt>
      <trkpt lat="49.40464" lon="1.17324">
        <ele>156</ele>
        <time>2017-05-09T17:28:12Z</time>
      </trkpt>
      <trkpt lat="49.40459" lon="1.17322">
        <ele>156</ele>
        <time>2017-05-09T17:28:12Z</time>
      </trkpt>
      <trkpt lat="49.40456" lon="1.17314">
        <ele>153</ele>
        <time>2017-05-09T17:28:28Z</time>
      </trkpt>
      <trkpt lat="49.40455" lon="1.17303">
        <ele>153</ele>
        <time>2017-05-09T17:28:28Z</time>
      </trkpt>
      <trkpt lat="49.4045" lon="1.17299">
        <ele>153</ele>
        <time>2017-05-09T17:28:28Z</time>
      </trkpt>
      <trkpt lat="49.40446" lon="1.17297">
        <ele>153</ele>
        <time>2017-05-09T17:28:28Z</time>
      </trkpt>
      <trkpt lat="49.4044" lon="1.17304">
        <ele>153</ele>
        <time>2017-05-09T17:28:44Z</time>
      </trkpt>
      <trkpt lat="49.40435" lon="1.17309">
        <ele>153</ele>
        <time>2017-05-09T17:28:44Z</time>
      </trkpt>
      <trkpt lat="49.4043" lon="1.17303">
        <ele>153</ele>
        <time>2017-05-09T17:28:44Z</time>
      </trkpt>
      <trkpt lat="49.40428" lon="1.17292">
        <ele>153</ele>
        <time>2017-05-09T17:28:44Z</time>
      </trkpt>
      <trkpt lat="49.40423" lon="1.17287">
        <ele>153</ele>
        <time>2017-05-09T17:29:00Z</time>
      </trkpt>
      <trkpt lat="49.40417" lon="1.1729">
        <ele>153</ele>
        <time>2017-05-09T17:29:00Z</time>
      </trkpt>
      <trkpt lat="49.40414" lon="1.1728">
        <ele>153</ele>
        <time>2017-05-09T17:29:00Z</time>
      </trkpt>
      <trkpt lat="49.40414" lon="1.17269">
        <ele>153</ele>
        <time>2017-05-09T17:29:00Z</time>
      </trkpt>
      <trkpt lat="49.4041" lon="1.17264">
        <ele>153</ele>
        <time>2017-05-09T17:29:16Z</time>
      </trkpt>
      <trkpt lat="49.40407" lon="1.17257">
        <ele>153</ele>
        <time>2017-05-09T17:29:16Z</time>
      </trkpt>
      <trkpt lat="49.40402" lon="1.17257">
        <ele>153</ele>
        <time>2017-05-09T17:29:16Z</time>
      </trkpt>
      <trkpt lat="49.40396" lon="1.17259">
        <ele>153</ele>
        <time>2017-05-09T17:29:16Z</time>
      </trkpt>
      <trkpt lat="49.40393" lon="1.17259">
        <ele>153</ele>
        <time>2017-05-09T17:29:32Z</time>
      </trkpt>
      <trkpt lat="49.40388" lon="1.17257">
        <ele>153</ele>
        <time>2017-05-09T17:29:32Z</time>
      </trkpt>
      <trkpt lat="49.40382" lon="1.17258">
        <ele>153</ele>
        <time>2017-05-09T17:29:32Z</time>
      </trkpt>
      <trkpt lat="49.40378" lon="1.17252">
        <ele>153</ele>
        <time>2017-05-09T17:29:32Z</time>
      </trkpt>
      <trkpt lat="49.40374" lon="1.17242">
        <ele>151</ele>
        <time>2017-05-09T17:29:48Z</time>
      </trkpt>
      <trkpt lat="49.40369" lon="1.17237">
        <ele>151</ele>
        <time>2017-05-09T17:29:48Z</time>
      </trkpt>
      <trkpt lat="49.40363" lon="1.17239">
        <ele>151</ele>
        <time>2017-05-09T17:29:48Z</time>
      </trkpt>
      <trkpt lat="49.40357" lon="1.17243">
        <ele>151</ele>
        <time>2017-05-09T17:29:48Z</time>
      </trkpt>
      <trkpt lat="49.40351" lon="1.17238">
        <ele>151</ele>
        <time>2017-05-09T17:30:04Z</time>
      </trkpt>
      <trkpt lat="49.40345" lon="1.17241">
        <ele>151</ele>
        <time>2017-05-09T17:30:04Z</time>
      </trkpt>
      <trkpt lat="49.4034" lon="1.1724">
        <ele>151</ele>
        <time>2017-05-09T17:30:04Z</time>
      </trkpt>
      <trkpt lat="49.40335" lon="1.1724">
        <ele>151</ele>
        <time>2017-05-09T17:30:04Z</time>
      </trkpt>
      <trkpt lat="49.4033" lon="1.17238">
        <ele>151</ele>
        <time>2017-05-09T17:30:20Z</time>
      </trkpt>
      <trkpt lat="49.40326" lon="1.1724">
        <ele>151</ele>
        <time>2017-05-09T17:30:20Z</time>
      </trkpt>
      <trkpt lat="49.40323" lon="1.17242">
        <ele>151</ele>
        <time>2017-05-09T17:30:20Z</time>
      </trkpt>
      <trkpt lat="49.4032" lon="1.17239">
        <ele>151</ele>
        <time>2017-05-09T17:30:20Z</time>
      </trkpt>
    </trkseg>
  </trk>
</gpx>